<?xml version="1.0" encoding="UTF-8" standalone="no" ?>
<gpx xmlns="http://www.topografix.com/GPX/1/1" xmlns:xsi="http://www.w3.org/2001/XMLSchema-instance" xsi:schemaLocation="http://www.topografix.com/GPX/1/1 http://www.topografix.com/GPX/1/1/gpx.xsd" version="1.1" creator="VisuGPX - https://www.visugpx.com">
  <metadata>
    <name>Cascade de la Roche</name>
  </metadata>
  <trk>
    <name><![CDATA[Sortie Hières sur Amby]]></name>
    <trkseg>
      <trkpt lat="45.79863" lon="5.30087">
        <ele>216.3</ele>
        <time>2015-11-15T07:30:09Z</time>
      </trkpt>
      <trkpt lat="45.79866" lon="5.30086">
        <ele>216.1</ele>
        <time>2015-11-15T07:32:10Z</time>
      </trkpt>
      <trkpt lat="45.79881" lon="5.3008">
        <ele>216.1</ele>
        <time>2015-11-15T07:32:12Z</time>
      </trkpt>
      <trkpt lat="45.79886" lon="5.30078">
        <ele>216.1</ele>
        <time>2015-11-15T07:36:24Z</time>
      </trkpt>
      <trkpt lat="45.79889" lon="5.30071">
        <ele>216.1</ele>
        <time>2015-11-15T07:36:26Z</time>
      </trkpt>
      <trkpt lat="45.79888" lon="5.30066">
        <ele>216</ele>
        <time>2015-11-15T07:36:28Z</time>
      </trkpt>
      <trkpt lat="45.79887" lon="5.3006">
        <ele>216</ele>
        <time>2015-11-15T07:36:30Z</time>
      </trkpt>
      <trkpt lat="45.79886" lon="5.30053">
        <ele>216</ele>
        <time>2015-11-15T07:36:32Z</time>
      </trkpt>
      <trkpt lat="45.79886" lon="5.30047">
        <ele>216</ele>
        <time>2015-11-15T07:36:34Z</time>
      </trkpt>
      <trkpt lat="45.79884" lon="5.30041">
        <ele>216</ele>
        <time>2015-11-15T07:36:36Z</time>
      </trkpt>
      <trkpt lat="45.79884" lon="5.30034">
        <ele>216</ele>
        <time>2015-11-15T07:36:38Z</time>
      </trkpt>
      <trkpt lat="45.79884" lon="5.30026">
        <ele>216</ele>
        <time>2015-11-15T07:36:40Z</time>
      </trkpt>
      <trkpt lat="45.79885" lon="5.30018">
        <ele>216</ele>
        <time>2015-11-15T07:36:42Z</time>
      </trkpt>
      <trkpt lat="45.79887" lon="5.3001">
        <ele>216</ele>
        <time>2015-11-15T07:36:44Z</time>
      </trkpt>
      <trkpt lat="45.79888" lon="5.30002">
        <ele>216</ele>
        <time>2015-11-15T07:36:46Z</time>
      </trkpt>
      <trkpt lat="45.7989" lon="5.29993">
        <ele>216.2</ele>
        <time>2015-11-15T07:36:48Z</time>
      </trkpt>
      <trkpt lat="45.79892" lon="5.29984">
        <ele>216.3</ele>
        <time>2015-11-15T07:36:50Z</time>
      </trkpt>
      <trkpt lat="45.79894" lon="5.29974">
        <ele>216.4</ele>
        <time>2015-11-15T07:36:52Z</time>
      </trkpt>
      <trkpt lat="45.79895" lon="5.29964">
        <ele>216.5</ele>
        <time>2015-11-15T07:36:54Z</time>
      </trkpt>
      <trkpt lat="45.79895" lon="5.29953">
        <ele>216.6</ele>
        <time>2015-11-15T07:36:56Z</time>
      </trkpt>
      <trkpt lat="45.79896" lon="5.29942">
        <ele>216.6</ele>
        <time>2015-11-15T07:36:58Z</time>
      </trkpt>
      <trkpt lat="45.79896" lon="5.29931">
        <ele>216.7</ele>
        <time>2015-11-15T07:37:00Z</time>
      </trkpt>
      <trkpt lat="45.79895" lon="5.2992">
        <ele>216.8</ele>
        <time>2015-11-15T07:37:02Z</time>
      </trkpt>
      <trkpt lat="45.79894" lon="5.29908">
        <ele>216.9</ele>
        <time>2015-11-15T07:37:04Z</time>
      </trkpt>
      <trkpt lat="45.79891" lon="5.29895">
        <ele>217.1</ele>
        <time>2015-11-15T07:37:06Z</time>
      </trkpt>
      <trkpt lat="45.79889" lon="5.29882">
        <ele>217.2</ele>
        <time>2015-11-15T07:37:08Z</time>
      </trkpt>
      <trkpt lat="45.79886" lon="5.29869">
        <ele>217.3</ele>
        <time>2015-11-15T07:37:10Z</time>
      </trkpt>
      <trkpt lat="45.79883" lon="5.29856">
        <ele>217.4</ele>
        <time>2015-11-15T07:37:12Z</time>
      </trkpt>
      <trkpt lat="45.7988" lon="5.29843">
        <ele>217.5</ele>
        <time>2015-11-15T07:37:14Z</time>
      </trkpt>
      <trkpt lat="45.79877" lon="5.2983">
        <ele>217.6</ele>
        <time>2015-11-15T07:37:16Z</time>
      </trkpt>
      <trkpt lat="45.79873" lon="5.29817">
        <ele>217.7</ele>
        <time>2015-11-15T07:37:18Z</time>
      </trkpt>
      <trkpt lat="45.7987" lon="5.29805">
        <ele>217.9</ele>
        <time>2015-11-15T07:37:20Z</time>
      </trkpt>
      <trkpt lat="45.79866" lon="5.29792">
        <ele>218</ele>
        <time>2015-11-15T07:37:22Z</time>
      </trkpt>
      <trkpt lat="45.79863" lon="5.29781">
        <ele>217.7</ele>
        <time>2015-11-15T07:37:24Z</time>
      </trkpt>
      <trkpt lat="45.79859" lon="5.29769">
        <ele>217.4</ele>
        <time>2015-11-15T07:37:26Z</time>
      </trkpt>
      <trkpt lat="45.79856" lon="5.29758">
        <ele>217</ele>
        <time>2015-11-15T07:37:28Z</time>
      </trkpt>
      <trkpt lat="45.79852" lon="5.29747">
        <ele>216.7</ele>
        <time>2015-11-15T07:37:30Z</time>
      </trkpt>
      <trkpt lat="45.79848" lon="5.29736">
        <ele>216.4</ele>
        <time>2015-11-15T07:37:32Z</time>
      </trkpt>
      <trkpt lat="45.79844" lon="5.29724">
        <ele>216.1</ele>
        <time>2015-11-15T07:37:34Z</time>
      </trkpt>
      <trkpt lat="45.79839" lon="5.29712">
        <ele>216.1</ele>
        <time>2015-11-15T07:37:36Z</time>
      </trkpt>
      <trkpt lat="45.79834" lon="5.29701">
        <ele>216.2</ele>
        <time>2015-11-15T07:37:38Z</time>
      </trkpt>
      <trkpt lat="45.79829" lon="5.2969">
        <ele>216.3</ele>
        <time>2015-11-15T07:37:40Z</time>
      </trkpt>
      <trkpt lat="45.79824" lon="5.29679">
        <ele>216.4</ele>
        <time>2015-11-15T07:37:42Z</time>
      </trkpt>
      <trkpt lat="45.79818" lon="5.29668">
        <ele>216.5</ele>
        <time>2015-11-15T07:37:44Z</time>
      </trkpt>
      <trkpt lat="45.79813" lon="5.29657">
        <ele>216.5</ele>
        <time>2015-11-15T07:37:46Z</time>
      </trkpt>
      <trkpt lat="45.79808" lon="5.29646">
        <ele>216.6</ele>
        <time>2015-11-15T07:37:48Z</time>
      </trkpt>
      <trkpt lat="45.79803" lon="5.29635">
        <ele>216.7</ele>
        <time>2015-11-15T07:37:50Z</time>
      </trkpt>
      <trkpt lat="45.79799" lon="5.29624">
        <ele>216.8</ele>
        <time>2015-11-15T07:37:52Z</time>
      </trkpt>
      <trkpt lat="45.79794" lon="5.29614">
        <ele>216.8</ele>
        <time>2015-11-15T07:37:54Z</time>
      </trkpt>
      <trkpt lat="45.79791" lon="5.29602">
        <ele>216.9</ele>
        <time>2015-11-15T07:37:56Z</time>
      </trkpt>
      <trkpt lat="45.79786" lon="5.29592">
        <ele>217</ele>
        <time>2015-11-15T07:37:58Z</time>
      </trkpt>
      <trkpt lat="45.79783" lon="5.29581">
        <ele>217</ele>
        <time>2015-11-15T07:38:00Z</time>
      </trkpt>
      <trkpt lat="45.79778" lon="5.29572">
        <ele>217</ele>
        <time>2015-11-15T07:38:02Z</time>
      </trkpt>
      <trkpt lat="45.79771" lon="5.2957">
        <ele>217</ele>
        <time>2015-11-15T07:38:04Z</time>
      </trkpt>
      <trkpt lat="45.79764" lon="5.29566">
        <ele>217</ele>
        <time>2015-11-15T07:38:06Z</time>
      </trkpt>
      <trkpt lat="45.79757" lon="5.29564">
        <ele>217</ele>
        <time>2015-11-15T07:38:08Z</time>
      </trkpt>
      <trkpt lat="45.7975" lon="5.29565">
        <ele>217.5</ele>
        <time>2015-11-15T07:38:10Z</time>
      </trkpt>
      <trkpt lat="45.79744" lon="5.29566">
        <ele>218.1</ele>
        <time>2015-11-15T07:38:12Z</time>
      </trkpt>
      <trkpt lat="45.79741" lon="5.29564">
        <ele>218.3</ele>
        <time>2015-11-15T07:38:14Z</time>
      </trkpt>
      <trkpt lat="45.79741" lon="5.29557">
        <ele>218.6</ele>
        <time>2015-11-15T07:38:16Z</time>
      </trkpt>
      <trkpt lat="45.79741" lon="5.29548">
        <ele>218.9</ele>
        <time>2015-11-15T07:38:18Z</time>
      </trkpt>
      <trkpt lat="45.7974" lon="5.29538">
        <ele>218.9</ele>
        <time>2015-11-15T07:38:20Z</time>
      </trkpt>
      <trkpt lat="45.79739" lon="5.29528">
        <ele>219</ele>
        <time>2015-11-15T07:38:22Z</time>
      </trkpt>
      <trkpt lat="45.79736" lon="5.29524">
        <ele>219</ele>
        <time>2015-11-15T07:38:24Z</time>
      </trkpt>
      <trkpt lat="45.7973" lon="5.29526">
        <ele>219.1</ele>
        <time>2015-11-15T07:38:26Z</time>
      </trkpt>
      <trkpt lat="45.79723" lon="5.29531">
        <ele>219.2</ele>
        <time>2015-11-15T07:38:28Z</time>
      </trkpt>
      <trkpt lat="45.79715" lon="5.29537">
        <ele>219.2</ele>
        <time>2015-11-15T07:38:30Z</time>
      </trkpt>
      <trkpt lat="45.79707" lon="5.29542">
        <ele>219.3</ele>
        <time>2015-11-15T07:38:32Z</time>
      </trkpt>
      <trkpt lat="45.79699" lon="5.29548">
        <ele>219.3</ele>
        <time>2015-11-15T07:38:34Z</time>
      </trkpt>
      <trkpt lat="45.79691" lon="5.29554">
        <ele>219.4</ele>
        <time>2015-11-15T07:38:36Z</time>
      </trkpt>
      <trkpt lat="45.79682" lon="5.29558">
        <ele>219.5</ele>
        <time>2015-11-15T07:38:38Z</time>
      </trkpt>
      <trkpt lat="45.79674" lon="5.29562">
        <ele>219.6</ele>
        <time>2015-11-15T07:38:40Z</time>
      </trkpt>
      <trkpt lat="45.79666" lon="5.29566">
        <ele>219.7</ele>
        <time>2015-11-15T07:38:42Z</time>
      </trkpt>
      <trkpt lat="45.79658" lon="5.2957">
        <ele>219.8</ele>
        <time>2015-11-15T07:38:44Z</time>
      </trkpt>
      <trkpt lat="45.79651" lon="5.29575">
        <ele>219.9</ele>
        <time>2015-11-15T07:38:46Z</time>
      </trkpt>
      <trkpt lat="45.79646" lon="5.29584">
        <ele>220</ele>
        <time>2015-11-15T07:38:48Z</time>
      </trkpt>
      <trkpt lat="45.79641" lon="5.29594">
        <ele>220.1</ele>
        <time>2015-11-15T07:38:50Z</time>
      </trkpt>
      <trkpt lat="45.79637" lon="5.29603">
        <ele>220.2</ele>
        <time>2015-11-15T07:38:52Z</time>
      </trkpt>
      <trkpt lat="45.7963" lon="5.2961">
        <ele>220.3</ele>
        <time>2015-11-15T07:38:54Z</time>
      </trkpt>
      <trkpt lat="45.79623" lon="5.29616">
        <ele>220.4</ele>
        <time>2015-11-15T07:38:56Z</time>
      </trkpt>
      <trkpt lat="45.79617" lon="5.29623">
        <ele>220.4</ele>
        <time>2015-11-15T07:38:58Z</time>
      </trkpt>
      <trkpt lat="45.7961" lon="5.2963">
        <ele>220.5</ele>
        <time>2015-11-15T07:39:00Z</time>
      </trkpt>
      <trkpt lat="45.79603" lon="5.29636">
        <ele>220.6</ele>
        <time>2015-11-15T07:39:02Z</time>
      </trkpt>
      <trkpt lat="45.79596" lon="5.29642">
        <ele>220.7</ele>
        <time>2015-11-15T07:39:04Z</time>
      </trkpt>
      <trkpt lat="45.79588" lon="5.29649">
        <ele>220.7</ele>
        <time>2015-11-15T07:39:06Z</time>
      </trkpt>
      <trkpt lat="45.79581" lon="5.29655">
        <ele>220.8</ele>
        <time>2015-11-15T07:39:08Z</time>
      </trkpt>
      <trkpt lat="45.79573" lon="5.29661">
        <ele>221</ele>
        <time>2015-11-15T07:39:10Z</time>
      </trkpt>
      <trkpt lat="45.79567" lon="5.29668">
        <ele>221.2</ele>
        <time>2015-11-15T07:39:12Z</time>
      </trkpt>
      <trkpt lat="45.7956" lon="5.29675">
        <ele>221.3</ele>
        <time>2015-11-15T07:39:14Z</time>
      </trkpt>
      <trkpt lat="45.79553" lon="5.29682">
        <ele>221.5</ele>
        <time>2015-11-15T07:39:16Z</time>
      </trkpt>
      <trkpt lat="45.79546" lon="5.29688">
        <ele>221.7</ele>
        <time>2015-11-15T07:39:18Z</time>
      </trkpt>
      <trkpt lat="45.79539" lon="5.29695">
        <ele>221.8</ele>
        <time>2015-11-15T07:39:20Z</time>
      </trkpt>
      <trkpt lat="45.79533" lon="5.29703">
        <ele>222</ele>
        <time>2015-11-15T07:39:22Z</time>
      </trkpt>
      <trkpt lat="45.79527" lon="5.29709">
        <ele>222.1</ele>
        <time>2015-11-15T07:39:24Z</time>
      </trkpt>
      <trkpt lat="45.79522" lon="5.29715">
        <ele>222.3</ele>
        <time>2015-11-15T07:39:26Z</time>
      </trkpt>
      <trkpt lat="45.79516" lon="5.29721">
        <ele>222.5</ele>
        <time>2015-11-15T07:39:28Z</time>
      </trkpt>
      <trkpt lat="45.7951" lon="5.29727">
        <ele>222.8</ele>
        <time>2015-11-15T07:39:30Z</time>
      </trkpt>
      <trkpt lat="45.79504" lon="5.29732">
        <ele>223.1</ele>
        <time>2015-11-15T07:39:32Z</time>
      </trkpt>
      <trkpt lat="45.79497" lon="5.29735">
        <ele>223.4</ele>
        <time>2015-11-15T07:39:34Z</time>
      </trkpt>
      <trkpt lat="45.79491" lon="5.29735">
        <ele>223.8</ele>
        <time>2015-11-15T07:39:36Z</time>
      </trkpt>
      <trkpt lat="45.79483" lon="5.29733">
        <ele>224</ele>
        <time>2015-11-15T07:39:38Z</time>
      </trkpt>
      <trkpt lat="45.79476" lon="5.29731">
        <ele>224</ele>
        <time>2015-11-15T07:39:40Z</time>
      </trkpt>
      <trkpt lat="45.79468" lon="5.29728">
        <ele>223.9</ele>
        <time>2015-11-15T07:39:42Z</time>
      </trkpt>
      <trkpt lat="45.79461" lon="5.29724">
        <ele>223.9</ele>
        <time>2015-11-15T07:39:44Z</time>
      </trkpt>
      <trkpt lat="45.79454" lon="5.29719">
        <ele>223.8</ele>
        <time>2015-11-15T07:39:46Z</time>
      </trkpt>
      <trkpt lat="45.79446" lon="5.29714">
        <ele>223.8</ele>
        <time>2015-11-15T07:39:48Z</time>
      </trkpt>
      <trkpt lat="45.79439" lon="5.29709">
        <ele>223.8</ele>
        <time>2015-11-15T07:39:50Z</time>
      </trkpt>
      <trkpt lat="45.79432" lon="5.29703">
        <ele>223.8</ele>
        <time>2015-11-15T07:39:52Z</time>
      </trkpt>
      <trkpt lat="45.79425" lon="5.29698">
        <ele>223.7</ele>
        <time>2015-11-15T07:39:54Z</time>
      </trkpt>
      <trkpt lat="45.79418" lon="5.29692">
        <ele>223.7</ele>
        <time>2015-11-15T07:39:56Z</time>
      </trkpt>
      <trkpt lat="45.79411" lon="5.29685">
        <ele>223.7</ele>
        <time>2015-11-15T07:39:58Z</time>
      </trkpt>
      <trkpt lat="45.79405" lon="5.29677">
        <ele>223.7</ele>
        <time>2015-11-15T07:40:00Z</time>
      </trkpt>
      <trkpt lat="45.79398" lon="5.29669">
        <ele>223.7</ele>
        <time>2015-11-15T07:40:02Z</time>
      </trkpt>
      <trkpt lat="45.79393" lon="5.29662">
        <ele>223.7</ele>
        <time>2015-11-15T07:40:04Z</time>
      </trkpt>
      <trkpt lat="45.79386" lon="5.29654">
        <ele>223.7</ele>
        <time>2015-11-15T07:40:06Z</time>
      </trkpt>
      <trkpt lat="45.7938" lon="5.29648">
        <ele>223.6</ele>
        <time>2015-11-15T07:40:08Z</time>
      </trkpt>
      <trkpt lat="45.79373" lon="5.29641">
        <ele>223.6</ele>
        <time>2015-11-15T07:40:10Z</time>
      </trkpt>
      <trkpt lat="45.79367" lon="5.29635">
        <ele>223.6</ele>
        <time>2015-11-15T07:40:12Z</time>
      </trkpt>
      <trkpt lat="45.79361" lon="5.29629">
        <ele>223.6</ele>
        <time>2015-11-15T07:40:14Z</time>
      </trkpt>
      <trkpt lat="45.79352" lon="5.29622">
        <ele>223.6</ele>
        <time>2015-11-15T07:40:16Z</time>
      </trkpt>
      <trkpt lat="45.79343" lon="5.29617">
        <ele>223.5</ele>
        <time>2015-11-15T07:40:18Z</time>
      </trkpt>
      <trkpt lat="45.79333" lon="5.29614">
        <ele>223.5</ele>
        <time>2015-11-15T07:40:20Z</time>
      </trkpt>
      <trkpt lat="45.79325" lon="5.29612">
        <ele>223.5</ele>
        <time>2015-11-15T07:40:22Z</time>
      </trkpt>
      <trkpt lat="45.79318" lon="5.2961">
        <ele>223.4</ele>
        <time>2015-11-15T07:40:24Z</time>
      </trkpt>
      <trkpt lat="45.7931" lon="5.29609">
        <ele>223.4</ele>
        <time>2015-11-15T07:40:26Z</time>
      </trkpt>
      <trkpt lat="45.79303" lon="5.29606">
        <ele>223.4</ele>
        <time>2015-11-15T07:40:28Z</time>
      </trkpt>
      <trkpt lat="45.79295" lon="5.29602">
        <ele>223.3</ele>
        <time>2015-11-15T07:40:30Z</time>
      </trkpt>
      <trkpt lat="45.79287" lon="5.29597">
        <ele>223.3</ele>
        <time>2015-11-15T07:40:32Z</time>
      </trkpt>
      <trkpt lat="45.79279" lon="5.29593">
        <ele>223.3</ele>
        <time>2015-11-15T07:40:34Z</time>
      </trkpt>
      <trkpt lat="45.79271" lon="5.29587">
        <ele>223.3</ele>
        <time>2015-11-15T07:40:36Z</time>
      </trkpt>
      <trkpt lat="45.79263" lon="5.29582">
        <ele>223.3</ele>
        <time>2015-11-15T07:40:38Z</time>
      </trkpt>
      <trkpt lat="45.79256" lon="5.29577">
        <ele>223.3</ele>
        <time>2015-11-15T07:40:40Z</time>
      </trkpt>
      <trkpt lat="45.79249" lon="5.29572">
        <ele>223.3</ele>
        <time>2015-11-15T07:40:42Z</time>
      </trkpt>
      <trkpt lat="45.79241" lon="5.29567">
        <ele>223.3</ele>
        <time>2015-11-15T07:40:44Z</time>
      </trkpt>
      <trkpt lat="45.79234" lon="5.29564">
        <ele>223.4</ele>
        <time>2015-11-15T07:40:46Z</time>
      </trkpt>
      <trkpt lat="45.79226" lon="5.29562">
        <ele>223.5</ele>
        <time>2015-11-15T07:40:48Z</time>
      </trkpt>
      <trkpt lat="45.79219" lon="5.2956">
        <ele>223.7</ele>
        <time>2015-11-15T07:40:50Z</time>
      </trkpt>
      <trkpt lat="45.79211" lon="5.29559">
        <ele>224</ele>
        <time>2015-11-15T07:40:52Z</time>
      </trkpt>
      <trkpt lat="45.79203" lon="5.29556">
        <ele>224.3</ele>
        <time>2015-11-15T07:40:54Z</time>
      </trkpt>
      <trkpt lat="45.79196" lon="5.29554">
        <ele>224.4</ele>
        <time>2015-11-15T07:40:56Z</time>
      </trkpt>
      <trkpt lat="45.79188" lon="5.2955">
        <ele>224.5</ele>
        <time>2015-11-15T07:40:58Z</time>
      </trkpt>
      <trkpt lat="45.79181" lon="5.29547">
        <ele>224.6</ele>
        <time>2015-11-15T07:41:00Z</time>
      </trkpt>
      <trkpt lat="45.79174" lon="5.29544">
        <ele>224.6</ele>
        <time>2015-11-15T07:41:02Z</time>
      </trkpt>
      <trkpt lat="45.79167" lon="5.29541">
        <ele>224.7</ele>
        <time>2015-11-15T07:41:04Z</time>
      </trkpt>
      <trkpt lat="45.7916" lon="5.29536">
        <ele>224.8</ele>
        <time>2015-11-15T07:41:06Z</time>
      </trkpt>
      <trkpt lat="45.79152" lon="5.29532">
        <ele>224.8</ele>
        <time>2015-11-15T07:41:08Z</time>
      </trkpt>
      <trkpt lat="45.79144" lon="5.29526">
        <ele>224.8</ele>
        <time>2015-11-15T07:41:10Z</time>
      </trkpt>
      <trkpt lat="45.79136" lon="5.29519">
        <ele>224.8</ele>
        <time>2015-11-15T07:41:12Z</time>
      </trkpt>
      <trkpt lat="45.79128" lon="5.29513">
        <ele>224.8</ele>
        <time>2015-11-15T07:41:14Z</time>
      </trkpt>
      <trkpt lat="45.79121" lon="5.29505">
        <ele>224.7</ele>
        <time>2015-11-15T07:41:16Z</time>
      </trkpt>
      <trkpt lat="45.79113" lon="5.29497">
        <ele>224.7</ele>
        <time>2015-11-15T07:41:18Z</time>
      </trkpt>
      <trkpt lat="45.79107" lon="5.29492">
        <ele>224.7</ele>
        <time>2015-11-15T07:41:20Z</time>
      </trkpt>
      <trkpt lat="45.79101" lon="5.29484">
        <ele>224.6</ele>
        <time>2015-11-15T07:41:22Z</time>
      </trkpt>
      <trkpt lat="45.79096" lon="5.29477">
        <ele>224.6</ele>
        <time>2015-11-15T07:41:24Z</time>
      </trkpt>
      <trkpt lat="45.79091" lon="5.29467">
        <ele>224.4</ele>
        <time>2015-11-15T07:41:26Z</time>
      </trkpt>
      <trkpt lat="45.79085" lon="5.29457">
        <ele>224.2</ele>
        <time>2015-11-15T07:41:28Z</time>
      </trkpt>
      <trkpt lat="45.79079" lon="5.29445">
        <ele>223.7</ele>
        <time>2015-11-15T07:41:30Z</time>
      </trkpt>
      <trkpt lat="45.79072" lon="5.29434">
        <ele>223</ele>
        <time>2015-11-15T07:41:32Z</time>
      </trkpt>
      <trkpt lat="45.79065" lon="5.29422">
        <ele>222.8</ele>
        <time>2015-11-15T07:41:34Z</time>
      </trkpt>
      <trkpt lat="45.79058" lon="5.29412">
        <ele>222.6</ele>
        <time>2015-11-15T07:41:36Z</time>
      </trkpt>
      <trkpt lat="45.79051" lon="5.29402">
        <ele>222.4</ele>
        <time>2015-11-15T07:41:38Z</time>
      </trkpt>
      <trkpt lat="45.79043" lon="5.29391">
        <ele>222.3</ele>
        <time>2015-11-15T07:41:40Z</time>
      </trkpt>
      <trkpt lat="45.79036" lon="5.29382">
        <ele>222.3</ele>
        <time>2015-11-15T07:41:42Z</time>
      </trkpt>
      <trkpt lat="45.79027" lon="5.29372">
        <ele>222.3</ele>
        <time>2015-11-15T07:41:44Z</time>
      </trkpt>
      <trkpt lat="45.79019" lon="5.29363">
        <ele>222.3</ele>
        <time>2015-11-15T07:41:46Z</time>
      </trkpt>
      <trkpt lat="45.79011" lon="5.29352">
        <ele>222.2</ele>
        <time>2015-11-15T07:41:48Z</time>
      </trkpt>
      <trkpt lat="45.79004" lon="5.29342">
        <ele>222.2</ele>
        <time>2015-11-15T07:41:50Z</time>
      </trkpt>
      <trkpt lat="45.78998" lon="5.29333">
        <ele>222.2</ele>
        <time>2015-11-15T07:41:52Z</time>
      </trkpt>
      <trkpt lat="45.78991" lon="5.29325">
        <ele>222.2</ele>
        <time>2015-11-15T07:41:54Z</time>
      </trkpt>
      <trkpt lat="45.78985" lon="5.29315">
        <ele>222.1</ele>
        <time>2015-11-15T07:41:56Z</time>
      </trkpt>
      <trkpt lat="45.78977" lon="5.29304">
        <ele>222.1</ele>
        <time>2015-11-15T07:41:58Z</time>
      </trkpt>
      <trkpt lat="45.78972" lon="5.29294">
        <ele>222.1</ele>
        <time>2015-11-15T07:42:00Z</time>
      </trkpt>
      <trkpt lat="45.78967" lon="5.29283">
        <ele>222</ele>
        <time>2015-11-15T07:42:02Z</time>
      </trkpt>
      <trkpt lat="45.7896" lon="5.29273">
        <ele>222</ele>
        <time>2015-11-15T07:42:04Z</time>
      </trkpt>
      <trkpt lat="45.78954" lon="5.29264">
        <ele>222</ele>
        <time>2015-11-15T07:42:06Z</time>
      </trkpt>
      <trkpt lat="45.78947" lon="5.29253">
        <ele>222</ele>
        <time>2015-11-15T07:42:08Z</time>
      </trkpt>
      <trkpt lat="45.7894" lon="5.29242">
        <ele>221.9</ele>
        <time>2015-11-15T07:42:10Z</time>
      </trkpt>
      <trkpt lat="45.78933" lon="5.29231">
        <ele>221.9</ele>
        <time>2015-11-15T07:42:12Z</time>
      </trkpt>
      <trkpt lat="45.78925" lon="5.2922">
        <ele>221.9</ele>
        <time>2015-11-15T07:42:14Z</time>
      </trkpt>
      <trkpt lat="45.78919" lon="5.29212">
        <ele>221.9</ele>
        <time>2015-11-15T07:42:16Z</time>
      </trkpt>
      <trkpt lat="45.78912" lon="5.29201">
        <ele>221.8</ele>
        <time>2015-11-15T07:42:18Z</time>
      </trkpt>
      <trkpt lat="45.78904" lon="5.2919">
        <ele>221.8</ele>
        <time>2015-11-15T07:42:20Z</time>
      </trkpt>
      <trkpt lat="45.78896" lon="5.29178">
        <ele>221.8</ele>
        <time>2015-11-15T07:42:22Z</time>
      </trkpt>
      <trkpt lat="45.78888" lon="5.29165">
        <ele>221.8</ele>
        <time>2015-11-15T07:42:24Z</time>
      </trkpt>
      <trkpt lat="45.7888" lon="5.29154">
        <ele>221.7</ele>
        <time>2015-11-15T07:42:26Z</time>
      </trkpt>
      <trkpt lat="45.78872" lon="5.29141">
        <ele>221.7</ele>
        <time>2015-11-15T07:42:28Z</time>
      </trkpt>
      <trkpt lat="45.78864" lon="5.2913">
        <ele>221.7</ele>
        <time>2015-11-15T07:42:30Z</time>
      </trkpt>
      <trkpt lat="45.78857" lon="5.2912">
        <ele>221.7</ele>
        <time>2015-11-15T07:42:32Z</time>
      </trkpt>
      <trkpt lat="45.7885" lon="5.29108">
        <ele>221.7</ele>
        <time>2015-11-15T07:42:34Z</time>
      </trkpt>
      <trkpt lat="45.78846" lon="5.291">
        <ele>221.7</ele>
        <time>2015-11-15T07:42:36Z</time>
      </trkpt>
      <trkpt lat="45.78841" lon="5.2909">
        <ele>221.7</ele>
        <time>2015-11-15T07:42:38Z</time>
      </trkpt>
      <trkpt lat="45.78835" lon="5.29079">
        <ele>221.7</ele>
        <time>2015-11-15T07:42:40Z</time>
      </trkpt>
      <trkpt lat="45.7883" lon="5.29068">
        <ele>221.6</ele>
        <time>2015-11-15T07:42:42Z</time>
      </trkpt>
      <trkpt lat="45.78824" lon="5.29059">
        <ele>221.7</ele>
        <time>2015-11-15T07:42:44Z</time>
      </trkpt>
      <trkpt lat="45.78817" lon="5.29046">
        <ele>221.7</ele>
        <time>2015-11-15T07:42:46Z</time>
      </trkpt>
      <trkpt lat="45.78812" lon="5.29032">
        <ele>221.7</ele>
        <time>2015-11-15T07:42:48Z</time>
      </trkpt>
      <trkpt lat="45.78806" lon="5.29019">
        <ele>221.8</ele>
        <time>2015-11-15T07:42:50Z</time>
      </trkpt>
      <trkpt lat="45.788" lon="5.29008">
        <ele>222.1</ele>
        <time>2015-11-15T07:42:52Z</time>
      </trkpt>
      <trkpt lat="45.78793" lon="5.28998">
        <ele>222.7</ele>
        <time>2015-11-15T07:42:54Z</time>
      </trkpt>
      <trkpt lat="45.78786" lon="5.2899">
        <ele>223.4</ele>
        <time>2015-11-15T07:42:56Z</time>
      </trkpt>
      <trkpt lat="45.7878" lon="5.28984">
        <ele>224</ele>
        <time>2015-11-15T07:42:58Z</time>
      </trkpt>
      <trkpt lat="45.78774" lon="5.28979">
        <ele>224.5</ele>
        <time>2015-11-15T07:43:00Z</time>
      </trkpt>
      <trkpt lat="45.78769" lon="5.28973">
        <ele>224.9</ele>
        <time>2015-11-15T07:43:02Z</time>
      </trkpt>
      <trkpt lat="45.78763" lon="5.28966">
        <ele>225.4</ele>
        <time>2015-11-15T07:43:04Z</time>
      </trkpt>
      <trkpt lat="45.78758" lon="5.28959">
        <ele>225.8</ele>
        <time>2015-11-15T07:43:06Z</time>
      </trkpt>
      <trkpt lat="45.78753" lon="5.28953">
        <ele>226.2</ele>
        <time>2015-11-15T07:43:08Z</time>
      </trkpt>
      <trkpt lat="45.78748" lon="5.28946">
        <ele>226.4</ele>
        <time>2015-11-15T07:43:10Z</time>
      </trkpt>
      <trkpt lat="45.78742" lon="5.28938">
        <ele>226.7</ele>
        <time>2015-11-15T07:43:12Z</time>
      </trkpt>
      <trkpt lat="45.78735" lon="5.2893">
        <ele>227.2</ele>
        <time>2015-11-15T07:43:14Z</time>
      </trkpt>
      <trkpt lat="45.78729" lon="5.28923">
        <ele>227.8</ele>
        <time>2015-11-15T07:43:16Z</time>
      </trkpt>
      <trkpt lat="45.78723" lon="5.28916">
        <ele>228.4</ele>
        <time>2015-11-15T07:43:18Z</time>
      </trkpt>
      <trkpt lat="45.78717" lon="5.28909">
        <ele>229.1</ele>
        <time>2015-11-15T07:43:20Z</time>
      </trkpt>
      <trkpt lat="45.78711" lon="5.28903">
        <ele>229.7</ele>
        <time>2015-11-15T07:43:22Z</time>
      </trkpt>
      <trkpt lat="45.78707" lon="5.28897">
        <ele>230.3</ele>
        <time>2015-11-15T07:43:24Z</time>
      </trkpt>
      <trkpt lat="45.78701" lon="5.28891">
        <ele>231</ele>
        <time>2015-11-15T07:43:26Z</time>
      </trkpt>
      <trkpt lat="45.78697" lon="5.28885">
        <ele>231.7</ele>
        <time>2015-11-15T07:43:28Z</time>
      </trkpt>
      <trkpt lat="45.78693" lon="5.2888">
        <ele>232.2</ele>
        <time>2015-11-15T07:43:30Z</time>
      </trkpt>
      <trkpt lat="45.7869" lon="5.28874">
        <ele>232.8</ele>
        <time>2015-11-15T07:43:32Z</time>
      </trkpt>
      <trkpt lat="45.78687" lon="5.28869">
        <ele>233.3</ele>
        <time>2015-11-15T07:43:34Z</time>
      </trkpt>
      <trkpt lat="45.78684" lon="5.28864">
        <ele>233.8</ele>
        <time>2015-11-15T07:43:36Z</time>
      </trkpt>
      <trkpt lat="45.7868" lon="5.2886">
        <ele>234.3</ele>
        <time>2015-11-15T07:43:38Z</time>
      </trkpt>
      <trkpt lat="45.78677" lon="5.28856">
        <ele>234.8</ele>
        <time>2015-11-15T07:43:40Z</time>
      </trkpt>
      <trkpt lat="45.78674" lon="5.28852">
        <ele>235.3</ele>
        <time>2015-11-15T07:43:42Z</time>
      </trkpt>
      <trkpt lat="45.7867" lon="5.28848">
        <ele>235.9</ele>
        <time>2015-11-15T07:43:44Z</time>
      </trkpt>
      <trkpt lat="45.78666" lon="5.28845">
        <ele>236.4</ele>
        <time>2015-11-15T07:43:46Z</time>
      </trkpt>
      <trkpt lat="45.78663" lon="5.28841">
        <ele>236.9</ele>
        <time>2015-11-15T07:43:48Z</time>
      </trkpt>
      <trkpt lat="45.78659" lon="5.28837">
        <ele>237.4</ele>
        <time>2015-11-15T07:43:50Z</time>
      </trkpt>
      <trkpt lat="45.78655" lon="5.28833">
        <ele>237.9</ele>
        <time>2015-11-15T07:43:52Z</time>
      </trkpt>
      <trkpt lat="45.78652" lon="5.28828">
        <ele>238.4</ele>
        <time>2015-11-15T07:43:54Z</time>
      </trkpt>
      <trkpt lat="45.78648" lon="5.28824">
        <ele>238.8</ele>
        <time>2015-11-15T07:43:56Z</time>
      </trkpt>
      <trkpt lat="45.78645" lon="5.28819">
        <ele>239.3</ele>
        <time>2015-11-15T07:43:58Z</time>
      </trkpt>
      <trkpt lat="45.78641" lon="5.28816">
        <ele>239.7</ele>
        <time>2015-11-15T07:44:00Z</time>
      </trkpt>
      <trkpt lat="45.78637" lon="5.28812">
        <ele>240.1</ele>
        <time>2015-11-15T07:44:02Z</time>
      </trkpt>
      <trkpt lat="45.78634" lon="5.28808">
        <ele>240.5</ele>
        <time>2015-11-15T07:44:04Z</time>
      </trkpt>
      <trkpt lat="45.78631" lon="5.28805">
        <ele>240.8</ele>
        <time>2015-11-15T07:44:06Z</time>
      </trkpt>
      <trkpt lat="45.78628" lon="5.28802">
        <ele>241.1</ele>
        <time>2015-11-15T07:44:08Z</time>
      </trkpt>
      <trkpt lat="45.78625" lon="5.28799">
        <ele>241.4</ele>
        <time>2015-11-15T07:44:10Z</time>
      </trkpt>
      <trkpt lat="45.78622" lon="5.28796">
        <ele>241.6</ele>
        <time>2015-11-15T07:44:12Z</time>
      </trkpt>
      <trkpt lat="45.78618" lon="5.28793">
        <ele>241.8</ele>
        <time>2015-11-15T07:44:14Z</time>
      </trkpt>
      <trkpt lat="45.78615" lon="5.2879">
        <ele>242</ele>
        <time>2015-11-15T07:44:16Z</time>
      </trkpt>
      <trkpt lat="45.78612" lon="5.28786">
        <ele>242.2</ele>
        <time>2015-11-15T07:44:18Z</time>
      </trkpt>
      <trkpt lat="45.78608" lon="5.28782">
        <ele>242.6</ele>
        <time>2015-11-15T07:44:20Z</time>
      </trkpt>
      <trkpt lat="45.78605" lon="5.28779">
        <ele>242.8</ele>
        <time>2015-11-15T07:44:22Z</time>
      </trkpt>
      <trkpt lat="45.78602" lon="5.28776">
        <ele>243.2</ele>
        <time>2015-11-15T07:44:24Z</time>
      </trkpt>
      <trkpt lat="45.78598" lon="5.28773">
        <ele>243.5</ele>
        <time>2015-11-15T07:44:26Z</time>
      </trkpt>
      <trkpt lat="45.78594" lon="5.2877">
        <ele>243.8</ele>
        <time>2015-11-15T07:44:28Z</time>
      </trkpt>
      <trkpt lat="45.7859" lon="5.28767">
        <ele>244</ele>
        <time>2015-11-15T07:44:30Z</time>
      </trkpt>
      <trkpt lat="45.78587" lon="5.28764">
        <ele>244.3</ele>
        <time>2015-11-15T07:44:32Z</time>
      </trkpt>
      <trkpt lat="45.78584" lon="5.28761">
        <ele>244.5</ele>
        <time>2015-11-15T07:44:34Z</time>
      </trkpt>
      <trkpt lat="45.7858" lon="5.28757">
        <ele>244.8</ele>
        <time>2015-11-15T07:44:36Z</time>
      </trkpt>
      <trkpt lat="45.78576" lon="5.28753">
        <ele>245.1</ele>
        <time>2015-11-15T07:44:38Z</time>
      </trkpt>
      <trkpt lat="45.78572" lon="5.28749">
        <ele>245.3</ele>
        <time>2015-11-15T07:44:40Z</time>
      </trkpt>
      <trkpt lat="45.78568" lon="5.28745">
        <ele>245.6</ele>
        <time>2015-11-15T07:44:42Z</time>
      </trkpt>
      <trkpt lat="45.78564" lon="5.28742">
        <ele>245.8</ele>
        <time>2015-11-15T07:44:44Z</time>
      </trkpt>
      <trkpt lat="45.7856" lon="5.28738">
        <ele>246.1</ele>
        <time>2015-11-15T07:44:46Z</time>
      </trkpt>
      <trkpt lat="45.78557" lon="5.28735">
        <ele>246.4</ele>
        <time>2015-11-15T07:44:48Z</time>
      </trkpt>
      <trkpt lat="45.78553" lon="5.28731">
        <ele>246.7</ele>
        <time>2015-11-15T07:44:50Z</time>
      </trkpt>
      <trkpt lat="45.7855" lon="5.28727">
        <ele>246.9</ele>
        <time>2015-11-15T07:44:52Z</time>
      </trkpt>
      <trkpt lat="45.78547" lon="5.28723">
        <ele>247.3</ele>
        <time>2015-11-15T07:44:54Z</time>
      </trkpt>
      <trkpt lat="45.78542" lon="5.28719">
        <ele>247.6</ele>
        <time>2015-11-15T07:44:56Z</time>
      </trkpt>
      <trkpt lat="45.78539" lon="5.28715">
        <ele>247.9</ele>
        <time>2015-11-15T07:44:58Z</time>
      </trkpt>
      <trkpt lat="45.78535" lon="5.2871">
        <ele>248.3</ele>
        <time>2015-11-15T07:45:00Z</time>
      </trkpt>
      <trkpt lat="45.7853" lon="5.28706">
        <ele>248.6</ele>
        <time>2015-11-15T07:45:02Z</time>
      </trkpt>
      <trkpt lat="45.78525" lon="5.28701">
        <ele>249</ele>
        <time>2015-11-15T07:45:04Z</time>
      </trkpt>
      <trkpt lat="45.7852" lon="5.28697">
        <ele>249.3</ele>
        <time>2015-11-15T07:45:06Z</time>
      </trkpt>
      <trkpt lat="45.78515" lon="5.28694">
        <ele>249.7</ele>
        <time>2015-11-15T07:45:08Z</time>
      </trkpt>
      <trkpt lat="45.7851" lon="5.28691">
        <ele>250</ele>
        <time>2015-11-15T07:45:10Z</time>
      </trkpt>
      <trkpt lat="45.78503" lon="5.28687">
        <ele>250.2</ele>
        <time>2015-11-15T07:45:12Z</time>
      </trkpt>
      <trkpt lat="45.78498" lon="5.28684">
        <ele>250.4</ele>
        <time>2015-11-15T07:45:14Z</time>
      </trkpt>
      <trkpt lat="45.78492" lon="5.2868">
        <ele>250.7</ele>
        <time>2015-11-15T07:45:16Z</time>
      </trkpt>
      <trkpt lat="45.78487" lon="5.28676">
        <ele>251</ele>
        <time>2015-11-15T07:45:18Z</time>
      </trkpt>
      <trkpt lat="45.78481" lon="5.28672">
        <ele>251.3</ele>
        <time>2015-11-15T07:45:20Z</time>
      </trkpt>
      <trkpt lat="45.78475" lon="5.28668">
        <ele>251.5</ele>
        <time>2015-11-15T07:45:22Z</time>
      </trkpt>
      <trkpt lat="45.7847" lon="5.28664">
        <ele>251.7</ele>
        <time>2015-11-15T07:45:24Z</time>
      </trkpt>
      <trkpt lat="45.78465" lon="5.28661">
        <ele>251.8</ele>
        <time>2015-11-15T07:45:26Z</time>
      </trkpt>
      <trkpt lat="45.7846" lon="5.28659">
        <ele>251.9</ele>
        <time>2015-11-15T07:45:28Z</time>
      </trkpt>
      <trkpt lat="45.78453" lon="5.28656">
        <ele>251.9</ele>
        <time>2015-11-15T07:45:30Z</time>
      </trkpt>
      <trkpt lat="45.78448" lon="5.28652">
        <ele>251.9</ele>
        <time>2015-11-15T07:45:32Z</time>
      </trkpt>
      <trkpt lat="45.78443" lon="5.28649">
        <ele>251.9</ele>
        <time>2015-11-15T07:45:34Z</time>
      </trkpt>
      <trkpt lat="45.78438" lon="5.28645">
        <ele>251.9</ele>
        <time>2015-11-15T07:45:36Z</time>
      </trkpt>
      <trkpt lat="45.78434" lon="5.28641">
        <ele>251.9</ele>
        <time>2015-11-15T07:45:38Z</time>
      </trkpt>
      <trkpt lat="45.78429" lon="5.28637">
        <ele>251.9</ele>
        <time>2015-11-15T07:45:40Z</time>
      </trkpt>
      <trkpt lat="45.78425" lon="5.28632">
        <ele>251.7</ele>
        <time>2015-11-15T07:45:42Z</time>
      </trkpt>
      <trkpt lat="45.78423" lon="5.28626">
        <ele>251.4</ele>
        <time>2015-11-15T07:45:44Z</time>
      </trkpt>
      <trkpt lat="45.78422" lon="5.28619">
        <ele>250.9</ele>
        <time>2015-11-15T07:45:46Z</time>
      </trkpt>
      <trkpt lat="45.78423" lon="5.2861">
        <ele>250.2</ele>
        <time>2015-11-15T07:45:48Z</time>
      </trkpt>
      <trkpt lat="45.78426" lon="5.28601">
        <ele>249.4</ele>
        <time>2015-11-15T07:45:50Z</time>
      </trkpt>
      <trkpt lat="45.7843" lon="5.28593">
        <ele>248.6</ele>
        <time>2015-11-15T07:45:52Z</time>
      </trkpt>
      <trkpt lat="45.78435" lon="5.28585">
        <ele>248.2</ele>
        <time>2015-11-15T07:45:54Z</time>
      </trkpt>
      <trkpt lat="45.7844" lon="5.28578">
        <ele>247.4</ele>
        <time>2015-11-15T07:45:56Z</time>
      </trkpt>
      <trkpt lat="45.78445" lon="5.2857">
        <ele>246.9</ele>
        <time>2015-11-15T07:45:58Z</time>
      </trkpt>
      <trkpt lat="45.78452" lon="5.28562">
        <ele>247</ele>
        <time>2015-11-15T07:46:00Z</time>
      </trkpt>
      <trkpt lat="45.7846" lon="5.2855">
        <ele>248</ele>
        <time>2015-11-15T07:46:02Z</time>
      </trkpt>
      <trkpt lat="45.78467" lon="5.28537">
        <ele>249.8</ele>
        <time>2015-11-15T07:46:04Z</time>
      </trkpt>
      <trkpt lat="45.78474" lon="5.28528">
        <ele>250</ele>
        <time>2015-11-15T07:46:06Z</time>
      </trkpt>
      <trkpt lat="45.78472" lon="5.28519">
        <ele>249.9</ele>
        <time>2015-11-15T07:46:08Z</time>
      </trkpt>
      <trkpt lat="45.78466" lon="5.28513">
        <ele>249.6</ele>
        <time>2015-11-15T07:46:10Z</time>
      </trkpt>
      <trkpt lat="45.78458" lon="5.28507">
        <ele>249.2</ele>
        <time>2015-11-15T07:46:12Z</time>
      </trkpt>
      <trkpt lat="45.78451" lon="5.28501">
        <ele>248.9</ele>
        <time>2015-11-15T07:46:14Z</time>
      </trkpt>
      <trkpt lat="45.78445" lon="5.28495">
        <ele>248.6</ele>
        <time>2015-11-15T07:46:16Z</time>
      </trkpt>
      <trkpt lat="45.78438" lon="5.28489">
        <ele>248.3</ele>
        <time>2015-11-15T07:46:18Z</time>
      </trkpt>
      <trkpt lat="45.78431" lon="5.28482">
        <ele>248</ele>
        <time>2015-11-15T07:46:20Z</time>
      </trkpt>
      <trkpt lat="45.78425" lon="5.28475">
        <ele>247.7</ele>
        <time>2015-11-15T07:46:22Z</time>
      </trkpt>
      <trkpt lat="45.78419" lon="5.28469">
        <ele>247.6</ele>
        <time>2015-11-15T07:46:24Z</time>
      </trkpt>
      <trkpt lat="45.78413" lon="5.28463">
        <ele>247.5</ele>
        <time>2015-11-15T07:46:26Z</time>
      </trkpt>
      <trkpt lat="45.78407" lon="5.28458">
        <ele>247.4</ele>
        <time>2015-11-15T07:46:28Z</time>
      </trkpt>
      <trkpt lat="45.78401" lon="5.28452">
        <ele>247.3</ele>
        <time>2015-11-15T07:46:30Z</time>
      </trkpt>
      <trkpt lat="45.78395" lon="5.28447">
        <ele>247.2</ele>
        <time>2015-11-15T07:46:32Z</time>
      </trkpt>
      <trkpt lat="45.78388" lon="5.28442">
        <ele>247.1</ele>
        <time>2015-11-15T07:46:34Z</time>
      </trkpt>
      <trkpt lat="45.78382" lon="5.28437">
        <ele>247</ele>
        <time>2015-11-15T07:46:36Z</time>
      </trkpt>
      <trkpt lat="45.78375" lon="5.28432">
        <ele>246.9</ele>
        <time>2015-11-15T07:46:38Z</time>
      </trkpt>
      <trkpt lat="45.78368" lon="5.28426">
        <ele>246.8</ele>
        <time>2015-11-15T07:46:40Z</time>
      </trkpt>
      <trkpt lat="45.78362" lon="5.2842">
        <ele>246.8</ele>
        <time>2015-11-15T07:46:42Z</time>
      </trkpt>
      <trkpt lat="45.78355" lon="5.28415">
        <ele>246.6</ele>
        <time>2015-11-15T07:46:44Z</time>
      </trkpt>
      <trkpt lat="45.78347" lon="5.28409">
        <ele>246.5</ele>
        <time>2015-11-15T07:46:46Z</time>
      </trkpt>
      <trkpt lat="45.78339" lon="5.28403">
        <ele>246.4</ele>
        <time>2015-11-15T07:46:48Z</time>
      </trkpt>
      <trkpt lat="45.78332" lon="5.28398">
        <ele>246.3</ele>
        <time>2015-11-15T07:46:50Z</time>
      </trkpt>
      <trkpt lat="45.78328" lon="5.28391">
        <ele>246.1</ele>
        <time>2015-11-15T07:46:52Z</time>
      </trkpt>
      <trkpt lat="45.78331" lon="5.28382">
        <ele>246</ele>
        <time>2015-11-15T07:46:54Z</time>
      </trkpt>
      <trkpt lat="45.78338" lon="5.28372">
        <ele>245.7</ele>
        <time>2015-11-15T07:46:56Z</time>
      </trkpt>
      <trkpt lat="45.78344" lon="5.28361">
        <ele>245.5</ele>
        <time>2015-11-15T07:46:58Z</time>
      </trkpt>
      <trkpt lat="45.78352" lon="5.28351">
        <ele>245.5</ele>
        <time>2015-11-15T07:47:00Z</time>
      </trkpt>
      <trkpt lat="45.78359" lon="5.28341">
        <ele>245.6</ele>
        <time>2015-11-15T07:47:02Z</time>
      </trkpt>
      <trkpt lat="45.78366" lon="5.28327">
        <ele>246.1</ele>
        <time>2015-11-15T07:47:04Z</time>
      </trkpt>
      <trkpt lat="45.78375" lon="5.28313">
        <ele>247.1</ele>
        <time>2015-11-15T07:47:06Z</time>
      </trkpt>
      <trkpt lat="45.78385" lon="5.283">
        <ele>247.7</ele>
        <time>2015-11-15T07:47:08Z</time>
      </trkpt>
      <trkpt lat="45.78394" lon="5.28288">
        <ele>247</ele>
        <time>2015-11-15T07:47:10Z</time>
      </trkpt>
      <trkpt lat="45.78397" lon="5.28278">
        <ele>246.1</ele>
        <time>2015-11-15T07:47:12Z</time>
      </trkpt>
      <trkpt lat="45.78394" lon="5.28268">
        <ele>246</ele>
        <time>2015-11-15T07:47:14Z</time>
      </trkpt>
      <trkpt lat="45.78386" lon="5.28259">
        <ele>246.1</ele>
        <time>2015-11-15T07:47:16Z</time>
      </trkpt>
      <trkpt lat="45.78378" lon="5.28249">
        <ele>246.1</ele>
        <time>2015-11-15T07:47:18Z</time>
      </trkpt>
      <trkpt lat="45.78371" lon="5.2824">
        <ele>246.1</ele>
        <time>2015-11-15T07:47:20Z</time>
      </trkpt>
      <trkpt lat="45.78365" lon="5.28231">
        <ele>246.1</ele>
        <time>2015-11-15T07:47:22Z</time>
      </trkpt>
      <trkpt lat="45.7836" lon="5.2822">
        <ele>246</ele>
        <time>2015-11-15T07:47:24Z</time>
      </trkpt>
      <trkpt lat="45.78356" lon="5.28206">
        <ele>245.6</ele>
        <time>2015-11-15T07:47:26Z</time>
      </trkpt>
      <trkpt lat="45.78352" lon="5.28189">
        <ele>245</ele>
        <time>2015-11-15T07:47:28Z</time>
      </trkpt>
      <trkpt lat="45.78348" lon="5.28169">
        <ele>244</ele>
        <time>2015-11-15T07:47:30Z</time>
      </trkpt>
      <trkpt lat="45.7834" lon="5.28152">
        <ele>247</ele>
        <time>2015-11-15T07:47:32Z</time>
      </trkpt>
      <trkpt lat="45.7833" lon="5.2814">
        <ele>250</ele>
        <time>2015-11-15T07:47:34Z</time>
      </trkpt>
      <trkpt lat="45.78322" lon="5.28125">
        <ele>250.1</ele>
        <time>2015-11-15T07:47:36Z</time>
      </trkpt>
      <trkpt lat="45.78316" lon="5.28113">
        <ele>250.2</ele>
        <time>2015-11-15T07:47:38Z</time>
      </trkpt>
      <trkpt lat="45.7831" lon="5.28104">
        <ele>250.3</ele>
        <time>2015-11-15T07:47:40Z</time>
      </trkpt>
      <trkpt lat="45.78304" lon="5.28097">
        <ele>250.3</ele>
        <time>2015-11-15T07:47:42Z</time>
      </trkpt>
      <trkpt lat="45.78298" lon="5.2809">
        <ele>250.3</ele>
        <time>2015-11-15T07:47:44Z</time>
      </trkpt>
      <trkpt lat="45.78293" lon="5.28083">
        <ele>250.3</ele>
        <time>2015-11-15T07:47:46Z</time>
      </trkpt>
      <trkpt lat="45.78288" lon="5.28077">
        <ele>250.3</ele>
        <time>2015-11-15T07:47:48Z</time>
      </trkpt>
      <trkpt lat="45.78283" lon="5.28071">
        <ele>250.1</ele>
        <time>2015-11-15T07:47:50Z</time>
      </trkpt>
      <trkpt lat="45.78278" lon="5.28064">
        <ele>249.9</ele>
        <time>2015-11-15T07:47:52Z</time>
      </trkpt>
      <trkpt lat="45.78273" lon="5.28058">
        <ele>249.7</ele>
        <time>2015-11-15T07:47:54Z</time>
      </trkpt>
      <trkpt lat="45.78269" lon="5.28052">
        <ele>249.5</ele>
        <time>2015-11-15T07:47:56Z</time>
      </trkpt>
      <trkpt lat="45.78265" lon="5.28046">
        <ele>249.3</ele>
        <time>2015-11-15T07:47:58Z</time>
      </trkpt>
      <trkpt lat="45.78262" lon="5.28038">
        <ele>249.2</ele>
        <time>2015-11-15T07:48:00Z</time>
      </trkpt>
      <trkpt lat="45.7826" lon="5.2803">
        <ele>249</ele>
        <time>2015-11-15T07:48:02Z</time>
      </trkpt>
      <trkpt lat="45.78257" lon="5.28022">
        <ele>248.9</ele>
        <time>2015-11-15T07:48:04Z</time>
      </trkpt>
      <trkpt lat="45.78254" lon="5.28014">
        <ele>248.7</ele>
        <time>2015-11-15T07:48:06Z</time>
      </trkpt>
      <trkpt lat="45.78249" lon="5.28006">
        <ele>248.5</ele>
        <time>2015-11-15T07:48:08Z</time>
      </trkpt>
      <trkpt lat="45.78241" lon="5.27996">
        <ele>248.2</ele>
        <time>2015-11-15T07:48:10Z</time>
      </trkpt>
      <trkpt lat="45.78233" lon="5.27985">
        <ele>248</ele>
        <time>2015-11-15T07:48:12Z</time>
      </trkpt>
      <trkpt lat="45.78226" lon="5.27973">
        <ele>247.7</ele>
        <time>2015-11-15T07:48:14Z</time>
      </trkpt>
      <trkpt lat="45.78219" lon="5.27961">
        <ele>247.5</ele>
        <time>2015-11-15T07:48:16Z</time>
      </trkpt>
      <trkpt lat="45.78212" lon="5.2795">
        <ele>247.2</ele>
        <time>2015-11-15T07:48:18Z</time>
      </trkpt>
      <trkpt lat="45.78204" lon="5.27939">
        <ele>246.8</ele>
        <time>2015-11-15T07:48:20Z</time>
      </trkpt>
      <trkpt lat="45.78197" lon="5.27928">
        <ele>246.5</ele>
        <time>2015-11-15T07:48:22Z</time>
      </trkpt>
      <trkpt lat="45.7819" lon="5.27917">
        <ele>246.2</ele>
        <time>2015-11-15T07:48:24Z</time>
      </trkpt>
      <trkpt lat="45.7818" lon="5.27909">
        <ele>246</ele>
        <time>2015-11-15T07:48:26Z</time>
      </trkpt>
      <trkpt lat="45.7817" lon="5.27902">
        <ele>246.1</ele>
        <time>2015-11-15T07:48:28Z</time>
      </trkpt>
      <trkpt lat="45.78159" lon="5.27893">
        <ele>246.1</ele>
        <time>2015-11-15T07:48:30Z</time>
      </trkpt>
      <trkpt lat="45.78148" lon="5.27884">
        <ele>246.2</ele>
        <time>2015-11-15T07:48:32Z</time>
      </trkpt>
      <trkpt lat="45.78135" lon="5.27874">
        <ele>246.2</ele>
        <time>2015-11-15T07:48:34Z</time>
      </trkpt>
      <trkpt lat="45.78124" lon="5.27865">
        <ele>246.3</ele>
        <time>2015-11-15T07:48:36Z</time>
      </trkpt>
      <trkpt lat="45.78114" lon="5.27853">
        <ele>246.3</ele>
        <time>2015-11-15T07:48:38Z</time>
      </trkpt>
      <trkpt lat="45.78106" lon="5.27842">
        <ele>246.4</ele>
        <time>2015-11-15T07:48:40Z</time>
      </trkpt>
      <trkpt lat="45.78099" lon="5.27831">
        <ele>246.4</ele>
        <time>2015-11-15T07:48:42Z</time>
      </trkpt>
      <trkpt lat="45.78093" lon="5.27821">
        <ele>246.3</ele>
        <time>2015-11-15T07:48:44Z</time>
      </trkpt>
      <trkpt lat="45.78087" lon="5.27811">
        <ele>246.3</ele>
        <time>2015-11-15T07:48:46Z</time>
      </trkpt>
      <trkpt lat="45.7808" lon="5.27801">
        <ele>246.2</ele>
        <time>2015-11-15T07:48:48Z</time>
      </trkpt>
      <trkpt lat="45.78074" lon="5.27791">
        <ele>245.9</ele>
        <time>2015-11-15T07:48:50Z</time>
      </trkpt>
      <trkpt lat="45.78066" lon="5.2778">
        <ele>245.5</ele>
        <time>2015-11-15T07:48:52Z</time>
      </trkpt>
      <trkpt lat="45.78058" lon="5.27769">
        <ele>245.4</ele>
        <time>2015-11-15T07:48:54Z</time>
      </trkpt>
      <trkpt lat="45.78049" lon="5.27758">
        <ele>245.2</ele>
        <time>2015-11-15T07:48:56Z</time>
      </trkpt>
      <trkpt lat="45.7804" lon="5.27747">
        <ele>245</ele>
        <time>2015-11-15T07:48:58Z</time>
      </trkpt>
      <trkpt lat="45.7803" lon="5.27737">
        <ele>244.4</ele>
        <time>2015-11-15T07:49:00Z</time>
      </trkpt>
      <trkpt lat="45.78019" lon="5.27728">
        <ele>243.8</ele>
        <time>2015-11-15T07:49:02Z</time>
      </trkpt>
      <trkpt lat="45.78007" lon="5.27718">
        <ele>243.4</ele>
        <time>2015-11-15T07:49:04Z</time>
      </trkpt>
      <trkpt lat="45.77995" lon="5.27708">
        <ele>242.5</ele>
        <time>2015-11-15T07:49:06Z</time>
      </trkpt>
      <trkpt lat="45.77984" lon="5.27695">
        <ele>242.1</ele>
        <time>2015-11-15T07:49:08Z</time>
      </trkpt>
      <trkpt lat="45.77974" lon="5.27679">
        <ele>241.9</ele>
        <time>2015-11-15T07:49:10Z</time>
      </trkpt>
      <trkpt lat="45.77964" lon="5.27663">
        <ele>241.6</ele>
        <time>2015-11-15T07:49:12Z</time>
      </trkpt>
      <trkpt lat="45.77955" lon="5.27648">
        <ele>240.8</ele>
        <time>2015-11-15T07:49:14Z</time>
      </trkpt>
      <trkpt lat="45.77945" lon="5.27634">
        <ele>240.4</ele>
        <time>2015-11-15T07:49:16Z</time>
      </trkpt>
      <trkpt lat="45.77937" lon="5.27626">
        <ele>240.1</ele>
        <time>2015-11-15T07:49:18Z</time>
      </trkpt>
      <trkpt lat="45.7793" lon="5.2762">
        <ele>239.5</ele>
        <time>2015-11-15T07:49:20Z</time>
      </trkpt>
      <trkpt lat="45.77924" lon="5.2761">
        <ele>239</ele>
        <time>2015-11-15T07:49:22Z</time>
      </trkpt>
      <trkpt lat="45.77916" lon="5.276">
        <ele>238.6</ele>
        <time>2015-11-15T07:49:24Z</time>
      </trkpt>
      <trkpt lat="45.77909" lon="5.27588">
        <ele>238.1</ele>
        <time>2015-11-15T07:49:26Z</time>
      </trkpt>
      <trkpt lat="45.77902" lon="5.27576">
        <ele>237.3</ele>
        <time>2015-11-15T07:49:28Z</time>
      </trkpt>
      <trkpt lat="45.77895" lon="5.27562">
        <ele>236.6</ele>
        <time>2015-11-15T07:49:30Z</time>
      </trkpt>
      <trkpt lat="45.77889" lon="5.27547">
        <ele>236.3</ele>
        <time>2015-11-15T07:49:32Z</time>
      </trkpt>
      <trkpt lat="45.77882" lon="5.27533">
        <ele>236</ele>
        <time>2015-11-15T07:49:34Z</time>
      </trkpt>
      <trkpt lat="45.77874" lon="5.27519">
        <ele>235.7</ele>
        <time>2015-11-15T07:49:36Z</time>
      </trkpt>
      <trkpt lat="45.77865" lon="5.27506">
        <ele>235.4</ele>
        <time>2015-11-15T07:49:38Z</time>
      </trkpt>
      <trkpt lat="45.77857" lon="5.27493">
        <ele>235.1</ele>
        <time>2015-11-15T07:49:40Z</time>
      </trkpt>
      <trkpt lat="45.77848" lon="5.27481">
        <ele>234.3</ele>
        <time>2015-11-15T07:49:42Z</time>
      </trkpt>
      <trkpt lat="45.77838" lon="5.27469">
        <ele>233.6</ele>
        <time>2015-11-15T07:49:44Z</time>
      </trkpt>
      <trkpt lat="45.77827" lon="5.27457">
        <ele>233.3</ele>
        <time>2015-11-15T07:49:46Z</time>
      </trkpt>
      <trkpt lat="45.77816" lon="5.27444">
        <ele>233</ele>
        <time>2015-11-15T07:49:48Z</time>
      </trkpt>
      <trkpt lat="45.77804" lon="5.27431">
        <ele>232.8</ele>
        <time>2015-11-15T07:49:50Z</time>
      </trkpt>
      <trkpt lat="45.77792" lon="5.27418">
        <ele>232.6</ele>
        <time>2015-11-15T07:49:52Z</time>
      </trkpt>
      <trkpt lat="45.77781" lon="5.27406">
        <ele>232.5</ele>
        <time>2015-11-15T07:49:54Z</time>
      </trkpt>
      <trkpt lat="45.77771" lon="5.27393">
        <ele>232.3</ele>
        <time>2015-11-15T07:49:56Z</time>
      </trkpt>
      <trkpt lat="45.7776" lon="5.2738">
        <ele>232.2</ele>
        <time>2015-11-15T07:49:58Z</time>
      </trkpt>
      <trkpt lat="45.7775" lon="5.27367">
        <ele>232</ele>
        <time>2015-11-15T07:50:00Z</time>
      </trkpt>
      <trkpt lat="45.77741" lon="5.27354">
        <ele>231.8</ele>
        <time>2015-11-15T07:50:02Z</time>
      </trkpt>
      <trkpt lat="45.77733" lon="5.2734">
        <ele>231.4</ele>
        <time>2015-11-15T07:50:04Z</time>
      </trkpt>
      <trkpt lat="45.77725" lon="5.27328">
        <ele>231</ele>
        <time>2015-11-15T07:50:06Z</time>
      </trkpt>
      <trkpt lat="45.77715" lon="5.27316">
        <ele>231.1</ele>
        <time>2015-11-15T07:50:08Z</time>
      </trkpt>
      <trkpt lat="45.77705" lon="5.27305">
        <ele>231.2</ele>
        <time>2015-11-15T07:50:10Z</time>
      </trkpt>
      <trkpt lat="45.77696" lon="5.27294">
        <ele>231.2</ele>
        <time>2015-11-15T07:50:12Z</time>
      </trkpt>
      <trkpt lat="45.77686" lon="5.27283">
        <ele>231.3</ele>
        <time>2015-11-15T07:50:14Z</time>
      </trkpt>
      <trkpt lat="45.77675" lon="5.27273">
        <ele>231.5</ele>
        <time>2015-11-15T07:50:16Z</time>
      </trkpt>
      <trkpt lat="45.77666" lon="5.27267">
        <ele>231.8</ele>
        <time>2015-11-15T07:50:18Z</time>
      </trkpt>
      <trkpt lat="45.77657" lon="5.27261">
        <ele>231.9</ele>
        <time>2015-11-15T07:50:20Z</time>
      </trkpt>
      <trkpt lat="45.77649" lon="5.27248">
        <ele>231.5</ele>
        <time>2015-11-15T07:50:22Z</time>
      </trkpt>
      <trkpt lat="45.7764" lon="5.27235">
        <ele>231</ele>
        <time>2015-11-15T07:50:24Z</time>
      </trkpt>
      <trkpt lat="45.7763" lon="5.27223">
        <ele>230.5</ele>
        <time>2015-11-15T07:50:26Z</time>
      </trkpt>
      <trkpt lat="45.7762" lon="5.27211">
        <ele>230.1</ele>
        <time>2015-11-15T07:50:28Z</time>
      </trkpt>
      <trkpt lat="45.7761" lon="5.27199">
        <ele>229.7</ele>
        <time>2015-11-15T07:50:30Z</time>
      </trkpt>
      <trkpt lat="45.776" lon="5.27189">
        <ele>229.4</ele>
        <time>2015-11-15T07:50:32Z</time>
      </trkpt>
      <trkpt lat="45.77591" lon="5.27184">
        <ele>229.1</ele>
        <time>2015-11-15T07:50:34Z</time>
      </trkpt>
      <trkpt lat="45.77585" lon="5.27188">
        <ele>230</ele>
        <time>2015-11-15T07:50:36Z</time>
      </trkpt>
      <trkpt lat="45.77581" lon="5.27194">
        <ele>231</ele>
        <time>2015-11-15T07:50:38Z</time>
      </trkpt>
      <trkpt lat="45.77578" lon="5.27201">
        <ele>231.9</ele>
        <time>2015-11-15T07:50:40Z</time>
      </trkpt>
      <trkpt lat="45.77574" lon="5.27207">
        <ele>232.9</ele>
        <time>2015-11-15T07:50:42Z</time>
      </trkpt>
      <trkpt lat="45.7757" lon="5.27213">
        <ele>233.7</ele>
        <time>2015-11-15T07:50:44Z</time>
      </trkpt>
      <trkpt lat="45.77565" lon="5.27219">
        <ele>234.4</ele>
        <time>2015-11-15T07:50:46Z</time>
      </trkpt>
      <trkpt lat="45.7756" lon="5.27224">
        <ele>235.2</ele>
        <time>2015-11-15T07:50:48Z</time>
      </trkpt>
      <trkpt lat="45.77554" lon="5.27227">
        <ele>236</ele>
        <time>2015-11-15T07:50:50Z</time>
      </trkpt>
      <trkpt lat="45.77548" lon="5.2723">
        <ele>236.7</ele>
        <time>2015-11-15T07:50:52Z</time>
      </trkpt>
      <trkpt lat="45.77542" lon="5.27233">
        <ele>237.4</ele>
        <time>2015-11-15T07:50:54Z</time>
      </trkpt>
      <trkpt lat="45.77536" lon="5.27236">
        <ele>238</ele>
        <time>2015-11-15T07:50:56Z</time>
      </trkpt>
      <trkpt lat="45.7753" lon="5.2724">
        <ele>238.7</ele>
        <time>2015-11-15T07:50:58Z</time>
      </trkpt>
      <trkpt lat="45.77524" lon="5.27243">
        <ele>239.2</ele>
        <time>2015-11-15T07:51:00Z</time>
      </trkpt>
      <trkpt lat="45.77519" lon="5.27247">
        <ele>239.7</ele>
        <time>2015-11-15T07:51:02Z</time>
      </trkpt>
      <trkpt lat="45.77514" lon="5.27252">
        <ele>240.1</ele>
        <time>2015-11-15T07:51:04Z</time>
      </trkpt>
      <trkpt lat="45.77508" lon="5.27257">
        <ele>240.3</ele>
        <time>2015-11-15T07:51:06Z</time>
      </trkpt>
      <trkpt lat="45.77503" lon="5.27262">
        <ele>240.4</ele>
        <time>2015-11-15T07:51:08Z</time>
      </trkpt>
      <trkpt lat="45.77498" lon="5.27267">
        <ele>240.6</ele>
        <time>2015-11-15T07:51:10Z</time>
      </trkpt>
      <trkpt lat="45.77493" lon="5.27272">
        <ele>240.8</ele>
        <time>2015-11-15T07:51:12Z</time>
      </trkpt>
      <trkpt lat="45.77488" lon="5.27278">
        <ele>241</ele>
        <time>2015-11-15T07:51:14Z</time>
      </trkpt>
      <trkpt lat="45.77483" lon="5.27283">
        <ele>241.2</ele>
        <time>2015-11-15T07:51:16Z</time>
      </trkpt>
      <trkpt lat="45.77478" lon="5.27288">
        <ele>241.5</ele>
        <time>2015-11-15T07:51:18Z</time>
      </trkpt>
      <trkpt lat="45.77473" lon="5.27294">
        <ele>241.9</ele>
        <time>2015-11-15T07:51:20Z</time>
      </trkpt>
      <trkpt lat="45.77468" lon="5.27299">
        <ele>242.5</ele>
        <time>2015-11-15T07:51:22Z</time>
      </trkpt>
      <trkpt lat="45.77464" lon="5.27304">
        <ele>243</ele>
        <time>2015-11-15T07:51:24Z</time>
      </trkpt>
      <trkpt lat="45.77459" lon="5.27309">
        <ele>243.4</ele>
        <time>2015-11-15T07:51:26Z</time>
      </trkpt>
      <trkpt lat="45.77454" lon="5.27315">
        <ele>243.8</ele>
        <time>2015-11-15T07:51:28Z</time>
      </trkpt>
      <trkpt lat="45.7745" lon="5.2732">
        <ele>244.1</ele>
        <time>2015-11-15T07:51:30Z</time>
      </trkpt>
      <trkpt lat="45.77446" lon="5.27326">
        <ele>244.5</ele>
        <time>2015-11-15T07:51:32Z</time>
      </trkpt>
      <trkpt lat="45.77441" lon="5.27331">
        <ele>244.7</ele>
        <time>2015-11-15T07:51:34Z</time>
      </trkpt>
      <trkpt lat="45.77438" lon="5.27338">
        <ele>245</ele>
        <time>2015-11-15T07:51:36Z</time>
      </trkpt>
      <trkpt lat="45.77436" lon="5.27345">
        <ele>245.6</ele>
        <time>2015-11-15T07:51:38Z</time>
      </trkpt>
      <trkpt lat="45.77433" lon="5.27352">
        <ele>246.3</ele>
        <time>2015-11-15T07:51:40Z</time>
      </trkpt>
      <trkpt lat="45.77429" lon="5.27358">
        <ele>246.9</ele>
        <time>2015-11-15T07:51:42Z</time>
      </trkpt>
      <trkpt lat="45.77425" lon="5.27365">
        <ele>247.4</ele>
        <time>2015-11-15T07:51:44Z</time>
      </trkpt>
      <trkpt lat="45.77422" lon="5.27372">
        <ele>248</ele>
        <time>2015-11-15T07:51:46Z</time>
      </trkpt>
      <trkpt lat="45.77417" lon="5.27379">
        <ele>248.6</ele>
        <time>2015-11-15T07:51:48Z</time>
      </trkpt>
      <trkpt lat="45.77412" lon="5.27387">
        <ele>249.1</ele>
        <time>2015-11-15T07:51:50Z</time>
      </trkpt>
      <trkpt lat="45.77408" lon="5.27395">
        <ele>249.3</ele>
        <time>2015-11-15T07:51:52Z</time>
      </trkpt>
      <trkpt lat="45.77403" lon="5.27403">
        <ele>249.5</ele>
        <time>2015-11-15T07:51:54Z</time>
      </trkpt>
      <trkpt lat="45.77398" lon="5.27411">
        <ele>249.8</ele>
        <time>2015-11-15T07:51:56Z</time>
      </trkpt>
      <trkpt lat="45.77393" lon="5.27418">
        <ele>249.9</ele>
        <time>2015-11-15T07:51:58Z</time>
      </trkpt>
      <trkpt lat="45.77388" lon="5.27424">
        <ele>250</ele>
        <time>2015-11-15T07:52:00Z</time>
      </trkpt>
      <trkpt lat="45.77383" lon="5.27431">
        <ele>250.1</ele>
        <time>2015-11-15T07:52:02Z</time>
      </trkpt>
      <trkpt lat="45.77379" lon="5.27437">
        <ele>250.3</ele>
        <time>2015-11-15T07:52:04Z</time>
      </trkpt>
      <trkpt lat="45.77374" lon="5.27444">
        <ele>250.3</ele>
        <time>2015-11-15T07:52:06Z</time>
      </trkpt>
      <trkpt lat="45.77369" lon="5.27451">
        <ele>250.3</ele>
        <time>2015-11-15T07:52:08Z</time>
      </trkpt>
      <trkpt lat="45.77364" lon="5.27459">
        <ele>250.3</ele>
        <time>2015-11-15T07:52:10Z</time>
      </trkpt>
      <trkpt lat="45.7736" lon="5.27466">
        <ele>250.3</ele>
        <time>2015-11-15T07:52:12Z</time>
      </trkpt>
      <trkpt lat="45.77355" lon="5.27475">
        <ele>250.3</ele>
        <time>2015-11-15T07:52:14Z</time>
      </trkpt>
      <trkpt lat="45.7735" lon="5.27484">
        <ele>250.2</ele>
        <time>2015-11-15T07:52:16Z</time>
      </trkpt>
      <trkpt lat="45.77343" lon="5.27494">
        <ele>250.1</ele>
        <time>2015-11-15T07:52:18Z</time>
      </trkpt>
      <trkpt lat="45.77337" lon="5.27503">
        <ele>250</ele>
        <time>2015-11-15T07:52:20Z</time>
      </trkpt>
      <trkpt lat="45.77331" lon="5.27512">
        <ele>250</ele>
        <time>2015-11-15T07:52:22Z</time>
      </trkpt>
      <trkpt lat="45.77325" lon="5.2752">
        <ele>249.9</ele>
        <time>2015-11-15T07:52:24Z</time>
      </trkpt>
      <trkpt lat="45.77319" lon="5.27529">
        <ele>249.9</ele>
        <time>2015-11-15T07:52:26Z</time>
      </trkpt>
      <trkpt lat="45.77313" lon="5.27539">
        <ele>249.8</ele>
        <time>2015-11-15T07:52:28Z</time>
      </trkpt>
      <trkpt lat="45.77307" lon="5.27548">
        <ele>249.8</ele>
        <time>2015-11-15T07:52:30Z</time>
      </trkpt>
      <trkpt lat="45.77301" lon="5.27558">
        <ele>249.7</ele>
        <time>2015-11-15T07:52:32Z</time>
      </trkpt>
      <trkpt lat="45.77295" lon="5.27567">
        <ele>249.5</ele>
        <time>2015-11-15T07:52:34Z</time>
      </trkpt>
      <trkpt lat="45.77288" lon="5.27575">
        <ele>249.3</ele>
        <time>2015-11-15T07:52:36Z</time>
      </trkpt>
      <trkpt lat="45.77279" lon="5.27584">
        <ele>249.3</ele>
        <time>2015-11-15T07:52:38Z</time>
      </trkpt>
      <trkpt lat="45.77267" lon="5.27592">
        <ele>249.3</ele>
        <time>2015-11-15T07:52:40Z</time>
      </trkpt>
      <trkpt lat="45.77255" lon="5.27602">
        <ele>249.4</ele>
        <time>2015-11-15T07:52:42Z</time>
      </trkpt>
      <trkpt lat="45.77244" lon="5.27613">
        <ele>249.6</ele>
        <time>2015-11-15T07:52:44Z</time>
      </trkpt>
      <trkpt lat="45.77233" lon="5.27623">
        <ele>249.7</ele>
        <time>2015-11-15T07:52:46Z</time>
      </trkpt>
      <trkpt lat="45.77222" lon="5.27633">
        <ele>249.8</ele>
        <time>2015-11-15T07:52:48Z</time>
      </trkpt>
      <trkpt lat="45.77212" lon="5.27643">
        <ele>249.8</ele>
        <time>2015-11-15T07:52:50Z</time>
      </trkpt>
      <trkpt lat="45.77202" lon="5.27652">
        <ele>250</ele>
        <time>2015-11-15T07:52:52Z</time>
      </trkpt>
      <trkpt lat="45.77192" lon="5.27661">
        <ele>250.1</ele>
        <time>2015-11-15T07:52:54Z</time>
      </trkpt>
      <trkpt lat="45.77182" lon="5.27668">
        <ele>250.2</ele>
        <time>2015-11-15T07:52:56Z</time>
      </trkpt>
      <trkpt lat="45.77172" lon="5.27676">
        <ele>250.4</ele>
        <time>2015-11-15T07:52:58Z</time>
      </trkpt>
      <trkpt lat="45.77164" lon="5.27685">
        <ele>250.6</ele>
        <time>2015-11-15T07:53:00Z</time>
      </trkpt>
      <trkpt lat="45.77156" lon="5.27692">
        <ele>250.7</ele>
        <time>2015-11-15T07:53:02Z</time>
      </trkpt>
      <trkpt lat="45.77147" lon="5.27696">
        <ele>250.8</ele>
        <time>2015-11-15T07:53:04Z</time>
      </trkpt>
      <trkpt lat="45.77136" lon="5.27697">
        <ele>250.9</ele>
        <time>2015-11-15T07:53:06Z</time>
      </trkpt>
      <trkpt lat="45.77126" lon="5.27703">
        <ele>251</ele>
        <time>2015-11-15T07:53:08Z</time>
      </trkpt>
      <trkpt lat="45.77119" lon="5.27712">
        <ele>251</ele>
        <time>2015-11-15T07:53:10Z</time>
      </trkpt>
      <trkpt lat="45.77113" lon="5.27718">
        <ele>251</ele>
        <time>2015-11-15T07:53:12Z</time>
      </trkpt>
      <trkpt lat="45.77107" lon="5.27716">
        <ele>252.1</ele>
        <time>2015-11-15T07:53:14Z</time>
      </trkpt>
      <trkpt lat="45.77101" lon="5.27711">
        <ele>253.5</ele>
        <time>2015-11-15T07:53:16Z</time>
      </trkpt>
      <trkpt lat="45.77095" lon="5.27708">
        <ele>255.1</ele>
        <time>2015-11-15T07:53:18Z</time>
      </trkpt>
      <trkpt lat="45.77089" lon="5.27705">
        <ele>256.7</ele>
        <time>2015-11-15T07:53:20Z</time>
      </trkpt>
      <trkpt lat="45.77084" lon="5.27702">
        <ele>257.9</ele>
        <time>2015-11-15T07:53:22Z</time>
      </trkpt>
      <trkpt lat="45.77079" lon="5.27699">
        <ele>258.8</ele>
        <time>2015-11-15T07:53:24Z</time>
      </trkpt>
      <trkpt lat="45.77074" lon="5.27697">
        <ele>260.7</ele>
        <time>2015-11-15T07:53:26Z</time>
      </trkpt>
      <trkpt lat="45.77069" lon="5.27694">
        <ele>262.5</ele>
        <time>2015-11-15T07:53:28Z</time>
      </trkpt>
      <trkpt lat="45.77065" lon="5.27692">
        <ele>263.9</ele>
        <time>2015-11-15T07:53:30Z</time>
      </trkpt>
      <trkpt lat="45.77062" lon="5.2769">
        <ele>264.2</ele>
        <time>2015-11-15T07:53:32Z</time>
      </trkpt>
      <trkpt lat="45.77058" lon="5.27688">
        <ele>265.5</ele>
        <time>2015-11-15T07:53:34Z</time>
      </trkpt>
      <trkpt lat="45.77055" lon="5.27687">
        <ele>265.2</ele>
        <time>2015-11-15T07:53:36Z</time>
      </trkpt>
      <trkpt lat="45.77052" lon="5.27685">
        <ele>267.1</ele>
        <time>2015-11-15T07:53:38Z</time>
      </trkpt>
      <trkpt lat="45.77048" lon="5.27683">
        <ele>268.1</ele>
        <time>2015-11-15T07:53:40Z</time>
      </trkpt>
      <trkpt lat="45.77044" lon="5.27681">
        <ele>267.7</ele>
        <time>2015-11-15T07:53:42Z</time>
      </trkpt>
      <trkpt lat="45.77041" lon="5.27679">
        <ele>268.7</ele>
        <time>2015-11-15T07:53:44Z</time>
      </trkpt>
      <trkpt lat="45.77037" lon="5.27676">
        <ele>268.3</ele>
        <time>2015-11-15T07:53:46Z</time>
      </trkpt>
      <trkpt lat="45.77033" lon="5.27674">
        <ele>268.9</ele>
        <time>2015-11-15T07:53:48Z</time>
      </trkpt>
      <trkpt lat="45.77029" lon="5.27671">
        <ele>269.9</ele>
        <time>2015-11-15T07:53:50Z</time>
      </trkpt>
      <trkpt lat="45.77025" lon="5.27669">
        <ele>270.1</ele>
        <time>2015-11-15T07:53:52Z</time>
      </trkpt>
      <trkpt lat="45.77021" lon="5.27667">
        <ele>271.1</ele>
        <time>2015-11-15T07:53:54Z</time>
      </trkpt>
      <trkpt lat="45.77017" lon="5.27665">
        <ele>270.4</ele>
        <time>2015-11-15T07:53:56Z</time>
      </trkpt>
      <trkpt lat="45.77014" lon="5.27663">
        <ele>271.4</ele>
        <time>2015-11-15T07:53:58Z</time>
      </trkpt>
      <trkpt lat="45.7701" lon="5.27662">
        <ele>272.5</ele>
        <time>2015-11-15T07:54:00Z</time>
      </trkpt>
      <trkpt lat="45.77006" lon="5.2766">
        <ele>272.4</ele>
        <time>2015-11-15T07:54:02Z</time>
      </trkpt>
      <trkpt lat="45.77003" lon="5.27657">
        <ele>273.6</ele>
        <time>2015-11-15T07:54:04Z</time>
      </trkpt>
      <trkpt lat="45.76999" lon="5.27655">
        <ele>272.2</ele>
        <time>2015-11-15T07:54:06Z</time>
      </trkpt>
      <trkpt lat="45.76996" lon="5.27654">
        <ele>273.7</ele>
        <time>2015-11-15T07:54:08Z</time>
      </trkpt>
      <trkpt lat="45.76992" lon="5.27652">
        <ele>272.6</ele>
        <time>2015-11-15T07:54:10Z</time>
      </trkpt>
      <trkpt lat="45.76988" lon="5.2765">
        <ele>276.4</ele>
        <time>2015-11-15T07:54:12Z</time>
      </trkpt>
      <trkpt lat="45.76984" lon="5.27648">
        <ele>275.7</ele>
        <time>2015-11-15T07:54:14Z</time>
      </trkpt>
      <trkpt lat="45.7698" lon="5.27645">
        <ele>277.7</ele>
        <time>2015-11-15T07:54:16Z</time>
      </trkpt>
      <trkpt lat="45.76976" lon="5.27643">
        <ele>278.8</ele>
        <time>2015-11-15T07:54:18Z</time>
      </trkpt>
      <trkpt lat="45.76972" lon="5.27642">
        <ele>280.4</ele>
        <time>2015-11-15T07:54:20Z</time>
      </trkpt>
      <trkpt lat="45.76968" lon="5.2764">
        <ele>281.9</ele>
        <time>2015-11-15T07:54:22Z</time>
      </trkpt>
      <trkpt lat="45.76964" lon="5.27639">
        <ele>282.3</ele>
        <time>2015-11-15T07:54:24Z</time>
      </trkpt>
      <trkpt lat="45.7696" lon="5.27638">
        <ele>283.8</ele>
        <time>2015-11-15T07:54:26Z</time>
      </trkpt>
      <trkpt lat="45.76956" lon="5.27634">
        <ele>283.9</ele>
        <time>2015-11-15T07:54:28Z</time>
      </trkpt>
      <trkpt lat="45.76952" lon="5.27631">
        <ele>282.7</ele>
        <time>2015-11-15T07:54:30Z</time>
      </trkpt>
      <trkpt lat="45.76949" lon="5.27628">
        <ele>283.8</ele>
        <time>2015-11-15T07:54:32Z</time>
      </trkpt>
      <trkpt lat="45.76945" lon="5.27626">
        <ele>282.5</ele>
        <time>2015-11-15T07:54:34Z</time>
      </trkpt>
      <trkpt lat="45.76942" lon="5.27624">
        <ele>283.4</ele>
        <time>2015-11-15T07:54:36Z</time>
      </trkpt>
      <trkpt lat="45.7694" lon="5.27623">
        <ele>284.4</ele>
        <time>2015-11-15T07:54:38Z</time>
      </trkpt>
      <trkpt lat="45.76937" lon="5.27619">
        <ele>283.4</ele>
        <time>2015-11-15T07:54:42Z</time>
      </trkpt>
      <trkpt lat="45.76935" lon="5.27616">
        <ele>282.7</ele>
        <time>2015-11-15T07:54:44Z</time>
      </trkpt>
      <trkpt lat="45.76932" lon="5.27613">
        <ele>282.4</ele>
        <time>2015-11-15T07:54:46Z</time>
      </trkpt>
      <trkpt lat="45.76929" lon="5.2761">
        <ele>282.4</ele>
        <time>2015-11-15T07:54:48Z</time>
      </trkpt>
      <trkpt lat="45.76926" lon="5.27607">
        <ele>282.5</ele>
        <time>2015-11-15T07:54:50Z</time>
      </trkpt>
      <trkpt lat="45.76923" lon="5.27604">
        <ele>282.4</ele>
        <time>2015-11-15T07:54:52Z</time>
      </trkpt>
      <trkpt lat="45.76921" lon="5.27601">
        <ele>282.2</ele>
        <time>2015-11-15T07:54:54Z</time>
      </trkpt>
      <trkpt lat="45.76918" lon="5.27599">
        <ele>283.2</ele>
        <time>2015-11-15T07:54:56Z</time>
      </trkpt>
      <trkpt lat="45.76915" lon="5.27596">
        <ele>283</ele>
        <time>2015-11-15T07:54:58Z</time>
      </trkpt>
      <trkpt lat="45.76912" lon="5.27593">
        <ele>284</ele>
        <time>2015-11-15T07:55:00Z</time>
      </trkpt>
      <trkpt lat="45.76909" lon="5.27591">
        <ele>283.9</ele>
        <time>2015-11-15T07:55:02Z</time>
      </trkpt>
      <trkpt lat="45.76907" lon="5.27588">
        <ele>283.6</ele>
        <time>2015-11-15T07:55:04Z</time>
      </trkpt>
      <trkpt lat="45.76904" lon="5.27586">
        <ele>283.3</ele>
        <time>2015-11-15T07:55:06Z</time>
      </trkpt>
      <trkpt lat="45.76901" lon="5.27583">
        <ele>282.9</ele>
        <time>2015-11-15T07:55:08Z</time>
      </trkpt>
      <trkpt lat="45.76899" lon="5.27581">
        <ele>282.5</ele>
        <time>2015-11-15T07:55:10Z</time>
      </trkpt>
      <trkpt lat="45.76896" lon="5.27577">
        <ele>282</ele>
        <time>2015-11-15T07:55:12Z</time>
      </trkpt>
      <trkpt lat="45.76894" lon="5.27575">
        <ele>281.6</ele>
        <time>2015-11-15T07:55:14Z</time>
      </trkpt>
      <trkpt lat="45.76891" lon="5.27572">
        <ele>281.4</ele>
        <time>2015-11-15T07:55:16Z</time>
      </trkpt>
      <trkpt lat="45.76889" lon="5.2757">
        <ele>281.2</ele>
        <time>2015-11-15T07:55:18Z</time>
      </trkpt>
      <trkpt lat="45.76886" lon="5.27567">
        <ele>281</ele>
        <time>2015-11-15T07:55:20Z</time>
      </trkpt>
      <trkpt lat="45.76883" lon="5.27564">
        <ele>280.6</ele>
        <time>2015-11-15T07:55:22Z</time>
      </trkpt>
      <trkpt lat="45.7688" lon="5.27561">
        <ele>279.8</ele>
        <time>2015-11-15T07:55:24Z</time>
      </trkpt>
      <trkpt lat="45.76876" lon="5.27557">
        <ele>279.1</ele>
        <time>2015-11-15T07:55:26Z</time>
      </trkpt>
      <trkpt lat="45.7687" lon="5.27551">
        <ele>278.6</ele>
        <time>2015-11-15T07:55:28Z</time>
      </trkpt>
      <trkpt lat="45.76864" lon="5.27545">
        <ele>278</ele>
        <time>2015-11-15T07:55:30Z</time>
      </trkpt>
      <trkpt lat="45.76858" lon="5.27537">
        <ele>277.4</ele>
        <time>2015-11-15T07:55:32Z</time>
      </trkpt>
      <trkpt lat="45.76852" lon="5.27531">
        <ele>276.9</ele>
        <time>2015-11-15T07:55:34Z</time>
      </trkpt>
      <trkpt lat="45.76846" lon="5.27523">
        <ele>276.7</ele>
        <time>2015-11-15T07:55:36Z</time>
      </trkpt>
      <trkpt lat="45.76842" lon="5.27515">
        <ele>276.8</ele>
        <time>2015-11-15T07:55:38Z</time>
      </trkpt>
      <trkpt lat="45.76838" lon="5.27504">
        <ele>276.9</ele>
        <time>2015-11-15T07:55:40Z</time>
      </trkpt>
      <trkpt lat="45.76832" lon="5.27491">
        <ele>276.5</ele>
        <time>2015-11-15T07:55:42Z</time>
      </trkpt>
      <trkpt lat="45.76825" lon="5.27479">
        <ele>276.3</ele>
        <time>2015-11-15T07:55:44Z</time>
      </trkpt>
      <trkpt lat="45.76817" lon="5.27465">
        <ele>277.9</ele>
        <time>2015-11-15T07:55:46Z</time>
      </trkpt>
      <trkpt lat="45.7681" lon="5.27452">
        <ele>277.9</ele>
        <time>2015-11-15T07:55:48Z</time>
      </trkpt>
      <trkpt lat="45.76802" lon="5.27439">
        <ele>277.1</ele>
        <time>2015-11-15T07:55:50Z</time>
      </trkpt>
      <trkpt lat="45.76794" lon="5.27429">
        <ele>276.3</ele>
        <time>2015-11-15T07:55:52Z</time>
      </trkpt>
      <trkpt lat="45.76784" lon="5.27419">
        <ele>275.5</ele>
        <time>2015-11-15T07:55:54Z</time>
      </trkpt>
      <trkpt lat="45.76774" lon="5.2741">
        <ele>276.2</ele>
        <time>2015-11-15T07:55:56Z</time>
      </trkpt>
      <trkpt lat="45.76764" lon="5.274">
        <ele>276.8</ele>
        <time>2015-11-15T07:55:58Z</time>
      </trkpt>
      <trkpt lat="45.76756" lon="5.27392">
        <ele>277.1</ele>
        <time>2015-11-15T07:56:00Z</time>
      </trkpt>
      <trkpt lat="45.76747" lon="5.27385">
        <ele>277.9</ele>
        <time>2015-11-15T07:56:02Z</time>
      </trkpt>
      <trkpt lat="45.76739" lon="5.2738">
        <ele>279.1</ele>
        <time>2015-11-15T07:56:04Z</time>
      </trkpt>
      <trkpt lat="45.76733" lon="5.27376">
        <ele>278.9</ele>
        <time>2015-11-15T07:56:06Z</time>
      </trkpt>
      <trkpt lat="45.76728" lon="5.27375">
        <ele>279.3</ele>
        <time>2015-11-15T07:56:08Z</time>
      </trkpt>
      <trkpt lat="45.76724" lon="5.27376">
        <ele>279.6</ele>
        <time>2015-11-15T07:56:10Z</time>
      </trkpt>
      <trkpt lat="45.76722" lon="5.27379">
        <ele>279.8</ele>
        <time>2015-11-15T07:56:12Z</time>
      </trkpt>
      <trkpt lat="45.7672" lon="5.27383">
        <ele>279.9</ele>
        <time>2015-11-15T07:56:14Z</time>
      </trkpt>
      <trkpt lat="45.76719" lon="5.27387">
        <ele>280</ele>
        <time>2015-11-15T07:56:16Z</time>
      </trkpt>
      <trkpt lat="45.7672" lon="5.27391">
        <ele>280</ele>
        <time>2015-11-15T07:56:18Z</time>
      </trkpt>
      <trkpt lat="45.76722" lon="5.27394">
        <ele>280</ele>
        <time>2015-11-15T07:56:20Z</time>
      </trkpt>
      <trkpt lat="45.76724" lon="5.27397">
        <ele>280</ele>
        <time>2015-11-15T07:56:22Z</time>
      </trkpt>
      <trkpt lat="45.76726" lon="5.274">
        <ele>280</ele>
        <time>2015-11-15T07:56:24Z</time>
      </trkpt>
      <trkpt lat="45.76728" lon="5.27403">
        <ele>280.2</ele>
        <time>2015-11-15T07:56:26Z</time>
      </trkpt>
      <trkpt lat="45.7673" lon="5.27406">
        <ele>280.5</ele>
        <time>2015-11-15T07:56:28Z</time>
      </trkpt>
      <trkpt lat="45.76732" lon="5.27408">
        <ele>280.7</ele>
        <time>2015-11-15T07:56:30Z</time>
      </trkpt>
      <trkpt lat="45.76735" lon="5.2741">
        <ele>281</ele>
        <time>2015-11-15T07:56:32Z</time>
      </trkpt>
      <trkpt lat="45.76737" lon="5.27412">
        <ele>281.5</ele>
        <time>2015-11-15T07:56:34Z</time>
      </trkpt>
      <trkpt lat="45.7674" lon="5.27415">
        <ele>282.1</ele>
        <time>2015-11-15T07:56:36Z</time>
      </trkpt>
      <trkpt lat="45.76742" lon="5.27417">
        <ele>282.7</ele>
        <time>2015-11-15T07:56:38Z</time>
      </trkpt>
      <trkpt lat="45.76744" lon="5.2742">
        <ele>283.1</ele>
        <time>2015-11-15T07:56:40Z</time>
      </trkpt>
      <trkpt lat="45.76746" lon="5.27424">
        <ele>283.8</ele>
        <time>2015-11-15T07:56:42Z</time>
      </trkpt>
      <trkpt lat="45.76748" lon="5.27427">
        <ele>284.6</ele>
        <time>2015-11-15T07:56:44Z</time>
      </trkpt>
      <trkpt lat="45.7675" lon="5.27431">
        <ele>285.2</ele>
        <time>2015-11-15T07:56:46Z</time>
      </trkpt>
      <trkpt lat="45.76753" lon="5.27434">
        <ele>285.7</ele>
        <time>2015-11-15T07:56:48Z</time>
      </trkpt>
      <trkpt lat="45.76755" lon="5.27438">
        <ele>286.2</ele>
        <time>2015-11-15T07:56:50Z</time>
      </trkpt>
      <trkpt lat="45.76757" lon="5.27441">
        <ele>286.8</ele>
        <time>2015-11-15T07:56:52Z</time>
      </trkpt>
      <trkpt lat="45.76759" lon="5.27444">
        <ele>287.3</ele>
        <time>2015-11-15T07:56:54Z</time>
      </trkpt>
      <trkpt lat="45.76761" lon="5.27447">
        <ele>288</ele>
        <time>2015-11-15T07:56:56Z</time>
      </trkpt>
      <trkpt lat="45.76762" lon="5.27451">
        <ele>288.4</ele>
        <time>2015-11-15T07:56:58Z</time>
      </trkpt>
      <trkpt lat="45.76764" lon="5.27454">
        <ele>288.8</ele>
        <time>2015-11-15T07:57:00Z</time>
      </trkpt>
      <trkpt lat="45.76766" lon="5.27458">
        <ele>289.5</ele>
        <time>2015-11-15T07:57:02Z</time>
      </trkpt>
      <trkpt lat="45.76768" lon="5.2746">
        <ele>290.1</ele>
        <time>2015-11-15T07:57:04Z</time>
      </trkpt>
      <trkpt lat="45.7677" lon="5.27463">
        <ele>290.7</ele>
        <time>2015-11-15T07:57:06Z</time>
      </trkpt>
      <trkpt lat="45.76773" lon="5.27466">
        <ele>291.1</ele>
        <time>2015-11-15T07:57:08Z</time>
      </trkpt>
      <trkpt lat="45.76775" lon="5.27469">
        <ele>291.5</ele>
        <time>2015-11-15T07:57:10Z</time>
      </trkpt>
      <trkpt lat="45.76777" lon="5.27472">
        <ele>292.2</ele>
        <time>2015-11-15T07:57:12Z</time>
      </trkpt>
      <trkpt lat="45.76779" lon="5.27476">
        <ele>293</ele>
        <time>2015-11-15T07:57:14Z</time>
      </trkpt>
      <trkpt lat="45.76781" lon="5.2748">
        <ele>293.6</ele>
        <time>2015-11-15T07:57:16Z</time>
      </trkpt>
      <trkpt lat="45.76784" lon="5.27483">
        <ele>294.4</ele>
        <time>2015-11-15T07:57:18Z</time>
      </trkpt>
      <trkpt lat="45.76786" lon="5.27486">
        <ele>294.9</ele>
        <time>2015-11-15T07:57:20Z</time>
      </trkpt>
      <trkpt lat="45.76788" lon="5.2749">
        <ele>295.5</ele>
        <time>2015-11-15T07:57:22Z</time>
      </trkpt>
      <trkpt lat="45.7679" lon="5.27494">
        <ele>295.8</ele>
        <time>2015-11-15T07:57:24Z</time>
      </trkpt>
      <trkpt lat="45.76792" lon="5.27497">
        <ele>296.1</ele>
        <time>2015-11-15T07:57:26Z</time>
      </trkpt>
      <trkpt lat="45.76794" lon="5.275">
        <ele>296.7</ele>
        <time>2015-11-15T07:57:28Z</time>
      </trkpt>
      <trkpt lat="45.76796" lon="5.27504">
        <ele>297.2</ele>
        <time>2015-11-15T07:57:30Z</time>
      </trkpt>
      <trkpt lat="45.76798" lon="5.27508">
        <ele>297.9</ele>
        <time>2015-11-15T07:57:32Z</time>
      </trkpt>
      <trkpt lat="45.768" lon="5.27512">
        <ele>298.5</ele>
        <time>2015-11-15T07:57:34Z</time>
      </trkpt>
      <trkpt lat="45.76802" lon="5.27515">
        <ele>299</ele>
        <time>2015-11-15T07:57:36Z</time>
      </trkpt>
      <trkpt lat="45.76803" lon="5.27519">
        <ele>299.6</ele>
        <time>2015-11-15T07:57:38Z</time>
      </trkpt>
      <trkpt lat="45.76805" lon="5.27524">
        <ele>300.3</ele>
        <time>2015-11-15T07:57:40Z</time>
      </trkpt>
      <trkpt lat="45.76807" lon="5.27527">
        <ele>301</ele>
        <time>2015-11-15T07:57:42Z</time>
      </trkpt>
      <trkpt lat="45.76809" lon="5.27531">
        <ele>301.4</ele>
        <time>2015-11-15T07:57:44Z</time>
      </trkpt>
      <trkpt lat="45.76811" lon="5.27535">
        <ele>302</ele>
        <time>2015-11-15T07:57:46Z</time>
      </trkpt>
      <trkpt lat="45.76812" lon="5.27538">
        <ele>302.7</ele>
        <time>2015-11-15T07:57:48Z</time>
      </trkpt>
      <trkpt lat="45.76814" lon="5.27542">
        <ele>303.3</ele>
        <time>2015-11-15T07:57:50Z</time>
      </trkpt>
      <trkpt lat="45.76815" lon="5.27546">
        <ele>303.8</ele>
        <time>2015-11-15T07:57:52Z</time>
      </trkpt>
      <trkpt lat="45.76816" lon="5.27549">
        <ele>304.2</ele>
        <time>2015-11-15T07:57:54Z</time>
      </trkpt>
      <trkpt lat="45.76817" lon="5.27553">
        <ele>304.6</ele>
        <time>2015-11-15T07:57:56Z</time>
      </trkpt>
      <trkpt lat="45.76819" lon="5.27557">
        <ele>305.2</ele>
        <time>2015-11-15T07:57:58Z</time>
      </trkpt>
      <trkpt lat="45.7682" lon="5.2756">
        <ele>305.6</ele>
        <time>2015-11-15T07:58:00Z</time>
      </trkpt>
      <trkpt lat="45.76822" lon="5.27564">
        <ele>306.1</ele>
        <time>2015-11-15T07:58:02Z</time>
      </trkpt>
      <trkpt lat="45.76823" lon="5.27567">
        <ele>306.5</ele>
        <time>2015-11-15T07:58:04Z</time>
      </trkpt>
      <trkpt lat="45.76825" lon="5.2757">
        <ele>307</ele>
        <time>2015-11-15T07:58:06Z</time>
      </trkpt>
      <trkpt lat="45.76826" lon="5.27574">
        <ele>307.5</ele>
        <time>2015-11-15T07:58:09Z</time>
      </trkpt>
      <trkpt lat="45.76827" lon="5.27578">
        <ele>308</ele>
        <time>2015-11-15T07:58:11Z</time>
      </trkpt>
      <trkpt lat="45.76828" lon="5.27581">
        <ele>308.4</ele>
        <time>2015-11-15T07:58:13Z</time>
      </trkpt>
      <trkpt lat="45.76828" lon="5.27583">
        <ele>308.7</ele>
        <time>2015-11-15T07:58:15Z</time>
      </trkpt>
      <trkpt lat="45.7683" lon="5.27586">
        <ele>308.8</ele>
        <time>2015-11-15T07:58:17Z</time>
      </trkpt>
      <trkpt lat="45.76831" lon="5.27589">
        <ele>309</ele>
        <time>2015-11-15T07:58:19Z</time>
      </trkpt>
      <trkpt lat="45.76831" lon="5.27592">
        <ele>309.2</ele>
        <time>2015-11-15T07:58:21Z</time>
      </trkpt>
      <trkpt lat="45.76833" lon="5.27595">
        <ele>309.4</ele>
        <time>2015-11-15T07:58:23Z</time>
      </trkpt>
      <trkpt lat="45.76834" lon="5.27597">
        <ele>309.5</ele>
        <time>2015-11-15T07:58:25Z</time>
      </trkpt>
      <trkpt lat="45.76835" lon="5.276">
        <ele>309.8</ele>
        <time>2015-11-15T07:58:27Z</time>
      </trkpt>
      <trkpt lat="45.76836" lon="5.27603">
        <ele>310.1</ele>
        <time>2015-11-15T07:58:29Z</time>
      </trkpt>
      <trkpt lat="45.76838" lon="5.27605">
        <ele>310.4</ele>
        <time>2015-11-15T07:58:31Z</time>
      </trkpt>
      <trkpt lat="45.76839" lon="5.27608">
        <ele>310.7</ele>
        <time>2015-11-15T07:58:33Z</time>
      </trkpt>
      <trkpt lat="45.76841" lon="5.27611">
        <ele>311</ele>
        <time>2015-11-15T07:58:35Z</time>
      </trkpt>
      <trkpt lat="45.76841" lon="5.27613">
        <ele>311.2</ele>
        <time>2015-11-15T07:58:37Z</time>
      </trkpt>
      <trkpt lat="45.76843" lon="5.27616">
        <ele>311.4</ele>
        <time>2015-11-15T07:58:39Z</time>
      </trkpt>
      <trkpt lat="45.76846" lon="5.27617">
        <ele>311.6</ele>
        <time>2015-11-15T07:58:41Z</time>
      </trkpt>
      <trkpt lat="45.76847" lon="5.27619">
        <ele>311.7</ele>
        <time>2015-11-15T07:58:43Z</time>
      </trkpt>
      <trkpt lat="45.76849" lon="5.27621">
        <ele>311.9</ele>
        <time>2015-11-15T07:58:45Z</time>
      </trkpt>
      <trkpt lat="45.76851" lon="5.27623">
        <ele>312</ele>
        <time>2015-11-15T07:58:47Z</time>
      </trkpt>
      <trkpt lat="45.76852" lon="5.27625">
        <ele>312.2</ele>
        <time>2015-11-15T07:58:49Z</time>
      </trkpt>
      <trkpt lat="45.76854" lon="5.27628">
        <ele>312.4</ele>
        <time>2015-11-15T07:58:51Z</time>
      </trkpt>
      <trkpt lat="45.76857" lon="5.2763">
        <ele>312.8</ele>
        <time>2015-11-15T07:58:53Z</time>
      </trkpt>
      <trkpt lat="45.7686" lon="5.27632">
        <ele>313.2</ele>
        <time>2015-11-15T07:58:55Z</time>
      </trkpt>
      <trkpt lat="45.76863" lon="5.27634">
        <ele>313.6</ele>
        <time>2015-11-15T07:58:57Z</time>
      </trkpt>
      <trkpt lat="45.76865" lon="5.27638">
        <ele>314</ele>
        <time>2015-11-15T07:58:59Z</time>
      </trkpt>
      <trkpt lat="45.76867" lon="5.27641">
        <ele>314.2</ele>
        <time>2015-11-15T07:59:01Z</time>
      </trkpt>
      <trkpt lat="45.76869" lon="5.27643">
        <ele>314.4</ele>
        <time>2015-11-15T07:59:03Z</time>
      </trkpt>
      <trkpt lat="45.76872" lon="5.27646">
        <ele>314.6</ele>
        <time>2015-11-15T07:59:05Z</time>
      </trkpt>
      <trkpt lat="45.76874" lon="5.27648">
        <ele>314.9</ele>
        <time>2015-11-15T07:59:07Z</time>
      </trkpt>
      <trkpt lat="45.76878" lon="5.2765">
        <ele>315.2</ele>
        <time>2015-11-15T07:59:09Z</time>
      </trkpt>
      <trkpt lat="45.76881" lon="5.27651">
        <ele>315.8</ele>
        <time>2015-11-15T07:59:11Z</time>
      </trkpt>
      <trkpt lat="45.76885" lon="5.27653">
        <ele>316.4</ele>
        <time>2015-11-15T07:59:13Z</time>
      </trkpt>
      <trkpt lat="45.76888" lon="5.27656">
        <ele>317.1</ele>
        <time>2015-11-15T07:59:15Z</time>
      </trkpt>
      <trkpt lat="45.76891" lon="5.2766">
        <ele>317.6</ele>
        <time>2015-11-15T07:59:17Z</time>
      </trkpt>
      <trkpt lat="45.76894" lon="5.27664">
        <ele>318.2</ele>
        <time>2015-11-15T07:59:19Z</time>
      </trkpt>
      <trkpt lat="45.76897" lon="5.27667">
        <ele>318.8</ele>
        <time>2015-11-15T07:59:21Z</time>
      </trkpt>
      <trkpt lat="45.769" lon="5.27672">
        <ele>319.1</ele>
        <time>2015-11-15T07:59:23Z</time>
      </trkpt>
      <trkpt lat="45.76903" lon="5.27676">
        <ele>319.3</ele>
        <time>2015-11-15T07:59:25Z</time>
      </trkpt>
      <trkpt lat="45.76907" lon="5.27679">
        <ele>319.6</ele>
        <time>2015-11-15T07:59:27Z</time>
      </trkpt>
      <trkpt lat="45.76911" lon="5.27683">
        <ele>319.8</ele>
        <time>2015-11-15T07:59:29Z</time>
      </trkpt>
      <trkpt lat="45.76914" lon="5.27685">
        <ele>320</ele>
        <time>2015-11-15T07:59:31Z</time>
      </trkpt>
      <trkpt lat="45.76917" lon="5.27688">
        <ele>320.2</ele>
        <time>2015-11-15T07:59:33Z</time>
      </trkpt>
      <trkpt lat="45.7692" lon="5.2769">
        <ele>320.5</ele>
        <time>2015-11-15T07:59:35Z</time>
      </trkpt>
      <trkpt lat="45.76925" lon="5.27692">
        <ele>321.1</ele>
        <time>2015-11-15T07:59:37Z</time>
      </trkpt>
      <trkpt lat="45.76929" lon="5.27694">
        <ele>321.5</ele>
        <time>2015-11-15T07:59:39Z</time>
      </trkpt>
      <trkpt lat="45.76932" lon="5.27698">
        <ele>321.9</ele>
        <time>2015-11-15T07:59:41Z</time>
      </trkpt>
      <trkpt lat="45.76934" lon="5.27701">
        <ele>322.1</ele>
        <time>2015-11-15T07:59:43Z</time>
      </trkpt>
      <trkpt lat="45.76937" lon="5.27704">
        <ele>322.3</ele>
        <time>2015-11-15T07:59:45Z</time>
      </trkpt>
      <trkpt lat="45.7694" lon="5.27707">
        <ele>322.6</ele>
        <time>2015-11-15T07:59:47Z</time>
      </trkpt>
      <trkpt lat="45.76944" lon="5.2771">
        <ele>322.9</ele>
        <time>2015-11-15T07:59:49Z</time>
      </trkpt>
      <trkpt lat="45.76947" lon="5.27713">
        <ele>323.4</ele>
        <time>2015-11-15T07:59:51Z</time>
      </trkpt>
      <trkpt lat="45.76951" lon="5.27717">
        <ele>323.9</ele>
        <time>2015-11-15T07:59:53Z</time>
      </trkpt>
      <trkpt lat="45.76954" lon="5.27722">
        <ele>324.4</ele>
        <time>2015-11-15T07:59:55Z</time>
      </trkpt>
      <trkpt lat="45.76956" lon="5.27728">
        <ele>324.6</ele>
        <time>2015-11-15T07:59:57Z</time>
      </trkpt>
      <trkpt lat="45.7696" lon="5.27733">
        <ele>324.8</ele>
        <time>2015-11-15T07:59:59Z</time>
      </trkpt>
      <trkpt lat="45.76962" lon="5.27737">
        <ele>325</ele>
        <time>2015-11-15T08:00:01Z</time>
      </trkpt>
      <trkpt lat="45.76964" lon="5.27742">
        <ele>325.2</ele>
        <time>2015-11-15T08:00:03Z</time>
      </trkpt>
      <trkpt lat="45.76967" lon="5.27747">
        <ele>325.6</ele>
        <time>2015-11-15T08:00:05Z</time>
      </trkpt>
      <trkpt lat="45.76968" lon="5.27752">
        <ele>326.1</ele>
        <time>2015-11-15T08:00:07Z</time>
      </trkpt>
      <trkpt lat="45.76971" lon="5.27756">
        <ele>326.6</ele>
        <time>2015-11-15T08:00:09Z</time>
      </trkpt>
      <trkpt lat="45.76974" lon="5.27761">
        <ele>327.1</ele>
        <time>2015-11-15T08:00:11Z</time>
      </trkpt>
      <trkpt lat="45.76977" lon="5.27764">
        <ele>327.4</ele>
        <time>2015-11-15T08:00:13Z</time>
      </trkpt>
      <trkpt lat="45.7698" lon="5.27768">
        <ele>327.5</ele>
        <time>2015-11-15T08:00:15Z</time>
      </trkpt>
      <trkpt lat="45.76983" lon="5.27772">
        <ele>327.6</ele>
        <time>2015-11-15T08:00:17Z</time>
      </trkpt>
      <trkpt lat="45.76985" lon="5.27775">
        <ele>327.8</ele>
        <time>2015-11-15T08:00:19Z</time>
      </trkpt>
      <trkpt lat="45.76988" lon="5.27779">
        <ele>327.9</ele>
        <time>2015-11-15T08:00:21Z</time>
      </trkpt>
      <trkpt lat="45.76992" lon="5.27783">
        <ele>328.1</ele>
        <time>2015-11-15T08:00:23Z</time>
      </trkpt>
      <trkpt lat="45.76997" lon="5.27788">
        <ele>328.2</ele>
        <time>2015-11-15T08:00:25Z</time>
      </trkpt>
      <trkpt lat="45.77001" lon="5.27793">
        <ele>328.4</ele>
        <time>2015-11-15T08:00:27Z</time>
      </trkpt>
      <trkpt lat="45.77006" lon="5.27798">
        <ele>328.5</ele>
        <time>2015-11-15T08:00:29Z</time>
      </trkpt>
      <trkpt lat="45.7701" lon="5.27803">
        <ele>328.8</ele>
        <time>2015-11-15T08:00:31Z</time>
      </trkpt>
      <trkpt lat="45.77013" lon="5.27808">
        <ele>329.2</ele>
        <time>2015-11-15T08:00:33Z</time>
      </trkpt>
      <trkpt lat="45.77017" lon="5.27812">
        <ele>329.7</ele>
        <time>2015-11-15T08:00:35Z</time>
      </trkpt>
      <trkpt lat="45.77021" lon="5.27817">
        <ele>330.1</ele>
        <time>2015-11-15T08:00:37Z</time>
      </trkpt>
      <trkpt lat="45.77026" lon="5.27821">
        <ele>330.2</ele>
        <time>2015-11-15T08:00:39Z</time>
      </trkpt>
      <trkpt lat="45.77032" lon="5.27826">
        <ele>330.4</ele>
        <time>2015-11-15T08:00:41Z</time>
      </trkpt>
      <trkpt lat="45.77038" lon="5.27831">
        <ele>330.5</ele>
        <time>2015-11-15T08:00:43Z</time>
      </trkpt>
      <trkpt lat="45.77044" lon="5.27838">
        <ele>330.6</ele>
        <time>2015-11-15T08:00:45Z</time>
      </trkpt>
      <trkpt lat="45.7705" lon="5.27844">
        <ele>330.7</ele>
        <time>2015-11-15T08:00:47Z</time>
      </trkpt>
      <trkpt lat="45.77056" lon="5.27849">
        <ele>330.7</ele>
        <time>2015-11-15T08:00:49Z</time>
      </trkpt>
      <trkpt lat="45.77063" lon="5.27853">
        <ele>330.8</ele>
        <time>2015-11-15T08:00:51Z</time>
      </trkpt>
      <trkpt lat="45.7707" lon="5.27857">
        <ele>330.9</ele>
        <time>2015-11-15T08:00:53Z</time>
      </trkpt>
      <trkpt lat="45.77078" lon="5.27861">
        <ele>330.9</ele>
        <time>2015-11-15T08:00:55Z</time>
      </trkpt>
      <trkpt lat="45.77085" lon="5.27867">
        <ele>331</ele>
        <time>2015-11-15T08:00:57Z</time>
      </trkpt>
      <trkpt lat="45.77092" lon="5.27874">
        <ele>331.1</ele>
        <time>2015-11-15T08:00:59Z</time>
      </trkpt>
      <trkpt lat="45.77095" lon="5.27884">
        <ele>331.2</ele>
        <time>2015-11-15T08:01:01Z</time>
      </trkpt>
      <trkpt lat="45.77098" lon="5.27895">
        <ele>331.3</ele>
        <time>2015-11-15T08:01:03Z</time>
      </trkpt>
      <trkpt lat="45.77101" lon="5.27904">
        <ele>331.4</ele>
        <time>2015-11-15T08:01:05Z</time>
      </trkpt>
      <trkpt lat="45.77104" lon="5.27913">
        <ele>331.5</ele>
        <time>2015-11-15T08:01:07Z</time>
      </trkpt>
      <trkpt lat="45.77107" lon="5.27922">
        <ele>331.6</ele>
        <time>2015-11-15T08:01:09Z</time>
      </trkpt>
      <trkpt lat="45.77109" lon="5.2793">
        <ele>331.7</ele>
        <time>2015-11-15T08:01:11Z</time>
      </trkpt>
      <trkpt lat="45.7711" lon="5.27938">
        <ele>331.8</ele>
        <time>2015-11-15T08:01:13Z</time>
      </trkpt>
      <trkpt lat="45.77111" lon="5.27946">
        <ele>332</ele>
        <time>2015-11-15T08:01:15Z</time>
      </trkpt>
      <trkpt lat="45.77114" lon="5.27953">
        <ele>332.2</ele>
        <time>2015-11-15T08:01:17Z</time>
      </trkpt>
      <trkpt lat="45.77117" lon="5.27959">
        <ele>332.7</ele>
        <time>2015-11-15T08:01:19Z</time>
      </trkpt>
      <trkpt lat="45.77119" lon="5.27964">
        <ele>333.3</ele>
        <time>2015-11-15T08:01:21Z</time>
      </trkpt>
      <trkpt lat="45.77121" lon="5.2797">
        <ele>333.9</ele>
        <time>2015-11-15T08:01:23Z</time>
      </trkpt>
      <trkpt lat="45.77123" lon="5.27975">
        <ele>334.5</ele>
        <time>2015-11-15T08:01:25Z</time>
      </trkpt>
      <trkpt lat="45.77124" lon="5.27979">
        <ele>334.9</ele>
        <time>2015-11-15T08:01:27Z</time>
      </trkpt>
      <trkpt lat="45.77126" lon="5.27982">
        <ele>335.4</ele>
        <time>2015-11-15T08:01:29Z</time>
      </trkpt>
      <trkpt lat="45.77128" lon="5.27987">
        <ele>336</ele>
        <time>2015-11-15T08:01:31Z</time>
      </trkpt>
      <trkpt lat="45.77131" lon="5.2799">
        <ele>336.5</ele>
        <time>2015-11-15T08:01:33Z</time>
      </trkpt>
      <trkpt lat="45.77133" lon="5.27994">
        <ele>336.9</ele>
        <time>2015-11-15T08:01:35Z</time>
      </trkpt>
      <trkpt lat="45.77136" lon="5.27999">
        <ele>337.2</ele>
        <time>2015-11-15T08:01:37Z</time>
      </trkpt>
      <trkpt lat="45.77138" lon="5.28002">
        <ele>337.5</ele>
        <time>2015-11-15T08:01:39Z</time>
      </trkpt>
      <trkpt lat="45.7714" lon="5.28007">
        <ele>337.9</ele>
        <time>2015-11-15T08:01:41Z</time>
      </trkpt>
      <trkpt lat="45.77143" lon="5.28011">
        <ele>338.4</ele>
        <time>2015-11-15T08:01:43Z</time>
      </trkpt>
      <trkpt lat="45.77145" lon="5.28015">
        <ele>338.9</ele>
        <time>2015-11-15T08:01:45Z</time>
      </trkpt>
      <trkpt lat="45.77148" lon="5.2802">
        <ele>339.4</ele>
        <time>2015-11-15T08:01:47Z</time>
      </trkpt>
      <trkpt lat="45.7715" lon="5.28025">
        <ele>339.7</ele>
        <time>2015-11-15T08:01:49Z</time>
      </trkpt>
      <trkpt lat="45.77153" lon="5.28029">
        <ele>340.1</ele>
        <time>2015-11-15T08:01:51Z</time>
      </trkpt>
      <trkpt lat="45.77155" lon="5.28034">
        <ele>340.4</ele>
        <time>2015-11-15T08:01:53Z</time>
      </trkpt>
      <trkpt lat="45.77157" lon="5.28039">
        <ele>341</ele>
        <time>2015-11-15T08:01:55Z</time>
      </trkpt>
      <trkpt lat="45.77159" lon="5.28044">
        <ele>341.5</ele>
        <time>2015-11-15T08:01:57Z</time>
      </trkpt>
      <trkpt lat="45.77161" lon="5.28049">
        <ele>342</ele>
        <time>2015-11-15T08:01:59Z</time>
      </trkpt>
      <trkpt lat="45.77163" lon="5.28054">
        <ele>342.4</ele>
        <time>2015-11-15T08:02:01Z</time>
      </trkpt>
      <trkpt lat="45.77164" lon="5.28059">
        <ele>342.7</ele>
        <time>2015-11-15T08:02:03Z</time>
      </trkpt>
      <trkpt lat="45.77166" lon="5.28064">
        <ele>343</ele>
        <time>2015-11-15T08:02:05Z</time>
      </trkpt>
      <trkpt lat="45.77167" lon="5.2807">
        <ele>343.3</ele>
        <time>2015-11-15T08:02:07Z</time>
      </trkpt>
      <trkpt lat="45.77168" lon="5.28076">
        <ele>343.8</ele>
        <time>2015-11-15T08:02:09Z</time>
      </trkpt>
      <trkpt lat="45.7717" lon="5.28082">
        <ele>344.1</ele>
        <time>2015-11-15T08:02:11Z</time>
      </trkpt>
      <trkpt lat="45.77171" lon="5.28089">
        <ele>344.3</ele>
        <time>2015-11-15T08:02:13Z</time>
      </trkpt>
      <trkpt lat="45.77172" lon="5.28097">
        <ele>344.4</ele>
        <time>2015-11-15T08:02:15Z</time>
      </trkpt>
      <trkpt lat="45.77173" lon="5.28105">
        <ele>344.5</ele>
        <time>2015-11-15T08:02:17Z</time>
      </trkpt>
      <trkpt lat="45.77174" lon="5.28113">
        <ele>344.6</ele>
        <time>2015-11-15T08:02:19Z</time>
      </trkpt>
      <trkpt lat="45.77176" lon="5.28123">
        <ele>344.7</ele>
        <time>2015-11-15T08:02:21Z</time>
      </trkpt>
      <trkpt lat="45.77177" lon="5.28132">
        <ele>344.8</ele>
        <time>2015-11-15T08:02:23Z</time>
      </trkpt>
      <trkpt lat="45.77177" lon="5.28142">
        <ele>344.9</ele>
        <time>2015-11-15T08:02:25Z</time>
      </trkpt>
      <trkpt lat="45.77177" lon="5.28152">
        <ele>344.9</ele>
        <time>2015-11-15T08:02:27Z</time>
      </trkpt>
      <trkpt lat="45.77177" lon="5.28162">
        <ele>345</ele>
        <time>2015-11-15T08:02:29Z</time>
      </trkpt>
      <trkpt lat="45.77179" lon="5.28171">
        <ele>345</ele>
        <time>2015-11-15T08:02:31Z</time>
      </trkpt>
      <trkpt lat="45.77179" lon="5.2818">
        <ele>345.1</ele>
        <time>2015-11-15T08:02:33Z</time>
      </trkpt>
      <trkpt lat="45.7718" lon="5.28189">
        <ele>345.1</ele>
        <time>2015-11-15T08:02:35Z</time>
      </trkpt>
      <trkpt lat="45.77181" lon="5.28198">
        <ele>345.2</ele>
        <time>2015-11-15T08:02:37Z</time>
      </trkpt>
      <trkpt lat="45.77181" lon="5.28207">
        <ele>345.2</ele>
        <time>2015-11-15T08:02:39Z</time>
      </trkpt>
      <trkpt lat="45.77181" lon="5.28216">
        <ele>345.3</ele>
        <time>2015-11-15T08:02:41Z</time>
      </trkpt>
      <trkpt lat="45.77181" lon="5.28224">
        <ele>345.4</ele>
        <time>2015-11-15T08:02:43Z</time>
      </trkpt>
      <trkpt lat="45.77181" lon="5.28232">
        <ele>345.6</ele>
        <time>2015-11-15T08:02:45Z</time>
      </trkpt>
      <trkpt lat="45.77182" lon="5.2824">
        <ele>345.8</ele>
        <time>2015-11-15T08:02:47Z</time>
      </trkpt>
      <trkpt lat="45.77183" lon="5.28248">
        <ele>346.1</ele>
        <time>2015-11-15T08:02:49Z</time>
      </trkpt>
      <trkpt lat="45.77184" lon="5.28255">
        <ele>346.5</ele>
        <time>2015-11-15T08:02:51Z</time>
      </trkpt>
      <trkpt lat="45.77185" lon="5.28262">
        <ele>347</ele>
        <time>2015-11-15T08:02:53Z</time>
      </trkpt>
      <trkpt lat="45.77184" lon="5.28268">
        <ele>347.4</ele>
        <time>2015-11-15T08:02:55Z</time>
      </trkpt>
      <trkpt lat="45.77183" lon="5.28273">
        <ele>347.7</ele>
        <time>2015-11-15T08:02:57Z</time>
      </trkpt>
      <trkpt lat="45.77183" lon="5.28279">
        <ele>347.9</ele>
        <time>2015-11-15T08:02:59Z</time>
      </trkpt>
      <trkpt lat="45.77183" lon="5.28284">
        <ele>348.1</ele>
        <time>2015-11-15T08:03:01Z</time>
      </trkpt>
      <trkpt lat="45.77182" lon="5.2829">
        <ele>348.3</ele>
        <time>2015-11-15T08:03:03Z</time>
      </trkpt>
      <trkpt lat="45.77181" lon="5.28296">
        <ele>348.5</ele>
        <time>2015-11-15T08:03:05Z</time>
      </trkpt>
      <trkpt lat="45.77182" lon="5.28301">
        <ele>348.8</ele>
        <time>2015-11-15T08:03:07Z</time>
      </trkpt>
      <trkpt lat="45.77181" lon="5.28306">
        <ele>349.2</ele>
        <time>2015-11-15T08:03:09Z</time>
      </trkpt>
      <trkpt lat="45.77181" lon="5.28311">
        <ele>349.6</ele>
        <time>2015-11-15T08:03:11Z</time>
      </trkpt>
      <trkpt lat="45.7718" lon="5.28316">
        <ele>350.1</ele>
        <time>2015-11-15T08:03:13Z</time>
      </trkpt>
      <trkpt lat="45.77178" lon="5.2832">
        <ele>350.6</ele>
        <time>2015-11-15T08:03:15Z</time>
      </trkpt>
      <trkpt lat="45.77176" lon="5.28325">
        <ele>351.1</ele>
        <time>2015-11-15T08:03:17Z</time>
      </trkpt>
      <trkpt lat="45.77176" lon="5.28331">
        <ele>351.5</ele>
        <time>2015-11-15T08:03:19Z</time>
      </trkpt>
      <trkpt lat="45.77174" lon="5.28336">
        <ele>352.1</ele>
        <time>2015-11-15T08:03:21Z</time>
      </trkpt>
      <trkpt lat="45.77173" lon="5.2834">
        <ele>352.6</ele>
        <time>2015-11-15T08:03:23Z</time>
      </trkpt>
      <trkpt lat="45.77172" lon="5.28344">
        <ele>353</ele>
        <time>2015-11-15T08:03:25Z</time>
      </trkpt>
      <trkpt lat="45.7717" lon="5.28348">
        <ele>353.3</ele>
        <time>2015-11-15T08:03:27Z</time>
      </trkpt>
      <trkpt lat="45.77168" lon="5.28351">
        <ele>353.6</ele>
        <time>2015-11-15T08:03:29Z</time>
      </trkpt>
      <trkpt lat="45.77165" lon="5.28354">
        <ele>354.2</ele>
        <time>2015-11-15T08:03:31Z</time>
      </trkpt>
      <trkpt lat="45.77165" lon="5.28358">
        <ele>354.8</ele>
        <time>2015-11-15T08:03:33Z</time>
      </trkpt>
      <trkpt lat="45.77165" lon="5.28363">
        <ele>355.4</ele>
        <time>2015-11-15T08:03:35Z</time>
      </trkpt>
      <trkpt lat="45.77165" lon="5.28367">
        <ele>355.9</ele>
        <time>2015-11-15T08:03:37Z</time>
      </trkpt>
      <trkpt lat="45.77165" lon="5.28372">
        <ele>356.3</ele>
        <time>2015-11-15T08:03:39Z</time>
      </trkpt>
      <trkpt lat="45.77164" lon="5.28376">
        <ele>356.9</ele>
        <time>2015-11-15T08:03:41Z</time>
      </trkpt>
      <trkpt lat="45.77162" lon="5.2838">
        <ele>357.5</ele>
        <time>2015-11-15T08:03:43Z</time>
      </trkpt>
      <trkpt lat="45.7716" lon="5.28383">
        <ele>358</ele>
        <time>2015-11-15T08:03:45Z</time>
      </trkpt>
      <trkpt lat="45.77158" lon="5.28387">
        <ele>358.3</ele>
        <time>2015-11-15T08:03:47Z</time>
      </trkpt>
      <trkpt lat="45.77156" lon="5.2839">
        <ele>358.5</ele>
        <time>2015-11-15T08:03:49Z</time>
      </trkpt>
      <trkpt lat="45.77155" lon="5.28392">
        <ele>358.7</ele>
        <time>2015-11-15T08:03:51Z</time>
      </trkpt>
      <trkpt lat="45.77155" lon="5.28395">
        <ele>358.8</ele>
        <time>2015-11-15T08:03:53Z</time>
      </trkpt>
      <trkpt lat="45.77154" lon="5.28398">
        <ele>359.1</ele>
        <time>2015-11-15T08:03:55Z</time>
      </trkpt>
      <trkpt lat="45.77153" lon="5.28402">
        <ele>359.5</ele>
        <time>2015-11-15T08:03:57Z</time>
      </trkpt>
      <trkpt lat="45.77153" lon="5.28406">
        <ele>359.9</ele>
        <time>2015-11-15T08:03:59Z</time>
      </trkpt>
      <trkpt lat="45.77153" lon="5.28409">
        <ele>360.2</ele>
        <time>2015-11-15T08:04:01Z</time>
      </trkpt>
      <trkpt lat="45.77153" lon="5.28414">
        <ele>360.7</ele>
        <time>2015-11-15T08:04:09Z</time>
      </trkpt>
      <trkpt lat="45.77153" lon="5.28416">
        <ele>360.9</ele>
        <time>2015-11-15T08:04:11Z</time>
      </trkpt>
      <trkpt lat="45.77153" lon="5.28418">
        <ele>361.1</ele>
        <time>2015-11-15T08:04:13Z</time>
      </trkpt>
      <trkpt lat="45.77154" lon="5.2842">
        <ele>361.3</ele>
        <time>2015-11-15T08:04:15Z</time>
      </trkpt>
      <trkpt lat="45.77154" lon="5.28422">
        <ele>361.6</ele>
        <time>2015-11-15T08:04:17Z</time>
      </trkpt>
      <trkpt lat="45.77153" lon="5.28426">
        <ele>362.1</ele>
        <time>2015-11-15T08:04:21Z</time>
      </trkpt>
      <trkpt lat="45.77151" lon="5.28432">
        <ele>363.3</ele>
        <time>2015-11-15T08:04:29Z</time>
      </trkpt>
      <trkpt lat="45.7715" lon="5.28434">
        <ele>363.5</ele>
        <time>2015-11-15T08:04:31Z</time>
      </trkpt>
      <trkpt lat="45.77149" lon="5.28435">
        <ele>363.7</ele>
        <time>2015-11-15T08:04:33Z</time>
      </trkpt>
      <trkpt lat="45.77148" lon="5.28437">
        <ele>363.9</ele>
        <time>2015-11-15T08:04:35Z</time>
      </trkpt>
      <trkpt lat="45.77146" lon="5.28438">
        <ele>364.2</ele>
        <time>2015-11-15T08:04:37Z</time>
      </trkpt>
      <trkpt lat="45.77145" lon="5.2844">
        <ele>364.7</ele>
        <time>2015-11-15T08:04:39Z</time>
      </trkpt>
      <trkpt lat="45.77144" lon="5.28442">
        <ele>365</ele>
        <time>2015-11-15T08:04:41Z</time>
      </trkpt>
      <trkpt lat="45.77144" lon="5.28444">
        <ele>365.4</ele>
        <time>2015-11-15T08:04:43Z</time>
      </trkpt>
      <trkpt lat="45.77143" lon="5.28448">
        <ele>366</ele>
        <time>2015-11-15T08:04:45Z</time>
      </trkpt>
      <trkpt lat="45.77142" lon="5.28451">
        <ele>366.6</ele>
        <time>2015-11-15T08:04:47Z</time>
      </trkpt>
      <trkpt lat="45.77142" lon="5.28454">
        <ele>367</ele>
        <time>2015-11-15T08:04:49Z</time>
      </trkpt>
      <trkpt lat="45.77143" lon="5.28456">
        <ele>367.4</ele>
        <time>2015-11-15T08:04:51Z</time>
      </trkpt>
      <trkpt lat="45.77144" lon="5.28458">
        <ele>367.8</ele>
        <time>2015-11-15T08:04:53Z</time>
      </trkpt>
      <trkpt lat="45.77144" lon="5.28461">
        <ele>368.2</ele>
        <time>2015-11-15T08:04:55Z</time>
      </trkpt>
      <trkpt lat="45.77144" lon="5.28463">
        <ele>368.5</ele>
        <time>2015-11-15T08:04:57Z</time>
      </trkpt>
      <trkpt lat="45.77144" lon="5.28466">
        <ele>368.9</ele>
        <time>2015-11-15T08:04:59Z</time>
      </trkpt>
      <trkpt lat="45.77144" lon="5.28468">
        <ele>369.1</ele>
        <time>2015-11-15T08:05:01Z</time>
      </trkpt>
      <trkpt lat="45.77144" lon="5.28471">
        <ele>369.5</ele>
        <time>2015-11-15T08:05:03Z</time>
      </trkpt>
      <trkpt lat="45.77144" lon="5.28473">
        <ele>369.9</ele>
        <time>2015-11-15T08:05:05Z</time>
      </trkpt>
      <trkpt lat="45.77143" lon="5.28475">
        <ele>370.2</ele>
        <time>2015-11-15T08:05:07Z</time>
      </trkpt>
      <trkpt lat="45.77142" lon="5.28477">
        <ele>370.6</ele>
        <time>2015-11-15T08:05:09Z</time>
      </trkpt>
      <trkpt lat="45.77141" lon="5.28479">
        <ele>370.8</ele>
        <time>2015-11-15T08:05:11Z</time>
      </trkpt>
      <trkpt lat="45.77141" lon="5.28482">
        <ele>370.9</ele>
        <time>2015-11-15T08:05:13Z</time>
      </trkpt>
      <trkpt lat="45.7714" lon="5.28484">
        <ele>371.2</ele>
        <time>2015-11-15T08:05:15Z</time>
      </trkpt>
      <trkpt lat="45.7714" lon="5.28486">
        <ele>371.3</ele>
        <time>2015-11-15T08:05:17Z</time>
      </trkpt>
      <trkpt lat="45.77139" lon="5.28488">
        <ele>371.5</ele>
        <time>2015-11-15T08:05:19Z</time>
      </trkpt>
      <trkpt lat="45.77137" lon="5.28489">
        <ele>371.7</ele>
        <time>2015-11-15T08:05:21Z</time>
      </trkpt>
      <trkpt lat="45.77137" lon="5.28491">
        <ele>371.8</ele>
        <time>2015-11-15T08:05:23Z</time>
      </trkpt>
      <trkpt lat="45.77135" lon="5.28494">
        <ele>372.3</ele>
        <time>2015-11-15T08:05:27Z</time>
      </trkpt>
      <trkpt lat="45.77135" lon="5.28496">
        <ele>372.6</ele>
        <time>2015-11-15T08:05:29Z</time>
      </trkpt>
      <trkpt lat="45.77134" lon="5.28498">
        <ele>373</ele>
        <time>2015-11-15T08:05:31Z</time>
      </trkpt>
      <trkpt lat="45.77132" lon="5.28502">
        <ele>373.6</ele>
        <time>2015-11-15T08:06:37Z</time>
      </trkpt>
      <trkpt lat="45.7713" lon="5.28506">
        <ele>374.1</ele>
        <time>2015-11-15T08:06:39Z</time>
      </trkpt>
      <trkpt lat="45.77128" lon="5.28513">
        <ele>374.9</ele>
        <time>2015-11-15T08:06:41Z</time>
      </trkpt>
      <trkpt lat="45.77126" lon="5.28516">
        <ele>375.6</ele>
        <time>2015-11-15T08:06:43Z</time>
      </trkpt>
      <trkpt lat="45.77125" lon="5.2852">
        <ele>376.6</ele>
        <time>2015-11-15T08:06:45Z</time>
      </trkpt>
      <trkpt lat="45.77124" lon="5.28523">
        <ele>375.7</ele>
        <time>2015-11-15T08:06:47Z</time>
      </trkpt>
      <trkpt lat="45.77123" lon="5.28528">
        <ele>374.2</ele>
        <time>2015-11-15T08:06:49Z</time>
      </trkpt>
      <trkpt lat="45.77123" lon="5.28531">
        <ele>373.3</ele>
        <time>2015-11-15T08:06:51Z</time>
      </trkpt>
      <trkpt lat="45.77122" lon="5.28536">
        <ele>372.8</ele>
        <time>2015-11-15T08:06:53Z</time>
      </trkpt>
      <trkpt lat="45.77121" lon="5.28541">
        <ele>372.4</ele>
        <time>2015-11-15T08:06:55Z</time>
      </trkpt>
      <trkpt lat="45.7712" lon="5.28546">
        <ele>372.2</ele>
        <time>2015-11-15T08:06:57Z</time>
      </trkpt>
      <trkpt lat="45.77119" lon="5.28552">
        <ele>372.4</ele>
        <time>2015-11-15T08:06:59Z</time>
      </trkpt>
      <trkpt lat="45.77119" lon="5.28558">
        <ele>372.7</ele>
        <time>2015-11-15T08:07:01Z</time>
      </trkpt>
      <trkpt lat="45.77119" lon="5.28564">
        <ele>373.1</ele>
        <time>2015-11-15T08:07:03Z</time>
      </trkpt>
      <trkpt lat="45.77119" lon="5.2857">
        <ele>373.6</ele>
        <time>2015-11-15T08:07:05Z</time>
      </trkpt>
      <trkpt lat="45.77121" lon="5.28576">
        <ele>374.1</ele>
        <time>2015-11-15T08:07:07Z</time>
      </trkpt>
      <trkpt lat="45.77122" lon="5.28581">
        <ele>374.6</ele>
        <time>2015-11-15T08:07:09Z</time>
      </trkpt>
      <trkpt lat="45.77125" lon="5.28585">
        <ele>375.2</ele>
        <time>2015-11-15T08:07:11Z</time>
      </trkpt>
      <trkpt lat="45.77126" lon="5.2859">
        <ele>375.7</ele>
        <time>2015-11-15T08:07:13Z</time>
      </trkpt>
      <trkpt lat="45.77128" lon="5.28594">
        <ele>376.1</ele>
        <time>2015-11-15T08:07:15Z</time>
      </trkpt>
      <trkpt lat="45.77129" lon="5.28598">
        <ele>376.6</ele>
        <time>2015-11-15T08:07:17Z</time>
      </trkpt>
      <trkpt lat="45.7713" lon="5.28601">
        <ele>376.9</ele>
        <time>2015-11-15T08:07:19Z</time>
      </trkpt>
      <trkpt lat="45.77131" lon="5.28603">
        <ele>377.1</ele>
        <time>2015-11-15T08:07:21Z</time>
      </trkpt>
      <trkpt lat="45.77132" lon="5.28606">
        <ele>377.4</ele>
        <time>2015-11-15T08:07:23Z</time>
      </trkpt>
      <trkpt lat="45.77133" lon="5.28609">
        <ele>377.7</ele>
        <time>2015-11-15T08:07:25Z</time>
      </trkpt>
      <trkpt lat="45.77134" lon="5.28612">
        <ele>378</ele>
        <time>2015-11-15T08:07:27Z</time>
      </trkpt>
      <trkpt lat="45.77134" lon="5.28614">
        <ele>378.2</ele>
        <time>2015-11-15T08:07:29Z</time>
      </trkpt>
      <trkpt lat="45.77135" lon="5.28618">
        <ele>378.6</ele>
        <time>2015-11-15T08:07:35Z</time>
      </trkpt>
      <trkpt lat="45.77136" lon="5.2862">
        <ele>378.8</ele>
        <time>2015-11-15T08:07:37Z</time>
      </trkpt>
      <trkpt lat="45.77137" lon="5.28623">
        <ele>379</ele>
        <time>2015-11-15T08:07:39Z</time>
      </trkpt>
      <trkpt lat="45.77138" lon="5.28627">
        <ele>379.4</ele>
        <time>2015-11-15T08:07:43Z</time>
      </trkpt>
      <trkpt lat="45.77139" lon="5.28629">
        <ele>379.5</ele>
        <time>2015-11-15T08:07:45Z</time>
      </trkpt>
      <trkpt lat="45.7714" lon="5.28633">
        <ele>379.9</ele>
        <time>2015-11-15T08:07:53Z</time>
      </trkpt>
      <trkpt lat="45.77141" lon="5.28635">
        <ele>380.1</ele>
        <time>2015-11-15T08:07:55Z</time>
      </trkpt>
      <trkpt lat="45.77141" lon="5.28637">
        <ele>380.2</ele>
        <time>2015-11-15T08:07:57Z</time>
      </trkpt>
      <trkpt lat="45.77142" lon="5.28641">
        <ele>380.5</ele>
        <time>2015-11-15T08:08:01Z</time>
      </trkpt>
      <trkpt lat="45.77143" lon="5.28643">
        <ele>380.7</ele>
        <time>2015-11-15T08:08:03Z</time>
      </trkpt>
      <trkpt lat="45.77144" lon="5.28646">
        <ele>380.8</ele>
        <time>2015-11-15T08:08:05Z</time>
      </trkpt>
      <trkpt lat="45.77144" lon="5.28648">
        <ele>381</ele>
        <time>2015-11-15T08:08:07Z</time>
      </trkpt>
      <trkpt lat="45.77144" lon="5.2865">
        <ele>381.1</ele>
        <time>2015-11-15T08:08:09Z</time>
      </trkpt>
      <trkpt lat="45.77144" lon="5.28652">
        <ele>381.2</ele>
        <time>2015-11-15T08:08:11Z</time>
      </trkpt>
      <trkpt lat="45.77145" lon="5.28655">
        <ele>381.3</ele>
        <time>2015-11-15T08:08:17Z</time>
      </trkpt>
      <trkpt lat="45.77145" lon="5.28657">
        <ele>381.5</ele>
        <time>2015-11-15T08:08:19Z</time>
      </trkpt>
      <trkpt lat="45.77145" lon="5.28659">
        <ele>381.6</ele>
        <time>2015-11-15T08:08:21Z</time>
      </trkpt>
      <trkpt lat="45.77145" lon="5.28662">
        <ele>381.7</ele>
        <time>2015-11-15T08:08:23Z</time>
      </trkpt>
      <trkpt lat="45.77144" lon="5.28666">
        <ele>381.8</ele>
        <time>2015-11-15T08:08:35Z</time>
      </trkpt>
      <trkpt lat="45.77143" lon="5.28668">
        <ele>381.9</ele>
        <time>2015-11-15T08:08:37Z</time>
      </trkpt>
      <trkpt lat="45.77142" lon="5.2867">
        <ele>382</ele>
        <time>2015-11-15T08:08:39Z</time>
      </trkpt>
      <trkpt lat="45.77141" lon="5.28674">
        <ele>382.1</ele>
        <time>2015-11-15T08:08:41Z</time>
      </trkpt>
      <trkpt lat="45.7714" lon="5.28678">
        <ele>382.2</ele>
        <time>2015-11-15T08:08:43Z</time>
      </trkpt>
      <trkpt lat="45.77138" lon="5.28681">
        <ele>382.3</ele>
        <time>2015-11-15T08:08:45Z</time>
      </trkpt>
      <trkpt lat="45.77137" lon="5.28686">
        <ele>382.4</ele>
        <time>2015-11-15T08:08:47Z</time>
      </trkpt>
      <trkpt lat="45.77135" lon="5.28691">
        <ele>382.4</ele>
        <time>2015-11-15T08:08:49Z</time>
      </trkpt>
      <trkpt lat="45.77133" lon="5.28696">
        <ele>382.4</ele>
        <time>2015-11-15T08:08:51Z</time>
      </trkpt>
      <trkpt lat="45.77132" lon="5.28702">
        <ele>382.4</ele>
        <time>2015-11-15T08:08:53Z</time>
      </trkpt>
      <trkpt lat="45.77129" lon="5.28709">
        <ele>382.4</ele>
        <time>2015-11-15T08:08:55Z</time>
      </trkpt>
      <trkpt lat="45.77127" lon="5.28715">
        <ele>382.3</ele>
        <time>2015-11-15T08:08:57Z</time>
      </trkpt>
      <trkpt lat="45.77124" lon="5.2872">
        <ele>382.3</ele>
        <time>2015-11-15T08:08:59Z</time>
      </trkpt>
      <trkpt lat="45.77123" lon="5.28725">
        <ele>382.2</ele>
        <time>2015-11-15T08:09:01Z</time>
      </trkpt>
      <trkpt lat="45.77123" lon="5.28733">
        <ele>382.1</ele>
        <time>2015-11-15T08:09:03Z</time>
      </trkpt>
      <trkpt lat="45.77122" lon="5.28741">
        <ele>382.1</ele>
        <time>2015-11-15T08:09:05Z</time>
      </trkpt>
      <trkpt lat="45.7712" lon="5.2875">
        <ele>382.3</ele>
        <time>2015-11-15T08:09:07Z</time>
      </trkpt>
      <trkpt lat="45.77118" lon="5.28758">
        <ele>382.3</ele>
        <time>2015-11-15T08:09:09Z</time>
      </trkpt>
      <trkpt lat="45.77116" lon="5.28767">
        <ele>382.3</ele>
        <time>2015-11-15T08:09:11Z</time>
      </trkpt>
      <trkpt lat="45.77113" lon="5.28774">
        <ele>382.2</ele>
        <time>2015-11-15T08:09:13Z</time>
      </trkpt>
      <trkpt lat="45.7711" lon="5.28782">
        <ele>382.2</ele>
        <time>2015-11-15T08:09:15Z</time>
      </trkpt>
      <trkpt lat="45.77108" lon="5.2879">
        <ele>382.2</ele>
        <time>2015-11-15T08:09:17Z</time>
      </trkpt>
      <trkpt lat="45.77105" lon="5.28798">
        <ele>382.1</ele>
        <time>2015-11-15T08:09:19Z</time>
      </trkpt>
      <trkpt lat="45.77103" lon="5.28807">
        <ele>382.1</ele>
        <time>2015-11-15T08:09:21Z</time>
      </trkpt>
      <trkpt lat="45.77101" lon="5.28816">
        <ele>382</ele>
        <time>2015-11-15T08:09:23Z</time>
      </trkpt>
      <trkpt lat="45.77099" lon="5.28825">
        <ele>382</ele>
        <time>2015-11-15T08:09:25Z</time>
      </trkpt>
      <trkpt lat="45.77097" lon="5.28833">
        <ele>382</ele>
        <time>2015-11-15T08:09:27Z</time>
      </trkpt>
      <trkpt lat="45.77095" lon="5.28842">
        <ele>382</ele>
        <time>2015-11-15T08:09:29Z</time>
      </trkpt>
      <trkpt lat="45.77093" lon="5.28851">
        <ele>382</ele>
        <time>2015-11-15T08:09:31Z</time>
      </trkpt>
      <trkpt lat="45.77091" lon="5.28858">
        <ele>382</ele>
        <time>2015-11-15T08:09:33Z</time>
      </trkpt>
      <trkpt lat="45.77089" lon="5.28867">
        <ele>382.1</ele>
        <time>2015-11-15T08:09:35Z</time>
      </trkpt>
      <trkpt lat="45.77087" lon="5.28875">
        <ele>382.4</ele>
        <time>2015-11-15T08:09:37Z</time>
      </trkpt>
      <trkpt lat="45.77086" lon="5.28883">
        <ele>382.6</ele>
        <time>2015-11-15T08:09:39Z</time>
      </trkpt>
      <trkpt lat="45.77083" lon="5.28892">
        <ele>382.8</ele>
        <time>2015-11-15T08:09:41Z</time>
      </trkpt>
      <trkpt lat="45.7708" lon="5.28899">
        <ele>383</ele>
        <time>2015-11-15T08:09:43Z</time>
      </trkpt>
      <trkpt lat="45.77078" lon="5.28907">
        <ele>383.1</ele>
        <time>2015-11-15T08:09:45Z</time>
      </trkpt>
      <trkpt lat="45.77075" lon="5.28914">
        <ele>383.4</ele>
        <time>2015-11-15T08:09:47Z</time>
      </trkpt>
      <trkpt lat="45.77071" lon="5.28923">
        <ele>383.6</ele>
        <time>2015-11-15T08:09:49Z</time>
      </trkpt>
      <trkpt lat="45.77068" lon="5.28931">
        <ele>383.7</ele>
        <time>2015-11-15T08:09:51Z</time>
      </trkpt>
      <trkpt lat="45.77065" lon="5.28939">
        <ele>383.8</ele>
        <time>2015-11-15T08:09:53Z</time>
      </trkpt>
      <trkpt lat="45.7706" lon="5.28948">
        <ele>383.8</ele>
        <time>2015-11-15T08:09:55Z</time>
      </trkpt>
      <trkpt lat="45.77055" lon="5.28956">
        <ele>383.8</ele>
        <time>2015-11-15T08:09:57Z</time>
      </trkpt>
      <trkpt lat="45.77049" lon="5.28962">
        <ele>383.9</ele>
        <time>2015-11-15T08:09:59Z</time>
      </trkpt>
      <trkpt lat="45.77044" lon="5.28967">
        <ele>384</ele>
        <time>2015-11-15T08:10:01Z</time>
      </trkpt>
      <trkpt lat="45.77039" lon="5.28971">
        <ele>384</ele>
        <time>2015-11-15T08:10:03Z</time>
      </trkpt>
      <trkpt lat="45.77035" lon="5.28973">
        <ele>384.1</ele>
        <time>2015-11-15T08:10:05Z</time>
      </trkpt>
      <trkpt lat="45.77031" lon="5.28976">
        <ele>384.2</ele>
        <time>2015-11-15T08:10:07Z</time>
      </trkpt>
      <trkpt lat="45.77028" lon="5.28979">
        <ele>384.4</ele>
        <time>2015-11-15T08:10:09Z</time>
      </trkpt>
      <trkpt lat="45.77025" lon="5.28983">
        <ele>384.7</ele>
        <time>2015-11-15T08:10:11Z</time>
      </trkpt>
      <trkpt lat="45.77023" lon="5.28989">
        <ele>385</ele>
        <time>2015-11-15T08:10:13Z</time>
      </trkpt>
      <trkpt lat="45.77021" lon="5.28995">
        <ele>385.2</ele>
        <time>2015-11-15T08:10:15Z</time>
      </trkpt>
      <trkpt lat="45.77021" lon="5.29">
        <ele>385.6</ele>
        <time>2015-11-15T08:10:17Z</time>
      </trkpt>
      <trkpt lat="45.77022" lon="5.29006">
        <ele>386.2</ele>
        <time>2015-11-15T08:10:19Z</time>
      </trkpt>
      <trkpt lat="45.77023" lon="5.29012">
        <ele>386.7</ele>
        <time>2015-11-15T08:10:21Z</time>
      </trkpt>
      <trkpt lat="45.77023" lon="5.29018">
        <ele>387.2</ele>
        <time>2015-11-15T08:10:23Z</time>
      </trkpt>
      <trkpt lat="45.77023" lon="5.29024">
        <ele>387.5</ele>
        <time>2015-11-15T08:10:25Z</time>
      </trkpt>
      <trkpt lat="45.77024" lon="5.29031">
        <ele>387.9</ele>
        <time>2015-11-15T08:10:27Z</time>
      </trkpt>
      <trkpt lat="45.77025" lon="5.29037">
        <ele>388.4</ele>
        <time>2015-11-15T08:10:29Z</time>
      </trkpt>
      <trkpt lat="45.77025" lon="5.29043">
        <ele>388.8</ele>
        <time>2015-11-15T08:10:31Z</time>
      </trkpt>
      <trkpt lat="45.77026" lon="5.29049">
        <ele>389</ele>
        <time>2015-11-15T08:10:33Z</time>
      </trkpt>
      <trkpt lat="45.77028" lon="5.29056">
        <ele>389.3</ele>
        <time>2015-11-15T08:10:35Z</time>
      </trkpt>
      <trkpt lat="45.77028" lon="5.29064">
        <ele>389.7</ele>
        <time>2015-11-15T08:10:37Z</time>
      </trkpt>
      <trkpt lat="45.77029" lon="5.29072">
        <ele>390</ele>
        <time>2015-11-15T08:10:39Z</time>
      </trkpt>
      <trkpt lat="45.77029" lon="5.29081">
        <ele>390.1</ele>
        <time>2015-11-15T08:10:41Z</time>
      </trkpt>
      <trkpt lat="45.77029" lon="5.29089">
        <ele>390.1</ele>
        <time>2015-11-15T08:10:43Z</time>
      </trkpt>
      <trkpt lat="45.77029" lon="5.29097">
        <ele>390.2</ele>
        <time>2015-11-15T08:10:45Z</time>
      </trkpt>
      <trkpt lat="45.77028" lon="5.29106">
        <ele>390.3</ele>
        <time>2015-11-15T08:10:47Z</time>
      </trkpt>
      <trkpt lat="45.77028" lon="5.29115">
        <ele>390.4</ele>
        <time>2015-11-15T08:10:49Z</time>
      </trkpt>
      <trkpt lat="45.77026" lon="5.29124">
        <ele>390.5</ele>
        <time>2015-11-15T08:10:51Z</time>
      </trkpt>
      <trkpt lat="45.77025" lon="5.29132">
        <ele>390.6</ele>
        <time>2015-11-15T08:10:53Z</time>
      </trkpt>
      <trkpt lat="45.77024" lon="5.29142">
        <ele>390.7</ele>
        <time>2015-11-15T08:10:55Z</time>
      </trkpt>
      <trkpt lat="45.77022" lon="5.29151">
        <ele>390.8</ele>
        <time>2015-11-15T08:10:57Z</time>
      </trkpt>
      <trkpt lat="45.7702" lon="5.29161">
        <ele>390.9</ele>
        <time>2015-11-15T08:10:59Z</time>
      </trkpt>
      <trkpt lat="45.77017" lon="5.29171">
        <ele>391</ele>
        <time>2015-11-15T08:11:01Z</time>
      </trkpt>
      <trkpt lat="45.77015" lon="5.29181">
        <ele>391.1</ele>
        <time>2015-11-15T08:11:03Z</time>
      </trkpt>
      <trkpt lat="45.77012" lon="5.2919">
        <ele>391.1</ele>
        <time>2015-11-15T08:11:05Z</time>
      </trkpt>
      <trkpt lat="45.77008" lon="5.29199">
        <ele>391.2</ele>
        <time>2015-11-15T08:11:07Z</time>
      </trkpt>
      <trkpt lat="45.77004" lon="5.29208">
        <ele>391.3</ele>
        <time>2015-11-15T08:11:09Z</time>
      </trkpt>
      <trkpt lat="45.77" lon="5.29217">
        <ele>391.4</ele>
        <time>2015-11-15T08:11:11Z</time>
      </trkpt>
      <trkpt lat="45.76996" lon="5.29223">
        <ele>391.5</ele>
        <time>2015-11-15T08:11:13Z</time>
      </trkpt>
      <trkpt lat="45.76993" lon="5.29229">
        <ele>391.6</ele>
        <time>2015-11-15T08:11:15Z</time>
      </trkpt>
      <trkpt lat="45.76989" lon="5.29234">
        <ele>391.7</ele>
        <time>2015-11-15T08:11:17Z</time>
      </trkpt>
      <trkpt lat="45.76985" lon="5.29241">
        <ele>391.7</ele>
        <time>2015-11-15T08:11:19Z</time>
      </trkpt>
      <trkpt lat="45.76981" lon="5.29247">
        <ele>391.8</ele>
        <time>2015-11-15T08:11:21Z</time>
      </trkpt>
      <trkpt lat="45.76977" lon="5.29254">
        <ele>391.9</ele>
        <time>2015-11-15T08:11:23Z</time>
      </trkpt>
      <trkpt lat="45.76972" lon="5.29261">
        <ele>392</ele>
        <time>2015-11-15T08:11:25Z</time>
      </trkpt>
      <trkpt lat="45.76968" lon="5.29268">
        <ele>392.1</ele>
        <time>2015-11-15T08:11:27Z</time>
      </trkpt>
      <trkpt lat="45.76963" lon="5.29275">
        <ele>392.2</ele>
        <time>2015-11-15T08:11:29Z</time>
      </trkpt>
      <trkpt lat="45.76959" lon="5.29281">
        <ele>392.3</ele>
        <time>2015-11-15T08:11:31Z</time>
      </trkpt>
      <trkpt lat="45.76954" lon="5.29288">
        <ele>392.4</ele>
        <time>2015-11-15T08:11:33Z</time>
      </trkpt>
      <trkpt lat="45.76948" lon="5.29294">
        <ele>392.5</ele>
        <time>2015-11-15T08:11:35Z</time>
      </trkpt>
      <trkpt lat="45.76943" lon="5.293">
        <ele>392.7</ele>
        <time>2015-11-15T08:11:37Z</time>
      </trkpt>
      <trkpt lat="45.76939" lon="5.29306">
        <ele>392.9</ele>
        <time>2015-11-15T08:11:39Z</time>
      </trkpt>
      <trkpt lat="45.76934" lon="5.29312">
        <ele>393.3</ele>
        <time>2015-11-15T08:11:41Z</time>
      </trkpt>
      <trkpt lat="45.76931" lon="5.29317">
        <ele>393.8</ele>
        <time>2015-11-15T08:11:43Z</time>
      </trkpt>
      <trkpt lat="45.76926" lon="5.29323">
        <ele>394.3</ele>
        <time>2015-11-15T08:11:45Z</time>
      </trkpt>
      <trkpt lat="45.76923" lon="5.29329">
        <ele>394.7</ele>
        <time>2015-11-15T08:11:47Z</time>
      </trkpt>
      <trkpt lat="45.7692" lon="5.29336">
        <ele>394.9</ele>
        <time>2015-11-15T08:11:49Z</time>
      </trkpt>
      <trkpt lat="45.76917" lon="5.29343">
        <ele>395.2</ele>
        <time>2015-11-15T08:11:51Z</time>
      </trkpt>
      <trkpt lat="45.76915" lon="5.29349">
        <ele>395.4</ele>
        <time>2015-11-15T08:11:53Z</time>
      </trkpt>
      <trkpt lat="45.76911" lon="5.29355">
        <ele>395.7</ele>
        <time>2015-11-15T08:11:55Z</time>
      </trkpt>
      <trkpt lat="45.76908" lon="5.29362">
        <ele>396.1</ele>
        <time>2015-11-15T08:11:57Z</time>
      </trkpt>
      <trkpt lat="45.76904" lon="5.29367">
        <ele>396.6</ele>
        <time>2015-11-15T08:11:59Z</time>
      </trkpt>
      <trkpt lat="45.769" lon="5.29372">
        <ele>397.1</ele>
        <time>2015-11-15T08:12:01Z</time>
      </trkpt>
      <trkpt lat="45.76895" lon="5.29375">
        <ele>397.6</ele>
        <time>2015-11-15T08:12:03Z</time>
      </trkpt>
      <trkpt lat="45.76889" lon="5.29376">
        <ele>397.9</ele>
        <time>2015-11-15T08:12:05Z</time>
      </trkpt>
      <trkpt lat="45.76883" lon="5.29375">
        <ele>398.1</ele>
        <time>2015-11-15T08:12:07Z</time>
      </trkpt>
      <trkpt lat="45.76878" lon="5.29373">
        <ele>398.2</ele>
        <time>2015-11-15T08:12:09Z</time>
      </trkpt>
      <trkpt lat="45.76873" lon="5.2937">
        <ele>398.4</ele>
        <time>2015-11-15T08:12:11Z</time>
      </trkpt>
      <trkpt lat="45.76867" lon="5.29367">
        <ele>398.6</ele>
        <time>2015-11-15T08:12:13Z</time>
      </trkpt>
      <trkpt lat="45.76862" lon="5.29363">
        <ele>398.9</ele>
        <time>2015-11-15T08:12:15Z</time>
      </trkpt>
      <trkpt lat="45.76857" lon="5.29361">
        <ele>399.3</ele>
        <time>2015-11-15T08:12:17Z</time>
      </trkpt>
      <trkpt lat="45.76853" lon="5.29358">
        <ele>399.9</ele>
        <time>2015-11-15T08:12:19Z</time>
      </trkpt>
      <trkpt lat="45.76848" lon="5.29356">
        <ele>400.4</ele>
        <time>2015-11-15T08:12:21Z</time>
      </trkpt>
      <trkpt lat="45.76843" lon="5.29355">
        <ele>401</ele>
        <time>2015-11-15T08:12:23Z</time>
      </trkpt>
      <trkpt lat="45.76838" lon="5.29352">
        <ele>401.6</ele>
        <time>2015-11-15T08:12:25Z</time>
      </trkpt>
      <trkpt lat="45.76833" lon="5.2935">
        <ele>402.3</ele>
        <time>2015-11-15T08:12:27Z</time>
      </trkpt>
      <trkpt lat="45.76828" lon="5.29349">
        <ele>403</ele>
        <time>2015-11-15T08:12:29Z</time>
      </trkpt>
      <trkpt lat="45.76823" lon="5.29347">
        <ele>403.7</ele>
        <time>2015-11-15T08:12:31Z</time>
      </trkpt>
      <trkpt lat="45.76817" lon="5.29346">
        <ele>404.4</ele>
        <time>2015-11-15T08:12:33Z</time>
      </trkpt>
      <trkpt lat="45.76812" lon="5.29345">
        <ele>405.1</ele>
        <time>2015-11-15T08:12:35Z</time>
      </trkpt>
      <trkpt lat="45.76806" lon="5.29344">
        <ele>405.7</ele>
        <time>2015-11-15T08:12:37Z</time>
      </trkpt>
      <trkpt lat="45.768" lon="5.29343">
        <ele>406.1</ele>
        <time>2015-11-15T08:12:39Z</time>
      </trkpt>
      <trkpt lat="45.76794" lon="5.29342">
        <ele>406.4</ele>
        <time>2015-11-15T08:12:41Z</time>
      </trkpt>
      <trkpt lat="45.76788" lon="5.29342">
        <ele>406.6</ele>
        <time>2015-11-15T08:12:43Z</time>
      </trkpt>
      <trkpt lat="45.76783" lon="5.29342">
        <ele>406.7</ele>
        <time>2015-11-15T08:12:45Z</time>
      </trkpt>
      <trkpt lat="45.76777" lon="5.29342">
        <ele>406.8</ele>
        <time>2015-11-15T08:12:47Z</time>
      </trkpt>
      <trkpt lat="45.76771" lon="5.29343">
        <ele>407</ele>
        <time>2015-11-15T08:12:49Z</time>
      </trkpt>
      <trkpt lat="45.76765" lon="5.29345">
        <ele>407.3</ele>
        <time>2015-11-15T08:12:51Z</time>
      </trkpt>
      <trkpt lat="45.76761" lon="5.29347">
        <ele>407.6</ele>
        <time>2015-11-15T08:12:53Z</time>
      </trkpt>
      <trkpt lat="45.76756" lon="5.2935">
        <ele>408.1</ele>
        <time>2015-11-15T08:12:55Z</time>
      </trkpt>
      <trkpt lat="45.76752" lon="5.29353">
        <ele>408.6</ele>
        <time>2015-11-15T08:12:57Z</time>
      </trkpt>
      <trkpt lat="45.76748" lon="5.29357">
        <ele>409</ele>
        <time>2015-11-15T08:12:59Z</time>
      </trkpt>
      <trkpt lat="45.76745" lon="5.29361">
        <ele>409</ele>
        <time>2015-11-15T08:13:01Z</time>
      </trkpt>
      <trkpt lat="45.76741" lon="5.29365">
        <ele>408.9</ele>
        <time>2015-11-15T08:13:03Z</time>
      </trkpt>
      <trkpt lat="45.76738" lon="5.29369">
        <ele>408.8</ele>
        <time>2015-11-15T08:13:05Z</time>
      </trkpt>
      <trkpt lat="45.76734" lon="5.29374">
        <ele>408.6</ele>
        <time>2015-11-15T08:13:07Z</time>
      </trkpt>
      <trkpt lat="45.7673" lon="5.29378">
        <ele>408.5</ele>
        <time>2015-11-15T08:13:09Z</time>
      </trkpt>
      <trkpt lat="45.76727" lon="5.29382">
        <ele>408.4</ele>
        <time>2015-11-15T08:13:11Z</time>
      </trkpt>
      <trkpt lat="45.76723" lon="5.29385">
        <ele>408.4</ele>
        <time>2015-11-15T08:13:13Z</time>
      </trkpt>
      <trkpt lat="45.76719" lon="5.29388">
        <ele>408.5</ele>
        <time>2015-11-15T08:13:15Z</time>
      </trkpt>
      <trkpt lat="45.76714" lon="5.2939">
        <ele>408.6</ele>
        <time>2015-11-15T08:13:17Z</time>
      </trkpt>
      <trkpt lat="45.7671" lon="5.29392">
        <ele>408.7</ele>
        <time>2015-11-15T08:13:19Z</time>
      </trkpt>
      <trkpt lat="45.76706" lon="5.29394">
        <ele>408.7</ele>
        <time>2015-11-15T08:13:21Z</time>
      </trkpt>
      <trkpt lat="45.76701" lon="5.29396">
        <ele>408.7</ele>
        <time>2015-11-15T08:13:23Z</time>
      </trkpt>
      <trkpt lat="45.76696" lon="5.29398">
        <ele>408.7</ele>
        <time>2015-11-15T08:13:25Z</time>
      </trkpt>
      <trkpt lat="45.76692" lon="5.29398">
        <ele>408.7</ele>
        <time>2015-11-15T08:13:27Z</time>
      </trkpt>
      <trkpt lat="45.76687" lon="5.29399">
        <ele>408.8</ele>
        <time>2015-11-15T08:13:29Z</time>
      </trkpt>
      <trkpt lat="45.76682" lon="5.29398">
        <ele>408.9</ele>
        <time>2015-11-15T08:13:31Z</time>
      </trkpt>
      <trkpt lat="45.76678" lon="5.29398">
        <ele>409</ele>
        <time>2015-11-15T08:13:33Z</time>
      </trkpt>
      <trkpt lat="45.76674" lon="5.29397">
        <ele>409</ele>
        <time>2015-11-15T08:13:35Z</time>
      </trkpt>
      <trkpt lat="45.76669" lon="5.29395">
        <ele>410.4</ele>
        <time>2015-11-15T08:13:37Z</time>
      </trkpt>
      <trkpt lat="45.76665" lon="5.29394">
        <ele>412</ele>
        <time>2015-11-15T08:13:39Z</time>
      </trkpt>
      <trkpt lat="45.7666" lon="5.29392">
        <ele>413.6</ele>
        <time>2015-11-15T08:13:41Z</time>
      </trkpt>
      <trkpt lat="45.76656" lon="5.29391">
        <ele>415.1</ele>
        <time>2015-11-15T08:13:43Z</time>
      </trkpt>
      <trkpt lat="45.76652" lon="5.29391">
        <ele>416.5</ele>
        <time>2015-11-15T08:13:45Z</time>
      </trkpt>
      <trkpt lat="45.76647" lon="5.29391">
        <ele>418</ele>
        <time>2015-11-15T08:13:47Z</time>
      </trkpt>
      <trkpt lat="45.76642" lon="5.2939">
        <ele>418</ele>
        <time>2015-11-15T08:13:49Z</time>
      </trkpt>
      <trkpt lat="45.76637" lon="5.29389">
        <ele>418</ele>
        <time>2015-11-15T08:13:51Z</time>
      </trkpt>
      <trkpt lat="45.76632" lon="5.29391">
        <ele>418</ele>
        <time>2015-11-15T08:13:53Z</time>
      </trkpt>
      <trkpt lat="45.76632" lon="5.29396">
        <ele>418</ele>
        <time>2015-11-15T08:13:55Z</time>
      </trkpt>
      <trkpt lat="45.76635" lon="5.294">
        <ele>418</ele>
        <time>2015-11-15T08:13:57Z</time>
      </trkpt>
      <trkpt lat="45.76638" lon="5.29403">
        <ele>418</ele>
        <time>2015-11-15T08:13:59Z</time>
      </trkpt>
      <trkpt lat="45.76643" lon="5.29406">
        <ele>418</ele>
        <time>2015-11-15T08:14:01Z</time>
      </trkpt>
      <trkpt lat="45.76647" lon="5.29411">
        <ele>418</ele>
        <time>2015-11-15T08:14:03Z</time>
      </trkpt>
      <trkpt lat="45.76649" lon="5.29417">
        <ele>418.8</ele>
        <time>2015-11-15T08:14:05Z</time>
      </trkpt>
      <trkpt lat="45.7665" lon="5.29424">
        <ele>419.5</ele>
        <time>2015-11-15T08:14:07Z</time>
      </trkpt>
      <trkpt lat="45.76648" lon="5.29431">
        <ele>420</ele>
        <time>2015-11-15T08:14:09Z</time>
      </trkpt>
      <trkpt lat="45.76646" lon="5.29438">
        <ele>420</ele>
        <time>2015-11-15T08:14:11Z</time>
      </trkpt>
      <trkpt lat="45.76644" lon="5.29445">
        <ele>420</ele>
        <time>2015-11-15T08:14:13Z</time>
      </trkpt>
      <trkpt lat="45.76642" lon="5.29451">
        <ele>420</ele>
        <time>2015-11-15T08:14:15Z</time>
      </trkpt>
      <trkpt lat="45.7664" lon="5.29457">
        <ele>420</ele>
        <time>2015-11-15T08:14:17Z</time>
      </trkpt>
      <trkpt lat="45.76637" lon="5.29463">
        <ele>420</ele>
        <time>2015-11-15T08:14:19Z</time>
      </trkpt>
      <trkpt lat="45.76635" lon="5.29469">
        <ele>420</ele>
        <time>2015-11-15T08:14:21Z</time>
      </trkpt>
      <trkpt lat="45.76631" lon="5.29475">
        <ele>420</ele>
        <time>2015-11-15T08:14:23Z</time>
      </trkpt>
      <trkpt lat="45.76626" lon="5.29483">
        <ele>419.9</ele>
        <time>2015-11-15T08:14:25Z</time>
      </trkpt>
      <trkpt lat="45.76621" lon="5.29491">
        <ele>419.9</ele>
        <time>2015-11-15T08:14:27Z</time>
      </trkpt>
      <trkpt lat="45.76614" lon="5.29499">
        <ele>419.9</ele>
        <time>2015-11-15T08:14:29Z</time>
      </trkpt>
      <trkpt lat="45.76607" lon="5.29506">
        <ele>419.8</ele>
        <time>2015-11-15T08:14:31Z</time>
      </trkpt>
      <trkpt lat="45.76601" lon="5.29513">
        <ele>419.8</ele>
        <time>2015-11-15T08:14:33Z</time>
      </trkpt>
      <trkpt lat="45.76595" lon="5.29521">
        <ele>419.7</ele>
        <time>2015-11-15T08:14:35Z</time>
      </trkpt>
      <trkpt lat="45.76586" lon="5.29528">
        <ele>419.5</ele>
        <time>2015-11-15T08:14:37Z</time>
      </trkpt>
      <trkpt lat="45.76577" lon="5.29537">
        <ele>419.2</ele>
        <time>2015-11-15T08:14:39Z</time>
      </trkpt>
      <trkpt lat="45.76568" lon="5.29545">
        <ele>418.4</ele>
        <time>2015-11-15T08:14:41Z</time>
      </trkpt>
      <trkpt lat="45.76559" lon="5.29554">
        <ele>417.7</ele>
        <time>2015-11-15T08:14:43Z</time>
      </trkpt>
      <trkpt lat="45.76551" lon="5.29564">
        <ele>417.3</ele>
        <time>2015-11-15T08:14:45Z</time>
      </trkpt>
      <trkpt lat="45.76542" lon="5.29576">
        <ele>416.7</ele>
        <time>2015-11-15T08:14:47Z</time>
      </trkpt>
      <trkpt lat="45.76534" lon="5.29589">
        <ele>416.1</ele>
        <time>2015-11-15T08:14:49Z</time>
      </trkpt>
      <trkpt lat="45.76525" lon="5.29601">
        <ele>415.6</ele>
        <time>2015-11-15T08:14:51Z</time>
      </trkpt>
      <trkpt lat="45.76514" lon="5.29612">
        <ele>415.3</ele>
        <time>2015-11-15T08:14:53Z</time>
      </trkpt>
      <trkpt lat="45.76503" lon="5.29621">
        <ele>414.9</ele>
        <time>2015-11-15T08:14:55Z</time>
      </trkpt>
      <trkpt lat="45.76493" lon="5.2963">
        <ele>414.2</ele>
        <time>2015-11-15T08:14:57Z</time>
      </trkpt>
      <trkpt lat="45.76485" lon="5.29641">
        <ele>413.8</ele>
        <time>2015-11-15T08:14:59Z</time>
      </trkpt>
      <trkpt lat="45.76478" lon="5.29652">
        <ele>413.6</ele>
        <time>2015-11-15T08:15:01Z</time>
      </trkpt>
      <trkpt lat="45.76472" lon="5.29663">
        <ele>413.5</ele>
        <time>2015-11-15T08:15:03Z</time>
      </trkpt>
      <trkpt lat="45.76466" lon="5.29673">
        <ele>413.4</ele>
        <time>2015-11-15T08:15:05Z</time>
      </trkpt>
      <trkpt lat="45.76459" lon="5.29681">
        <ele>413.3</ele>
        <time>2015-11-15T08:15:07Z</time>
      </trkpt>
      <trkpt lat="45.76453" lon="5.29691">
        <ele>413.2</ele>
        <time>2015-11-15T08:15:09Z</time>
      </trkpt>
      <trkpt lat="45.76445" lon="5.29696">
        <ele>413</ele>
        <time>2015-11-15T08:15:11Z</time>
      </trkpt>
      <trkpt lat="45.76437" lon="5.29696">
        <ele>413</ele>
        <time>2015-11-15T08:15:13Z</time>
      </trkpt>
      <trkpt lat="45.76431" lon="5.29695">
        <ele>413</ele>
        <time>2015-11-15T08:15:15Z</time>
      </trkpt>
      <trkpt lat="45.76424" lon="5.29695">
        <ele>413</ele>
        <time>2015-11-15T08:15:17Z</time>
      </trkpt>
      <trkpt lat="45.76419" lon="5.29699">
        <ele>412.9</ele>
        <time>2015-11-15T08:15:19Z</time>
      </trkpt>
      <trkpt lat="45.76414" lon="5.29704">
        <ele>412.8</ele>
        <time>2015-11-15T08:15:21Z</time>
      </trkpt>
      <trkpt lat="45.7641" lon="5.2971">
        <ele>412.7</ele>
        <time>2015-11-15T08:15:23Z</time>
      </trkpt>
      <trkpt lat="45.76406" lon="5.29714">
        <ele>412.6</ele>
        <time>2015-11-15T08:15:25Z</time>
      </trkpt>
      <trkpt lat="45.76402" lon="5.29718">
        <ele>412.5</ele>
        <time>2015-11-15T08:15:27Z</time>
      </trkpt>
      <trkpt lat="45.76397" lon="5.29723">
        <ele>412.4</ele>
        <time>2015-11-15T08:15:29Z</time>
      </trkpt>
      <trkpt lat="45.76393" lon="5.29729">
        <ele>412.3</ele>
        <time>2015-11-15T08:15:31Z</time>
      </trkpt>
      <trkpt lat="45.7639" lon="5.29737">
        <ele>412.1</ele>
        <time>2015-11-15T08:15:33Z</time>
      </trkpt>
      <trkpt lat="45.7639" lon="5.29746">
        <ele>412</ele>
        <time>2015-11-15T08:15:35Z</time>
      </trkpt>
      <trkpt lat="45.76392" lon="5.29755">
        <ele>412</ele>
        <time>2015-11-15T08:15:37Z</time>
      </trkpt>
      <trkpt lat="45.76395" lon="5.29764">
        <ele>412.1</ele>
        <time>2015-11-15T08:15:39Z</time>
      </trkpt>
      <trkpt lat="45.76399" lon="5.29772">
        <ele>412.1</ele>
        <time>2015-11-15T08:15:41Z</time>
      </trkpt>
      <trkpt lat="45.76403" lon="5.2978">
        <ele>412.2</ele>
        <time>2015-11-15T08:15:43Z</time>
      </trkpt>
      <trkpt lat="45.76407" lon="5.29789">
        <ele>412.6</ele>
        <time>2015-11-15T08:15:45Z</time>
      </trkpt>
      <trkpt lat="45.76409" lon="5.298">
        <ele>412.8</ele>
        <time>2015-11-15T08:15:47Z</time>
      </trkpt>
      <trkpt lat="45.76411" lon="5.2981">
        <ele>412.9</ele>
        <time>2015-11-15T08:15:49Z</time>
      </trkpt>
      <trkpt lat="45.76412" lon="5.29821">
        <ele>413</ele>
        <time>2015-11-15T08:15:51Z</time>
      </trkpt>
      <trkpt lat="45.76415" lon="5.29832">
        <ele>413.1</ele>
        <time>2015-11-15T08:15:53Z</time>
      </trkpt>
      <trkpt lat="45.76418" lon="5.29842">
        <ele>413.2</ele>
        <time>2015-11-15T08:15:55Z</time>
      </trkpt>
      <trkpt lat="45.76422" lon="5.29852">
        <ele>413.3</ele>
        <time>2015-11-15T08:15:57Z</time>
      </trkpt>
      <trkpt lat="45.76425" lon="5.29861">
        <ele>413.4</ele>
        <time>2015-11-15T08:15:59Z</time>
      </trkpt>
      <trkpt lat="45.76428" lon="5.29872">
        <ele>413.7</ele>
        <time>2015-11-15T08:16:01Z</time>
      </trkpt>
      <trkpt lat="45.76428" lon="5.29882">
        <ele>413.9</ele>
        <time>2015-11-15T08:16:03Z</time>
      </trkpt>
      <trkpt lat="45.76427" lon="5.29892">
        <ele>413.9</ele>
        <time>2015-11-15T08:16:05Z</time>
      </trkpt>
      <trkpt lat="45.76426" lon="5.29902">
        <ele>413.9</ele>
        <time>2015-11-15T08:16:07Z</time>
      </trkpt>
      <trkpt lat="45.76424" lon="5.29913">
        <ele>413.9</ele>
        <time>2015-11-15T08:16:09Z</time>
      </trkpt>
      <trkpt lat="45.76423" lon="5.29924">
        <ele>413.8</ele>
        <time>2015-11-15T08:16:11Z</time>
      </trkpt>
      <trkpt lat="45.7642" lon="5.29937">
        <ele>413.8</ele>
        <time>2015-11-15T08:16:13Z</time>
      </trkpt>
      <trkpt lat="45.76419" lon="5.29952">
        <ele>413.7</ele>
        <time>2015-11-15T08:16:15Z</time>
      </trkpt>
      <trkpt lat="45.76418" lon="5.29967">
        <ele>413.5</ele>
        <time>2015-11-15T08:16:17Z</time>
      </trkpt>
      <trkpt lat="45.76419" lon="5.29982">
        <ele>413.4</ele>
        <time>2015-11-15T08:16:19Z</time>
      </trkpt>
      <trkpt lat="45.76419" lon="5.29997">
        <ele>413</ele>
        <time>2015-11-15T08:16:21Z</time>
      </trkpt>
      <trkpt lat="45.7642" lon="5.30013">
        <ele>412.6</ele>
        <time>2015-11-15T08:16:23Z</time>
      </trkpt>
      <trkpt lat="45.76422" lon="5.30029">
        <ele>411.6</ele>
        <time>2015-11-15T08:16:25Z</time>
      </trkpt>
      <trkpt lat="45.76424" lon="5.30047">
        <ele>410.7</ele>
        <time>2015-11-15T08:16:27Z</time>
      </trkpt>
      <trkpt lat="45.7643" lon="5.30063">
        <ele>410</ele>
        <time>2015-11-15T08:16:29Z</time>
      </trkpt>
      <trkpt lat="45.76439" lon="5.30076">
        <ele>409</ele>
        <time>2015-11-15T08:16:31Z</time>
      </trkpt>
      <trkpt lat="45.76446" lon="5.30089">
        <ele>408.1</ele>
        <time>2015-11-15T08:16:33Z</time>
      </trkpt>
      <trkpt lat="45.76453" lon="5.30102">
        <ele>407.7</ele>
        <time>2015-11-15T08:16:35Z</time>
      </trkpt>
      <trkpt lat="45.76459" lon="5.30114">
        <ele>407.5</ele>
        <time>2015-11-15T08:16:37Z</time>
      </trkpt>
      <trkpt lat="45.76464" lon="5.30126">
        <ele>407.4</ele>
        <time>2015-11-15T08:16:39Z</time>
      </trkpt>
      <trkpt lat="45.76469" lon="5.30137">
        <ele>407.3</ele>
        <time>2015-11-15T08:16:41Z</time>
      </trkpt>
      <trkpt lat="45.76475" lon="5.30146">
        <ele>407.2</ele>
        <time>2015-11-15T08:16:43Z</time>
      </trkpt>
      <trkpt lat="45.76479" lon="5.30156">
        <ele>407.2</ele>
        <time>2015-11-15T08:16:45Z</time>
      </trkpt>
      <trkpt lat="45.76484" lon="5.30167">
        <ele>407.2</ele>
        <time>2015-11-15T08:16:47Z</time>
      </trkpt>
      <trkpt lat="45.76487" lon="5.30179">
        <ele>407.3</ele>
        <time>2015-11-15T08:16:49Z</time>
      </trkpt>
      <trkpt lat="45.7649" lon="5.30191">
        <ele>407.5</ele>
        <time>2015-11-15T08:16:51Z</time>
      </trkpt>
      <trkpt lat="45.76494" lon="5.30204">
        <ele>407.8</ele>
        <time>2015-11-15T08:16:53Z</time>
      </trkpt>
      <trkpt lat="45.76495" lon="5.30215">
        <ele>407.9</ele>
        <time>2015-11-15T08:16:55Z</time>
      </trkpt>
      <trkpt lat="45.76496" lon="5.30227">
        <ele>408</ele>
        <time>2015-11-15T08:16:57Z</time>
      </trkpt>
      <trkpt lat="45.76496" lon="5.30239">
        <ele>408.1</ele>
        <time>2015-11-15T08:16:59Z</time>
      </trkpt>
      <trkpt lat="45.76495" lon="5.30251">
        <ele>408.2</ele>
        <time>2015-11-15T08:17:01Z</time>
      </trkpt>
      <trkpt lat="45.76495" lon="5.30264">
        <ele>408.3</ele>
        <time>2015-11-15T08:17:03Z</time>
      </trkpt>
      <trkpt lat="45.76495" lon="5.30278">
        <ele>408.4</ele>
        <time>2015-11-15T08:17:05Z</time>
      </trkpt>
      <trkpt lat="45.76493" lon="5.3029">
        <ele>408.5</ele>
        <time>2015-11-15T08:17:07Z</time>
      </trkpt>
      <trkpt lat="45.7649" lon="5.30304">
        <ele>408.6</ele>
        <time>2015-11-15T08:17:09Z</time>
      </trkpt>
      <trkpt lat="45.76485" lon="5.30319">
        <ele>408.6</ele>
        <time>2015-11-15T08:17:11Z</time>
      </trkpt>
      <trkpt lat="45.76479" lon="5.30335">
        <ele>408.5</ele>
        <time>2015-11-15T08:17:13Z</time>
      </trkpt>
      <trkpt lat="45.76472" lon="5.30351">
        <ele>408.2</ele>
        <time>2015-11-15T08:17:15Z</time>
      </trkpt>
      <trkpt lat="45.76465" lon="5.30366">
        <ele>407.8</ele>
        <time>2015-11-15T08:17:17Z</time>
      </trkpt>
      <trkpt lat="45.76458" lon="5.30381">
        <ele>407.5</ele>
        <time>2015-11-15T08:17:19Z</time>
      </trkpt>
      <trkpt lat="45.76453" lon="5.30394">
        <ele>407.5</ele>
        <time>2015-11-15T08:17:21Z</time>
      </trkpt>
      <trkpt lat="45.76447" lon="5.30408">
        <ele>407.5</ele>
        <time>2015-11-15T08:17:23Z</time>
      </trkpt>
      <trkpt lat="45.76442" lon="5.30421">
        <ele>407.5</ele>
        <time>2015-11-15T08:17:25Z</time>
      </trkpt>
      <trkpt lat="45.76437" lon="5.30435">
        <ele>407.6</ele>
        <time>2015-11-15T08:17:27Z</time>
      </trkpt>
      <trkpt lat="45.76429" lon="5.30447">
        <ele>407.6</ele>
        <time>2015-11-15T08:17:29Z</time>
      </trkpt>
      <trkpt lat="45.76419" lon="5.30453">
        <ele>407.7</ele>
        <time>2015-11-15T08:17:31Z</time>
      </trkpt>
      <trkpt lat="45.76409" lon="5.3046">
        <ele>407.8</ele>
        <time>2015-11-15T08:17:33Z</time>
      </trkpt>
      <trkpt lat="45.76399" lon="5.30468">
        <ele>407.9</ele>
        <time>2015-11-15T08:17:35Z</time>
      </trkpt>
      <trkpt lat="45.76391" lon="5.30475">
        <ele>407.9</ele>
        <time>2015-11-15T08:17:37Z</time>
      </trkpt>
      <trkpt lat="45.76384" lon="5.30481">
        <ele>408</ele>
        <time>2015-11-15T08:17:39Z</time>
      </trkpt>
      <trkpt lat="45.76383" lon="5.30486">
        <ele>408</ele>
        <time>2015-11-15T08:17:41Z</time>
      </trkpt>
      <trkpt lat="45.76386" lon="5.30489">
        <ele>408</ele>
        <time>2015-11-15T08:17:43Z</time>
      </trkpt>
      <trkpt lat="45.76391" lon="5.30491">
        <ele>408</ele>
        <time>2015-11-15T08:17:45Z</time>
      </trkpt>
      <trkpt lat="45.76397" lon="5.30492">
        <ele>408</ele>
        <time>2015-11-15T08:17:47Z</time>
      </trkpt>
      <trkpt lat="45.76403" lon="5.30493">
        <ele>408</ele>
        <time>2015-11-15T08:17:49Z</time>
      </trkpt>
      <trkpt lat="45.76409" lon="5.30494">
        <ele>408.1</ele>
        <time>2015-11-15T08:17:51Z</time>
      </trkpt>
      <trkpt lat="45.76417" lon="5.30496">
        <ele>408.4</ele>
        <time>2015-11-15T08:17:53Z</time>
      </trkpt>
      <trkpt lat="45.76424" lon="5.30499">
        <ele>408.8</ele>
        <time>2015-11-15T08:17:55Z</time>
      </trkpt>
      <trkpt lat="45.76432" lon="5.30502">
        <ele>409.2</ele>
        <time>2015-11-15T08:17:57Z</time>
      </trkpt>
      <trkpt lat="45.7644" lon="5.30507">
        <ele>409.7</ele>
        <time>2015-11-15T08:17:59Z</time>
      </trkpt>
      <trkpt lat="45.76448" lon="5.30512">
        <ele>410</ele>
        <time>2015-11-15T08:18:01Z</time>
      </trkpt>
      <trkpt lat="45.76456" lon="5.30517">
        <ele>410.1</ele>
        <time>2015-11-15T08:18:03Z</time>
      </trkpt>
      <trkpt lat="45.76465" lon="5.30522">
        <ele>410.1</ele>
        <time>2015-11-15T08:18:05Z</time>
      </trkpt>
      <trkpt lat="45.76474" lon="5.30527">
        <ele>410.1</ele>
        <time>2015-11-15T08:18:07Z</time>
      </trkpt>
      <trkpt lat="45.76484" lon="5.3053">
        <ele>410.1</ele>
        <time>2015-11-15T08:18:09Z</time>
      </trkpt>
      <trkpt lat="45.76493" lon="5.30534">
        <ele>410.1</ele>
        <time>2015-11-15T08:18:11Z</time>
      </trkpt>
      <trkpt lat="45.76503" lon="5.30536">
        <ele>410.1</ele>
        <time>2015-11-15T08:18:13Z</time>
      </trkpt>
      <trkpt lat="45.76512" lon="5.30537">
        <ele>410.1</ele>
        <time>2015-11-15T08:18:15Z</time>
      </trkpt>
      <trkpt lat="45.76521" lon="5.30538">
        <ele>410.1</ele>
        <time>2015-11-15T08:18:17Z</time>
      </trkpt>
      <trkpt lat="45.7653" lon="5.30537">
        <ele>410.1</ele>
        <time>2015-11-15T08:18:19Z</time>
      </trkpt>
      <trkpt lat="45.76539" lon="5.30537">
        <ele>410.1</ele>
        <time>2015-11-15T08:18:21Z</time>
      </trkpt>
      <trkpt lat="45.76548" lon="5.30537">
        <ele>410.1</ele>
        <time>2015-11-15T08:18:23Z</time>
      </trkpt>
      <trkpt lat="45.76556" lon="5.30538">
        <ele>410</ele>
        <time>2015-11-15T08:18:25Z</time>
      </trkpt>
      <trkpt lat="45.76565" lon="5.3054">
        <ele>410</ele>
        <time>2015-11-15T08:18:27Z</time>
      </trkpt>
      <trkpt lat="45.76574" lon="5.30542">
        <ele>410</ele>
        <time>2015-11-15T08:18:29Z</time>
      </trkpt>
      <trkpt lat="45.76584" lon="5.30543">
        <ele>410</ele>
        <time>2015-11-15T08:18:31Z</time>
      </trkpt>
      <trkpt lat="45.76593" lon="5.30543">
        <ele>410</ele>
        <time>2015-11-15T08:18:33Z</time>
      </trkpt>
      <trkpt lat="45.76601" lon="5.30541">
        <ele>410</ele>
        <time>2015-11-15T08:18:35Z</time>
      </trkpt>
      <trkpt lat="45.76606" lon="5.30544">
        <ele>411</ele>
        <time>2015-11-15T08:18:37Z</time>
      </trkpt>
      <trkpt lat="45.76608" lon="5.30549">
        <ele>411.5</ele>
        <time>2015-11-15T08:18:39Z</time>
      </trkpt>
      <trkpt lat="45.76607" lon="5.30555">
        <ele>411.9</ele>
        <time>2015-11-15T08:18:41Z</time>
      </trkpt>
      <trkpt lat="45.76608" lon="5.30563">
        <ele>412.2</ele>
        <time>2015-11-15T08:18:43Z</time>
      </trkpt>
      <trkpt lat="45.76609" lon="5.30571">
        <ele>412.4</ele>
        <time>2015-11-15T08:18:45Z</time>
      </trkpt>
      <trkpt lat="45.76611" lon="5.30579">
        <ele>412.7</ele>
        <time>2015-11-15T08:18:47Z</time>
      </trkpt>
      <trkpt lat="45.76611" lon="5.30587">
        <ele>412.9</ele>
        <time>2015-11-15T08:18:49Z</time>
      </trkpt>
      <trkpt lat="45.76609" lon="5.30595">
        <ele>413.2</ele>
        <time>2015-11-15T08:18:51Z</time>
      </trkpt>
      <trkpt lat="45.76607" lon="5.30602">
        <ele>413.4</ele>
        <time>2015-11-15T08:18:53Z</time>
      </trkpt>
      <trkpt lat="45.76604" lon="5.30607">
        <ele>413.5</ele>
        <time>2015-11-15T08:18:55Z</time>
      </trkpt>
      <trkpt lat="45.76601" lon="5.30612">
        <ele>413.7</ele>
        <time>2015-11-15T08:18:57Z</time>
      </trkpt>
      <trkpt lat="45.76598" lon="5.30617">
        <ele>413.8</ele>
        <time>2015-11-15T08:18:59Z</time>
      </trkpt>
      <trkpt lat="45.76594" lon="5.3062">
        <ele>413.9</ele>
        <time>2015-11-15T08:19:01Z</time>
      </trkpt>
      <trkpt lat="45.7659" lon="5.30625">
        <ele>414.1</ele>
        <time>2015-11-15T08:19:03Z</time>
      </trkpt>
      <trkpt lat="45.76585" lon="5.30631">
        <ele>414.3</ele>
        <time>2015-11-15T08:19:05Z</time>
      </trkpt>
      <trkpt lat="45.76579" lon="5.30638">
        <ele>414.5</ele>
        <time>2015-11-15T08:19:07Z</time>
      </trkpt>
      <trkpt lat="45.76573" lon="5.30645">
        <ele>414.7</ele>
        <time>2015-11-15T08:19:09Z</time>
      </trkpt>
      <trkpt lat="45.76566" lon="5.30652">
        <ele>415</ele>
        <time>2015-11-15T08:19:11Z</time>
      </trkpt>
      <trkpt lat="45.76557" lon="5.30659">
        <ele>415.4</ele>
        <time>2015-11-15T08:19:13Z</time>
      </trkpt>
      <trkpt lat="45.76549" lon="5.30664">
        <ele>415.6</ele>
        <time>2015-11-15T08:19:15Z</time>
      </trkpt>
      <trkpt lat="45.7654" lon="5.3067">
        <ele>415.8</ele>
        <time>2015-11-15T08:19:17Z</time>
      </trkpt>
      <trkpt lat="45.76532" lon="5.30674">
        <ele>416</ele>
        <time>2015-11-15T08:19:19Z</time>
      </trkpt>
      <trkpt lat="45.76524" lon="5.30679">
        <ele>416.2</ele>
        <time>2015-11-15T08:19:21Z</time>
      </trkpt>
      <trkpt lat="45.76515" lon="5.30684">
        <ele>416.5</ele>
        <time>2015-11-15T08:19:23Z</time>
      </trkpt>
      <trkpt lat="45.76507" lon="5.30691">
        <ele>416.8</ele>
        <time>2015-11-15T08:19:25Z</time>
      </trkpt>
      <trkpt lat="45.76499" lon="5.30698">
        <ele>417.1</ele>
        <time>2015-11-15T08:19:27Z</time>
      </trkpt>
      <trkpt lat="45.76491" lon="5.30704">
        <ele>417.6</ele>
        <time>2015-11-15T08:19:29Z</time>
      </trkpt>
      <trkpt lat="45.76482" lon="5.3071">
        <ele>418</ele>
        <time>2015-11-15T08:19:31Z</time>
      </trkpt>
      <trkpt lat="45.76475" lon="5.30719">
        <ele>418.4</ele>
        <time>2015-11-15T08:19:33Z</time>
      </trkpt>
      <trkpt lat="45.76469" lon="5.30729">
        <ele>418.8</ele>
        <time>2015-11-15T08:19:35Z</time>
      </trkpt>
      <trkpt lat="45.76464" lon="5.30739">
        <ele>419.4</ele>
        <time>2015-11-15T08:19:37Z</time>
      </trkpt>
      <trkpt lat="45.7646" lon="5.30749">
        <ele>419.9</ele>
        <time>2015-11-15T08:19:39Z</time>
      </trkpt>
      <trkpt lat="45.76456" lon="5.30758">
        <ele>420.5</ele>
        <time>2015-11-15T08:19:41Z</time>
      </trkpt>
      <trkpt lat="45.76457" lon="5.30768">
        <ele>420.8</ele>
        <time>2015-11-15T08:19:43Z</time>
      </trkpt>
      <trkpt lat="45.76461" lon="5.30776">
        <ele>420.6</ele>
        <time>2015-11-15T08:19:45Z</time>
      </trkpt>
      <trkpt lat="45.76467" lon="5.30783">
        <ele>420.2</ele>
        <time>2015-11-15T08:19:47Z</time>
      </trkpt>
      <trkpt lat="45.76476" lon="5.30791">
        <ele>419.8</ele>
        <time>2015-11-15T08:19:49Z</time>
      </trkpt>
      <trkpt lat="45.76486" lon="5.30797">
        <ele>419.4</ele>
        <time>2015-11-15T08:19:51Z</time>
      </trkpt>
      <trkpt lat="45.76499" lon="5.30798">
        <ele>418.8</ele>
        <time>2015-11-15T08:19:53Z</time>
      </trkpt>
      <trkpt lat="45.7651" lon="5.30796">
        <ele>418.5</ele>
        <time>2015-11-15T08:19:55Z</time>
      </trkpt>
      <trkpt lat="45.7652" lon="5.30787">
        <ele>418.2</ele>
        <time>2015-11-15T08:19:57Z</time>
      </trkpt>
      <trkpt lat="45.7653" lon="5.30776">
        <ele>417.7</ele>
        <time>2015-11-15T08:19:59Z</time>
      </trkpt>
      <trkpt lat="45.76543" lon="5.30769">
        <ele>417.2</ele>
        <time>2015-11-15T08:20:01Z</time>
      </trkpt>
      <trkpt lat="45.76558" lon="5.30766">
        <ele>416.8</ele>
        <time>2015-11-15T08:20:03Z</time>
      </trkpt>
      <trkpt lat="45.76573" lon="5.30764">
        <ele>416.5</ele>
        <time>2015-11-15T08:20:05Z</time>
      </trkpt>
      <trkpt lat="45.76586" lon="5.30757">
        <ele>416.4</ele>
        <time>2015-11-15T08:20:07Z</time>
      </trkpt>
      <trkpt lat="45.766" lon="5.30748">
        <ele>416.2</ele>
        <time>2015-11-15T08:20:09Z</time>
      </trkpt>
      <trkpt lat="45.76611" lon="5.30741">
        <ele>415.7</ele>
        <time>2015-11-15T08:20:11Z</time>
      </trkpt>
      <trkpt lat="45.76621" lon="5.30742">
        <ele>415.4</ele>
        <time>2015-11-15T08:20:13Z</time>
      </trkpt>
      <trkpt lat="45.7663" lon="5.30744">
        <ele>415</ele>
        <time>2015-11-15T08:20:15Z</time>
      </trkpt>
      <trkpt lat="45.76637" lon="5.30748">
        <ele>415</ele>
        <time>2015-11-15T08:20:17Z</time>
      </trkpt>
      <trkpt lat="45.76643" lon="5.30748">
        <ele>415</ele>
        <time>2015-11-15T08:20:19Z</time>
      </trkpt>
      <trkpt lat="45.76648" lon="5.3074">
        <ele>415.2</ele>
        <time>2015-11-15T08:20:21Z</time>
      </trkpt>
      <trkpt lat="45.76655" lon="5.30732">
        <ele>415.3</ele>
        <time>2015-11-15T08:20:23Z</time>
      </trkpt>
      <trkpt lat="45.76662" lon="5.3073">
        <ele>415.4</ele>
        <time>2015-11-15T08:20:25Z</time>
      </trkpt>
      <trkpt lat="45.76669" lon="5.30729">
        <ele>415.5</ele>
        <time>2015-11-15T08:20:27Z</time>
      </trkpt>
      <trkpt lat="45.76676" lon="5.30724">
        <ele>415.4</ele>
        <time>2015-11-15T08:20:29Z</time>
      </trkpt>
      <trkpt lat="45.76684" lon="5.30721">
        <ele>415.2</ele>
        <time>2015-11-15T08:20:31Z</time>
      </trkpt>
      <trkpt lat="45.76691" lon="5.3072">
        <ele>415.1</ele>
        <time>2015-11-15T08:20:33Z</time>
      </trkpt>
      <trkpt lat="45.76699" lon="5.30713">
        <ele>414.8</ele>
        <time>2015-11-15T08:20:35Z</time>
      </trkpt>
      <trkpt lat="45.76707" lon="5.30709">
        <ele>414.4</ele>
        <time>2015-11-15T08:20:37Z</time>
      </trkpt>
      <trkpt lat="45.76716" lon="5.30709">
        <ele>413.9</ele>
        <time>2015-11-15T08:20:39Z</time>
      </trkpt>
      <trkpt lat="45.76722" lon="5.30704">
        <ele>413.3</ele>
        <time>2015-11-15T08:20:41Z</time>
      </trkpt>
      <trkpt lat="45.7673" lon="5.30699">
        <ele>412</ele>
        <time>2015-11-15T08:20:43Z</time>
      </trkpt>
      <trkpt lat="45.76739" lon="5.30702">
        <ele>410.2</ele>
        <time>2015-11-15T08:20:45Z</time>
      </trkpt>
      <trkpt lat="45.76749" lon="5.30703">
        <ele>408.5</ele>
        <time>2015-11-15T08:20:47Z</time>
      </trkpt>
      <trkpt lat="45.7676" lon="5.30704">
        <ele>407.1</ele>
        <time>2015-11-15T08:20:49Z</time>
      </trkpt>
      <trkpt lat="45.76771" lon="5.30705">
        <ele>406</ele>
        <time>2015-11-15T08:20:51Z</time>
      </trkpt>
      <trkpt lat="45.76782" lon="5.30706">
        <ele>405.4</ele>
        <time>2015-11-15T08:20:53Z</time>
      </trkpt>
      <trkpt lat="45.76791" lon="5.307">
        <ele>404.9</ele>
        <time>2015-11-15T08:20:55Z</time>
      </trkpt>
      <trkpt lat="45.76799" lon="5.30691">
        <ele>404.2</ele>
        <time>2015-11-15T08:20:57Z</time>
      </trkpt>
      <trkpt lat="45.76803" lon="5.30683">
        <ele>403.5</ele>
        <time>2015-11-15T08:20:59Z</time>
      </trkpt>
      <trkpt lat="45.76809" lon="5.3068">
        <ele>402.4</ele>
        <time>2015-11-15T08:21:01Z</time>
      </trkpt>
      <trkpt lat="45.76819" lon="5.3068">
        <ele>399.2</ele>
        <time>2015-11-15T08:21:03Z</time>
      </trkpt>
      <trkpt lat="45.76827" lon="5.30682">
        <ele>398</ele>
        <time>2015-11-15T08:21:05Z</time>
      </trkpt>
      <trkpt lat="45.76834" lon="5.30689">
        <ele>396.8</ele>
        <time>2015-11-15T08:21:07Z</time>
      </trkpt>
      <trkpt lat="45.76841" lon="5.30695">
        <ele>395.8</ele>
        <time>2015-11-15T08:21:09Z</time>
      </trkpt>
      <trkpt lat="45.76847" lon="5.307">
        <ele>394.8</ele>
        <time>2015-11-15T08:21:11Z</time>
      </trkpt>
      <trkpt lat="45.76854" lon="5.30706">
        <ele>393.6</ele>
        <time>2015-11-15T08:21:13Z</time>
      </trkpt>
      <trkpt lat="45.76862" lon="5.30712">
        <ele>392.4</ele>
        <time>2015-11-15T08:21:15Z</time>
      </trkpt>
      <trkpt lat="45.76872" lon="5.30718">
        <ele>391</ele>
        <time>2015-11-15T08:21:17Z</time>
      </trkpt>
      <trkpt lat="45.76878" lon="5.30724">
        <ele>388.4</ele>
        <time>2015-11-15T08:21:19Z</time>
      </trkpt>
      <trkpt lat="45.76884" lon="5.30729">
        <ele>385.8</ele>
        <time>2015-11-15T08:21:21Z</time>
      </trkpt>
      <trkpt lat="45.76888" lon="5.30735">
        <ele>384</ele>
        <time>2015-11-15T08:21:23Z</time>
      </trkpt>
      <trkpt lat="45.76886" lon="5.30741">
        <ele>382.4</ele>
        <time>2015-11-15T08:21:25Z</time>
      </trkpt>
      <trkpt lat="45.76884" lon="5.3075">
        <ele>381.7</ele>
        <time>2015-11-15T08:21:27Z</time>
      </trkpt>
      <trkpt lat="45.7688" lon="5.30758">
        <ele>381.2</ele>
        <time>2015-11-15T08:21:29Z</time>
      </trkpt>
      <trkpt lat="45.76875" lon="5.30765">
        <ele>380.3</ele>
        <time>2015-11-15T08:21:31Z</time>
      </trkpt>
      <trkpt lat="45.7687" lon="5.30771">
        <ele>380.1</ele>
        <time>2015-11-15T08:21:33Z</time>
      </trkpt>
      <trkpt lat="45.76863" lon="5.30778">
        <ele>380.2</ele>
        <time>2015-11-15T08:21:35Z</time>
      </trkpt>
      <trkpt lat="45.76857" lon="5.30786">
        <ele>379.3</ele>
        <time>2015-11-15T08:21:37Z</time>
      </trkpt>
      <trkpt lat="45.76856" lon="5.30796">
        <ele>378.1</ele>
        <time>2015-11-15T08:21:39Z</time>
      </trkpt>
      <trkpt lat="45.76856" lon="5.30808">
        <ele>375.8</ele>
        <time>2015-11-15T08:21:41Z</time>
      </trkpt>
      <trkpt lat="45.76854" lon="5.3082">
        <ele>375.6</ele>
        <time>2015-11-15T08:21:43Z</time>
      </trkpt>
      <trkpt lat="45.7685" lon="5.30828">
        <ele>375.4</ele>
        <time>2015-11-15T08:21:45Z</time>
      </trkpt>
      <trkpt lat="45.76847" lon="5.30835">
        <ele>375.6</ele>
        <time>2015-11-15T08:21:47Z</time>
      </trkpt>
      <trkpt lat="45.76843" lon="5.30842">
        <ele>375.9</ele>
        <time>2015-11-15T08:21:49Z</time>
      </trkpt>
      <trkpt lat="45.76838" lon="5.3085">
        <ele>376.1</ele>
        <time>2015-11-15T08:21:51Z</time>
      </trkpt>
      <trkpt lat="45.76831" lon="5.30857">
        <ele>376</ele>
        <time>2015-11-15T08:21:53Z</time>
      </trkpt>
      <trkpt lat="45.76824" lon="5.30863">
        <ele>376</ele>
        <time>2015-11-15T08:21:55Z</time>
      </trkpt>
      <trkpt lat="45.76818" lon="5.30869">
        <ele>376.3</ele>
        <time>2015-11-15T08:21:57Z</time>
      </trkpt>
      <trkpt lat="45.76812" lon="5.30876">
        <ele>376.2</ele>
        <time>2015-11-15T08:21:59Z</time>
      </trkpt>
      <trkpt lat="45.76806" lon="5.30881">
        <ele>376.6</ele>
        <time>2015-11-15T08:22:01Z</time>
      </trkpt>
      <trkpt lat="45.76802" lon="5.30884">
        <ele>376.8</ele>
        <time>2015-11-15T08:22:03Z</time>
      </trkpt>
      <trkpt lat="45.76798" lon="5.30887">
        <ele>376.9</ele>
        <time>2015-11-15T08:22:05Z</time>
      </trkpt>
      <trkpt lat="45.76795" lon="5.3089">
        <ele>376.9</ele>
        <time>2015-11-15T08:22:07Z</time>
      </trkpt>
      <trkpt lat="45.76792" lon="5.30893">
        <ele>376.8</ele>
        <time>2015-11-15T08:22:09Z</time>
      </trkpt>
      <trkpt lat="45.76789" lon="5.30895">
        <ele>376.9</ele>
        <time>2015-11-15T08:22:11Z</time>
      </trkpt>
      <trkpt lat="45.76786" lon="5.30897">
        <ele>377.1</ele>
        <time>2015-11-15T08:22:13Z</time>
      </trkpt>
      <trkpt lat="45.76783" lon="5.30899">
        <ele>377.4</ele>
        <time>2015-11-15T08:22:15Z</time>
      </trkpt>
      <trkpt lat="45.76779" lon="5.30902">
        <ele>377.7</ele>
        <time>2015-11-15T08:22:17Z</time>
      </trkpt>
      <trkpt lat="45.76776" lon="5.30904">
        <ele>377.9</ele>
        <time>2015-11-15T08:22:19Z</time>
      </trkpt>
      <trkpt lat="45.76773" lon="5.30906">
        <ele>378.2</ele>
        <time>2015-11-15T08:22:21Z</time>
      </trkpt>
      <trkpt lat="45.7677" lon="5.30909">
        <ele>378.6</ele>
        <time>2015-11-15T08:22:23Z</time>
      </trkpt>
      <trkpt lat="45.76767" lon="5.30911">
        <ele>379.1</ele>
        <time>2015-11-15T08:22:25Z</time>
      </trkpt>
      <trkpt lat="45.76764" lon="5.30914">
        <ele>380.1</ele>
        <time>2015-11-15T08:22:27Z</time>
      </trkpt>
      <trkpt lat="45.76761" lon="5.30916">
        <ele>380.9</ele>
        <time>2015-11-15T08:22:29Z</time>
      </trkpt>
      <trkpt lat="45.76758" lon="5.30919">
        <ele>381.6</ele>
        <time>2015-11-15T08:22:31Z</time>
      </trkpt>
      <trkpt lat="45.76755" lon="5.30922">
        <ele>382.2</ele>
        <time>2015-11-15T08:22:33Z</time>
      </trkpt>
      <trkpt lat="45.76752" lon="5.30926">
        <ele>382.8</ele>
        <time>2015-11-15T08:22:35Z</time>
      </trkpt>
      <trkpt lat="45.76749" lon="5.3093">
        <ele>383.2</ele>
        <time>2015-11-15T08:22:37Z</time>
      </trkpt>
      <trkpt lat="45.76747" lon="5.30935">
        <ele>383.7</ele>
        <time>2015-11-15T08:22:39Z</time>
      </trkpt>
      <trkpt lat="45.76744" lon="5.30942">
        <ele>384.4</ele>
        <time>2015-11-15T08:22:41Z</time>
      </trkpt>
      <trkpt lat="45.7674" lon="5.30949">
        <ele>384.9</ele>
        <time>2015-11-15T08:22:43Z</time>
      </trkpt>
      <trkpt lat="45.76735" lon="5.30955">
        <ele>386</ele>
        <time>2015-11-15T08:22:45Z</time>
      </trkpt>
      <trkpt lat="45.7673" lon="5.30961">
        <ele>387.7</ele>
        <time>2015-11-15T08:22:47Z</time>
      </trkpt>
      <trkpt lat="45.76725" lon="5.30965">
        <ele>389</ele>
        <time>2015-11-15T08:22:49Z</time>
      </trkpt>
      <trkpt lat="45.7672" lon="5.30969">
        <ele>389.8</ele>
        <time>2015-11-15T08:22:51Z</time>
      </trkpt>
      <trkpt lat="45.76716" lon="5.30972">
        <ele>390.2</ele>
        <time>2015-11-15T08:22:53Z</time>
      </trkpt>
      <trkpt lat="45.76712" lon="5.30975">
        <ele>390.4</ele>
        <time>2015-11-15T08:22:55Z</time>
      </trkpt>
      <trkpt lat="45.76708" lon="5.30979">
        <ele>390.6</ele>
        <time>2015-11-15T08:22:57Z</time>
      </trkpt>
      <trkpt lat="45.76705" lon="5.30983">
        <ele>390.8</ele>
        <time>2015-11-15T08:22:59Z</time>
      </trkpt>
      <trkpt lat="45.76701" lon="5.30988">
        <ele>391.1</ele>
        <time>2015-11-15T08:23:01Z</time>
      </trkpt>
      <trkpt lat="45.76698" lon="5.30993">
        <ele>391.9</ele>
        <time>2015-11-15T08:23:03Z</time>
      </trkpt>
      <trkpt lat="45.76695" lon="5.31">
        <ele>392.6</ele>
        <time>2015-11-15T08:23:05Z</time>
      </trkpt>
      <trkpt lat="45.76692" lon="5.31006">
        <ele>393.2</ele>
        <time>2015-11-15T08:23:07Z</time>
      </trkpt>
      <trkpt lat="45.76689" lon="5.31013">
        <ele>393</ele>
        <time>2015-11-15T08:23:09Z</time>
      </trkpt>
      <trkpt lat="45.76685" lon="5.3102">
        <ele>392.6</ele>
        <time>2015-11-15T08:23:11Z</time>
      </trkpt>
      <trkpt lat="45.76681" lon="5.31028">
        <ele>392.3</ele>
        <time>2015-11-15T08:23:13Z</time>
      </trkpt>
      <trkpt lat="45.76677" lon="5.31036">
        <ele>392.1</ele>
        <time>2015-11-15T08:23:15Z</time>
      </trkpt>
      <trkpt lat="45.76674" lon="5.31045">
        <ele>391.6</ele>
        <time>2015-11-15T08:23:17Z</time>
      </trkpt>
      <trkpt lat="45.7667" lon="5.31053">
        <ele>392.4</ele>
        <time>2015-11-15T08:23:19Z</time>
      </trkpt>
      <trkpt lat="45.76666" lon="5.31061">
        <ele>393</ele>
        <time>2015-11-15T08:23:21Z</time>
      </trkpt>
      <trkpt lat="45.76662" lon="5.31069">
        <ele>393.6</ele>
        <time>2015-11-15T08:23:23Z</time>
      </trkpt>
      <trkpt lat="45.76658" lon="5.31079">
        <ele>394.4</ele>
        <time>2015-11-15T08:23:25Z</time>
      </trkpt>
      <trkpt lat="45.76653" lon="5.31089">
        <ele>395.1</ele>
        <time>2015-11-15T08:23:27Z</time>
      </trkpt>
      <trkpt lat="45.76647" lon="5.31099">
        <ele>395.2</ele>
        <time>2015-11-15T08:23:29Z</time>
      </trkpt>
      <trkpt lat="45.76641" lon="5.31111">
        <ele>395.4</ele>
        <time>2015-11-15T08:23:31Z</time>
      </trkpt>
      <trkpt lat="45.76635" lon="5.31122">
        <ele>395.8</ele>
        <time>2015-11-15T08:23:33Z</time>
      </trkpt>
      <trkpt lat="45.76629" lon="5.31133">
        <ele>396.4</ele>
        <time>2015-11-15T08:23:35Z</time>
      </trkpt>
      <trkpt lat="45.76622" lon="5.31144">
        <ele>397</ele>
        <time>2015-11-15T08:23:37Z</time>
      </trkpt>
      <trkpt lat="45.76614" lon="5.31156">
        <ele>397</ele>
        <time>2015-11-15T08:23:39Z</time>
      </trkpt>
      <trkpt lat="45.76607" lon="5.31167">
        <ele>397</ele>
        <time>2015-11-15T08:23:41Z</time>
      </trkpt>
      <trkpt lat="45.76601" lon="5.31177">
        <ele>396.4</ele>
        <time>2015-11-15T08:23:43Z</time>
      </trkpt>
      <trkpt lat="45.76593" lon="5.31188">
        <ele>395.4</ele>
        <time>2015-11-15T08:23:45Z</time>
      </trkpt>
      <trkpt lat="45.76586" lon="5.31204">
        <ele>393.6</ele>
        <time>2015-11-15T08:23:47Z</time>
      </trkpt>
      <trkpt lat="45.76581" lon="5.31222">
        <ele>392.4</ele>
        <time>2015-11-15T08:23:49Z</time>
      </trkpt>
      <trkpt lat="45.76574" lon="5.31239">
        <ele>391.8</ele>
        <time>2015-11-15T08:23:51Z</time>
      </trkpt>
      <trkpt lat="45.76565" lon="5.31252">
        <ele>390.7</ele>
        <time>2015-11-15T08:23:53Z</time>
      </trkpt>
      <trkpt lat="45.76554" lon="5.31259">
        <ele>389.6</ele>
        <time>2015-11-15T08:23:55Z</time>
      </trkpt>
      <trkpt lat="45.76542" lon="5.31266">
        <ele>387.8</ele>
        <time>2015-11-15T08:23:57Z</time>
      </trkpt>
      <trkpt lat="45.7653" lon="5.31277">
        <ele>386.2</ele>
        <time>2015-11-15T08:23:59Z</time>
      </trkpt>
      <trkpt lat="45.7652" lon="5.31291">
        <ele>383.7</ele>
        <time>2015-11-15T08:24:01Z</time>
      </trkpt>
      <trkpt lat="45.7651" lon="5.313">
        <ele>381.7</ele>
        <time>2015-11-15T08:24:03Z</time>
      </trkpt>
      <trkpt lat="45.76499" lon="5.3131">
        <ele>379.8</ele>
        <time>2015-11-15T08:24:05Z</time>
      </trkpt>
      <trkpt lat="45.76487" lon="5.31317">
        <ele>378</ele>
        <time>2015-11-15T08:24:07Z</time>
      </trkpt>
      <trkpt lat="45.76474" lon="5.31324">
        <ele>376.2</ele>
        <time>2015-11-15T08:24:09Z</time>
      </trkpt>
      <trkpt lat="45.7646" lon="5.3133">
        <ele>374.2</ele>
        <time>2015-11-15T08:24:11Z</time>
      </trkpt>
      <trkpt lat="45.76445" lon="5.31335">
        <ele>372.9</ele>
        <time>2015-11-15T08:24:13Z</time>
      </trkpt>
      <trkpt lat="45.76429" lon="5.31343">
        <ele>371.3</ele>
        <time>2015-11-15T08:24:15Z</time>
      </trkpt>
      <trkpt lat="45.76414" lon="5.31352">
        <ele>368</ele>
        <time>2015-11-15T08:24:17Z</time>
      </trkpt>
      <trkpt lat="45.76399" lon="5.31361">
        <ele>365.3</ele>
        <time>2015-11-15T08:24:19Z</time>
      </trkpt>
      <trkpt lat="45.76386" lon="5.3137">
        <ele>364.6</ele>
        <time>2015-11-15T08:24:21Z</time>
      </trkpt>
      <trkpt lat="45.76374" lon="5.31381">
        <ele>364.8</ele>
        <time>2015-11-15T08:24:23Z</time>
      </trkpt>
      <trkpt lat="45.76362" lon="5.31394">
        <ele>364.9</ele>
        <time>2015-11-15T08:24:25Z</time>
      </trkpt>
      <trkpt lat="45.76348" lon="5.31408">
        <ele>365.8</ele>
        <time>2015-11-15T08:24:27Z</time>
      </trkpt>
      <trkpt lat="45.76336" lon="5.31424">
        <ele>366.9</ele>
        <time>2015-11-15T08:24:29Z</time>
      </trkpt>
      <trkpt lat="45.76325" lon="5.31442">
        <ele>366.6</ele>
        <time>2015-11-15T08:24:31Z</time>
      </trkpt>
      <trkpt lat="45.76314" lon="5.31461">
        <ele>364.8</ele>
        <time>2015-11-15T08:24:33Z</time>
      </trkpt>
      <trkpt lat="45.76304" lon="5.3148">
        <ele>362</ele>
        <time>2015-11-15T08:24:35Z</time>
      </trkpt>
      <trkpt lat="45.76295" lon="5.31497">
        <ele>359.1</ele>
        <time>2015-11-15T08:24:37Z</time>
      </trkpt>
      <trkpt lat="45.76285" lon="5.31511">
        <ele>358.2</ele>
        <time>2015-11-15T08:24:39Z</time>
      </trkpt>
      <trkpt lat="45.76275" lon="5.31524">
        <ele>358</ele>
        <time>2015-11-15T08:24:41Z</time>
      </trkpt>
      <trkpt lat="45.76264" lon="5.31536">
        <ele>358.1</ele>
        <time>2015-11-15T08:24:43Z</time>
      </trkpt>
      <trkpt lat="45.76253" lon="5.31547">
        <ele>358.6</ele>
        <time>2015-11-15T08:24:45Z</time>
      </trkpt>
      <trkpt lat="45.76242" lon="5.31555">
        <ele>358.6</ele>
        <time>2015-11-15T08:24:47Z</time>
      </trkpt>
      <trkpt lat="45.76231" lon="5.3156">
        <ele>358.5</ele>
        <time>2015-11-15T08:24:49Z</time>
      </trkpt>
      <trkpt lat="45.76222" lon="5.31567">
        <ele>358.3</ele>
        <time>2015-11-15T08:24:51Z</time>
      </trkpt>
      <trkpt lat="45.76212" lon="5.31576">
        <ele>358.5</ele>
        <time>2015-11-15T08:24:53Z</time>
      </trkpt>
      <trkpt lat="45.76203" lon="5.31584">
        <ele>358.6</ele>
        <time>2015-11-15T08:24:55Z</time>
      </trkpt>
      <trkpt lat="45.76195" lon="5.31592">
        <ele>358.7</ele>
        <time>2015-11-15T08:24:57Z</time>
      </trkpt>
      <trkpt lat="45.76188" lon="5.31599">
        <ele>358.9</ele>
        <time>2015-11-15T08:24:59Z</time>
      </trkpt>
      <trkpt lat="45.76183" lon="5.31605">
        <ele>358.9</ele>
        <time>2015-11-15T08:25:01Z</time>
      </trkpt>
      <trkpt lat="45.76178" lon="5.31611">
        <ele>358.9</ele>
        <time>2015-11-15T08:25:03Z</time>
      </trkpt>
      <trkpt lat="45.76172" lon="5.31618">
        <ele>358.6</ele>
        <time>2015-11-15T08:25:05Z</time>
      </trkpt>
      <trkpt lat="45.76165" lon="5.31626">
        <ele>357.4</ele>
        <time>2015-11-15T08:25:07Z</time>
      </trkpt>
      <trkpt lat="45.76156" lon="5.31634">
        <ele>355.4</ele>
        <time>2015-11-15T08:25:09Z</time>
      </trkpt>
      <trkpt lat="45.76145" lon="5.31643">
        <ele>353.8</ele>
        <time>2015-11-15T08:25:11Z</time>
      </trkpt>
      <trkpt lat="45.76133" lon="5.31648">
        <ele>352</ele>
        <time>2015-11-15T08:25:13Z</time>
      </trkpt>
      <trkpt lat="45.7612" lon="5.31653">
        <ele>350.7</ele>
        <time>2015-11-15T08:25:15Z</time>
      </trkpt>
      <trkpt lat="45.76106" lon="5.31658">
        <ele>350</ele>
        <time>2015-11-15T08:25:17Z</time>
      </trkpt>
      <trkpt lat="45.76093" lon="5.31661">
        <ele>349.2</ele>
        <time>2015-11-15T08:25:19Z</time>
      </trkpt>
      <trkpt lat="45.76081" lon="5.31661">
        <ele>348</ele>
        <time>2015-11-15T08:25:21Z</time>
      </trkpt>
      <trkpt lat="45.7607" lon="5.31664">
        <ele>346</ele>
        <time>2015-11-15T08:25:23Z</time>
      </trkpt>
      <trkpt lat="45.76061" lon="5.31673">
        <ele>343.7</ele>
        <time>2015-11-15T08:25:25Z</time>
      </trkpt>
      <trkpt lat="45.76053" lon="5.31683">
        <ele>341.8</ele>
        <time>2015-11-15T08:25:27Z</time>
      </trkpt>
      <trkpt lat="45.76045" lon="5.31692">
        <ele>340.2</ele>
        <time>2015-11-15T08:25:29Z</time>
      </trkpt>
      <trkpt lat="45.76037" lon="5.31701">
        <ele>337.8</ele>
        <time>2015-11-15T08:25:31Z</time>
      </trkpt>
      <trkpt lat="45.76029" lon="5.31711">
        <ele>334.5</ele>
        <time>2015-11-15T08:25:33Z</time>
      </trkpt>
      <trkpt lat="45.76024" lon="5.3172">
        <ele>332</ele>
        <time>2015-11-15T08:25:35Z</time>
      </trkpt>
      <trkpt lat="45.76024" lon="5.31731">
        <ele>330.7</ele>
        <time>2015-11-15T08:25:37Z</time>
      </trkpt>
      <trkpt lat="45.76027" lon="5.31741">
        <ele>329</ele>
        <time>2015-11-15T08:25:39Z</time>
      </trkpt>
      <trkpt lat="45.76033" lon="5.31749">
        <ele>328</ele>
        <time>2015-11-15T08:25:41Z</time>
      </trkpt>
      <trkpt lat="45.7604" lon="5.31759">
        <ele>326.2</ele>
        <time>2015-11-15T08:25:43Z</time>
      </trkpt>
      <trkpt lat="45.76049" lon="5.31767">
        <ele>325.3</ele>
        <time>2015-11-15T08:25:45Z</time>
      </trkpt>
      <trkpt lat="45.76061" lon="5.31775">
        <ele>323.9</ele>
        <time>2015-11-15T08:25:47Z</time>
      </trkpt>
      <trkpt lat="45.76074" lon="5.31779">
        <ele>323</ele>
        <time>2015-11-15T08:25:49Z</time>
      </trkpt>
      <trkpt lat="45.76086" lon="5.31782">
        <ele>322.5</ele>
        <time>2015-11-15T08:25:51Z</time>
      </trkpt>
      <trkpt lat="45.76095" lon="5.31787">
        <ele>322.2</ele>
        <time>2015-11-15T08:25:53Z</time>
      </trkpt>
      <trkpt lat="45.76101" lon="5.31799">
        <ele>321.1</ele>
        <time>2015-11-15T08:25:55Z</time>
      </trkpt>
      <trkpt lat="45.76105" lon="5.31815">
        <ele>319.6</ele>
        <time>2015-11-15T08:25:57Z</time>
      </trkpt>
      <trkpt lat="45.76109" lon="5.3183">
        <ele>318.9</ele>
        <time>2015-11-15T08:25:59Z</time>
      </trkpt>
      <trkpt lat="45.76114" lon="5.31839">
        <ele>317.9</ele>
        <time>2015-11-15T08:26:01Z</time>
      </trkpt>
      <trkpt lat="45.76119" lon="5.31843">
        <ele>317.1</ele>
        <time>2015-11-15T08:26:03Z</time>
      </trkpt>
      <trkpt lat="45.76125" lon="5.31849">
        <ele>316.4</ele>
        <time>2015-11-15T08:26:05Z</time>
      </trkpt>
      <trkpt lat="45.76131" lon="5.31858">
        <ele>315.9</ele>
        <time>2015-11-15T08:26:07Z</time>
      </trkpt>
      <trkpt lat="45.76136" lon="5.31869">
        <ele>315</ele>
        <time>2015-11-15T08:26:09Z</time>
      </trkpt>
      <trkpt lat="45.76138" lon="5.31883">
        <ele>313.7</ele>
        <time>2015-11-15T08:26:11Z</time>
      </trkpt>
      <trkpt lat="45.76139" lon="5.31901">
        <ele>312.7</ele>
        <time>2015-11-15T08:26:13Z</time>
      </trkpt>
      <trkpt lat="45.7614" lon="5.3192">
        <ele>310.9</ele>
        <time>2015-11-15T08:26:15Z</time>
      </trkpt>
      <trkpt lat="45.7614" lon="5.31939">
        <ele>310.3</ele>
        <time>2015-11-15T08:26:17Z</time>
      </trkpt>
      <trkpt lat="45.76141" lon="5.31957">
        <ele>310</ele>
        <time>2015-11-15T08:26:19Z</time>
      </trkpt>
      <trkpt lat="45.76142" lon="5.31974">
        <ele>309.8</ele>
        <time>2015-11-15T08:26:21Z</time>
      </trkpt>
      <trkpt lat="45.76141" lon="5.31991">
        <ele>309.6</ele>
        <time>2015-11-15T08:26:23Z</time>
      </trkpt>
      <trkpt lat="45.76141" lon="5.32">
        <ele>309.5</ele>
        <time>2015-11-15T08:26:25Z</time>
      </trkpt>
      <trkpt lat="45.76146" lon="5.32004">
        <ele>309.3</ele>
        <time>2015-11-15T08:30:12Z</time>
      </trkpt>
      <trkpt lat="45.76157" lon="5.32001">
        <ele>309</ele>
        <time>2015-11-15T08:30:14Z</time>
      </trkpt>
      <trkpt lat="45.76166" lon="5.32">
        <ele>309.2</ele>
        <time>2015-11-15T08:30:16Z</time>
      </trkpt>
      <trkpt lat="45.76174" lon="5.31999">
        <ele>309.4</ele>
        <time>2015-11-15T08:30:18Z</time>
      </trkpt>
      <trkpt lat="45.76183" lon="5.31999">
        <ele>309.8</ele>
        <time>2015-11-15T08:30:20Z</time>
      </trkpt>
      <trkpt lat="45.76191" lon="5.32">
        <ele>310.1</ele>
        <time>2015-11-15T08:30:22Z</time>
      </trkpt>
      <trkpt lat="45.76199" lon="5.32">
        <ele>310.1</ele>
        <time>2015-11-15T08:30:24Z</time>
      </trkpt>
      <trkpt lat="45.76206" lon="5.31998">
        <ele>309.9</ele>
        <time>2015-11-15T08:30:26Z</time>
      </trkpt>
      <trkpt lat="45.76213" lon="5.31995">
        <ele>309.7</ele>
        <time>2015-11-15T08:30:28Z</time>
      </trkpt>
      <trkpt lat="45.76219" lon="5.31991">
        <ele>309.5</ele>
        <time>2015-11-15T08:30:30Z</time>
      </trkpt>
      <trkpt lat="45.76226" lon="5.31987">
        <ele>309.2</ele>
        <time>2015-11-15T08:30:32Z</time>
      </trkpt>
      <trkpt lat="45.76233" lon="5.31983">
        <ele>309</ele>
        <time>2015-11-15T08:30:34Z</time>
      </trkpt>
      <trkpt lat="45.7624" lon="5.3198">
        <ele>309</ele>
        <time>2015-11-15T08:30:36Z</time>
      </trkpt>
      <trkpt lat="45.76247" lon="5.31977">
        <ele>308.8</ele>
        <time>2015-11-15T08:30:38Z</time>
      </trkpt>
      <trkpt lat="45.76255" lon="5.31975">
        <ele>308.5</ele>
        <time>2015-11-15T08:30:40Z</time>
      </trkpt>
      <trkpt lat="45.76262" lon="5.31972">
        <ele>308.2</ele>
        <time>2015-11-15T08:30:42Z</time>
      </trkpt>
      <trkpt lat="45.7627" lon="5.31969">
        <ele>308.1</ele>
        <time>2015-11-15T08:30:44Z</time>
      </trkpt>
      <trkpt lat="45.76276" lon="5.31965">
        <ele>308.1</ele>
        <time>2015-11-15T08:30:46Z</time>
      </trkpt>
      <trkpt lat="45.76282" lon="5.31963">
        <ele>308.1</ele>
        <time>2015-11-15T08:30:48Z</time>
      </trkpt>
      <trkpt lat="45.76288" lon="5.31959">
        <ele>308.3</ele>
        <time>2015-11-15T08:30:50Z</time>
      </trkpt>
      <trkpt lat="45.76293" lon="5.31955">
        <ele>308.5</ele>
        <time>2015-11-15T08:30:52Z</time>
      </trkpt>
      <trkpt lat="45.76298" lon="5.31949">
        <ele>308.9</ele>
        <time>2015-11-15T08:30:54Z</time>
      </trkpt>
      <trkpt lat="45.76302" lon="5.31942">
        <ele>309.6</ele>
        <time>2015-11-15T08:30:56Z</time>
      </trkpt>
      <trkpt lat="45.76308" lon="5.31934">
        <ele>310.7</ele>
        <time>2015-11-15T08:30:58Z</time>
      </trkpt>
      <trkpt lat="45.76315" lon="5.31928">
        <ele>311.2</ele>
        <time>2015-11-15T08:31:00Z</time>
      </trkpt>
      <trkpt lat="45.76322" lon="5.31923">
        <ele>311.7</ele>
        <time>2015-11-15T08:31:02Z</time>
      </trkpt>
      <trkpt lat="45.7633" lon="5.3192">
        <ele>311.5</ele>
        <time>2015-11-15T08:31:04Z</time>
      </trkpt>
      <trkpt lat="45.76338" lon="5.3192">
        <ele>311.1</ele>
        <time>2015-11-15T08:31:06Z</time>
      </trkpt>
      <trkpt lat="45.76345" lon="5.31919">
        <ele>310.7</ele>
        <time>2015-11-15T08:31:08Z</time>
      </trkpt>
      <trkpt lat="45.76354" lon="5.31916">
        <ele>310</ele>
        <time>2015-11-15T08:31:10Z</time>
      </trkpt>
      <trkpt lat="45.76362" lon="5.31908">
        <ele>309.4</ele>
        <time>2015-11-15T08:31:12Z</time>
      </trkpt>
      <trkpt lat="45.76368" lon="5.31896">
        <ele>309.1</ele>
        <time>2015-11-15T08:31:14Z</time>
      </trkpt>
      <trkpt lat="45.7637" lon="5.31881">
        <ele>309</ele>
        <time>2015-11-15T08:31:16Z</time>
      </trkpt>
      <trkpt lat="45.76374" lon="5.31863">
        <ele>309.5</ele>
        <time>2015-11-15T08:31:18Z</time>
      </trkpt>
      <trkpt lat="45.76378" lon="5.31848">
        <ele>309.3</ele>
        <time>2015-11-15T08:31:20Z</time>
      </trkpt>
      <trkpt lat="45.76383" lon="5.31833">
        <ele>309.6</ele>
        <time>2015-11-15T08:31:22Z</time>
      </trkpt>
      <trkpt lat="45.76387" lon="5.31817">
        <ele>310.6</ele>
        <time>2015-11-15T08:31:24Z</time>
      </trkpt>
      <trkpt lat="45.76392" lon="5.31802">
        <ele>310.9</ele>
        <time>2015-11-15T08:31:26Z</time>
      </trkpt>
      <trkpt lat="45.764" lon="5.31787">
        <ele>310.4</ele>
        <time>2015-11-15T08:31:28Z</time>
      </trkpt>
      <trkpt lat="45.7641" lon="5.31775">
        <ele>309.2</ele>
        <time>2015-11-15T08:31:30Z</time>
      </trkpt>
      <trkpt lat="45.76422" lon="5.31766">
        <ele>306.7</ele>
        <time>2015-11-15T08:31:32Z</time>
      </trkpt>
      <trkpt lat="45.76432" lon="5.31758">
        <ele>305.1</ele>
        <time>2015-11-15T08:31:34Z</time>
      </trkpt>
      <trkpt lat="45.76443" lon="5.3175">
        <ele>305.2</ele>
        <time>2015-11-15T08:31:36Z</time>
      </trkpt>
      <trkpt lat="45.76453" lon="5.3174">
        <ele>305.5</ele>
        <time>2015-11-15T08:31:38Z</time>
      </trkpt>
      <trkpt lat="45.76465" lon="5.3173">
        <ele>306.2</ele>
        <time>2015-11-15T08:31:40Z</time>
      </trkpt>
      <trkpt lat="45.76475" lon="5.31721">
        <ele>306.3</ele>
        <time>2015-11-15T08:31:42Z</time>
      </trkpt>
      <trkpt lat="45.76486" lon="5.31713">
        <ele>305.5</ele>
        <time>2015-11-15T08:31:44Z</time>
      </trkpt>
      <trkpt lat="45.76496" lon="5.31706">
        <ele>303.9</ele>
        <time>2015-11-15T08:31:46Z</time>
      </trkpt>
      <trkpt lat="45.76505" lon="5.31699">
        <ele>303.9</ele>
        <time>2015-11-15T08:31:48Z</time>
      </trkpt>
      <trkpt lat="45.76514" lon="5.31691">
        <ele>304</ele>
        <time>2015-11-15T08:31:50Z</time>
      </trkpt>
      <trkpt lat="45.76522" lon="5.31683">
        <ele>305</ele>
        <time>2015-11-15T08:31:52Z</time>
      </trkpt>
      <trkpt lat="45.7653" lon="5.31674">
        <ele>306</ele>
        <time>2015-11-15T08:31:54Z</time>
      </trkpt>
      <trkpt lat="45.76537" lon="5.31664">
        <ele>307.1</ele>
        <time>2015-11-15T08:31:56Z</time>
      </trkpt>
      <trkpt lat="45.76545" lon="5.31654">
        <ele>307.7</ele>
        <time>2015-11-15T08:31:58Z</time>
      </trkpt>
      <trkpt lat="45.76553" lon="5.31644">
        <ele>307.3</ele>
        <time>2015-11-15T08:32:00Z</time>
      </trkpt>
      <trkpt lat="45.76561" lon="5.31637">
        <ele>306.2</ele>
        <time>2015-11-15T08:32:02Z</time>
      </trkpt>
      <trkpt lat="45.76569" lon="5.3163">
        <ele>305.7</ele>
        <time>2015-11-15T08:32:04Z</time>
      </trkpt>
      <trkpt lat="45.76577" lon="5.31621">
        <ele>305.1</ele>
        <time>2015-11-15T08:32:06Z</time>
      </trkpt>
      <trkpt lat="45.76585" lon="5.31612">
        <ele>305.3</ele>
        <time>2015-11-15T08:32:08Z</time>
      </trkpt>
      <trkpt lat="45.76592" lon="5.31603">
        <ele>305.2</ele>
        <time>2015-11-15T08:32:10Z</time>
      </trkpt>
      <trkpt lat="45.76601" lon="5.31598">
        <ele>304.9</ele>
        <time>2015-11-15T08:32:12Z</time>
      </trkpt>
      <trkpt lat="45.76609" lon="5.31594">
        <ele>305.9</ele>
        <time>2015-11-15T08:32:14Z</time>
      </trkpt>
      <trkpt lat="45.76616" lon="5.3159">
        <ele>306.6</ele>
        <time>2015-11-15T08:32:16Z</time>
      </trkpt>
      <trkpt lat="45.76622" lon="5.31585">
        <ele>307.2</ele>
        <time>2015-11-15T08:32:18Z</time>
      </trkpt>
      <trkpt lat="45.76629" lon="5.3158">
        <ele>307.9</ele>
        <time>2015-11-15T08:32:20Z</time>
      </trkpt>
      <trkpt lat="45.76636" lon="5.31576">
        <ele>308.5</ele>
        <time>2015-11-15T08:32:22Z</time>
      </trkpt>
      <trkpt lat="45.76643" lon="5.31572">
        <ele>308.8</ele>
        <time>2015-11-15T08:32:24Z</time>
      </trkpt>
      <trkpt lat="45.7665" lon="5.31569">
        <ele>309.2</ele>
        <time>2015-11-15T08:32:26Z</time>
      </trkpt>
      <trkpt lat="45.76656" lon="5.31565">
        <ele>309.6</ele>
        <time>2015-11-15T08:32:28Z</time>
      </trkpt>
      <trkpt lat="45.76662" lon="5.31562">
        <ele>310.1</ele>
        <time>2015-11-15T08:32:30Z</time>
      </trkpt>
      <trkpt lat="45.76668" lon="5.31558">
        <ele>310.7</ele>
        <time>2015-11-15T08:32:32Z</time>
      </trkpt>
      <trkpt lat="45.76674" lon="5.31555">
        <ele>311.1</ele>
        <time>2015-11-15T08:32:34Z</time>
      </trkpt>
      <trkpt lat="45.76681" lon="5.31552">
        <ele>311.5</ele>
        <time>2015-11-15T08:32:36Z</time>
      </trkpt>
      <trkpt lat="45.76686" lon="5.31548">
        <ele>311.9</ele>
        <time>2015-11-15T08:32:38Z</time>
      </trkpt>
      <trkpt lat="45.76693" lon="5.31544">
        <ele>312.5</ele>
        <time>2015-11-15T08:32:40Z</time>
      </trkpt>
      <trkpt lat="45.76699" lon="5.31541">
        <ele>313.2</ele>
        <time>2015-11-15T08:32:42Z</time>
      </trkpt>
      <trkpt lat="45.76705" lon="5.31538">
        <ele>313.6</ele>
        <time>2015-11-15T08:32:44Z</time>
      </trkpt>
      <trkpt lat="45.76712" lon="5.31534">
        <ele>313.9</ele>
        <time>2015-11-15T08:32:46Z</time>
      </trkpt>
      <trkpt lat="45.76719" lon="5.31531">
        <ele>314.3</ele>
        <time>2015-11-15T08:32:48Z</time>
      </trkpt>
      <trkpt lat="45.76725" lon="5.31527">
        <ele>314.8</ele>
        <time>2015-11-15T08:32:50Z</time>
      </trkpt>
      <trkpt lat="45.76732" lon="5.31523">
        <ele>315.6</ele>
        <time>2015-11-15T08:32:52Z</time>
      </trkpt>
      <trkpt lat="45.76739" lon="5.3152">
        <ele>316.2</ele>
        <time>2015-11-15T08:32:54Z</time>
      </trkpt>
      <trkpt lat="45.76746" lon="5.31516">
        <ele>316.6</ele>
        <time>2015-11-15T08:32:56Z</time>
      </trkpt>
      <trkpt lat="45.76752" lon="5.31512">
        <ele>317.1</ele>
        <time>2015-11-15T08:32:58Z</time>
      </trkpt>
      <trkpt lat="45.76759" lon="5.31508">
        <ele>317.9</ele>
        <time>2015-11-15T08:33:00Z</time>
      </trkpt>
      <trkpt lat="45.76765" lon="5.31505">
        <ele>318.5</ele>
        <time>2015-11-15T08:33:02Z</time>
      </trkpt>
      <trkpt lat="45.76773" lon="5.31503">
        <ele>318.9</ele>
        <time>2015-11-15T08:33:04Z</time>
      </trkpt>
      <trkpt lat="45.7678" lon="5.31501">
        <ele>318.8</ele>
        <time>2015-11-15T08:33:06Z</time>
      </trkpt>
      <trkpt lat="45.76789" lon="5.31499">
        <ele>318.2</ele>
        <time>2015-11-15T08:33:08Z</time>
      </trkpt>
      <trkpt lat="45.76801" lon="5.31495">
        <ele>317.6</ele>
        <time>2015-11-15T08:33:10Z</time>
      </trkpt>
      <trkpt lat="45.76814" lon="5.31488">
        <ele>317</ele>
        <time>2015-11-15T08:33:12Z</time>
      </trkpt>
      <trkpt lat="45.76828" lon="5.3148">
        <ele>316.2</ele>
        <time>2015-11-15T08:33:14Z</time>
      </trkpt>
      <trkpt lat="45.76846" lon="5.31473">
        <ele>314.7</ele>
        <time>2015-11-15T08:33:16Z</time>
      </trkpt>
      <trkpt lat="45.76865" lon="5.31466">
        <ele>313.4</ele>
        <time>2015-11-15T08:33:18Z</time>
      </trkpt>
      <trkpt lat="45.76885" lon="5.31459">
        <ele>312.2</ele>
        <time>2015-11-15T08:33:20Z</time>
      </trkpt>
      <trkpt lat="45.76907" lon="5.3145">
        <ele>311.5</ele>
        <time>2015-11-15T08:33:22Z</time>
      </trkpt>
      <trkpt lat="45.76929" lon="5.31443">
        <ele>310.2</ele>
        <time>2015-11-15T08:33:24Z</time>
      </trkpt>
      <trkpt lat="45.7695" lon="5.31439">
        <ele>309.1</ele>
        <time>2015-11-15T08:33:26Z</time>
      </trkpt>
      <trkpt lat="45.76971" lon="5.31447">
        <ele>308.7</ele>
        <time>2015-11-15T08:33:28Z</time>
      </trkpt>
      <trkpt lat="45.7699" lon="5.31462">
        <ele>307.3</ele>
        <time>2015-11-15T08:33:30Z</time>
      </trkpt>
      <trkpt lat="45.77008" lon="5.31475">
        <ele>306.1</ele>
        <time>2015-11-15T08:33:32Z</time>
      </trkpt>
      <trkpt lat="45.77028" lon="5.31479">
        <ele>305.1</ele>
        <time>2015-11-15T08:33:34Z</time>
      </trkpt>
      <trkpt lat="45.77047" lon="5.3147">
        <ele>301.7</ele>
        <time>2015-11-15T08:33:36Z</time>
      </trkpt>
      <trkpt lat="45.77066" lon="5.31456">
        <ele>298.6</ele>
        <time>2015-11-15T08:33:38Z</time>
      </trkpt>
      <trkpt lat="45.77086" lon="5.31442">
        <ele>294.7</ele>
        <time>2015-11-15T08:33:40Z</time>
      </trkpt>
      <trkpt lat="45.77106" lon="5.31425">
        <ele>290.6</ele>
        <time>2015-11-15T08:33:42Z</time>
      </trkpt>
      <trkpt lat="45.77125" lon="5.31407">
        <ele>286.1</ele>
        <time>2015-11-15T08:33:44Z</time>
      </trkpt>
      <trkpt lat="45.77146" lon="5.31391">
        <ele>281.8</ele>
        <time>2015-11-15T08:33:46Z</time>
      </trkpt>
      <trkpt lat="45.77167" lon="5.3138">
        <ele>277.5</ele>
        <time>2015-11-15T08:33:48Z</time>
      </trkpt>
      <trkpt lat="45.77187" lon="5.31382">
        <ele>273.4</ele>
        <time>2015-11-15T08:33:50Z</time>
      </trkpt>
      <trkpt lat="45.77205" lon="5.31397">
        <ele>270.3</ele>
        <time>2015-11-15T08:33:52Z</time>
      </trkpt>
      <trkpt lat="45.77219" lon="5.31421">
        <ele>268.4</ele>
        <time>2015-11-15T08:33:54Z</time>
      </trkpt>
      <trkpt lat="45.77229" lon="5.31447">
        <ele>267.4</ele>
        <time>2015-11-15T08:33:56Z</time>
      </trkpt>
      <trkpt lat="45.77238" lon="5.31475">
        <ele>266.6</ele>
        <time>2015-11-15T08:33:58Z</time>
      </trkpt>
      <trkpt lat="45.7725" lon="5.31499">
        <ele>266.2</ele>
        <time>2015-11-15T08:34:00Z</time>
      </trkpt>
      <trkpt lat="45.77264" lon="5.31511">
        <ele>266.3</ele>
        <time>2015-11-15T08:34:02Z</time>
      </trkpt>
      <trkpt lat="45.77278" lon="5.31506">
        <ele>266.3</ele>
        <time>2015-11-15T08:34:04Z</time>
      </trkpt>
      <trkpt lat="45.7729" lon="5.31495">
        <ele>266.1</ele>
        <time>2015-11-15T08:34:06Z</time>
      </trkpt>
      <trkpt lat="45.77301" lon="5.31484">
        <ele>265.7</ele>
        <time>2015-11-15T08:34:08Z</time>
      </trkpt>
      <trkpt lat="45.77311" lon="5.31475">
        <ele>265.2</ele>
        <time>2015-11-15T08:34:10Z</time>
      </trkpt>
      <trkpt lat="45.77321" lon="5.31467">
        <ele>264.8</ele>
        <time>2015-11-15T08:34:12Z</time>
      </trkpt>
      <trkpt lat="45.77329" lon="5.31462">
        <ele>264.5</ele>
        <time>2015-11-15T08:34:14Z</time>
      </trkpt>
      <trkpt lat="45.77337" lon="5.31457">
        <ele>264.1</ele>
        <time>2015-11-15T08:34:16Z</time>
      </trkpt>
      <trkpt lat="45.77345" lon="5.31448">
        <ele>264</ele>
        <time>2015-11-15T08:34:18Z</time>
      </trkpt>
      <trkpt lat="45.7735" lon="5.31438">
        <ele>264</ele>
        <time>2015-11-15T08:34:20Z</time>
      </trkpt>
      <trkpt lat="45.77355" lon="5.31429">
        <ele>264</ele>
        <time>2015-11-15T08:34:22Z</time>
      </trkpt>
      <trkpt lat="45.7736" lon="5.3142">
        <ele>264.1</ele>
        <time>2015-11-15T08:34:24Z</time>
      </trkpt>
      <trkpt lat="45.77365" lon="5.31413">
        <ele>264.3</ele>
        <time>2015-11-15T08:34:26Z</time>
      </trkpt>
      <trkpt lat="45.77371" lon="5.31406">
        <ele>264.4</ele>
        <time>2015-11-15T08:34:28Z</time>
      </trkpt>
      <trkpt lat="45.77376" lon="5.31401">
        <ele>264.7</ele>
        <time>2015-11-15T08:34:30Z</time>
      </trkpt>
      <trkpt lat="45.77383" lon="5.31397">
        <ele>265.3</ele>
        <time>2015-11-15T08:34:32Z</time>
      </trkpt>
      <trkpt lat="45.77389" lon="5.31395">
        <ele>265.8</ele>
        <time>2015-11-15T08:34:34Z</time>
      </trkpt>
      <trkpt lat="45.77395" lon="5.31394">
        <ele>266.2</ele>
        <time>2015-11-15T08:34:36Z</time>
      </trkpt>
      <trkpt lat="45.77401" lon="5.31393">
        <ele>266.5</ele>
        <time>2015-11-15T08:34:38Z</time>
      </trkpt>
      <trkpt lat="45.77407" lon="5.31392">
        <ele>267</ele>
        <time>2015-11-15T08:34:40Z</time>
      </trkpt>
      <trkpt lat="45.77412" lon="5.31393">
        <ele>267.6</ele>
        <time>2015-11-15T08:34:42Z</time>
      </trkpt>
      <trkpt lat="45.77419" lon="5.31394">
        <ele>268.2</ele>
        <time>2015-11-15T08:34:44Z</time>
      </trkpt>
      <trkpt lat="45.77424" lon="5.31395">
        <ele>268.8</ele>
        <time>2015-11-15T08:34:46Z</time>
      </trkpt>
      <trkpt lat="45.7743" lon="5.31396">
        <ele>269.4</ele>
        <time>2015-11-15T08:34:48Z</time>
      </trkpt>
      <trkpt lat="45.77437" lon="5.31395">
        <ele>270.1</ele>
        <time>2015-11-15T08:34:50Z</time>
      </trkpt>
      <trkpt lat="45.77443" lon="5.31394">
        <ele>270.6</ele>
        <time>2015-11-15T08:34:52Z</time>
      </trkpt>
      <trkpt lat="45.7745" lon="5.31393">
        <ele>271.1</ele>
        <time>2015-11-15T08:34:54Z</time>
      </trkpt>
      <trkpt lat="45.77456" lon="5.31392">
        <ele>271.7</ele>
        <time>2015-11-15T08:34:56Z</time>
      </trkpt>
      <trkpt lat="45.77462" lon="5.3139">
        <ele>272.3</ele>
        <time>2015-11-15T08:34:58Z</time>
      </trkpt>
      <trkpt lat="45.77467" lon="5.31388">
        <ele>272.9</ele>
        <time>2015-11-15T08:35:00Z</time>
      </trkpt>
      <trkpt lat="45.77473" lon="5.31387">
        <ele>273.5</ele>
        <time>2015-11-15T08:35:02Z</time>
      </trkpt>
      <trkpt lat="45.77478" lon="5.31385">
        <ele>273.9</ele>
        <time>2015-11-15T08:35:04Z</time>
      </trkpt>
      <trkpt lat="45.77483" lon="5.31384">
        <ele>274.5</ele>
        <time>2015-11-15T08:35:06Z</time>
      </trkpt>
      <trkpt lat="45.77489" lon="5.31383">
        <ele>275.1</ele>
        <time>2015-11-15T08:35:08Z</time>
      </trkpt>
      <trkpt lat="45.77494" lon="5.31382">
        <ele>275.6</ele>
        <time>2015-11-15T08:35:10Z</time>
      </trkpt>
      <trkpt lat="45.77499" lon="5.31382">
        <ele>276</ele>
        <time>2015-11-15T08:35:12Z</time>
      </trkpt>
      <trkpt lat="45.77504" lon="5.31381">
        <ele>276.4</ele>
        <time>2015-11-15T08:35:14Z</time>
      </trkpt>
      <trkpt lat="45.77508" lon="5.31381">
        <ele>276.9</ele>
        <time>2015-11-15T08:35:16Z</time>
      </trkpt>
      <trkpt lat="45.77513" lon="5.31381">
        <ele>277.5</ele>
        <time>2015-11-15T08:35:18Z</time>
      </trkpt>
      <trkpt lat="45.77517" lon="5.31381">
        <ele>278</ele>
        <time>2015-11-15T08:35:20Z</time>
      </trkpt>
      <trkpt lat="45.77525" lon="5.31383">
        <ele>278.9</ele>
        <time>2015-11-15T08:35:23Z</time>
      </trkpt>
      <trkpt lat="45.77529" lon="5.31384">
        <ele>279.5</ele>
        <time>2015-11-15T08:35:25Z</time>
      </trkpt>
      <trkpt lat="45.77534" lon="5.31385">
        <ele>280.1</ele>
        <time>2015-11-15T08:35:27Z</time>
      </trkpt>
      <trkpt lat="45.77538" lon="5.31386">
        <ele>280.4</ele>
        <time>2015-11-15T08:35:29Z</time>
      </trkpt>
      <trkpt lat="45.77543" lon="5.31387">
        <ele>280.7</ele>
        <time>2015-11-15T08:35:31Z</time>
      </trkpt>
      <trkpt lat="45.77548" lon="5.31388">
        <ele>281.2</ele>
        <time>2015-11-15T08:35:33Z</time>
      </trkpt>
      <trkpt lat="45.77553" lon="5.31388">
        <ele>281.7</ele>
        <time>2015-11-15T08:35:35Z</time>
      </trkpt>
      <trkpt lat="45.77557" lon="5.31388">
        <ele>282.1</ele>
        <time>2015-11-15T08:35:37Z</time>
      </trkpt>
      <trkpt lat="45.77562" lon="5.31388">
        <ele>282.5</ele>
        <time>2015-11-15T08:35:39Z</time>
      </trkpt>
      <trkpt lat="45.77566" lon="5.31389">
        <ele>282.9</ele>
        <time>2015-11-15T08:35:41Z</time>
      </trkpt>
      <trkpt lat="45.77571" lon="5.31389">
        <ele>283.3</ele>
        <time>2015-11-15T08:35:43Z</time>
      </trkpt>
      <trkpt lat="45.77576" lon="5.31389">
        <ele>283.8</ele>
        <time>2015-11-15T08:35:45Z</time>
      </trkpt>
      <trkpt lat="45.77581" lon="5.3139">
        <ele>284.3</ele>
        <time>2015-11-15T08:35:47Z</time>
      </trkpt>
      <trkpt lat="45.77586" lon="5.3139">
        <ele>284.8</ele>
        <time>2015-11-15T08:35:49Z</time>
      </trkpt>
      <trkpt lat="45.77592" lon="5.31391">
        <ele>285.1</ele>
        <time>2015-11-15T08:35:51Z</time>
      </trkpt>
      <trkpt lat="45.77597" lon="5.31392">
        <ele>285.3</ele>
        <time>2015-11-15T08:35:53Z</time>
      </trkpt>
      <trkpt lat="45.77602" lon="5.31392">
        <ele>285.5</ele>
        <time>2015-11-15T08:35:55Z</time>
      </trkpt>
      <trkpt lat="45.77608" lon="5.31393">
        <ele>286</ele>
        <time>2015-11-15T08:35:57Z</time>
      </trkpt>
      <trkpt lat="45.77614" lon="5.31393">
        <ele>286.6</ele>
        <time>2015-11-15T08:35:59Z</time>
      </trkpt>
      <trkpt lat="45.77619" lon="5.31394">
        <ele>287.1</ele>
        <time>2015-11-15T08:36:01Z</time>
      </trkpt>
      <trkpt lat="45.77625" lon="5.31395">
        <ele>287.5</ele>
        <time>2015-11-15T08:36:03Z</time>
      </trkpt>
      <trkpt lat="45.7763" lon="5.31395">
        <ele>287.9</ele>
        <time>2015-11-15T08:36:05Z</time>
      </trkpt>
      <trkpt lat="45.77635" lon="5.31396">
        <ele>288.2</ele>
        <time>2015-11-15T08:36:07Z</time>
      </trkpt>
      <trkpt lat="45.7764" lon="5.31396">
        <ele>288.7</ele>
        <time>2015-11-15T08:36:09Z</time>
      </trkpt>
      <trkpt lat="45.77645" lon="5.31396">
        <ele>289.2</ele>
        <time>2015-11-15T08:36:11Z</time>
      </trkpt>
      <trkpt lat="45.7765" lon="5.31397">
        <ele>289.8</ele>
        <time>2015-11-15T08:36:13Z</time>
      </trkpt>
      <trkpt lat="45.77655" lon="5.31397">
        <ele>290.1</ele>
        <time>2015-11-15T08:36:15Z</time>
      </trkpt>
      <trkpt lat="45.7766" lon="5.31396">
        <ele>290.4</ele>
        <time>2015-11-15T08:36:17Z</time>
      </trkpt>
      <trkpt lat="45.77665" lon="5.31396">
        <ele>290.7</ele>
        <time>2015-11-15T08:36:19Z</time>
      </trkpt>
      <trkpt lat="45.7767" lon="5.31396">
        <ele>291.3</ele>
        <time>2015-11-15T08:36:21Z</time>
      </trkpt>
      <trkpt lat="45.77675" lon="5.31395">
        <ele>291.8</ele>
        <time>2015-11-15T08:36:23Z</time>
      </trkpt>
      <trkpt lat="45.77679" lon="5.31394">
        <ele>292.3</ele>
        <time>2015-11-15T08:36:25Z</time>
      </trkpt>
      <trkpt lat="45.77684" lon="5.31393">
        <ele>292.7</ele>
        <time>2015-11-15T08:36:27Z</time>
      </trkpt>
      <trkpt lat="45.7769" lon="5.31391">
        <ele>293.2</ele>
        <time>2015-11-15T08:36:29Z</time>
      </trkpt>
      <trkpt lat="45.77696" lon="5.3139">
        <ele>293.8</ele>
        <time>2015-11-15T08:36:31Z</time>
      </trkpt>
      <trkpt lat="45.777" lon="5.31388">
        <ele>294.3</ele>
        <time>2015-11-15T08:36:33Z</time>
      </trkpt>
      <trkpt lat="45.77705" lon="5.31387">
        <ele>294.8</ele>
        <time>2015-11-15T08:36:35Z</time>
      </trkpt>
      <trkpt lat="45.7771" lon="5.31386">
        <ele>295.1</ele>
        <time>2015-11-15T08:36:37Z</time>
      </trkpt>
      <trkpt lat="45.77714" lon="5.31384">
        <ele>295.4</ele>
        <time>2015-11-15T08:36:39Z</time>
      </trkpt>
      <trkpt lat="45.77718" lon="5.31382">
        <ele>296</ele>
        <time>2015-11-15T08:36:41Z</time>
      </trkpt>
      <trkpt lat="45.77723" lon="5.31379">
        <ele>296.5</ele>
        <time>2015-11-15T08:36:43Z</time>
      </trkpt>
      <trkpt lat="45.77727" lon="5.31377">
        <ele>296.9</ele>
        <time>2015-11-15T08:36:45Z</time>
      </trkpt>
      <trkpt lat="45.77731" lon="5.31374">
        <ele>297.2</ele>
        <time>2015-11-15T08:36:47Z</time>
      </trkpt>
      <trkpt lat="45.77736" lon="5.31371">
        <ele>297.5</ele>
        <time>2015-11-15T08:36:49Z</time>
      </trkpt>
      <trkpt lat="45.7774" lon="5.31369">
        <ele>298.1</ele>
        <time>2015-11-15T08:36:51Z</time>
      </trkpt>
      <trkpt lat="45.77745" lon="5.31367">
        <ele>298.6</ele>
        <time>2015-11-15T08:36:53Z</time>
      </trkpt>
      <trkpt lat="45.77749" lon="5.31365">
        <ele>299.1</ele>
        <time>2015-11-15T08:36:55Z</time>
      </trkpt>
      <trkpt lat="45.77753" lon="5.31363">
        <ele>299.4</ele>
        <time>2015-11-15T08:36:57Z</time>
      </trkpt>
      <trkpt lat="45.77758" lon="5.31362">
        <ele>299.7</ele>
        <time>2015-11-15T08:36:59Z</time>
      </trkpt>
      <trkpt lat="45.77762" lon="5.3136">
        <ele>300</ele>
        <time>2015-11-15T08:37:01Z</time>
      </trkpt>
      <trkpt lat="45.77766" lon="5.31359">
        <ele>300.5</ele>
        <time>2015-11-15T08:37:03Z</time>
      </trkpt>
      <trkpt lat="45.77771" lon="5.31358">
        <ele>301</ele>
        <time>2015-11-15T08:37:05Z</time>
      </trkpt>
      <trkpt lat="45.77776" lon="5.31358">
        <ele>301.5</ele>
        <time>2015-11-15T08:37:07Z</time>
      </trkpt>
      <trkpt lat="45.77781" lon="5.31358">
        <ele>301.8</ele>
        <time>2015-11-15T08:37:09Z</time>
      </trkpt>
      <trkpt lat="45.77785" lon="5.31357">
        <ele>302</ele>
        <time>2015-11-15T08:37:11Z</time>
      </trkpt>
      <trkpt lat="45.77789" lon="5.31356">
        <ele>302.2</ele>
        <time>2015-11-15T08:37:13Z</time>
      </trkpt>
      <trkpt lat="45.77793" lon="5.31357">
        <ele>302.7</ele>
        <time>2015-11-15T08:37:15Z</time>
      </trkpt>
      <trkpt lat="45.77797" lon="5.31358">
        <ele>303.1</ele>
        <time>2015-11-15T08:37:17Z</time>
      </trkpt>
      <trkpt lat="45.77802" lon="5.31358">
        <ele>303.6</ele>
        <time>2015-11-15T08:37:19Z</time>
      </trkpt>
      <trkpt lat="45.77807" lon="5.3136">
        <ele>304.1</ele>
        <time>2015-11-15T08:37:21Z</time>
      </trkpt>
      <trkpt lat="45.77812" lon="5.31363">
        <ele>304.6</ele>
        <time>2015-11-15T08:37:23Z</time>
      </trkpt>
      <trkpt lat="45.77818" lon="5.31366">
        <ele>305.3</ele>
        <time>2015-11-15T08:37:25Z</time>
      </trkpt>
      <trkpt lat="45.77823" lon="5.31369">
        <ele>306.1</ele>
        <time>2015-11-15T08:37:27Z</time>
      </trkpt>
      <trkpt lat="45.77828" lon="5.31372">
        <ele>306.6</ele>
        <time>2015-11-15T08:37:29Z</time>
      </trkpt>
      <trkpt lat="45.77833" lon="5.31376">
        <ele>307.1</ele>
        <time>2015-11-15T08:37:31Z</time>
      </trkpt>
      <trkpt lat="45.77837" lon="5.31378">
        <ele>307.6</ele>
        <time>2015-11-15T08:37:33Z</time>
      </trkpt>
      <trkpt lat="45.77842" lon="5.31381">
        <ele>308.1</ele>
        <time>2015-11-15T08:37:35Z</time>
      </trkpt>
      <trkpt lat="45.77846" lon="5.31384">
        <ele>308.6</ele>
        <time>2015-11-15T08:37:37Z</time>
      </trkpt>
      <trkpt lat="45.7785" lon="5.31388">
        <ele>308.9</ele>
        <time>2015-11-15T08:37:39Z</time>
      </trkpt>
      <trkpt lat="45.77855" lon="5.31392">
        <ele>309.2</ele>
        <time>2015-11-15T08:37:41Z</time>
      </trkpt>
      <trkpt lat="45.77859" lon="5.31395">
        <ele>309.8</ele>
        <time>2015-11-15T08:37:43Z</time>
      </trkpt>
      <trkpt lat="45.77864" lon="5.31397">
        <ele>310.3</ele>
        <time>2015-11-15T08:37:45Z</time>
      </trkpt>
      <trkpt lat="45.77868" lon="5.31399">
        <ele>310.8</ele>
        <time>2015-11-15T08:37:47Z</time>
      </trkpt>
      <trkpt lat="45.77873" lon="5.31401">
        <ele>311.2</ele>
        <time>2015-11-15T08:37:49Z</time>
      </trkpt>
      <trkpt lat="45.77876" lon="5.31403">
        <ele>311.6</ele>
        <time>2015-11-15T08:37:51Z</time>
      </trkpt>
      <trkpt lat="45.77881" lon="5.31405">
        <ele>312.1</ele>
        <time>2015-11-15T08:37:53Z</time>
      </trkpt>
      <trkpt lat="45.77885" lon="5.31408">
        <ele>312.7</ele>
        <time>2015-11-15T08:37:55Z</time>
      </trkpt>
      <trkpt lat="45.7789" lon="5.31409">
        <ele>313.2</ele>
        <time>2015-11-15T08:37:57Z</time>
      </trkpt>
      <trkpt lat="45.77894" lon="5.31411">
        <ele>313.5</ele>
        <time>2015-11-15T08:37:59Z</time>
      </trkpt>
      <trkpt lat="45.77899" lon="5.31413">
        <ele>314.1</ele>
        <time>2015-11-15T08:38:01Z</time>
      </trkpt>
      <trkpt lat="45.77905" lon="5.31415">
        <ele>314.8</ele>
        <time>2015-11-15T08:38:03Z</time>
      </trkpt>
      <trkpt lat="45.77908" lon="5.31418">
        <ele>315.3</ele>
        <time>2015-11-15T08:38:05Z</time>
      </trkpt>
      <trkpt lat="45.77913" lon="5.3142">
        <ele>315.8</ele>
        <time>2015-11-15T08:38:07Z</time>
      </trkpt>
      <trkpt lat="45.77919" lon="5.31422">
        <ele>316.5</ele>
        <time>2015-11-15T08:38:09Z</time>
      </trkpt>
      <trkpt lat="45.77923" lon="5.31425">
        <ele>317.1</ele>
        <time>2015-11-15T08:38:11Z</time>
      </trkpt>
      <trkpt lat="45.77928" lon="5.31427">
        <ele>317.6</ele>
        <time>2015-11-15T08:38:13Z</time>
      </trkpt>
      <trkpt lat="45.77932" lon="5.31428">
        <ele>317.9</ele>
        <time>2015-11-15T08:38:15Z</time>
      </trkpt>
      <trkpt lat="45.77937" lon="5.3143">
        <ele>318.3</ele>
        <time>2015-11-15T08:38:17Z</time>
      </trkpt>
      <trkpt lat="45.77942" lon="5.31433">
        <ele>318.9</ele>
        <time>2015-11-15T08:38:19Z</time>
      </trkpt>
      <trkpt lat="45.77947" lon="5.31437">
        <ele>319.5</ele>
        <time>2015-11-15T08:38:21Z</time>
      </trkpt>
      <trkpt lat="45.77951" lon="5.3144">
        <ele>320</ele>
        <time>2015-11-15T08:38:23Z</time>
      </trkpt>
      <trkpt lat="45.77956" lon="5.31444">
        <ele>320.3</ele>
        <time>2015-11-15T08:38:25Z</time>
      </trkpt>
      <trkpt lat="45.77961" lon="5.31449">
        <ele>320.7</ele>
        <time>2015-11-15T08:38:27Z</time>
      </trkpt>
      <trkpt lat="45.77966" lon="5.31454">
        <ele>321.4</ele>
        <time>2015-11-15T08:38:29Z</time>
      </trkpt>
      <trkpt lat="45.77971" lon="5.31458">
        <ele>322.1</ele>
        <time>2015-11-15T08:38:31Z</time>
      </trkpt>
      <trkpt lat="45.77976" lon="5.31462">
        <ele>322.4</ele>
        <time>2015-11-15T08:38:33Z</time>
      </trkpt>
      <trkpt lat="45.7798" lon="5.31466">
        <ele>322.9</ele>
        <time>2015-11-15T08:38:35Z</time>
      </trkpt>
      <trkpt lat="45.77984" lon="5.3147">
        <ele>323.4</ele>
        <time>2015-11-15T08:38:37Z</time>
      </trkpt>
      <trkpt lat="45.77989" lon="5.31474">
        <ele>324</ele>
        <time>2015-11-15T08:38:39Z</time>
      </trkpt>
      <trkpt lat="45.77993" lon="5.31479">
        <ele>324.5</ele>
        <time>2015-11-15T08:38:41Z</time>
      </trkpt>
      <trkpt lat="45.77998" lon="5.31484">
        <ele>324.8</ele>
        <time>2015-11-15T08:38:43Z</time>
      </trkpt>
      <trkpt lat="45.78002" lon="5.31489">
        <ele>325.1</ele>
        <time>2015-11-15T08:38:45Z</time>
      </trkpt>
      <trkpt lat="45.78006" lon="5.31493">
        <ele>325.6</ele>
        <time>2015-11-15T08:38:47Z</time>
      </trkpt>
      <trkpt lat="45.78011" lon="5.31496">
        <ele>326.2</ele>
        <time>2015-11-15T08:38:49Z</time>
      </trkpt>
      <trkpt lat="45.78016" lon="5.31499">
        <ele>326.7</ele>
        <time>2015-11-15T08:38:51Z</time>
      </trkpt>
      <trkpt lat="45.78021" lon="5.31502">
        <ele>327</ele>
        <time>2015-11-15T08:38:53Z</time>
      </trkpt>
      <trkpt lat="45.78025" lon="5.31504">
        <ele>327.3</ele>
        <time>2015-11-15T08:38:55Z</time>
      </trkpt>
      <trkpt lat="45.7803" lon="5.31507">
        <ele>327.9</ele>
        <time>2015-11-15T08:38:57Z</time>
      </trkpt>
      <trkpt lat="45.78036" lon="5.3151">
        <ele>328.7</ele>
        <time>2015-11-15T08:38:59Z</time>
      </trkpt>
      <trkpt lat="45.78042" lon="5.31513">
        <ele>329.3</ele>
        <time>2015-11-15T08:39:01Z</time>
      </trkpt>
      <trkpt lat="45.78047" lon="5.31515">
        <ele>330</ele>
        <time>2015-11-15T08:39:03Z</time>
      </trkpt>
      <trkpt lat="45.78052" lon="5.31519">
        <ele>330.6</ele>
        <time>2015-11-15T08:39:05Z</time>
      </trkpt>
      <trkpt lat="45.78057" lon="5.31522">
        <ele>331.3</ele>
        <time>2015-11-15T08:39:07Z</time>
      </trkpt>
      <trkpt lat="45.78062" lon="5.31526">
        <ele>331.7</ele>
        <time>2015-11-15T08:39:09Z</time>
      </trkpt>
      <trkpt lat="45.78067" lon="5.3153">
        <ele>332</ele>
        <time>2015-11-15T08:39:11Z</time>
      </trkpt>
      <trkpt lat="45.78071" lon="5.31535">
        <ele>332.4</ele>
        <time>2015-11-15T08:39:13Z</time>
      </trkpt>
      <trkpt lat="45.78075" lon="5.31539">
        <ele>332.9</ele>
        <time>2015-11-15T08:39:15Z</time>
      </trkpt>
      <trkpt lat="45.78079" lon="5.31544">
        <ele>333.3</ele>
        <time>2015-11-15T08:39:17Z</time>
      </trkpt>
      <trkpt lat="45.78083" lon="5.31549">
        <ele>333.6</ele>
        <time>2015-11-15T08:39:19Z</time>
      </trkpt>
      <trkpt lat="45.78087" lon="5.31554">
        <ele>333.8</ele>
        <time>2015-11-15T08:39:21Z</time>
      </trkpt>
      <trkpt lat="45.7809" lon="5.31559">
        <ele>334</ele>
        <time>2015-11-15T08:39:23Z</time>
      </trkpt>
      <trkpt lat="45.78088" lon="5.31561">
        <ele>334</ele>
        <time>2015-11-15T08:39:25Z</time>
      </trkpt>
      <trkpt lat="45.78084" lon="5.31559">
        <ele>334</ele>
        <time>2015-11-15T08:39:27Z</time>
      </trkpt>
      <trkpt lat="45.7808" lon="5.31556">
        <ele>334.1</ele>
        <time>2015-11-15T08:39:29Z</time>
      </trkpt>
      <trkpt lat="45.78075" lon="5.31553">
        <ele>334.3</ele>
        <time>2015-11-15T08:39:31Z</time>
      </trkpt>
      <trkpt lat="45.78069" lon="5.31551">
        <ele>334.5</ele>
        <time>2015-11-15T08:39:33Z</time>
      </trkpt>
      <trkpt lat="45.78064" lon="5.31549">
        <ele>334.6</ele>
        <time>2015-11-15T08:39:35Z</time>
      </trkpt>
      <trkpt lat="45.78058" lon="5.31548">
        <ele>334.6</ele>
        <time>2015-11-15T08:39:37Z</time>
      </trkpt>
      <trkpt lat="45.78051" lon="5.31546">
        <ele>334.5</ele>
        <time>2015-11-15T08:39:39Z</time>
      </trkpt>
      <trkpt lat="45.78045" lon="5.31545">
        <ele>334.6</ele>
        <time>2015-11-15T08:39:41Z</time>
      </trkpt>
      <trkpt lat="45.78039" lon="5.31544">
        <ele>335</ele>
        <time>2015-11-15T08:39:43Z</time>
      </trkpt>
      <trkpt lat="45.78034" lon="5.31543">
        <ele>335.4</ele>
        <time>2015-11-15T08:39:45Z</time>
      </trkpt>
      <trkpt lat="45.78027" lon="5.31541">
        <ele>335.6</ele>
        <time>2015-11-15T08:39:47Z</time>
      </trkpt>
      <trkpt lat="45.7802" lon="5.31541">
        <ele>336.2</ele>
        <time>2015-11-15T08:39:49Z</time>
      </trkpt>
      <trkpt lat="45.78013" lon="5.31542">
        <ele>337</ele>
        <time>2015-11-15T08:39:51Z</time>
      </trkpt>
      <trkpt lat="45.78006" lon="5.31542">
        <ele>337.4</ele>
        <time>2015-11-15T08:39:53Z</time>
      </trkpt>
      <trkpt lat="45.78" lon="5.31539">
        <ele>338.1</ele>
        <time>2015-11-15T08:39:55Z</time>
      </trkpt>
      <trkpt lat="45.77993" lon="5.31535">
        <ele>338.7</ele>
        <time>2015-11-15T08:39:57Z</time>
      </trkpt>
      <trkpt lat="45.77986" lon="5.31529">
        <ele>338.9</ele>
        <time>2015-11-15T08:39:59Z</time>
      </trkpt>
      <trkpt lat="45.7798" lon="5.31523">
        <ele>338.9</ele>
        <time>2015-11-15T08:40:01Z</time>
      </trkpt>
      <trkpt lat="45.77975" lon="5.31517">
        <ele>338.5</ele>
        <time>2015-11-15T08:40:03Z</time>
      </trkpt>
      <trkpt lat="45.77969" lon="5.31512">
        <ele>338</ele>
        <time>2015-11-15T08:40:05Z</time>
      </trkpt>
      <trkpt lat="45.77964" lon="5.31505">
        <ele>339.1</ele>
        <time>2015-11-15T08:40:07Z</time>
      </trkpt>
      <trkpt lat="45.77958" lon="5.315">
        <ele>339.1</ele>
        <time>2015-11-15T08:40:09Z</time>
      </trkpt>
      <trkpt lat="45.77952" lon="5.31493">
        <ele>340.6</ele>
        <time>2015-11-15T08:40:11Z</time>
      </trkpt>
      <trkpt lat="45.77946" lon="5.31488">
        <ele>341.5</ele>
        <time>2015-11-15T08:40:13Z</time>
      </trkpt>
      <trkpt lat="45.7794" lon="5.31484">
        <ele>342.3</ele>
        <time>2015-11-15T08:40:15Z</time>
      </trkpt>
      <trkpt lat="45.77934" lon="5.31482">
        <ele>343.5</ele>
        <time>2015-11-15T08:40:17Z</time>
      </trkpt>
      <trkpt lat="45.77927" lon="5.31478">
        <ele>343.7</ele>
        <time>2015-11-15T08:40:19Z</time>
      </trkpt>
      <trkpt lat="45.77918" lon="5.31474">
        <ele>344.2</ele>
        <time>2015-11-15T08:40:21Z</time>
      </trkpt>
      <trkpt lat="45.77909" lon="5.31469">
        <ele>343.8</ele>
        <time>2015-11-15T08:40:23Z</time>
      </trkpt>
      <trkpt lat="45.779" lon="5.31466">
        <ele>343.8</ele>
        <time>2015-11-15T08:40:25Z</time>
      </trkpt>
      <trkpt lat="45.77891" lon="5.31463">
        <ele>343.3</ele>
        <time>2015-11-15T08:40:27Z</time>
      </trkpt>
      <trkpt lat="45.77882" lon="5.31459">
        <ele>340.3</ele>
        <time>2015-11-15T08:40:29Z</time>
      </trkpt>
      <trkpt lat="45.77873" lon="5.31455">
        <ele>340.3</ele>
        <time>2015-11-15T08:40:31Z</time>
      </trkpt>
      <trkpt lat="45.77862" lon="5.31451">
        <ele>338.7</ele>
        <time>2015-11-15T08:40:33Z</time>
      </trkpt>
      <trkpt lat="45.77852" lon="5.31446">
        <ele>337.4</ele>
        <time>2015-11-15T08:40:35Z</time>
      </trkpt>
      <trkpt lat="45.77841" lon="5.31441">
        <ele>337.4</ele>
        <time>2015-11-15T08:40:37Z</time>
      </trkpt>
      <trkpt lat="45.7783" lon="5.31438">
        <ele>335.2</ele>
        <time>2015-11-15T08:40:39Z</time>
      </trkpt>
      <trkpt lat="45.77819" lon="5.31436">
        <ele>333.9</ele>
        <time>2015-11-15T08:40:41Z</time>
      </trkpt>
      <trkpt lat="45.77806" lon="5.31436">
        <ele>331.9</ele>
        <time>2015-11-15T08:40:43Z</time>
      </trkpt>
      <trkpt lat="45.77792" lon="5.31437">
        <ele>331.1</ele>
        <time>2015-11-15T08:40:45Z</time>
      </trkpt>
      <trkpt lat="45.77778" lon="5.31439">
        <ele>329.5</ele>
        <time>2015-11-15T08:40:47Z</time>
      </trkpt>
      <trkpt lat="45.77763" lon="5.31441">
        <ele>327.3</ele>
        <time>2015-11-15T08:40:49Z</time>
      </trkpt>
      <trkpt lat="45.77748" lon="5.31445">
        <ele>326.6</ele>
        <time>2015-11-15T08:40:51Z</time>
      </trkpt>
      <trkpt lat="45.77732" lon="5.31451">
        <ele>326.4</ele>
        <time>2015-11-15T08:40:53Z</time>
      </trkpt>
      <trkpt lat="45.77716" lon="5.31459">
        <ele>326.1</ele>
        <time>2015-11-15T08:40:55Z</time>
      </trkpt>
      <trkpt lat="45.77701" lon="5.31468">
        <ele>325.6</ele>
        <time>2015-11-15T08:40:57Z</time>
      </trkpt>
      <trkpt lat="45.77686" lon="5.31477">
        <ele>325.9</ele>
        <time>2015-11-15T08:40:59Z</time>
      </trkpt>
      <trkpt lat="45.77672" lon="5.31486">
        <ele>325.8</ele>
        <time>2015-11-15T08:41:01Z</time>
      </trkpt>
      <trkpt lat="45.77658" lon="5.31494">
        <ele>325.7</ele>
        <time>2015-11-15T08:41:03Z</time>
      </trkpt>
      <trkpt lat="45.77644" lon="5.31502">
        <ele>325.9</ele>
        <time>2015-11-15T08:41:05Z</time>
      </trkpt>
      <trkpt lat="45.7763" lon="5.31509">
        <ele>326.4</ele>
        <time>2015-11-15T08:41:07Z</time>
      </trkpt>
      <trkpt lat="45.77617" lon="5.31516">
        <ele>326.2</ele>
        <time>2015-11-15T08:41:09Z</time>
      </trkpt>
      <trkpt lat="45.77605" lon="5.31522">
        <ele>325.8</ele>
        <time>2015-11-15T08:41:11Z</time>
      </trkpt>
      <trkpt lat="45.77596" lon="5.31529">
        <ele>325.9</ele>
        <time>2015-11-15T08:41:13Z</time>
      </trkpt>
      <trkpt lat="45.7759" lon="5.31533">
        <ele>325.3</ele>
        <time>2015-11-15T08:41:15Z</time>
      </trkpt>
      <trkpt lat="45.77583" lon="5.31535">
        <ele>323.8</ele>
        <time>2015-11-15T08:41:17Z</time>
      </trkpt>
      <trkpt lat="45.77573" lon="5.31538">
        <ele>322.6</ele>
        <time>2015-11-15T08:41:19Z</time>
      </trkpt>
      <trkpt lat="45.77561" lon="5.31543">
        <ele>320.8</ele>
        <time>2015-11-15T08:41:21Z</time>
      </trkpt>
      <trkpt lat="45.77549" lon="5.31546">
        <ele>320.1</ele>
        <time>2015-11-15T08:41:23Z</time>
      </trkpt>
      <trkpt lat="45.77538" lon="5.3155">
        <ele>318.3</ele>
        <time>2015-11-15T08:41:25Z</time>
      </trkpt>
      <trkpt lat="45.77527" lon="5.31557">
        <ele>317.7</ele>
        <time>2015-11-15T08:41:27Z</time>
      </trkpt>
      <trkpt lat="45.77516" lon="5.31564">
        <ele>317.4</ele>
        <time>2015-11-15T08:41:29Z</time>
      </trkpt>
      <trkpt lat="45.77505" lon="5.31573">
        <ele>316.9</ele>
        <time>2015-11-15T08:41:31Z</time>
      </trkpt>
      <trkpt lat="45.77494" lon="5.31584">
        <ele>316.4</ele>
        <time>2015-11-15T08:41:33Z</time>
      </trkpt>
      <trkpt lat="45.77483" lon="5.31593">
        <ele>315.1</ele>
        <time>2015-11-15T08:41:35Z</time>
      </trkpt>
      <trkpt lat="45.77471" lon="5.31601">
        <ele>314.8</ele>
        <time>2015-11-15T08:41:37Z</time>
      </trkpt>
      <trkpt lat="45.77461" lon="5.3161">
        <ele>315.2</ele>
        <time>2015-11-15T08:41:39Z</time>
      </trkpt>
      <trkpt lat="45.77451" lon="5.31617">
        <ele>315.7</ele>
        <time>2015-11-15T08:41:41Z</time>
      </trkpt>
      <trkpt lat="45.77442" lon="5.31623">
        <ele>316.4</ele>
        <time>2015-11-15T08:41:43Z</time>
      </trkpt>
      <trkpt lat="45.77433" lon="5.31629">
        <ele>316.9</ele>
        <time>2015-11-15T08:41:45Z</time>
      </trkpt>
      <trkpt lat="45.77425" lon="5.31635">
        <ele>316.9</ele>
        <time>2015-11-15T08:41:47Z</time>
      </trkpt>
      <trkpt lat="45.77416" lon="5.31641">
        <ele>316.5</ele>
        <time>2015-11-15T08:41:49Z</time>
      </trkpt>
      <trkpt lat="45.77406" lon="5.31647">
        <ele>315.6</ele>
        <time>2015-11-15T08:41:51Z</time>
      </trkpt>
      <trkpt lat="45.77396" lon="5.31654">
        <ele>314.2</ele>
        <time>2015-11-15T08:41:53Z</time>
      </trkpt>
      <trkpt lat="45.77386" lon="5.31661">
        <ele>313.4</ele>
        <time>2015-11-15T08:41:55Z</time>
      </trkpt>
      <trkpt lat="45.77376" lon="5.31668">
        <ele>312.5</ele>
        <time>2015-11-15T08:41:57Z</time>
      </trkpt>
      <trkpt lat="45.77366" lon="5.31676">
        <ele>311.9</ele>
        <time>2015-11-15T08:41:59Z</time>
      </trkpt>
      <trkpt lat="45.77357" lon="5.31684">
        <ele>312.9</ele>
        <time>2015-11-15T08:42:01Z</time>
      </trkpt>
      <trkpt lat="45.77353" lon="5.31695">
        <ele>313.7</ele>
        <time>2015-11-15T08:42:03Z</time>
      </trkpt>
      <trkpt lat="45.77351" lon="5.31707">
        <ele>314.5</ele>
        <time>2015-11-15T08:42:05Z</time>
      </trkpt>
      <trkpt lat="45.77348" lon="5.31717">
        <ele>315.6</ele>
        <time>2015-11-15T08:42:07Z</time>
      </trkpt>
      <trkpt lat="45.77343" lon="5.31726">
        <ele>316.6</ele>
        <time>2015-11-15T08:42:09Z</time>
      </trkpt>
      <trkpt lat="45.77338" lon="5.31734">
        <ele>317.9</ele>
        <time>2015-11-15T08:42:11Z</time>
      </trkpt>
      <trkpt lat="45.77333" lon="5.31741">
        <ele>319</ele>
        <time>2015-11-15T08:42:13Z</time>
      </trkpt>
      <trkpt lat="45.77328" lon="5.31747">
        <ele>319.6</ele>
        <time>2015-11-15T08:42:15Z</time>
      </trkpt>
      <trkpt lat="45.77324" lon="5.31752">
        <ele>319.6</ele>
        <time>2015-11-15T08:42:17Z</time>
      </trkpt>
      <trkpt lat="45.7732" lon="5.31758">
        <ele>319.5</ele>
        <time>2015-11-15T08:42:19Z</time>
      </trkpt>
      <trkpt lat="45.77318" lon="5.31764">
        <ele>319.4</ele>
        <time>2015-11-15T08:42:21Z</time>
      </trkpt>
      <trkpt lat="45.77316" lon="5.3177">
        <ele>319.3</ele>
        <time>2015-11-15T08:42:23Z</time>
      </trkpt>
      <trkpt lat="45.77317" lon="5.31777">
        <ele>319.1</ele>
        <time>2015-11-15T08:42:25Z</time>
      </trkpt>
      <trkpt lat="45.77317" lon="5.31785">
        <ele>318.6</ele>
        <time>2015-11-15T08:42:27Z</time>
      </trkpt>
      <trkpt lat="45.77317" lon="5.31792">
        <ele>318.5</ele>
        <time>2015-11-15T08:42:29Z</time>
      </trkpt>
      <trkpt lat="45.77317" lon="5.318">
        <ele>318.6</ele>
        <time>2015-11-15T08:42:31Z</time>
      </trkpt>
      <trkpt lat="45.77317" lon="5.31807">
        <ele>319.1</ele>
        <time>2015-11-15T08:42:33Z</time>
      </trkpt>
      <trkpt lat="45.77316" lon="5.31814">
        <ele>319.6</ele>
        <time>2015-11-15T08:42:35Z</time>
      </trkpt>
      <trkpt lat="45.77315" lon="5.31822">
        <ele>320.4</ele>
        <time>2015-11-15T08:42:37Z</time>
      </trkpt>
      <trkpt lat="45.77314" lon="5.31829">
        <ele>321.4</ele>
        <time>2015-11-15T08:42:39Z</time>
      </trkpt>
      <trkpt lat="45.77313" lon="5.31836">
        <ele>322.6</ele>
        <time>2015-11-15T08:42:41Z</time>
      </trkpt>
      <trkpt lat="45.77312" lon="5.31843">
        <ele>323.4</ele>
        <time>2015-11-15T08:42:43Z</time>
      </trkpt>
      <trkpt lat="45.7731" lon="5.3185">
        <ele>324.2</ele>
        <time>2015-11-15T08:42:45Z</time>
      </trkpt>
      <trkpt lat="45.77309" lon="5.31857">
        <ele>325.2</ele>
        <time>2015-11-15T08:42:47Z</time>
      </trkpt>
      <trkpt lat="45.77306" lon="5.31864">
        <ele>326.1</ele>
        <time>2015-11-15T08:42:49Z</time>
      </trkpt>
      <trkpt lat="45.77305" lon="5.3187">
        <ele>326.5</ele>
        <time>2015-11-15T08:42:51Z</time>
      </trkpt>
      <trkpt lat="45.77303" lon="5.31877">
        <ele>327</ele>
        <time>2015-11-15T08:42:53Z</time>
      </trkpt>
      <trkpt lat="45.77301" lon="5.31885">
        <ele>327.4</ele>
        <time>2015-11-15T08:42:55Z</time>
      </trkpt>
      <trkpt lat="45.773" lon="5.31892">
        <ele>327.2</ele>
        <time>2015-11-15T08:42:57Z</time>
      </trkpt>
      <trkpt lat="45.77299" lon="5.31899">
        <ele>327.2</ele>
        <time>2015-11-15T08:42:59Z</time>
      </trkpt>
      <trkpt lat="45.77298" lon="5.31906">
        <ele>327.2</ele>
        <time>2015-11-15T08:43:01Z</time>
      </trkpt>
      <trkpt lat="45.77298" lon="5.31913">
        <ele>327.2</ele>
        <time>2015-11-15T08:43:03Z</time>
      </trkpt>
      <trkpt lat="45.77299" lon="5.3192">
        <ele>327</ele>
        <time>2015-11-15T08:43:05Z</time>
      </trkpt>
      <trkpt lat="45.773" lon="5.31928">
        <ele>326.7</ele>
        <time>2015-11-15T08:43:07Z</time>
      </trkpt>
      <trkpt lat="45.77301" lon="5.31935">
        <ele>326.2</ele>
        <time>2015-11-15T08:43:09Z</time>
      </trkpt>
      <trkpt lat="45.77302" lon="5.31942">
        <ele>325.5</ele>
        <time>2015-11-15T08:43:11Z</time>
      </trkpt>
      <trkpt lat="45.77303" lon="5.31949">
        <ele>325.7</ele>
        <time>2015-11-15T08:43:13Z</time>
      </trkpt>
      <trkpt lat="45.77306" lon="5.31955">
        <ele>325.5</ele>
        <time>2015-11-15T08:43:15Z</time>
      </trkpt>
      <trkpt lat="45.77308" lon="5.31962">
        <ele>325.7</ele>
        <time>2015-11-15T08:43:17Z</time>
      </trkpt>
      <trkpt lat="45.7731" lon="5.31969">
        <ele>326.1</ele>
        <time>2015-11-15T08:43:19Z</time>
      </trkpt>
      <trkpt lat="45.77312" lon="5.31976">
        <ele>326.1</ele>
        <time>2015-11-15T08:43:21Z</time>
      </trkpt>
      <trkpt lat="45.77313" lon="5.31983">
        <ele>327.1</ele>
        <time>2015-11-15T08:43:23Z</time>
      </trkpt>
      <trkpt lat="45.77314" lon="5.31991">
        <ele>327.4</ele>
        <time>2015-11-15T08:43:25Z</time>
      </trkpt>
      <trkpt lat="45.77315" lon="5.31998">
        <ele>327.9</ele>
        <time>2015-11-15T08:43:27Z</time>
      </trkpt>
      <trkpt lat="45.77316" lon="5.32005">
        <ele>328.9</ele>
        <time>2015-11-15T08:43:29Z</time>
      </trkpt>
      <trkpt lat="45.77317" lon="5.32013">
        <ele>329.1</ele>
        <time>2015-11-15T08:43:31Z</time>
      </trkpt>
      <trkpt lat="45.77318" lon="5.32021">
        <ele>329.4</ele>
        <time>2015-11-15T08:43:33Z</time>
      </trkpt>
      <trkpt lat="45.77319" lon="5.32031">
        <ele>330.4</ele>
        <time>2015-11-15T08:43:35Z</time>
      </trkpt>
      <trkpt lat="45.77321" lon="5.32041">
        <ele>330.8</ele>
        <time>2015-11-15T08:43:37Z</time>
      </trkpt>
      <trkpt lat="45.77322" lon="5.32051">
        <ele>331.8</ele>
        <time>2015-11-15T08:43:39Z</time>
      </trkpt>
      <trkpt lat="45.77323" lon="5.32059">
        <ele>332.5</ele>
        <time>2015-11-15T08:43:41Z</time>
      </trkpt>
      <trkpt lat="45.77324" lon="5.32065">
        <ele>332.9</ele>
        <time>2015-11-15T08:43:43Z</time>
      </trkpt>
      <trkpt lat="45.77324" lon="5.32071">
        <ele>333.3</ele>
        <time>2015-11-15T08:43:45Z</time>
      </trkpt>
      <trkpt lat="45.77323" lon="5.32077">
        <ele>333.4</ele>
        <time>2015-11-15T08:43:47Z</time>
      </trkpt>
      <trkpt lat="45.77321" lon="5.32085">
        <ele>333.5</ele>
        <time>2015-11-15T08:43:49Z</time>
      </trkpt>
      <trkpt lat="45.77318" lon="5.32094">
        <ele>333.6</ele>
        <time>2015-11-15T08:43:51Z</time>
      </trkpt>
      <trkpt lat="45.77316" lon="5.32102">
        <ele>334</ele>
        <time>2015-11-15T08:43:53Z</time>
      </trkpt>
      <trkpt lat="45.77315" lon="5.32112">
        <ele>334.6</ele>
        <time>2015-11-15T08:43:55Z</time>
      </trkpt>
      <trkpt lat="45.77313" lon="5.32121">
        <ele>335.4</ele>
        <time>2015-11-15T08:43:57Z</time>
      </trkpt>
      <trkpt lat="45.77313" lon="5.3213">
        <ele>335.6</ele>
        <time>2015-11-15T08:43:59Z</time>
      </trkpt>
      <trkpt lat="45.77313" lon="5.3214">
        <ele>335.6</ele>
        <time>2015-11-15T08:44:01Z</time>
      </trkpt>
      <trkpt lat="45.77312" lon="5.3215">
        <ele>335.7</ele>
        <time>2015-11-15T08:44:03Z</time>
      </trkpt>
      <trkpt lat="45.77311" lon="5.3216">
        <ele>335.6</ele>
        <time>2015-11-15T08:44:05Z</time>
      </trkpt>
      <trkpt lat="45.77311" lon="5.32171">
        <ele>335.9</ele>
        <time>2015-11-15T08:44:07Z</time>
      </trkpt>
      <trkpt lat="45.7731" lon="5.32181">
        <ele>336</ele>
        <time>2015-11-15T08:44:09Z</time>
      </trkpt>
      <trkpt lat="45.77311" lon="5.32192">
        <ele>336.2</ele>
        <time>2015-11-15T08:44:11Z</time>
      </trkpt>
      <trkpt lat="45.77311" lon="5.32202">
        <ele>336.4</ele>
        <time>2015-11-15T08:44:13Z</time>
      </trkpt>
      <trkpt lat="45.77313" lon="5.32211">
        <ele>336.4</ele>
        <time>2015-11-15T08:44:15Z</time>
      </trkpt>
      <trkpt lat="45.77313" lon="5.3222">
        <ele>336.4</ele>
        <time>2015-11-15T08:44:17Z</time>
      </trkpt>
      <trkpt lat="45.77313" lon="5.3223">
        <ele>336.4</ele>
        <time>2015-11-15T08:44:19Z</time>
      </trkpt>
      <trkpt lat="45.77314" lon="5.32241">
        <ele>336.5</ele>
        <time>2015-11-15T08:44:21Z</time>
      </trkpt>
      <trkpt lat="45.77316" lon="5.32251">
        <ele>336.9</ele>
        <time>2015-11-15T08:44:23Z</time>
      </trkpt>
      <trkpt lat="45.77318" lon="5.32262">
        <ele>337.1</ele>
        <time>2015-11-15T08:44:25Z</time>
      </trkpt>
      <trkpt lat="45.77321" lon="5.32273">
        <ele>337.2</ele>
        <time>2015-11-15T08:44:27Z</time>
      </trkpt>
      <trkpt lat="45.77324" lon="5.32285">
        <ele>337.3</ele>
        <time>2015-11-15T08:44:29Z</time>
      </trkpt>
      <trkpt lat="45.77327" lon="5.32297">
        <ele>337.1</ele>
        <time>2015-11-15T08:44:31Z</time>
      </trkpt>
      <trkpt lat="45.7733" lon="5.32309">
        <ele>337</ele>
        <time>2015-11-15T08:44:33Z</time>
      </trkpt>
      <trkpt lat="45.77332" lon="5.32321">
        <ele>337.1</ele>
        <time>2015-11-15T08:44:35Z</time>
      </trkpt>
      <trkpt lat="45.77335" lon="5.32332">
        <ele>337.5</ele>
        <time>2015-11-15T08:44:37Z</time>
      </trkpt>
      <trkpt lat="45.77339" lon="5.32342">
        <ele>337.7</ele>
        <time>2015-11-15T08:44:39Z</time>
      </trkpt>
      <trkpt lat="45.77344" lon="5.3235">
        <ele>337.8</ele>
        <time>2015-11-15T08:44:41Z</time>
      </trkpt>
      <trkpt lat="45.7735" lon="5.32356">
        <ele>338.1</ele>
        <time>2015-11-15T08:44:43Z</time>
      </trkpt>
      <trkpt lat="45.77355" lon="5.32359">
        <ele>338.4</ele>
        <time>2015-11-15T08:44:45Z</time>
      </trkpt>
      <trkpt lat="45.7736" lon="5.32362">
        <ele>338.7</ele>
        <time>2015-11-15T08:44:47Z</time>
      </trkpt>
      <trkpt lat="45.77364" lon="5.32366">
        <ele>339</ele>
        <time>2015-11-15T08:44:49Z</time>
      </trkpt>
      <trkpt lat="45.77369" lon="5.3237">
        <ele>339.4</ele>
        <time>2015-11-15T08:44:51Z</time>
      </trkpt>
      <trkpt lat="45.77373" lon="5.32374">
        <ele>339.6</ele>
        <time>2015-11-15T08:44:53Z</time>
      </trkpt>
      <trkpt lat="45.77377" lon="5.32378">
        <ele>339.7</ele>
        <time>2015-11-15T08:44:55Z</time>
      </trkpt>
      <trkpt lat="45.77382" lon="5.32382">
        <ele>339.7</ele>
        <time>2015-11-15T08:44:57Z</time>
      </trkpt>
      <trkpt lat="45.77387" lon="5.32385">
        <ele>339.7</ele>
        <time>2015-11-15T08:44:59Z</time>
      </trkpt>
      <trkpt lat="45.77392" lon="5.32389">
        <ele>339.7</ele>
        <time>2015-11-15T08:45:01Z</time>
      </trkpt>
      <trkpt lat="45.77397" lon="5.32392">
        <ele>339.8</ele>
        <time>2015-11-15T08:45:03Z</time>
      </trkpt>
      <trkpt lat="45.77402" lon="5.32395">
        <ele>339.9</ele>
        <time>2015-11-15T08:45:05Z</time>
      </trkpt>
      <trkpt lat="45.77407" lon="5.32399">
        <ele>340.1</ele>
        <time>2015-11-15T08:45:07Z</time>
      </trkpt>
      <trkpt lat="45.77412" lon="5.32404">
        <ele>340.3</ele>
        <time>2015-11-15T08:45:09Z</time>
      </trkpt>
      <trkpt lat="45.77416" lon="5.32408">
        <ele>340.5</ele>
        <time>2015-11-15T08:45:11Z</time>
      </trkpt>
      <trkpt lat="45.77421" lon="5.32414">
        <ele>340.6</ele>
        <time>2015-11-15T08:45:13Z</time>
      </trkpt>
      <trkpt lat="45.77426" lon="5.32419">
        <ele>340.8</ele>
        <time>2015-11-15T08:45:15Z</time>
      </trkpt>
      <trkpt lat="45.7743" lon="5.32423">
        <ele>341</ele>
        <time>2015-11-15T08:45:17Z</time>
      </trkpt>
      <trkpt lat="45.77435" lon="5.32426">
        <ele>341.2</ele>
        <time>2015-11-15T08:45:19Z</time>
      </trkpt>
      <trkpt lat="45.7744" lon="5.32429">
        <ele>341.3</ele>
        <time>2015-11-15T08:45:21Z</time>
      </trkpt>
      <trkpt lat="45.77445" lon="5.32432">
        <ele>341.3</ele>
        <time>2015-11-15T08:45:23Z</time>
      </trkpt>
      <trkpt lat="45.7745" lon="5.32435">
        <ele>341.3</ele>
        <time>2015-11-15T08:45:25Z</time>
      </trkpt>
      <trkpt lat="45.77454" lon="5.32438">
        <ele>341.3</ele>
        <time>2015-11-15T08:45:27Z</time>
      </trkpt>
      <trkpt lat="45.77457" lon="5.32444">
        <ele>341.5</ele>
        <time>2015-11-15T08:45:29Z</time>
      </trkpt>
      <trkpt lat="45.77453" lon="5.32448">
        <ele>341.6</ele>
        <time>2015-11-15T08:45:31Z</time>
      </trkpt>
      <trkpt lat="45.77448" lon="5.32454">
        <ele>341.7</ele>
        <time>2015-11-15T08:45:33Z</time>
      </trkpt>
      <trkpt lat="45.77443" lon="5.32461">
        <ele>341.9</ele>
        <time>2015-11-15T08:45:35Z</time>
      </trkpt>
      <trkpt lat="45.7744" lon="5.32471">
        <ele>342</ele>
        <time>2015-11-15T08:45:37Z</time>
      </trkpt>
      <trkpt lat="45.77439" lon="5.32482">
        <ele>342.2</ele>
        <time>2015-11-15T08:45:39Z</time>
      </trkpt>
      <trkpt lat="45.7744" lon="5.32493">
        <ele>342.5</ele>
        <time>2015-11-15T08:45:41Z</time>
      </trkpt>
      <trkpt lat="45.7744" lon="5.32504">
        <ele>342.4</ele>
        <time>2015-11-15T08:45:43Z</time>
      </trkpt>
      <trkpt lat="45.77441" lon="5.32516">
        <ele>342.1</ele>
        <time>2015-11-15T08:45:45Z</time>
      </trkpt>
      <trkpt lat="45.77439" lon="5.32529">
        <ele>341.7</ele>
        <time>2015-11-15T08:45:47Z</time>
      </trkpt>
      <trkpt lat="45.77436" lon="5.32542">
        <ele>341.6</ele>
        <time>2015-11-15T08:45:49Z</time>
      </trkpt>
      <trkpt lat="45.77431" lon="5.32555">
        <ele>341.7</ele>
        <time>2015-11-15T08:45:51Z</time>
      </trkpt>
      <trkpt lat="45.77424" lon="5.32565">
        <ele>341.5</ele>
        <time>2015-11-15T08:45:53Z</time>
      </trkpt>
      <trkpt lat="45.77413" lon="5.32567">
        <ele>341.3</ele>
        <time>2015-11-15T08:45:55Z</time>
      </trkpt>
      <trkpt lat="45.77402" lon="5.32566">
        <ele>340.8</ele>
        <time>2015-11-15T08:45:57Z</time>
      </trkpt>
      <trkpt lat="45.77393" lon="5.32574">
        <ele>340</ele>
        <time>2015-11-15T08:45:59Z</time>
      </trkpt>
      <trkpt lat="45.77389" lon="5.32588">
        <ele>339.5</ele>
        <time>2015-11-15T08:46:01Z</time>
      </trkpt>
      <trkpt lat="45.77381" lon="5.32597">
        <ele>339.1</ele>
        <time>2015-11-15T08:46:03Z</time>
      </trkpt>
      <trkpt lat="45.77372" lon="5.32597">
        <ele>338.9</ele>
        <time>2015-11-15T08:46:05Z</time>
      </trkpt>
      <trkpt lat="45.77362" lon="5.32595">
        <ele>338.4</ele>
        <time>2015-11-15T08:46:07Z</time>
      </trkpt>
      <trkpt lat="45.77352" lon="5.32594">
        <ele>337.9</ele>
        <time>2015-11-15T08:46:09Z</time>
      </trkpt>
      <trkpt lat="45.77341" lon="5.32598">
        <ele>337.8</ele>
        <time>2015-11-15T08:46:11Z</time>
      </trkpt>
      <trkpt lat="45.77335" lon="5.32609">
        <ele>338.3</ele>
        <time>2015-11-15T08:46:13Z</time>
      </trkpt>
      <trkpt lat="45.77334" lon="5.32623">
        <ele>338.9</ele>
        <time>2015-11-15T08:46:15Z</time>
      </trkpt>
      <trkpt lat="45.77334" lon="5.32638">
        <ele>339.5</ele>
        <time>2015-11-15T08:46:17Z</time>
      </trkpt>
      <trkpt lat="45.77334" lon="5.32651">
        <ele>339.8</ele>
        <time>2015-11-15T08:46:19Z</time>
      </trkpt>
      <trkpt lat="45.77334" lon="5.32663">
        <ele>339.8</ele>
        <time>2015-11-15T08:46:21Z</time>
      </trkpt>
      <trkpt lat="45.77331" lon="5.32675">
        <ele>339.8</ele>
        <time>2015-11-15T08:46:23Z</time>
      </trkpt>
      <trkpt lat="45.77328" lon="5.32686">
        <ele>339.7</ele>
        <time>2015-11-15T08:46:25Z</time>
      </trkpt>
      <trkpt lat="45.77325" lon="5.32698">
        <ele>339.8</ele>
        <time>2015-11-15T08:46:27Z</time>
      </trkpt>
      <trkpt lat="45.77322" lon="5.32711">
        <ele>339.8</ele>
        <time>2015-11-15T08:46:29Z</time>
      </trkpt>
      <trkpt lat="45.77318" lon="5.32724">
        <ele>339.7</ele>
        <time>2015-11-15T08:46:31Z</time>
      </trkpt>
      <trkpt lat="45.77314" lon="5.32738">
        <ele>339.6</ele>
        <time>2015-11-15T08:46:33Z</time>
      </trkpt>
      <trkpt lat="45.77309" lon="5.32751">
        <ele>339.4</ele>
        <time>2015-11-15T08:46:35Z</time>
      </trkpt>
      <trkpt lat="45.77304" lon="5.32766">
        <ele>339.4</ele>
        <time>2015-11-15T08:46:37Z</time>
      </trkpt>
      <trkpt lat="45.77298" lon="5.3278">
        <ele>339.5</ele>
        <time>2015-11-15T08:46:39Z</time>
      </trkpt>
      <trkpt lat="45.77292" lon="5.32795">
        <ele>339.5</ele>
        <time>2015-11-15T08:46:41Z</time>
      </trkpt>
      <trkpt lat="45.77285" lon="5.3281">
        <ele>339.5</ele>
        <time>2015-11-15T08:46:43Z</time>
      </trkpt>
      <trkpt lat="45.7728" lon="5.32824">
        <ele>339.7</ele>
        <time>2015-11-15T08:46:45Z</time>
      </trkpt>
      <trkpt lat="45.77274" lon="5.32838">
        <ele>340.1</ele>
        <time>2015-11-15T08:46:47Z</time>
      </trkpt>
      <trkpt lat="45.77268" lon="5.32851">
        <ele>340.3</ele>
        <time>2015-11-15T08:46:49Z</time>
      </trkpt>
      <trkpt lat="45.77263" lon="5.32865">
        <ele>340</ele>
        <time>2015-11-15T08:46:51Z</time>
      </trkpt>
      <trkpt lat="45.77258" lon="5.3288">
        <ele>339.8</ele>
        <time>2015-11-15T08:46:53Z</time>
      </trkpt>
      <trkpt lat="45.77253" lon="5.32894">
        <ele>339.5</ele>
        <time>2015-11-15T08:46:55Z</time>
      </trkpt>
      <trkpt lat="45.77249" lon="5.32905">
        <ele>339.1</ele>
        <time>2015-11-15T08:46:57Z</time>
      </trkpt>
      <trkpt lat="45.77251" lon="5.32912">
        <ele>339.2</ele>
        <time>2015-11-15T08:46:59Z</time>
      </trkpt>
      <trkpt lat="45.77257" lon="5.32914">
        <ele>339.3</ele>
        <time>2015-11-15T08:47:01Z</time>
      </trkpt>
      <trkpt lat="45.77264" lon="5.32916">
        <ele>339.4</ele>
        <time>2015-11-15T08:47:03Z</time>
      </trkpt>
      <trkpt lat="45.77272" lon="5.32919">
        <ele>339.5</ele>
        <time>2015-11-15T08:47:05Z</time>
      </trkpt>
      <trkpt lat="45.77279" lon="5.32922">
        <ele>339.7</ele>
        <time>2015-11-15T08:47:07Z</time>
      </trkpt>
      <trkpt lat="45.77286" lon="5.32923">
        <ele>339.8</ele>
        <time>2015-11-15T08:47:09Z</time>
      </trkpt>
      <trkpt lat="45.77292" lon="5.32927">
        <ele>340</ele>
        <time>2015-11-15T08:47:11Z</time>
      </trkpt>
      <trkpt lat="45.77295" lon="5.32934">
        <ele>340</ele>
        <time>2015-11-15T08:47:13Z</time>
      </trkpt>
      <trkpt lat="45.77293" lon="5.32941">
        <ele>340</ele>
        <time>2015-11-15T08:47:15Z</time>
      </trkpt>
      <trkpt lat="45.7729" lon="5.32949">
        <ele>340.1</ele>
        <time>2015-11-15T08:47:17Z</time>
      </trkpt>
      <trkpt lat="45.77287" lon="5.32957">
        <ele>340.1</ele>
        <time>2015-11-15T08:47:19Z</time>
      </trkpt>
      <trkpt lat="45.77285" lon="5.32967">
        <ele>340.2</ele>
        <time>2015-11-15T08:47:21Z</time>
      </trkpt>
      <trkpt lat="45.77284" lon="5.32978">
        <ele>340.3</ele>
        <time>2015-11-15T08:47:23Z</time>
      </trkpt>
      <trkpt lat="45.77282" lon="5.32989">
        <ele>340.8</ele>
        <time>2015-11-15T08:47:25Z</time>
      </trkpt>
      <trkpt lat="45.77278" lon="5.32997">
        <ele>341.3</ele>
        <time>2015-11-15T08:47:27Z</time>
      </trkpt>
      <trkpt lat="45.77273" lon="5.33004">
        <ele>341.7</ele>
        <time>2015-11-15T08:47:29Z</time>
      </trkpt>
      <trkpt lat="45.77271" lon="5.33013">
        <ele>341.9</ele>
        <time>2015-11-15T08:47:31Z</time>
      </trkpt>
      <trkpt lat="45.7727" lon="5.33023">
        <ele>342</ele>
        <time>2015-11-15T08:47:33Z</time>
      </trkpt>
      <trkpt lat="45.77269" lon="5.33031">
        <ele>342.1</ele>
        <time>2015-11-15T08:47:35Z</time>
      </trkpt>
      <trkpt lat="45.77267" lon="5.3304">
        <ele>342.2</ele>
        <time>2015-11-15T08:47:37Z</time>
      </trkpt>
      <trkpt lat="45.77264" lon="5.33048">
        <ele>342.2</ele>
        <time>2015-11-15T08:47:39Z</time>
      </trkpt>
      <trkpt lat="45.77263" lon="5.33057">
        <ele>342.2</ele>
        <time>2015-11-15T08:47:41Z</time>
      </trkpt>
      <trkpt lat="45.77261" lon="5.33067">
        <ele>342.3</ele>
        <time>2015-11-15T08:47:43Z</time>
      </trkpt>
      <trkpt lat="45.77259" lon="5.33076">
        <ele>342.3</ele>
        <time>2015-11-15T08:47:45Z</time>
      </trkpt>
      <trkpt lat="45.77259" lon="5.33085">
        <ele>342.3</ele>
        <time>2015-11-15T08:47:47Z</time>
      </trkpt>
      <trkpt lat="45.77259" lon="5.33095">
        <ele>342.3</ele>
        <time>2015-11-15T08:47:49Z</time>
      </trkpt>
      <trkpt lat="45.77259" lon="5.33104">
        <ele>342.3</ele>
        <time>2015-11-15T08:47:51Z</time>
      </trkpt>
      <trkpt lat="45.77261" lon="5.33112">
        <ele>342.4</ele>
        <time>2015-11-15T08:47:53Z</time>
      </trkpt>
      <trkpt lat="45.77264" lon="5.33119">
        <ele>342.4</ele>
        <time>2015-11-15T08:47:55Z</time>
      </trkpt>
      <trkpt lat="45.77267" lon="5.33128">
        <ele>342.4</ele>
        <time>2015-11-15T08:47:57Z</time>
      </trkpt>
      <trkpt lat="45.77272" lon="5.33137">
        <ele>342.4</ele>
        <time>2015-11-15T08:47:59Z</time>
      </trkpt>
      <trkpt lat="45.77276" lon="5.33147">
        <ele>342.4</ele>
        <time>2015-11-15T08:48:01Z</time>
      </trkpt>
      <trkpt lat="45.77282" lon="5.33157">
        <ele>342.4</ele>
        <time>2015-11-15T08:48:03Z</time>
      </trkpt>
      <trkpt lat="45.77287" lon="5.33168">
        <ele>342.4</ele>
        <time>2015-11-15T08:48:05Z</time>
      </trkpt>
      <trkpt lat="45.77292" lon="5.33178">
        <ele>342.4</ele>
        <time>2015-11-15T08:48:07Z</time>
      </trkpt>
      <trkpt lat="45.77296" lon="5.33188">
        <ele>342.4</ele>
        <time>2015-11-15T08:48:09Z</time>
      </trkpt>
      <trkpt lat="45.77301" lon="5.33198">
        <ele>342.5</ele>
        <time>2015-11-15T08:48:11Z</time>
      </trkpt>
      <trkpt lat="45.77305" lon="5.33209">
        <ele>342.5</ele>
        <time>2015-11-15T08:48:13Z</time>
      </trkpt>
      <trkpt lat="45.77309" lon="5.33219">
        <ele>342.5</ele>
        <time>2015-11-15T08:48:15Z</time>
      </trkpt>
      <trkpt lat="45.77313" lon="5.33229">
        <ele>342.5</ele>
        <time>2015-11-15T08:48:17Z</time>
      </trkpt>
      <trkpt lat="45.77317" lon="5.3324">
        <ele>342.5</ele>
        <time>2015-11-15T08:48:19Z</time>
      </trkpt>
      <trkpt lat="45.77321" lon="5.3325">
        <ele>342.5</ele>
        <time>2015-11-15T08:48:21Z</time>
      </trkpt>
      <trkpt lat="45.77325" lon="5.33261">
        <ele>342.6</ele>
        <time>2015-11-15T08:48:23Z</time>
      </trkpt>
      <trkpt lat="45.7733" lon="5.33272">
        <ele>342.6</ele>
        <time>2015-11-15T08:48:25Z</time>
      </trkpt>
      <trkpt lat="45.77335" lon="5.33283">
        <ele>342.6</ele>
        <time>2015-11-15T08:48:27Z</time>
      </trkpt>
      <trkpt lat="45.77339" lon="5.33293">
        <ele>342.6</ele>
        <time>2015-11-15T08:48:29Z</time>
      </trkpt>
      <trkpt lat="45.77344" lon="5.33304">
        <ele>342.6</ele>
        <time>2015-11-15T08:48:31Z</time>
      </trkpt>
      <trkpt lat="45.77349" lon="5.33314">
        <ele>342.6</ele>
        <time>2015-11-15T08:48:33Z</time>
      </trkpt>
      <trkpt lat="45.77353" lon="5.33324">
        <ele>342.6</ele>
        <time>2015-11-15T08:48:35Z</time>
      </trkpt>
      <trkpt lat="45.77358" lon="5.33334">
        <ele>342.6</ele>
        <time>2015-11-15T08:48:37Z</time>
      </trkpt>
      <trkpt lat="45.77361" lon="5.33345">
        <ele>342.6</ele>
        <time>2015-11-15T08:48:39Z</time>
      </trkpt>
      <trkpt lat="45.77364" lon="5.33356">
        <ele>342.6</ele>
        <time>2015-11-15T08:48:41Z</time>
      </trkpt>
      <trkpt lat="45.77367" lon="5.33368">
        <ele>342.7</ele>
        <time>2015-11-15T08:48:43Z</time>
      </trkpt>
      <trkpt lat="45.77369" lon="5.3338">
        <ele>342.7</ele>
        <time>2015-11-15T08:48:45Z</time>
      </trkpt>
      <trkpt lat="45.77372" lon="5.33391">
        <ele>342.7</ele>
        <time>2015-11-15T08:48:47Z</time>
      </trkpt>
      <trkpt lat="45.77376" lon="5.33402">
        <ele>342.7</ele>
        <time>2015-11-15T08:48:49Z</time>
      </trkpt>
      <trkpt lat="45.77381" lon="5.33413">
        <ele>342.7</ele>
        <time>2015-11-15T08:48:51Z</time>
      </trkpt>
      <trkpt lat="45.77387" lon="5.33425">
        <ele>342.7</ele>
        <time>2015-11-15T08:48:53Z</time>
      </trkpt>
      <trkpt lat="45.77391" lon="5.33435">
        <ele>342.8</ele>
        <time>2015-11-15T08:48:55Z</time>
      </trkpt>
      <trkpt lat="45.77395" lon="5.33446">
        <ele>342.8</ele>
        <time>2015-11-15T08:48:57Z</time>
      </trkpt>
      <trkpt lat="45.77399" lon="5.33457">
        <ele>342.8</ele>
        <time>2015-11-15T08:48:59Z</time>
      </trkpt>
      <trkpt lat="45.77403" lon="5.3347">
        <ele>342.8</ele>
        <time>2015-11-15T08:49:01Z</time>
      </trkpt>
      <trkpt lat="45.77409" lon="5.33482">
        <ele>342.8</ele>
        <time>2015-11-15T08:49:03Z</time>
      </trkpt>
      <trkpt lat="45.77414" lon="5.33495">
        <ele>342.8</ele>
        <time>2015-11-15T08:49:05Z</time>
      </trkpt>
      <trkpt lat="45.77419" lon="5.33508">
        <ele>342.8</ele>
        <time>2015-11-15T08:49:07Z</time>
      </trkpt>
      <trkpt lat="45.77423" lon="5.33522">
        <ele>342.8</ele>
        <time>2015-11-15T08:49:09Z</time>
      </trkpt>
      <trkpt lat="45.77427" lon="5.33536">
        <ele>342.8</ele>
        <time>2015-11-15T08:49:11Z</time>
      </trkpt>
      <trkpt lat="45.77431" lon="5.3355">
        <ele>342.9</ele>
        <time>2015-11-15T08:49:13Z</time>
      </trkpt>
      <trkpt lat="45.77435" lon="5.33562">
        <ele>342.9</ele>
        <time>2015-11-15T08:49:15Z</time>
      </trkpt>
      <trkpt lat="45.7744" lon="5.33573">
        <ele>342.9</ele>
        <time>2015-11-15T08:49:17Z</time>
      </trkpt>
      <trkpt lat="45.77444" lon="5.33584">
        <ele>342.9</ele>
        <time>2015-11-15T08:49:19Z</time>
      </trkpt>
      <trkpt lat="45.77448" lon="5.33596">
        <ele>343</ele>
        <time>2015-11-15T08:49:21Z</time>
      </trkpt>
      <trkpt lat="45.77449" lon="5.33609">
        <ele>343.1</ele>
        <time>2015-11-15T08:49:23Z</time>
      </trkpt>
      <trkpt lat="45.77448" lon="5.33623">
        <ele>342.7</ele>
        <time>2015-11-15T08:49:25Z</time>
      </trkpt>
      <trkpt lat="45.77446" lon="5.33637">
        <ele>341.9</ele>
        <time>2015-11-15T08:49:27Z</time>
      </trkpt>
      <trkpt lat="45.77445" lon="5.33654">
        <ele>341.5</ele>
        <time>2015-11-15T08:49:29Z</time>
      </trkpt>
      <trkpt lat="45.77441" lon="5.33671">
        <ele>340.5</ele>
        <time>2015-11-15T08:49:31Z</time>
      </trkpt>
      <trkpt lat="45.77435" lon="5.33686">
        <ele>339.8</ele>
        <time>2015-11-15T08:49:33Z</time>
      </trkpt>
      <trkpt lat="45.77427" lon="5.337">
        <ele>339.3</ele>
        <time>2015-11-15T08:49:35Z</time>
      </trkpt>
      <trkpt lat="45.77418" lon="5.33714">
        <ele>338.1</ele>
        <time>2015-11-15T08:49:37Z</time>
      </trkpt>
      <trkpt lat="45.77411" lon="5.33731">
        <ele>337.7</ele>
        <time>2015-11-15T08:49:39Z</time>
      </trkpt>
      <trkpt lat="45.77406" lon="5.33752">
        <ele>337.6</ele>
        <time>2015-11-15T08:49:41Z</time>
      </trkpt>
      <trkpt lat="45.77403" lon="5.33773">
        <ele>337.5</ele>
        <time>2015-11-15T08:49:43Z</time>
      </trkpt>
      <trkpt lat="45.774" lon="5.33793">
        <ele>337.5</ele>
        <time>2015-11-15T08:49:45Z</time>
      </trkpt>
      <trkpt lat="45.77397" lon="5.33813">
        <ele>337.5</ele>
        <time>2015-11-15T08:49:47Z</time>
      </trkpt>
      <trkpt lat="45.77393" lon="5.3383">
        <ele>337.5</ele>
        <time>2015-11-15T08:49:49Z</time>
      </trkpt>
      <trkpt lat="45.77389" lon="5.33846">
        <ele>337.4</ele>
        <time>2015-11-15T08:49:51Z</time>
      </trkpt>
      <trkpt lat="45.77383" lon="5.3386">
        <ele>337.4</ele>
        <time>2015-11-15T08:49:53Z</time>
      </trkpt>
      <trkpt lat="45.77376" lon="5.33875">
        <ele>337.3</ele>
        <time>2015-11-15T08:49:55Z</time>
      </trkpt>
      <trkpt lat="45.77371" lon="5.3389">
        <ele>336.9</ele>
        <time>2015-11-15T08:49:57Z</time>
      </trkpt>
      <trkpt lat="45.77367" lon="5.33907">
        <ele>336.3</ele>
        <time>2015-11-15T08:49:59Z</time>
      </trkpt>
      <trkpt lat="45.77367" lon="5.33924">
        <ele>335.9</ele>
        <time>2015-11-15T08:50:01Z</time>
      </trkpt>
      <trkpt lat="45.77369" lon="5.33942">
        <ele>335.5</ele>
        <time>2015-11-15T08:50:03Z</time>
      </trkpt>
      <trkpt lat="45.77372" lon="5.33961">
        <ele>334.4</ele>
        <time>2015-11-15T08:50:05Z</time>
      </trkpt>
      <trkpt lat="45.77371" lon="5.3398">
        <ele>334</ele>
        <time>2015-11-15T08:50:07Z</time>
      </trkpt>
      <trkpt lat="45.77369" lon="5.33998">
        <ele>333.7</ele>
        <time>2015-11-15T08:50:09Z</time>
      </trkpt>
      <trkpt lat="45.77367" lon="5.34016">
        <ele>333.6</ele>
        <time>2015-11-15T08:50:11Z</time>
      </trkpt>
      <trkpt lat="45.77366" lon="5.34035">
        <ele>333.2</ele>
        <time>2015-11-15T08:50:13Z</time>
      </trkpt>
      <trkpt lat="45.77369" lon="5.34053">
        <ele>332.5</ele>
        <time>2015-11-15T08:50:15Z</time>
      </trkpt>
      <trkpt lat="45.77376" lon="5.34069">
        <ele>332.2</ele>
        <time>2015-11-15T08:50:17Z</time>
      </trkpt>
      <trkpt lat="45.77383" lon="5.34084">
        <ele>332</ele>
        <time>2015-11-15T08:50:19Z</time>
      </trkpt>
      <trkpt lat="45.77387" lon="5.34101">
        <ele>331.9</ele>
        <time>2015-11-15T08:50:21Z</time>
      </trkpt>
      <trkpt lat="45.77386" lon="5.34119">
        <ele>331.7</ele>
        <time>2015-11-15T08:50:23Z</time>
      </trkpt>
      <trkpt lat="45.77383" lon="5.34135">
        <ele>331.6</ele>
        <time>2015-11-15T08:50:25Z</time>
      </trkpt>
      <trkpt lat="45.77379" lon="5.34152">
        <ele>331.4</ele>
        <time>2015-11-15T08:50:27Z</time>
      </trkpt>
      <trkpt lat="45.77372" lon="5.34169">
        <ele>330.6</ele>
        <time>2015-11-15T08:50:29Z</time>
      </trkpt>
      <trkpt lat="45.77363" lon="5.34185">
        <ele>330.3</ele>
        <time>2015-11-15T08:50:31Z</time>
      </trkpt>
      <trkpt lat="45.77354" lon="5.342">
        <ele>330.1</ele>
        <time>2015-11-15T08:50:33Z</time>
      </trkpt>
      <trkpt lat="45.77346" lon="5.34216">
        <ele>330</ele>
        <time>2015-11-15T08:50:35Z</time>
      </trkpt>
      <trkpt lat="45.77343" lon="5.34233">
        <ele>329.9</ele>
        <time>2015-11-15T08:50:37Z</time>
      </trkpt>
      <trkpt lat="45.77345" lon="5.3425">
        <ele>329.9</ele>
        <time>2015-11-15T08:50:39Z</time>
      </trkpt>
      <trkpt lat="45.77348" lon="5.34268">
        <ele>329.8</ele>
        <time>2015-11-15T08:50:41Z</time>
      </trkpt>
      <trkpt lat="45.77354" lon="5.34285">
        <ele>329.8</ele>
        <time>2015-11-15T08:50:43Z</time>
      </trkpt>
      <trkpt lat="45.77358" lon="5.34302">
        <ele>329.7</ele>
        <time>2015-11-15T08:50:45Z</time>
      </trkpt>
      <trkpt lat="45.77356" lon="5.3432">
        <ele>329.6</ele>
        <time>2015-11-15T08:50:47Z</time>
      </trkpt>
      <trkpt lat="45.77352" lon="5.34338">
        <ele>329.4</ele>
        <time>2015-11-15T08:50:49Z</time>
      </trkpt>
      <trkpt lat="45.77346" lon="5.34357">
        <ele>328.5</ele>
        <time>2015-11-15T08:50:51Z</time>
      </trkpt>
      <trkpt lat="45.77342" lon="5.34376">
        <ele>328.2</ele>
        <time>2015-11-15T08:50:53Z</time>
      </trkpt>
      <trkpt lat="45.77337" lon="5.34395">
        <ele>328</ele>
        <time>2015-11-15T08:50:55Z</time>
      </trkpt>
      <trkpt lat="45.77331" lon="5.34413">
        <ele>328</ele>
        <time>2015-11-15T08:50:57Z</time>
      </trkpt>
      <trkpt lat="45.77324" lon="5.3443">
        <ele>327.9</ele>
        <time>2015-11-15T08:50:59Z</time>
      </trkpt>
      <trkpt lat="45.77318" lon="5.34446">
        <ele>327.9</ele>
        <time>2015-11-15T08:51:01Z</time>
      </trkpt>
      <trkpt lat="45.77314" lon="5.34457">
        <ele>327.7</ele>
        <time>2015-11-15T08:51:03Z</time>
      </trkpt>
      <trkpt lat="45.77314" lon="5.34465">
        <ele>327.6</ele>
        <time>2015-11-15T08:51:05Z</time>
      </trkpt>
      <trkpt lat="45.77316" lon="5.34474">
        <ele>327.4</ele>
        <time>2015-11-15T08:51:07Z</time>
      </trkpt>
      <trkpt lat="45.77321" lon="5.34483">
        <ele>327.1</ele>
        <time>2015-11-15T08:51:09Z</time>
      </trkpt>
      <trkpt lat="45.77325" lon="5.34493">
        <ele>326.7</ele>
        <time>2015-11-15T08:51:11Z</time>
      </trkpt>
      <trkpt lat="45.77331" lon="5.34503">
        <ele>326.5</ele>
        <time>2015-11-15T08:51:13Z</time>
      </trkpt>
      <trkpt lat="45.77337" lon="5.34514">
        <ele>326.3</ele>
        <time>2015-11-15T08:51:15Z</time>
      </trkpt>
      <trkpt lat="45.77341" lon="5.34526">
        <ele>326.1</ele>
        <time>2015-11-15T08:51:17Z</time>
      </trkpt>
      <trkpt lat="45.77343" lon="5.34541">
        <ele>325.8</ele>
        <time>2015-11-15T08:51:19Z</time>
      </trkpt>
      <trkpt lat="45.77343" lon="5.34557">
        <ele>324.8</ele>
        <time>2015-11-15T08:51:21Z</time>
      </trkpt>
      <trkpt lat="45.77344" lon="5.34574">
        <ele>324.4</ele>
        <time>2015-11-15T08:51:23Z</time>
      </trkpt>
      <trkpt lat="45.77344" lon="5.34592">
        <ele>324.2</ele>
        <time>2015-11-15T08:51:25Z</time>
      </trkpt>
      <trkpt lat="45.77343" lon="5.34611">
        <ele>323.8</ele>
        <time>2015-11-15T08:51:27Z</time>
      </trkpt>
      <trkpt lat="45.7734" lon="5.34631">
        <ele>323.2</ele>
        <time>2015-11-15T08:51:29Z</time>
      </trkpt>
      <trkpt lat="45.77339" lon="5.34651">
        <ele>322.2</ele>
        <time>2015-11-15T08:51:31Z</time>
      </trkpt>
      <trkpt lat="45.77338" lon="5.34672">
        <ele>321.2</ele>
        <time>2015-11-15T08:51:33Z</time>
      </trkpt>
      <trkpt lat="45.77337" lon="5.34693">
        <ele>320.1</ele>
        <time>2015-11-15T08:51:35Z</time>
      </trkpt>
      <trkpt lat="45.77335" lon="5.34712">
        <ele>319.2</ele>
        <time>2015-11-15T08:51:37Z</time>
      </trkpt>
      <trkpt lat="45.77333" lon="5.34728">
        <ele>318.8</ele>
        <time>2015-11-15T08:51:39Z</time>
      </trkpt>
      <trkpt lat="45.7733" lon="5.34743">
        <ele>318.8</ele>
        <time>2015-11-15T08:51:41Z</time>
      </trkpt>
      <trkpt lat="45.77327" lon="5.34758">
        <ele>318.9</ele>
        <time>2015-11-15T08:51:43Z</time>
      </trkpt>
      <trkpt lat="45.77326" lon="5.34771">
        <ele>319.7</ele>
        <time>2015-11-15T08:51:45Z</time>
      </trkpt>
      <trkpt lat="45.77324" lon="5.34784">
        <ele>320.2</ele>
        <time>2015-11-15T08:51:47Z</time>
      </trkpt>
      <trkpt lat="45.77324" lon="5.34794">
        <ele>320.8</ele>
        <time>2015-11-15T08:51:49Z</time>
      </trkpt>
      <trkpt lat="45.77325" lon="5.34804">
        <ele>321.6</ele>
        <time>2015-11-15T08:51:51Z</time>
      </trkpt>
      <trkpt lat="45.77327" lon="5.34812">
        <ele>322.3</ele>
        <time>2015-11-15T08:51:53Z</time>
      </trkpt>
      <trkpt lat="45.7733" lon="5.3482">
        <ele>322.6</ele>
        <time>2015-11-15T08:51:55Z</time>
      </trkpt>
      <trkpt lat="45.77334" lon="5.34827">
        <ele>322.8</ele>
        <time>2015-11-15T08:51:57Z</time>
      </trkpt>
      <trkpt lat="45.77338" lon="5.34833">
        <ele>323.3</ele>
        <time>2015-11-15T08:51:59Z</time>
      </trkpt>
      <trkpt lat="45.77343" lon="5.34837">
        <ele>323.7</ele>
        <time>2015-11-15T08:52:01Z</time>
      </trkpt>
      <trkpt lat="45.77348" lon="5.34842">
        <ele>323.7</ele>
        <time>2015-11-15T08:52:03Z</time>
      </trkpt>
      <trkpt lat="45.77353" lon="5.34847">
        <ele>323.6</ele>
        <time>2015-11-15T08:52:05Z</time>
      </trkpt>
      <trkpt lat="45.77358" lon="5.34851">
        <ele>323.5</ele>
        <time>2015-11-15T08:52:07Z</time>
      </trkpt>
      <trkpt lat="45.77363" lon="5.34855">
        <ele>323.5</ele>
        <time>2015-11-15T08:52:09Z</time>
      </trkpt>
      <trkpt lat="45.77367" lon="5.34859">
        <ele>324.2</ele>
        <time>2015-11-15T08:52:11Z</time>
      </trkpt>
      <trkpt lat="45.77372" lon="5.34862">
        <ele>325.1</ele>
        <time>2015-11-15T08:52:13Z</time>
      </trkpt>
      <trkpt lat="45.77377" lon="5.34864">
        <ele>325.4</ele>
        <time>2015-11-15T08:52:15Z</time>
      </trkpt>
      <trkpt lat="45.77383" lon="5.34867">
        <ele>325.9</ele>
        <time>2015-11-15T08:52:17Z</time>
      </trkpt>
      <trkpt lat="45.77388" lon="5.34869">
        <ele>326.2</ele>
        <time>2015-11-15T08:52:19Z</time>
      </trkpt>
      <trkpt lat="45.77394" lon="5.34872">
        <ele>326.5</ele>
        <time>2015-11-15T08:52:21Z</time>
      </trkpt>
      <trkpt lat="45.774" lon="5.34874">
        <ele>327</ele>
        <time>2015-11-15T08:52:23Z</time>
      </trkpt>
      <trkpt lat="45.77405" lon="5.34876">
        <ele>327.1</ele>
        <time>2015-11-15T08:52:25Z</time>
      </trkpt>
      <trkpt lat="45.77411" lon="5.34878">
        <ele>327.3</ele>
        <time>2015-11-15T08:52:27Z</time>
      </trkpt>
      <trkpt lat="45.77417" lon="5.3488">
        <ele>327.7</ele>
        <time>2015-11-15T08:52:29Z</time>
      </trkpt>
      <trkpt lat="45.77422" lon="5.34883">
        <ele>328</ele>
        <time>2015-11-15T08:52:31Z</time>
      </trkpt>
      <trkpt lat="45.77428" lon="5.34886">
        <ele>328.2</ele>
        <time>2015-11-15T08:52:33Z</time>
      </trkpt>
      <trkpt lat="45.77433" lon="5.34888">
        <ele>328.2</ele>
        <time>2015-11-15T08:52:35Z</time>
      </trkpt>
      <trkpt lat="45.77439" lon="5.34891">
        <ele>327.7</ele>
        <time>2015-11-15T08:52:37Z</time>
      </trkpt>
      <trkpt lat="45.77445" lon="5.34894">
        <ele>327.6</ele>
        <time>2015-11-15T08:52:39Z</time>
      </trkpt>
      <trkpt lat="45.77451" lon="5.34897">
        <ele>327.6</ele>
        <time>2015-11-15T08:52:41Z</time>
      </trkpt>
      <trkpt lat="45.77456" lon="5.349">
        <ele>327.7</ele>
        <time>2015-11-15T08:52:43Z</time>
      </trkpt>
      <trkpt lat="45.77462" lon="5.34904">
        <ele>327.5</ele>
        <time>2015-11-15T08:52:45Z</time>
      </trkpt>
      <trkpt lat="45.77467" lon="5.34907">
        <ele>327</ele>
        <time>2015-11-15T08:52:47Z</time>
      </trkpt>
      <trkpt lat="45.77473" lon="5.3491">
        <ele>326.6</ele>
        <time>2015-11-15T08:52:49Z</time>
      </trkpt>
      <trkpt lat="45.77478" lon="5.34914">
        <ele>326.7</ele>
        <time>2015-11-15T08:52:51Z</time>
      </trkpt>
      <trkpt lat="45.77484" lon="5.34919">
        <ele>327.2</ele>
        <time>2015-11-15T08:52:53Z</time>
      </trkpt>
      <trkpt lat="45.77489" lon="5.34924">
        <ele>327.4</ele>
        <time>2015-11-15T08:52:55Z</time>
      </trkpt>
      <trkpt lat="45.77494" lon="5.3493">
        <ele>328</ele>
        <time>2015-11-15T08:52:57Z</time>
      </trkpt>
      <trkpt lat="45.77499" lon="5.34935">
        <ele>329.1</ele>
        <time>2015-11-15T08:52:59Z</time>
      </trkpt>
      <trkpt lat="45.77505" lon="5.3494">
        <ele>330.2</ele>
        <time>2015-11-15T08:53:01Z</time>
      </trkpt>
      <trkpt lat="45.7751" lon="5.34945">
        <ele>330.6</ele>
        <time>2015-11-15T08:53:03Z</time>
      </trkpt>
      <trkpt lat="45.77515" lon="5.34951">
        <ele>331.1</ele>
        <time>2015-11-15T08:53:05Z</time>
      </trkpt>
      <trkpt lat="45.7752" lon="5.34957">
        <ele>331.6</ele>
        <time>2015-11-15T08:53:07Z</time>
      </trkpt>
      <trkpt lat="45.77525" lon="5.34962">
        <ele>332</ele>
        <time>2015-11-15T08:53:09Z</time>
      </trkpt>
      <trkpt lat="45.7753" lon="5.34967">
        <ele>332.2</ele>
        <time>2015-11-15T08:53:11Z</time>
      </trkpt>
      <trkpt lat="45.77535" lon="5.34972">
        <ele>332.7</ele>
        <time>2015-11-15T08:53:13Z</time>
      </trkpt>
      <trkpt lat="45.77539" lon="5.34977">
        <ele>333</ele>
        <time>2015-11-15T08:53:15Z</time>
      </trkpt>
      <trkpt lat="45.77544" lon="5.34982">
        <ele>333.2</ele>
        <time>2015-11-15T08:53:17Z</time>
      </trkpt>
      <trkpt lat="45.77545" lon="5.34988">
        <ele>334.1</ele>
        <time>2015-11-15T08:53:19Z</time>
      </trkpt>
      <trkpt lat="45.77542" lon="5.34992">
        <ele>334.7</ele>
        <time>2015-11-15T08:53:21Z</time>
      </trkpt>
      <trkpt lat="45.77538" lon="5.34996">
        <ele>335.2</ele>
        <time>2015-11-15T08:53:23Z</time>
      </trkpt>
      <trkpt lat="45.77533" lon="5.35">
        <ele>335.7</ele>
        <time>2015-11-15T08:53:25Z</time>
      </trkpt>
      <trkpt lat="45.77529" lon="5.35003">
        <ele>336</ele>
        <time>2015-11-15T08:53:27Z</time>
      </trkpt>
      <trkpt lat="45.77524" lon="5.35007">
        <ele>336.5</ele>
        <time>2015-11-15T08:53:29Z</time>
      </trkpt>
      <trkpt lat="45.7752" lon="5.35011">
        <ele>336.9</ele>
        <time>2015-11-15T08:53:31Z</time>
      </trkpt>
      <trkpt lat="45.77515" lon="5.35015">
        <ele>337.3</ele>
        <time>2015-11-15T08:53:33Z</time>
      </trkpt>
      <trkpt lat="45.7751" lon="5.35019">
        <ele>337.7</ele>
        <time>2015-11-15T08:53:35Z</time>
      </trkpt>
      <trkpt lat="45.77506" lon="5.35023">
        <ele>338</ele>
        <time>2015-11-15T08:53:37Z</time>
      </trkpt>
      <trkpt lat="45.77501" lon="5.35027">
        <ele>338.5</ele>
        <time>2015-11-15T08:53:39Z</time>
      </trkpt>
      <trkpt lat="45.77496" lon="5.3503">
        <ele>339</ele>
        <time>2015-11-15T08:53:41Z</time>
      </trkpt>
      <trkpt lat="45.77491" lon="5.35033">
        <ele>339.5</ele>
        <time>2015-11-15T08:53:43Z</time>
      </trkpt>
      <trkpt lat="45.77485" lon="5.35036">
        <ele>340</ele>
        <time>2015-11-15T08:53:45Z</time>
      </trkpt>
      <trkpt lat="45.77479" lon="5.35038">
        <ele>340</ele>
        <time>2015-11-15T08:53:47Z</time>
      </trkpt>
      <trkpt lat="45.77473" lon="5.3504">
        <ele>340</ele>
        <time>2015-11-15T08:53:49Z</time>
      </trkpt>
      <trkpt lat="45.77466" lon="5.35042">
        <ele>340.3</ele>
        <time>2015-11-15T08:53:51Z</time>
      </trkpt>
      <trkpt lat="45.7746" lon="5.35044">
        <ele>340.5</ele>
        <time>2015-11-15T08:53:53Z</time>
      </trkpt>
      <trkpt lat="45.77454" lon="5.35047">
        <ele>340.6</ele>
        <time>2015-11-15T08:53:55Z</time>
      </trkpt>
      <trkpt lat="45.77448" lon="5.35049">
        <ele>340.6</ele>
        <time>2015-11-15T08:53:57Z</time>
      </trkpt>
      <trkpt lat="45.77441" lon="5.35051">
        <ele>340.5</ele>
        <time>2015-11-15T08:53:59Z</time>
      </trkpt>
      <trkpt lat="45.77433" lon="5.35054">
        <ele>340.3</ele>
        <time>2015-11-15T08:54:01Z</time>
      </trkpt>
      <trkpt lat="45.77426" lon="5.35057">
        <ele>340.1</ele>
        <time>2015-11-15T08:54:03Z</time>
      </trkpt>
      <trkpt lat="45.7742" lon="5.35059">
        <ele>340</ele>
        <time>2015-11-15T08:54:05Z</time>
      </trkpt>
      <trkpt lat="45.77413" lon="5.35064">
        <ele>340.1</ele>
        <time>2015-11-15T08:54:07Z</time>
      </trkpt>
      <trkpt lat="45.77408" lon="5.35068">
        <ele>340.4</ele>
        <time>2015-11-15T08:54:09Z</time>
      </trkpt>
      <trkpt lat="45.77401" lon="5.35073">
        <ele>340.6</ele>
        <time>2015-11-15T08:54:11Z</time>
      </trkpt>
      <trkpt lat="45.77395" lon="5.35078">
        <ele>341</ele>
        <time>2015-11-15T08:54:13Z</time>
      </trkpt>
      <trkpt lat="45.7739" lon="5.35083">
        <ele>341.2</ele>
        <time>2015-11-15T08:54:15Z</time>
      </trkpt>
      <trkpt lat="45.77384" lon="5.35088">
        <ele>341.4</ele>
        <time>2015-11-15T08:54:17Z</time>
      </trkpt>
      <trkpt lat="45.77379" lon="5.35093">
        <ele>341.7</ele>
        <time>2015-11-15T08:54:19Z</time>
      </trkpt>
      <trkpt lat="45.77373" lon="5.35097">
        <ele>342</ele>
        <time>2015-11-15T08:54:21Z</time>
      </trkpt>
      <trkpt lat="45.77367" lon="5.35101">
        <ele>342.2</ele>
        <time>2015-11-15T08:54:23Z</time>
      </trkpt>
      <trkpt lat="45.77361" lon="5.35104">
        <ele>342.6</ele>
        <time>2015-11-15T08:54:25Z</time>
      </trkpt>
      <trkpt lat="45.77355" lon="5.35107">
        <ele>343</ele>
        <time>2015-11-15T08:54:27Z</time>
      </trkpt>
      <trkpt lat="45.7735" lon="5.3511">
        <ele>343.5</ele>
        <time>2015-11-15T08:54:29Z</time>
      </trkpt>
      <trkpt lat="45.77344" lon="5.35111">
        <ele>344.1</ele>
        <time>2015-11-15T08:54:31Z</time>
      </trkpt>
      <trkpt lat="45.77338" lon="5.35112">
        <ele>344.5</ele>
        <time>2015-11-15T08:54:33Z</time>
      </trkpt>
      <trkpt lat="45.77332" lon="5.35112">
        <ele>344.9</ele>
        <time>2015-11-15T08:54:35Z</time>
      </trkpt>
      <trkpt lat="45.77327" lon="5.35113">
        <ele>345.3</ele>
        <time>2015-11-15T08:54:37Z</time>
      </trkpt>
      <trkpt lat="45.77321" lon="5.35113">
        <ele>345.9</ele>
        <time>2015-11-15T08:54:39Z</time>
      </trkpt>
      <trkpt lat="45.77315" lon="5.35114">
        <ele>346.1</ele>
        <time>2015-11-15T08:54:41Z</time>
      </trkpt>
      <trkpt lat="45.77309" lon="5.35115">
        <ele>346.4</ele>
        <time>2015-11-15T08:54:43Z</time>
      </trkpt>
      <trkpt lat="45.77305" lon="5.35118">
        <ele>346.8</ele>
        <time>2015-11-15T08:54:45Z</time>
      </trkpt>
      <trkpt lat="45.77299" lon="5.35121">
        <ele>347.3</ele>
        <time>2015-11-15T08:54:47Z</time>
      </trkpt>
      <trkpt lat="45.77294" lon="5.35124">
        <ele>347.7</ele>
        <time>2015-11-15T08:54:49Z</time>
      </trkpt>
      <trkpt lat="45.77289" lon="5.35128">
        <ele>347.8</ele>
        <time>2015-11-15T08:54:51Z</time>
      </trkpt>
      <trkpt lat="45.77284" lon="5.35132">
        <ele>348.1</ele>
        <time>2015-11-15T08:54:53Z</time>
      </trkpt>
      <trkpt lat="45.7728" lon="5.35135">
        <ele>348.4</ele>
        <time>2015-11-15T08:54:55Z</time>
      </trkpt>
      <trkpt lat="45.77274" lon="5.35139">
        <ele>348.9</ele>
        <time>2015-11-15T08:54:57Z</time>
      </trkpt>
      <trkpt lat="45.77269" lon="5.35141">
        <ele>349.1</ele>
        <time>2015-11-15T08:54:59Z</time>
      </trkpt>
      <trkpt lat="45.77264" lon="5.35144">
        <ele>349.4</ele>
        <time>2015-11-15T08:55:01Z</time>
      </trkpt>
      <trkpt lat="45.7726" lon="5.35147">
        <ele>349.6</ele>
        <time>2015-11-15T08:55:03Z</time>
      </trkpt>
      <trkpt lat="45.77255" lon="5.35149">
        <ele>349.7</ele>
        <time>2015-11-15T08:55:05Z</time>
      </trkpt>
      <trkpt lat="45.77251" lon="5.35152">
        <ele>349.8</ele>
        <time>2015-11-15T08:55:07Z</time>
      </trkpt>
      <trkpt lat="45.77246" lon="5.35155">
        <ele>349.9</ele>
        <time>2015-11-15T08:55:09Z</time>
      </trkpt>
      <trkpt lat="45.77242" lon="5.35158">
        <ele>349.9</ele>
        <time>2015-11-15T08:55:11Z</time>
      </trkpt>
      <trkpt lat="45.77237" lon="5.35162">
        <ele>350</ele>
        <time>2015-11-15T08:55:13Z</time>
      </trkpt>
      <trkpt lat="45.77233" lon="5.35167">
        <ele>350.1</ele>
        <time>2015-11-15T08:55:15Z</time>
      </trkpt>
      <trkpt lat="45.77228" lon="5.35171">
        <ele>350.2</ele>
        <time>2015-11-15T08:55:17Z</time>
      </trkpt>
      <trkpt lat="45.77224" lon="5.35176">
        <ele>350.3</ele>
        <time>2015-11-15T08:55:19Z</time>
      </trkpt>
      <trkpt lat="45.7722" lon="5.35181">
        <ele>350.5</ele>
        <time>2015-11-15T08:55:21Z</time>
      </trkpt>
      <trkpt lat="45.77216" lon="5.35186">
        <ele>350.9</ele>
        <time>2015-11-15T08:55:23Z</time>
      </trkpt>
      <trkpt lat="45.77212" lon="5.35191">
        <ele>351.3</ele>
        <time>2015-11-15T08:55:25Z</time>
      </trkpt>
      <trkpt lat="45.77208" lon="5.35196">
        <ele>351.6</ele>
        <time>2015-11-15T08:55:27Z</time>
      </trkpt>
      <trkpt lat="45.77203" lon="5.35201">
        <ele>352.1</ele>
        <time>2015-11-15T08:55:29Z</time>
      </trkpt>
      <trkpt lat="45.772" lon="5.35206">
        <ele>352.6</ele>
        <time>2015-11-15T08:55:31Z</time>
      </trkpt>
      <trkpt lat="45.77196" lon="5.3521">
        <ele>352.9</ele>
        <time>2015-11-15T08:55:33Z</time>
      </trkpt>
      <trkpt lat="45.77193" lon="5.35215">
        <ele>353.1</ele>
        <time>2015-11-15T08:55:35Z</time>
      </trkpt>
      <trkpt lat="45.77189" lon="5.3522">
        <ele>353.2</ele>
        <time>2015-11-15T08:55:37Z</time>
      </trkpt>
      <trkpt lat="45.77186" lon="5.35224">
        <ele>353.3</ele>
        <time>2015-11-15T08:55:39Z</time>
      </trkpt>
      <trkpt lat="45.77182" lon="5.35229">
        <ele>353.4</ele>
        <time>2015-11-15T08:55:41Z</time>
      </trkpt>
      <trkpt lat="45.7718" lon="5.35233">
        <ele>353.6</ele>
        <time>2015-11-15T08:55:43Z</time>
      </trkpt>
      <trkpt lat="45.77177" lon="5.35237">
        <ele>353.8</ele>
        <time>2015-11-15T08:55:45Z</time>
      </trkpt>
      <trkpt lat="45.77174" lon="5.3524">
        <ele>354</ele>
        <time>2015-11-15T08:55:47Z</time>
      </trkpt>
      <trkpt lat="45.77171" lon="5.35244">
        <ele>354.2</ele>
        <time>2015-11-15T08:55:49Z</time>
      </trkpt>
      <trkpt lat="45.77169" lon="5.35248">
        <ele>354.3</ele>
        <time>2015-11-15T08:55:51Z</time>
      </trkpt>
      <trkpt lat="45.77166" lon="5.35253">
        <ele>354.5</ele>
        <time>2015-11-15T08:55:53Z</time>
      </trkpt>
      <trkpt lat="45.77163" lon="5.35257">
        <ele>354.6</ele>
        <time>2015-11-15T08:55:55Z</time>
      </trkpt>
      <trkpt lat="45.7716" lon="5.35262">
        <ele>354.8</ele>
        <time>2015-11-15T08:55:57Z</time>
      </trkpt>
      <trkpt lat="45.77157" lon="5.35266">
        <ele>355</ele>
        <time>2015-11-15T08:55:59Z</time>
      </trkpt>
      <trkpt lat="45.77153" lon="5.35272">
        <ele>355.3</ele>
        <time>2015-11-15T08:56:01Z</time>
      </trkpt>
      <trkpt lat="45.7715" lon="5.35277">
        <ele>355.6</ele>
        <time>2015-11-15T08:56:03Z</time>
      </trkpt>
      <trkpt lat="45.77147" lon="5.35284">
        <ele>355.9</ele>
        <time>2015-11-15T08:56:05Z</time>
      </trkpt>
      <trkpt lat="45.77143" lon="5.3529">
        <ele>356.3</ele>
        <time>2015-11-15T08:56:07Z</time>
      </trkpt>
      <trkpt lat="45.77139" lon="5.35296">
        <ele>356.5</ele>
        <time>2015-11-15T08:56:09Z</time>
      </trkpt>
      <trkpt lat="45.77137" lon="5.35302">
        <ele>356.7</ele>
        <time>2015-11-15T08:56:11Z</time>
      </trkpt>
      <trkpt lat="45.77134" lon="5.35309">
        <ele>357</ele>
        <time>2015-11-15T08:56:13Z</time>
      </trkpt>
      <trkpt lat="45.77131" lon="5.35315">
        <ele>357.2</ele>
        <time>2015-11-15T08:56:15Z</time>
      </trkpt>
      <trkpt lat="45.77127" lon="5.3532">
        <ele>358</ele>
        <time>2015-11-15T08:56:17Z</time>
      </trkpt>
      <trkpt lat="45.77124" lon="5.35326">
        <ele>358.7</ele>
        <time>2015-11-15T08:56:19Z</time>
      </trkpt>
      <trkpt lat="45.77121" lon="5.35332">
        <ele>359.2</ele>
        <time>2015-11-15T08:56:21Z</time>
      </trkpt>
      <trkpt lat="45.77119" lon="5.35338">
        <ele>359.9</ele>
        <time>2015-11-15T08:56:23Z</time>
      </trkpt>
      <trkpt lat="45.77116" lon="5.35343">
        <ele>360.6</ele>
        <time>2015-11-15T08:56:25Z</time>
      </trkpt>
      <trkpt lat="45.77113" lon="5.35348">
        <ele>361.2</ele>
        <time>2015-11-15T08:56:27Z</time>
      </trkpt>
      <trkpt lat="45.77111" lon="5.35354">
        <ele>361.9</ele>
        <time>2015-11-15T08:56:29Z</time>
      </trkpt>
      <trkpt lat="45.77108" lon="5.3536">
        <ele>362.3</ele>
        <time>2015-11-15T08:56:31Z</time>
      </trkpt>
      <trkpt lat="45.77105" lon="5.35365">
        <ele>362.7</ele>
        <time>2015-11-15T08:56:33Z</time>
      </trkpt>
      <trkpt lat="45.77103" lon="5.35371">
        <ele>363.2</ele>
        <time>2015-11-15T08:56:35Z</time>
      </trkpt>
      <trkpt lat="45.77102" lon="5.35377">
        <ele>363.6</ele>
        <time>2015-11-15T08:56:37Z</time>
      </trkpt>
      <trkpt lat="45.77099" lon="5.35383">
        <ele>363.9</ele>
        <time>2015-11-15T08:56:39Z</time>
      </trkpt>
      <trkpt lat="45.77096" lon="5.35389">
        <ele>364.4</ele>
        <time>2015-11-15T08:56:41Z</time>
      </trkpt>
      <trkpt lat="45.77093" lon="5.35396">
        <ele>365.1</ele>
        <time>2015-11-15T08:56:43Z</time>
      </trkpt>
      <trkpt lat="45.7709" lon="5.35403">
        <ele>366</ele>
        <time>2015-11-15T08:56:45Z</time>
      </trkpt>
      <trkpt lat="45.77088" lon="5.35407">
        <ele>366.7</ele>
        <time>2015-11-15T08:56:47Z</time>
      </trkpt>
      <trkpt lat="45.77086" lon="5.35411">
        <ele>367.1</ele>
        <time>2015-11-15T08:56:49Z</time>
      </trkpt>
      <trkpt lat="45.77084" lon="5.35417">
        <ele>367.7</ele>
        <time>2015-11-15T09:01:15Z</time>
      </trkpt>
      <trkpt lat="45.77083" lon="5.35422">
        <ele>368</ele>
        <time>2015-11-15T09:01:17Z</time>
      </trkpt>
      <trkpt lat="45.77081" lon="5.35427">
        <ele>368.3</ele>
        <time>2015-11-15T09:01:19Z</time>
      </trkpt>
      <trkpt lat="45.77079" lon="5.35434">
        <ele>368.6</ele>
        <time>2015-11-15T09:01:21Z</time>
      </trkpt>
      <trkpt lat="45.77078" lon="5.35442">
        <ele>369.2</ele>
        <time>2015-11-15T09:01:23Z</time>
      </trkpt>
      <trkpt lat="45.77075" lon="5.35451">
        <ele>370</ele>
        <time>2015-11-15T09:01:25Z</time>
      </trkpt>
      <trkpt lat="45.77072" lon="5.35461">
        <ele>370.7</ele>
        <time>2015-11-15T09:01:27Z</time>
      </trkpt>
      <trkpt lat="45.77068" lon="5.35473">
        <ele>370.9</ele>
        <time>2015-11-15T09:01:29Z</time>
      </trkpt>
      <trkpt lat="45.77064" lon="5.35487">
        <ele>370.6</ele>
        <time>2015-11-15T09:01:31Z</time>
      </trkpt>
      <trkpt lat="45.7706" lon="5.35503">
        <ele>369.9</ele>
        <time>2015-11-15T09:01:33Z</time>
      </trkpt>
      <trkpt lat="45.77056" lon="5.35521">
        <ele>369.2</ele>
        <time>2015-11-15T09:01:35Z</time>
      </trkpt>
      <trkpt lat="45.77053" lon="5.35541">
        <ele>367.1</ele>
        <time>2015-11-15T09:01:37Z</time>
      </trkpt>
      <trkpt lat="45.77052" lon="5.35562">
        <ele>365.4</ele>
        <time>2015-11-15T09:01:39Z</time>
      </trkpt>
      <trkpt lat="45.77052" lon="5.35583">
        <ele>364.1</ele>
        <time>2015-11-15T09:01:41Z</time>
      </trkpt>
      <trkpt lat="45.77055" lon="5.35602">
        <ele>364</ele>
        <time>2015-11-15T09:01:43Z</time>
      </trkpt>
      <trkpt lat="45.77058" lon="5.35617">
        <ele>364</ele>
        <time>2015-11-15T09:01:45Z</time>
      </trkpt>
      <trkpt lat="45.77064" lon="5.35622">
        <ele>363.8</ele>
        <time>2015-11-15T09:01:47Z</time>
      </trkpt>
      <trkpt lat="45.77072" lon="5.35619">
        <ele>363.4</ele>
        <time>2015-11-15T09:01:49Z</time>
      </trkpt>
      <trkpt lat="45.77082" lon="5.35614">
        <ele>362.6</ele>
        <time>2015-11-15T09:01:51Z</time>
      </trkpt>
      <trkpt lat="45.77094" lon="5.35606">
        <ele>361.9</ele>
        <time>2015-11-15T09:01:53Z</time>
      </trkpt>
      <trkpt lat="45.77107" lon="5.35597">
        <ele>361.2</ele>
        <time>2015-11-15T09:01:55Z</time>
      </trkpt>
      <trkpt lat="45.77121" lon="5.35586">
        <ele>360.2</ele>
        <time>2015-11-15T09:01:57Z</time>
      </trkpt>
      <trkpt lat="45.77136" lon="5.35573">
        <ele>359</ele>
        <time>2015-11-15T09:01:59Z</time>
      </trkpt>
      <trkpt lat="45.77152" lon="5.35559">
        <ele>358.1</ele>
        <time>2015-11-15T09:02:01Z</time>
      </trkpt>
      <trkpt lat="45.77168" lon="5.35543">
        <ele>356.6</ele>
        <time>2015-11-15T09:02:03Z</time>
      </trkpt>
      <trkpt lat="45.77184" lon="5.35525">
        <ele>355.8</ele>
        <time>2015-11-15T09:02:05Z</time>
      </trkpt>
      <trkpt lat="45.77202" lon="5.35505">
        <ele>352.1</ele>
        <time>2015-11-15T09:02:07Z</time>
      </trkpt>
      <trkpt lat="45.77222" lon="5.35484">
        <ele>348.5</ele>
        <time>2015-11-15T09:02:09Z</time>
      </trkpt>
      <trkpt lat="45.77243" lon="5.35464">
        <ele>346.3</ele>
        <time>2015-11-15T09:02:11Z</time>
      </trkpt>
      <trkpt lat="45.77266" lon="5.35445">
        <ele>345.4</ele>
        <time>2015-11-15T09:02:13Z</time>
      </trkpt>
      <trkpt lat="45.77288" lon="5.35425">
        <ele>344</ele>
        <time>2015-11-15T09:02:15Z</time>
      </trkpt>
      <trkpt lat="45.77309" lon="5.35405">
        <ele>342</ele>
        <time>2015-11-15T09:02:17Z</time>
      </trkpt>
      <trkpt lat="45.77331" lon="5.35392">
        <ele>341.3</ele>
        <time>2015-11-15T09:02:19Z</time>
      </trkpt>
      <trkpt lat="45.77354" lon="5.35381">
        <ele>340.2</ele>
        <time>2015-11-15T09:02:21Z</time>
      </trkpt>
      <trkpt lat="45.77374" lon="5.35367">
        <ele>338.4</ele>
        <time>2015-11-15T09:02:23Z</time>
      </trkpt>
      <trkpt lat="45.77395" lon="5.35355">
        <ele>337.3</ele>
        <time>2015-11-15T09:02:25Z</time>
      </trkpt>
      <trkpt lat="45.77415" lon="5.35354">
        <ele>336.3</ele>
        <time>2015-11-15T09:02:27Z</time>
      </trkpt>
      <trkpt lat="45.77433" lon="5.3536">
        <ele>335.4</ele>
        <time>2015-11-15T09:02:29Z</time>
      </trkpt>
      <trkpt lat="45.77449" lon="5.35367">
        <ele>334.6</ele>
        <time>2015-11-15T09:02:31Z</time>
      </trkpt>
      <trkpt lat="45.77462" lon="5.35377">
        <ele>334</ele>
        <time>2015-11-15T09:02:33Z</time>
      </trkpt>
      <trkpt lat="45.77474" lon="5.35395">
        <ele>333.6</ele>
        <time>2015-11-15T09:02:35Z</time>
      </trkpt>
      <trkpt lat="45.77485" lon="5.35416">
        <ele>333.4</ele>
        <time>2015-11-15T09:02:37Z</time>
      </trkpt>
      <trkpt lat="45.77498" lon="5.35437">
        <ele>332.3</ele>
        <time>2015-11-15T09:02:39Z</time>
      </trkpt>
      <trkpt lat="45.7751" lon="5.35456">
        <ele>330.7</ele>
        <time>2015-11-15T09:02:41Z</time>
      </trkpt>
      <trkpt lat="45.77521" lon="5.35476">
        <ele>328.5</ele>
        <time>2015-11-15T09:02:43Z</time>
      </trkpt>
      <trkpt lat="45.77531" lon="5.35498">
        <ele>326.7</ele>
        <time>2015-11-15T09:02:45Z</time>
      </trkpt>
      <trkpt lat="45.77539" lon="5.35518">
        <ele>325.4</ele>
        <time>2015-11-15T09:02:47Z</time>
      </trkpt>
      <trkpt lat="45.77539" lon="5.35533">
        <ele>325</ele>
        <time>2015-11-15T09:02:49Z</time>
      </trkpt>
      <trkpt lat="45.77532" lon="5.35542">
        <ele>325.2</ele>
        <time>2015-11-15T09:02:51Z</time>
      </trkpt>
      <trkpt lat="45.77522" lon="5.35548">
        <ele>325.7</ele>
        <time>2015-11-15T09:02:53Z</time>
      </trkpt>
      <trkpt lat="45.77512" lon="5.35555">
        <ele>326.4</ele>
        <time>2015-11-15T09:02:55Z</time>
      </trkpt>
      <trkpt lat="45.77502" lon="5.35562">
        <ele>327</ele>
        <time>2015-11-15T09:02:57Z</time>
      </trkpt>
      <trkpt lat="45.77493" lon="5.35568">
        <ele>327.3</ele>
        <time>2015-11-15T09:02:59Z</time>
      </trkpt>
      <trkpt lat="45.77483" lon="5.35574">
        <ele>327.6</ele>
        <time>2015-11-15T09:03:01Z</time>
      </trkpt>
      <trkpt lat="45.77473" lon="5.3558">
        <ele>327.8</ele>
        <time>2015-11-15T09:03:03Z</time>
      </trkpt>
      <trkpt lat="45.77464" lon="5.35586">
        <ele>327.6</ele>
        <time>2015-11-15T09:03:05Z</time>
      </trkpt>
      <trkpt lat="45.77456" lon="5.35594">
        <ele>327.1</ele>
        <time>2015-11-15T09:03:07Z</time>
      </trkpt>
      <trkpt lat="45.77448" lon="5.35603">
        <ele>326.6</ele>
        <time>2015-11-15T09:03:09Z</time>
      </trkpt>
      <trkpt lat="45.77441" lon="5.35612">
        <ele>326.5</ele>
        <time>2015-11-15T09:03:11Z</time>
      </trkpt>
      <trkpt lat="45.77435" lon="5.35622">
        <ele>326.5</ele>
        <time>2015-11-15T09:03:13Z</time>
      </trkpt>
      <trkpt lat="45.77429" lon="5.35632">
        <ele>326.3</ele>
        <time>2015-11-15T09:03:15Z</time>
      </trkpt>
      <trkpt lat="45.77423" lon="5.35641">
        <ele>326</ele>
        <time>2015-11-15T09:03:17Z</time>
      </trkpt>
      <trkpt lat="45.77418" lon="5.35651">
        <ele>326</ele>
        <time>2015-11-15T09:03:19Z</time>
      </trkpt>
      <trkpt lat="45.77413" lon="5.35662">
        <ele>326.2</ele>
        <time>2015-11-15T09:03:21Z</time>
      </trkpt>
      <trkpt lat="45.77409" lon="5.35674">
        <ele>326.3</ele>
        <time>2015-11-15T09:03:23Z</time>
      </trkpt>
      <trkpt lat="45.77406" lon="5.35687">
        <ele>326.3</ele>
        <time>2015-11-15T09:03:25Z</time>
      </trkpt>
      <trkpt lat="45.77404" lon="5.357">
        <ele>326.2</ele>
        <time>2015-11-15T09:03:27Z</time>
      </trkpt>
      <trkpt lat="45.77401" lon="5.35714">
        <ele>326.1</ele>
        <time>2015-11-15T09:03:29Z</time>
      </trkpt>
      <trkpt lat="45.77398" lon="5.35727">
        <ele>326</ele>
        <time>2015-11-15T09:03:31Z</time>
      </trkpt>
      <trkpt lat="45.77394" lon="5.35739">
        <ele>326</ele>
        <time>2015-11-15T09:03:33Z</time>
      </trkpt>
      <trkpt lat="45.77388" lon="5.35751">
        <ele>325.7</ele>
        <time>2015-11-15T09:03:35Z</time>
      </trkpt>
      <trkpt lat="45.77383" lon="5.35762">
        <ele>325.1</ele>
        <time>2015-11-15T09:03:37Z</time>
      </trkpt>
      <trkpt lat="45.77378" lon="5.35774">
        <ele>324.3</ele>
        <time>2015-11-15T09:03:39Z</time>
      </trkpt>
      <trkpt lat="45.77379" lon="5.35783">
        <ele>324.1</ele>
        <time>2015-11-15T09:03:41Z</time>
      </trkpt>
      <trkpt lat="45.77385" lon="5.35782">
        <ele>324.3</ele>
        <time>2015-11-15T09:03:43Z</time>
      </trkpt>
      <trkpt lat="45.77393" lon="5.3578">
        <ele>324.6</ele>
        <time>2015-11-15T09:03:45Z</time>
      </trkpt>
      <trkpt lat="45.77402" lon="5.35773">
        <ele>324.8</ele>
        <time>2015-11-15T09:03:47Z</time>
      </trkpt>
      <trkpt lat="45.77409" lon="5.35764">
        <ele>324.9</ele>
        <time>2015-11-15T09:03:49Z</time>
      </trkpt>
      <trkpt lat="45.77418" lon="5.35755">
        <ele>324.9</ele>
        <time>2015-11-15T09:03:51Z</time>
      </trkpt>
      <trkpt lat="45.77427" lon="5.35748">
        <ele>324.9</ele>
        <time>2015-11-15T09:03:53Z</time>
      </trkpt>
      <trkpt lat="45.77435" lon="5.35741">
        <ele>325.1</ele>
        <time>2015-11-15T09:03:55Z</time>
      </trkpt>
      <trkpt lat="45.77445" lon="5.35735">
        <ele>325.3</ele>
        <time>2015-11-15T09:03:57Z</time>
      </trkpt>
      <trkpt lat="45.77454" lon="5.35731">
        <ele>325.3</ele>
        <time>2015-11-15T09:03:59Z</time>
      </trkpt>
      <trkpt lat="45.77462" lon="5.35734">
        <ele>325.1</ele>
        <time>2015-11-15T09:04:01Z</time>
      </trkpt>
      <trkpt lat="45.77473" lon="5.3574">
        <ele>324.8</ele>
        <time>2015-11-15T09:04:03Z</time>
      </trkpt>
      <trkpt lat="45.77483" lon="5.35747">
        <ele>324.8</ele>
        <time>2015-11-15T09:04:05Z</time>
      </trkpt>
      <trkpt lat="45.77491" lon="5.35757">
        <ele>324.9</ele>
        <time>2015-11-15T09:04:07Z</time>
      </trkpt>
      <trkpt lat="45.77499" lon="5.35767">
        <ele>324.5</ele>
        <time>2015-11-15T09:04:09Z</time>
      </trkpt>
      <trkpt lat="45.77504" lon="5.35779">
        <ele>324</ele>
        <time>2015-11-15T09:04:11Z</time>
      </trkpt>
      <trkpt lat="45.77503" lon="5.35792">
        <ele>323.6</ele>
        <time>2015-11-15T09:04:13Z</time>
      </trkpt>
      <trkpt lat="45.77501" lon="5.35807">
        <ele>323.5</ele>
        <time>2015-11-15T09:04:15Z</time>
      </trkpt>
      <trkpt lat="45.77496" lon="5.3582">
        <ele>323.7</ele>
        <time>2015-11-15T09:04:17Z</time>
      </trkpt>
      <trkpt lat="45.77488" lon="5.35831">
        <ele>323.8</ele>
        <time>2015-11-15T09:04:19Z</time>
      </trkpt>
      <trkpt lat="45.7748" lon="5.35842">
        <ele>323.7</ele>
        <time>2015-11-15T09:04:21Z</time>
      </trkpt>
      <trkpt lat="45.77472" lon="5.35853">
        <ele>323.2</ele>
        <time>2015-11-15T09:04:23Z</time>
      </trkpt>
      <trkpt lat="45.77467" lon="5.35867">
        <ele>322.9</ele>
        <time>2015-11-15T09:04:25Z</time>
      </trkpt>
      <trkpt lat="45.77469" lon="5.35884">
        <ele>323</ele>
        <time>2015-11-15T09:04:27Z</time>
      </trkpt>
      <trkpt lat="45.77475" lon="5.359">
        <ele>322.9</ele>
        <time>2015-11-15T09:04:29Z</time>
      </trkpt>
      <trkpt lat="45.77483" lon="5.35916">
        <ele>322.4</ele>
        <time>2015-11-15T09:04:31Z</time>
      </trkpt>
      <trkpt lat="45.77492" lon="5.35931">
        <ele>321.7</ele>
        <time>2015-11-15T09:04:33Z</time>
      </trkpt>
      <trkpt lat="45.77501" lon="5.35946">
        <ele>321.1</ele>
        <time>2015-11-15T09:04:35Z</time>
      </trkpt>
      <trkpt lat="45.77508" lon="5.35962">
        <ele>321.1</ele>
        <time>2015-11-15T09:04:37Z</time>
      </trkpt>
      <trkpt lat="45.7751" lon="5.3598">
        <ele>320.6</ele>
        <time>2015-11-15T09:04:39Z</time>
      </trkpt>
      <trkpt lat="45.77506" lon="5.35997">
        <ele>319.9</ele>
        <time>2015-11-15T09:04:41Z</time>
      </trkpt>
      <trkpt lat="45.77499" lon="5.36012">
        <ele>318.9</ele>
        <time>2015-11-15T09:04:43Z</time>
      </trkpt>
      <trkpt lat="45.7749" lon="5.36027">
        <ele>318.1</ele>
        <time>2015-11-15T09:04:45Z</time>
      </trkpt>
      <trkpt lat="45.77481" lon="5.36042">
        <ele>317.8</ele>
        <time>2015-11-15T09:04:47Z</time>
      </trkpt>
      <trkpt lat="45.77473" lon="5.36059">
        <ele>317.7</ele>
        <time>2015-11-15T09:04:49Z</time>
      </trkpt>
      <trkpt lat="45.77466" lon="5.36076">
        <ele>317.6</ele>
        <time>2015-11-15T09:04:51Z</time>
      </trkpt>
      <trkpt lat="45.77462" lon="5.36093">
        <ele>317.6</ele>
        <time>2015-11-15T09:04:53Z</time>
      </trkpt>
      <trkpt lat="45.77454" lon="5.36108">
        <ele>317.6</ele>
        <time>2015-11-15T09:04:55Z</time>
      </trkpt>
      <trkpt lat="45.77446" lon="5.36122">
        <ele>317.2</ele>
        <time>2015-11-15T09:04:57Z</time>
      </trkpt>
      <trkpt lat="45.77438" lon="5.36138">
        <ele>317</ele>
        <time>2015-11-15T09:04:59Z</time>
      </trkpt>
      <trkpt lat="45.7743" lon="5.36154">
        <ele>317.2</ele>
        <time>2015-11-15T09:05:01Z</time>
      </trkpt>
      <trkpt lat="45.77422" lon="5.3617">
        <ele>317.4</ele>
        <time>2015-11-15T09:05:03Z</time>
      </trkpt>
      <trkpt lat="45.77413" lon="5.36187">
        <ele>317.1</ele>
        <time>2015-11-15T09:05:05Z</time>
      </trkpt>
      <trkpt lat="45.77405" lon="5.36206">
        <ele>316.4</ele>
        <time>2015-11-15T09:05:07Z</time>
      </trkpt>
      <trkpt lat="45.77398" lon="5.36227">
        <ele>315.1</ele>
        <time>2015-11-15T09:05:09Z</time>
      </trkpt>
      <trkpt lat="45.77392" lon="5.36247">
        <ele>313.3</ele>
        <time>2015-11-15T09:05:11Z</time>
      </trkpt>
      <trkpt lat="45.77391" lon="5.36258">
        <ele>312.2</ele>
        <time>2015-11-15T09:05:13Z</time>
      </trkpt>
      <trkpt lat="45.77394" lon="5.36258">
        <ele>312.2</ele>
        <time>2015-11-15T09:05:15Z</time>
      </trkpt>
      <trkpt lat="45.77399" lon="5.36253">
        <ele>311.9</ele>
        <time>2015-11-15T09:05:17Z</time>
      </trkpt>
      <trkpt lat="45.77407" lon="5.36246">
        <ele>310.5</ele>
        <time>2015-11-15T09:05:19Z</time>
      </trkpt>
      <trkpt lat="45.77416" lon="5.36239">
        <ele>308.3</ele>
        <time>2015-11-15T09:05:21Z</time>
      </trkpt>
      <trkpt lat="45.77426" lon="5.36236">
        <ele>305.7</ele>
        <time>2015-11-15T09:05:23Z</time>
      </trkpt>
      <trkpt lat="45.77437" lon="5.36238">
        <ele>303.7</ele>
        <time>2015-11-15T09:05:25Z</time>
      </trkpt>
      <trkpt lat="45.77446" lon="5.3625">
        <ele>301.8</ele>
        <time>2015-11-15T09:05:27Z</time>
      </trkpt>
      <trkpt lat="45.77455" lon="5.36265">
        <ele>300.8</ele>
        <time>2015-11-15T09:05:29Z</time>
      </trkpt>
      <trkpt lat="45.77465" lon="5.36278">
        <ele>301.4</ele>
        <time>2015-11-15T09:05:31Z</time>
      </trkpt>
      <trkpt lat="45.77474" lon="5.36283">
        <ele>302.1</ele>
        <time>2015-11-15T09:05:33Z</time>
      </trkpt>
      <trkpt lat="45.77481" lon="5.36282">
        <ele>302.6</ele>
        <time>2015-11-15T09:05:35Z</time>
      </trkpt>
      <trkpt lat="45.77488" lon="5.3628">
        <ele>302.9</ele>
        <time>2015-11-15T09:05:37Z</time>
      </trkpt>
      <trkpt lat="45.77496" lon="5.36277">
        <ele>303.3</ele>
        <time>2015-11-15T09:05:39Z</time>
      </trkpt>
      <trkpt lat="45.77503" lon="5.36273">
        <ele>303.8</ele>
        <time>2015-11-15T09:05:41Z</time>
      </trkpt>
      <trkpt lat="45.7751" lon="5.36273">
        <ele>304.1</ele>
        <time>2015-11-15T09:05:43Z</time>
      </trkpt>
      <trkpt lat="45.77517" lon="5.36273">
        <ele>304.4</ele>
        <time>2015-11-15T09:05:45Z</time>
      </trkpt>
      <trkpt lat="45.77525" lon="5.36272">
        <ele>304.5</ele>
        <time>2015-11-15T09:05:47Z</time>
      </trkpt>
      <trkpt lat="45.77532" lon="5.36268">
        <ele>304.8</ele>
        <time>2015-11-15T09:05:49Z</time>
      </trkpt>
      <trkpt lat="45.77538" lon="5.36263">
        <ele>305</ele>
        <time>2015-11-15T09:05:51Z</time>
      </trkpt>
      <trkpt lat="45.77545" lon="5.36258">
        <ele>305.2</ele>
        <time>2015-11-15T09:05:53Z</time>
      </trkpt>
      <trkpt lat="45.77551" lon="5.36253">
        <ele>305.5</ele>
        <time>2015-11-15T09:05:55Z</time>
      </trkpt>
      <trkpt lat="45.77557" lon="5.36247">
        <ele>305.8</ele>
        <time>2015-11-15T09:05:57Z</time>
      </trkpt>
      <trkpt lat="45.77562" lon="5.36242">
        <ele>306</ele>
        <time>2015-11-15T09:05:59Z</time>
      </trkpt>
      <trkpt lat="45.77567" lon="5.36236">
        <ele>306</ele>
        <time>2015-11-15T09:06:01Z</time>
      </trkpt>
      <trkpt lat="45.77572" lon="5.3623">
        <ele>306</ele>
        <time>2015-11-15T09:06:03Z</time>
      </trkpt>
      <trkpt lat="45.77578" lon="5.36225">
        <ele>306</ele>
        <time>2015-11-15T09:06:05Z</time>
      </trkpt>
      <trkpt lat="45.77583" lon="5.36221">
        <ele>306</ele>
        <time>2015-11-15T09:06:07Z</time>
      </trkpt>
      <trkpt lat="45.77589" lon="5.36218">
        <ele>306.2</ele>
        <time>2015-11-15T09:06:09Z</time>
      </trkpt>
      <trkpt lat="45.77595" lon="5.36214">
        <ele>306.3</ele>
        <time>2015-11-15T09:06:11Z</time>
      </trkpt>
      <trkpt lat="45.77601" lon="5.36211">
        <ele>306.5</ele>
        <time>2015-11-15T09:06:13Z</time>
      </trkpt>
      <trkpt lat="45.77606" lon="5.36209">
        <ele>306.8</ele>
        <time>2015-11-15T09:06:15Z</time>
      </trkpt>
      <trkpt lat="45.77612" lon="5.36206">
        <ele>307.2</ele>
        <time>2015-11-15T09:06:17Z</time>
      </trkpt>
      <trkpt lat="45.77618" lon="5.36204">
        <ele>307.6</ele>
        <time>2015-11-15T09:06:19Z</time>
      </trkpt>
      <trkpt lat="45.77623" lon="5.36201">
        <ele>307.9</ele>
        <time>2015-11-15T09:06:21Z</time>
      </trkpt>
      <trkpt lat="45.77629" lon="5.36198">
        <ele>308.3</ele>
        <time>2015-11-15T09:06:23Z</time>
      </trkpt>
      <trkpt lat="45.77634" lon="5.36193">
        <ele>308.5</ele>
        <time>2015-11-15T09:06:25Z</time>
      </trkpt>
      <trkpt lat="45.77639" lon="5.36188">
        <ele>308.8</ele>
        <time>2015-11-15T09:06:27Z</time>
      </trkpt>
      <trkpt lat="45.77644" lon="5.36182">
        <ele>309.1</ele>
        <time>2015-11-15T09:06:29Z</time>
      </trkpt>
      <trkpt lat="45.77648" lon="5.36177">
        <ele>309.5</ele>
        <time>2015-11-15T09:06:31Z</time>
      </trkpt>
      <trkpt lat="45.77654" lon="5.36171">
        <ele>310.1</ele>
        <time>2015-11-15T09:06:33Z</time>
      </trkpt>
      <trkpt lat="45.77659" lon="5.36165">
        <ele>310.4</ele>
        <time>2015-11-15T09:06:35Z</time>
      </trkpt>
      <trkpt lat="45.77663" lon="5.36159">
        <ele>310.7</ele>
        <time>2015-11-15T09:06:37Z</time>
      </trkpt>
      <trkpt lat="45.77669" lon="5.36153">
        <ele>311</ele>
        <time>2015-11-15T09:06:39Z</time>
      </trkpt>
      <trkpt lat="45.77673" lon="5.36147">
        <ele>311.2</ele>
        <time>2015-11-15T09:06:41Z</time>
      </trkpt>
      <trkpt lat="45.77679" lon="5.36141">
        <ele>311.5</ele>
        <time>2015-11-15T09:06:43Z</time>
      </trkpt>
      <trkpt lat="45.77684" lon="5.36135">
        <ele>311.7</ele>
        <time>2015-11-15T09:06:45Z</time>
      </trkpt>
      <trkpt lat="45.77689" lon="5.36129">
        <ele>311.9</ele>
        <time>2015-11-15T09:06:47Z</time>
      </trkpt>
      <trkpt lat="45.77694" lon="5.36122">
        <ele>312</ele>
        <time>2015-11-15T09:06:49Z</time>
      </trkpt>
      <trkpt lat="45.777" lon="5.36115">
        <ele>312</ele>
        <time>2015-11-15T09:06:51Z</time>
      </trkpt>
      <trkpt lat="45.77705" lon="5.36107">
        <ele>311.7</ele>
        <time>2015-11-15T09:06:53Z</time>
      </trkpt>
      <trkpt lat="45.77711" lon="5.36099">
        <ele>311.4</ele>
        <time>2015-11-15T09:06:55Z</time>
      </trkpt>
      <trkpt lat="45.77718" lon="5.3609">
        <ele>311</ele>
        <time>2015-11-15T09:06:57Z</time>
      </trkpt>
      <trkpt lat="45.77723" lon="5.3608">
        <ele>310.6</ele>
        <time>2015-11-15T09:06:59Z</time>
      </trkpt>
      <trkpt lat="45.77729" lon="5.36069">
        <ele>310</ele>
        <time>2015-11-15T09:07:01Z</time>
      </trkpt>
      <trkpt lat="45.77734" lon="5.36057">
        <ele>309.8</ele>
        <time>2015-11-15T09:07:03Z</time>
      </trkpt>
      <trkpt lat="45.77741" lon="5.36044">
        <ele>309.8</ele>
        <time>2015-11-15T09:07:05Z</time>
      </trkpt>
      <trkpt lat="45.77746" lon="5.36031">
        <ele>310</ele>
        <time>2015-11-15T09:07:07Z</time>
      </trkpt>
      <trkpt lat="45.77753" lon="5.3602">
        <ele>310</ele>
        <time>2015-11-15T09:07:09Z</time>
      </trkpt>
      <trkpt lat="45.77761" lon="5.36016">
        <ele>309.7</ele>
        <time>2015-11-15T09:07:11Z</time>
      </trkpt>
      <trkpt lat="45.77771" lon="5.36021">
        <ele>308.9</ele>
        <time>2015-11-15T09:07:13Z</time>
      </trkpt>
      <trkpt lat="45.77782" lon="5.36028">
        <ele>307.7</ele>
        <time>2015-11-15T09:07:15Z</time>
      </trkpt>
      <trkpt lat="45.77794" lon="5.36032">
        <ele>306.7</ele>
        <time>2015-11-15T09:07:17Z</time>
      </trkpt>
      <trkpt lat="45.77805" lon="5.36035">
        <ele>305.2</ele>
        <time>2015-11-15T09:07:19Z</time>
      </trkpt>
      <trkpt lat="45.77815" lon="5.36042">
        <ele>304.4</ele>
        <time>2015-11-15T09:07:21Z</time>
      </trkpt>
      <trkpt lat="45.77824" lon="5.36052">
        <ele>304.2</ele>
        <time>2015-11-15T09:07:23Z</time>
      </trkpt>
      <trkpt lat="45.77832" lon="5.36061">
        <ele>304.5</ele>
        <time>2015-11-15T09:07:25Z</time>
      </trkpt>
      <trkpt lat="45.7784" lon="5.36073">
        <ele>305</ele>
        <time>2015-11-15T09:07:27Z</time>
      </trkpt>
      <trkpt lat="45.77859" lon="5.36094">
        <ele>304.9</ele>
        <time>2015-11-15T09:07:31Z</time>
      </trkpt>
      <trkpt lat="45.77872" lon="5.36098">
        <ele>304.1</ele>
        <time>2015-11-15T09:07:33Z</time>
      </trkpt>
      <trkpt lat="45.77885" lon="5.36103">
        <ele>302.5</ele>
        <time>2015-11-15T09:07:35Z</time>
      </trkpt>
      <trkpt lat="45.77899" lon="5.36107">
        <ele>301.1</ele>
        <time>2015-11-15T09:07:37Z</time>
      </trkpt>
      <trkpt lat="45.77912" lon="5.3611">
        <ele>300.5</ele>
        <time>2015-11-15T09:07:39Z</time>
      </trkpt>
      <trkpt lat="45.77924" lon="5.36112">
        <ele>300</ele>
        <time>2015-11-15T09:07:41Z</time>
      </trkpt>
      <trkpt lat="45.77933" lon="5.36122">
        <ele>299.8</ele>
        <time>2015-11-15T09:07:43Z</time>
      </trkpt>
      <trkpt lat="45.77939" lon="5.36135">
        <ele>300</ele>
        <time>2015-11-15T09:07:45Z</time>
      </trkpt>
      <trkpt lat="45.77944" lon="5.36147">
        <ele>300</ele>
        <time>2015-11-15T09:07:47Z</time>
      </trkpt>
      <trkpt lat="45.7795" lon="5.36158">
        <ele>300</ele>
        <time>2015-11-15T09:07:49Z</time>
      </trkpt>
      <trkpt lat="45.77956" lon="5.36169">
        <ele>300</ele>
        <time>2015-11-15T09:07:51Z</time>
      </trkpt>
      <trkpt lat="45.77961" lon="5.36178">
        <ele>300</ele>
        <time>2015-11-15T09:07:53Z</time>
      </trkpt>
      <trkpt lat="45.77964" lon="5.36188">
        <ele>300</ele>
        <time>2015-11-15T09:07:55Z</time>
      </trkpt>
      <trkpt lat="45.77967" lon="5.36196">
        <ele>300</ele>
        <time>2015-11-15T09:07:57Z</time>
      </trkpt>
      <trkpt lat="45.77969" lon="5.36203">
        <ele>300</ele>
        <time>2015-11-15T09:07:59Z</time>
      </trkpt>
      <trkpt lat="45.77973" lon="5.36212">
        <ele>299.7</ele>
        <time>2015-11-15T09:08:01Z</time>
      </trkpt>
      <trkpt lat="45.77978" lon="5.3622">
        <ele>299.2</ele>
        <time>2015-11-15T09:08:03Z</time>
      </trkpt>
      <trkpt lat="45.77983" lon="5.3623">
        <ele>298.8</ele>
        <time>2015-11-15T09:08:05Z</time>
      </trkpt>
      <trkpt lat="45.77989" lon="5.36241">
        <ele>298.4</ele>
        <time>2015-11-15T09:08:07Z</time>
      </trkpt>
      <trkpt lat="45.77997" lon="5.36255">
        <ele>297.7</ele>
        <time>2015-11-15T09:08:09Z</time>
      </trkpt>
      <trkpt lat="45.78008" lon="5.36266">
        <ele>297</ele>
        <time>2015-11-15T09:08:11Z</time>
      </trkpt>
      <trkpt lat="45.78019" lon="5.36276">
        <ele>296.3</ele>
        <time>2015-11-15T09:08:13Z</time>
      </trkpt>
      <trkpt lat="45.78029" lon="5.36284">
        <ele>295.6</ele>
        <time>2015-11-15T09:08:15Z</time>
      </trkpt>
      <trkpt lat="45.78037" lon="5.36295">
        <ele>295.1</ele>
        <time>2015-11-15T09:08:17Z</time>
      </trkpt>
      <trkpt lat="45.78043" lon="5.36311">
        <ele>294.6</ele>
        <time>2015-11-15T09:08:19Z</time>
      </trkpt>
      <trkpt lat="45.78046" lon="5.36328">
        <ele>293.9</ele>
        <time>2015-11-15T09:08:21Z</time>
      </trkpt>
      <trkpt lat="45.78049" lon="5.36343">
        <ele>293.3</ele>
        <time>2015-11-15T09:08:23Z</time>
      </trkpt>
      <trkpt lat="45.7805" lon="5.36353">
        <ele>292.9</ele>
        <time>2015-11-15T09:08:25Z</time>
      </trkpt>
      <trkpt lat="45.78048" lon="5.3636">
        <ele>292.6</ele>
        <time>2015-11-15T09:08:27Z</time>
      </trkpt>
      <trkpt lat="45.78046" lon="5.36367">
        <ele>292.3</ele>
        <time>2015-11-15T09:08:29Z</time>
      </trkpt>
      <trkpt lat="45.78043" lon="5.36376">
        <ele>291.9</ele>
        <time>2015-11-15T09:08:31Z</time>
      </trkpt>
      <trkpt lat="45.78038" lon="5.36385">
        <ele>291.1</ele>
        <time>2015-11-15T09:08:33Z</time>
      </trkpt>
      <trkpt lat="45.78033" lon="5.36393">
        <ele>290.3</ele>
        <time>2015-11-15T09:08:35Z</time>
      </trkpt>
      <trkpt lat="45.78026" lon="5.36399">
        <ele>289.2</ele>
        <time>2015-11-15T09:08:37Z</time>
      </trkpt>
      <trkpt lat="45.78023" lon="5.36403">
        <ele>288.7</ele>
        <time>2015-11-15T09:08:39Z</time>
      </trkpt>
      <trkpt lat="45.78021" lon="5.3641">
        <ele>287.9</ele>
        <time>2015-11-15T09:08:41Z</time>
      </trkpt>
      <trkpt lat="45.78022" lon="5.36415">
        <ele>287.3</ele>
        <time>2015-11-15T09:08:43Z</time>
      </trkpt>
      <trkpt lat="45.78023" lon="5.36417">
        <ele>287</ele>
        <time>2015-11-15T09:08:45Z</time>
      </trkpt>
      <trkpt lat="45.78024" lon="5.36417">
        <ele>286.8</ele>
        <time>2015-11-15T09:08:47Z</time>
      </trkpt>
      <trkpt lat="45.78024" lon="5.36416">
        <ele>286.6</ele>
        <time>2015-11-15T09:08:49Z</time>
      </trkpt>
      <trkpt lat="45.78025" lon="5.36414">
        <ele>286.4</ele>
        <time>2015-11-15T09:08:51Z</time>
      </trkpt>
      <trkpt lat="45.78026" lon="5.36413">
        <ele>286.1</ele>
        <time>2015-11-15T09:08:53Z</time>
      </trkpt>
      <trkpt lat="45.78028" lon="5.36411">
        <ele>285.8</ele>
        <time>2015-11-15T09:08:55Z</time>
      </trkpt>
      <trkpt lat="45.78032" lon="5.36412">
        <ele>285.3</ele>
        <time>2015-11-15T09:08:57Z</time>
      </trkpt>
      <trkpt lat="45.78034" lon="5.36412">
        <ele>284.9</ele>
        <time>2015-11-15T09:08:59Z</time>
      </trkpt>
      <trkpt lat="45.78037" lon="5.36411">
        <ele>284.5</ele>
        <time>2015-11-15T09:09:01Z</time>
      </trkpt>
      <trkpt lat="45.78039" lon="5.36411">
        <ele>284.3</ele>
        <time>2015-11-15T09:09:03Z</time>
      </trkpt>
      <trkpt lat="45.78043" lon="5.36412">
        <ele>284</ele>
        <time>2015-11-15T09:09:13Z</time>
      </trkpt>
      <trkpt lat="45.78046" lon="5.36419">
        <ele>284</ele>
        <time>2015-11-15T09:09:45Z</time>
      </trkpt>
      <trkpt lat="45.78046" lon="5.36426">
        <ele>283.9</ele>
        <time>2015-11-15T09:09:47Z</time>
      </trkpt>
      <trkpt lat="45.78046" lon="5.36431">
        <ele>283</ele>
        <time>2015-11-15T09:09:51Z</time>
      </trkpt>
      <trkpt lat="45.78047" lon="5.36432">
        <ele>282.6</ele>
        <time>2015-11-15T09:09:53Z</time>
      </trkpt>
      <trkpt lat="45.78048" lon="5.36436">
        <ele>281.8</ele>
        <time>2015-11-15T09:09:57Z</time>
      </trkpt>
      <trkpt lat="45.78048" lon="5.36439">
        <ele>281.3</ele>
        <time>2015-11-15T09:09:59Z</time>
      </trkpt>
      <trkpt lat="45.78049" lon="5.36444">
        <ele>280.6</ele>
        <time>2015-11-15T09:10:03Z</time>
      </trkpt>
      <trkpt lat="45.78051" lon="5.36449">
        <ele>279.7</ele>
        <time>2015-11-15T09:10:05Z</time>
      </trkpt>
      <trkpt lat="45.78053" lon="5.36456">
        <ele>278.7</ele>
        <time>2015-11-15T09:10:07Z</time>
      </trkpt>
      <trkpt lat="45.78055" lon="5.36464">
        <ele>277.7</ele>
        <time>2015-11-15T09:10:09Z</time>
      </trkpt>
      <trkpt lat="45.78058" lon="5.36471">
        <ele>276.9</ele>
        <time>2015-11-15T09:10:11Z</time>
      </trkpt>
      <trkpt lat="45.7806" lon="5.36479">
        <ele>276.6</ele>
        <time>2015-11-15T09:10:13Z</time>
      </trkpt>
      <trkpt lat="45.78063" lon="5.36486">
        <ele>276.3</ele>
        <time>2015-11-15T09:10:15Z</time>
      </trkpt>
      <trkpt lat="45.78066" lon="5.36494">
        <ele>276</ele>
        <time>2015-11-15T09:10:17Z</time>
      </trkpt>
      <trkpt lat="45.78069" lon="5.36499">
        <ele>275.9</ele>
        <time>2015-11-15T09:10:19Z</time>
      </trkpt>
      <trkpt lat="45.7807" lon="5.36506">
        <ele>275.7</ele>
        <time>2015-11-15T09:10:21Z</time>
      </trkpt>
      <trkpt lat="45.78073" lon="5.36514">
        <ele>275.6</ele>
        <time>2015-11-15T09:10:23Z</time>
      </trkpt>
      <trkpt lat="45.78076" lon="5.36521">
        <ele>275.6</ele>
        <time>2015-11-15T09:10:25Z</time>
      </trkpt>
      <trkpt lat="45.78079" lon="5.36527">
        <ele>275.5</ele>
        <time>2015-11-15T09:10:27Z</time>
      </trkpt>
      <trkpt lat="45.7808" lon="5.36532">
        <ele>275.5</ele>
        <time>2015-11-15T09:10:29Z</time>
      </trkpt>
      <trkpt lat="45.78082" lon="5.36536">
        <ele>275.6</ele>
        <time>2015-11-15T09:10:31Z</time>
      </trkpt>
      <trkpt lat="45.78084" lon="5.3654">
        <ele>275.5</ele>
        <time>2015-11-15T09:10:33Z</time>
      </trkpt>
      <trkpt lat="45.78086" lon="5.36543">
        <ele>275.4</ele>
        <time>2015-11-15T09:10:35Z</time>
      </trkpt>
      <trkpt lat="45.78088" lon="5.3655">
        <ele>275.3</ele>
        <time>2015-11-15T09:10:47Z</time>
      </trkpt>
      <trkpt lat="45.78087" lon="5.36553">
        <ele>275.2</ele>
        <time>2015-11-15T09:10:49Z</time>
      </trkpt>
      <trkpt lat="45.78085" lon="5.36556">
        <ele>275.1</ele>
        <time>2015-11-15T09:10:53Z</time>
      </trkpt>
      <trkpt lat="45.78082" lon="5.36559">
        <ele>275</ele>
        <time>2015-11-15T09:10:55Z</time>
      </trkpt>
      <trkpt lat="45.78079" lon="5.36563">
        <ele>274.9</ele>
        <time>2015-11-15T09:10:57Z</time>
      </trkpt>
      <trkpt lat="45.78075" lon="5.36569">
        <ele>274.7</ele>
        <time>2015-11-15T09:10:59Z</time>
      </trkpt>
      <trkpt lat="45.78071" lon="5.36572">
        <ele>274.5</ele>
        <time>2015-11-15T09:11:01Z</time>
      </trkpt>
      <trkpt lat="45.78067" lon="5.36576">
        <ele>274.2</ele>
        <time>2015-11-15T09:11:03Z</time>
      </trkpt>
      <trkpt lat="45.78064" lon="5.36579">
        <ele>273.9</ele>
        <time>2015-11-15T09:11:05Z</time>
      </trkpt>
      <trkpt lat="45.78061" lon="5.36583">
        <ele>273.4</ele>
        <time>2015-11-15T09:11:07Z</time>
      </trkpt>
      <trkpt lat="45.78056" lon="5.36586">
        <ele>272.8</ele>
        <time>2015-11-15T09:11:09Z</time>
      </trkpt>
      <trkpt lat="45.78053" lon="5.3659">
        <ele>272.4</ele>
        <time>2015-11-15T09:11:11Z</time>
      </trkpt>
      <trkpt lat="45.78049" lon="5.36593">
        <ele>272</ele>
        <time>2015-11-15T09:11:13Z</time>
      </trkpt>
      <trkpt lat="45.78045" lon="5.36597">
        <ele>271.7</ele>
        <time>2015-11-15T09:11:15Z</time>
      </trkpt>
      <trkpt lat="45.78042" lon="5.36601">
        <ele>271.5</ele>
        <time>2015-11-15T09:11:17Z</time>
      </trkpt>
      <trkpt lat="45.78039" lon="5.36602">
        <ele>271.4</ele>
        <time>2015-11-15T09:11:19Z</time>
      </trkpt>
      <trkpt lat="45.78038" lon="5.36604">
        <ele>271.3</ele>
        <time>2015-11-15T09:11:25Z</time>
      </trkpt>
      <trkpt lat="45.78037" lon="5.36606">
        <ele>271.2</ele>
        <time>2015-11-15T09:11:27Z</time>
      </trkpt>
      <trkpt lat="45.78037" lon="5.36607">
        <ele>271.2</ele>
        <time>2015-11-15T09:11:29Z</time>
      </trkpt>
      <trkpt lat="45.78035" lon="5.36609">
        <ele>271.1</ele>
        <time>2015-11-15T09:11:31Z</time>
      </trkpt>
      <trkpt lat="45.78033" lon="5.36611">
        <ele>270.9</ele>
        <time>2015-11-15T09:11:33Z</time>
      </trkpt>
      <trkpt lat="45.78032" lon="5.36611">
        <ele>270.8</ele>
        <time>2015-11-15T09:11:35Z</time>
      </trkpt>
      <trkpt lat="45.7803" lon="5.36612">
        <ele>270.7</ele>
        <time>2015-11-15T09:11:37Z</time>
      </trkpt>
      <trkpt lat="45.78029" lon="5.36613">
        <ele>270.6</ele>
        <time>2015-11-15T09:11:39Z</time>
      </trkpt>
      <trkpt lat="45.78027" lon="5.36617">
        <ele>270.3</ele>
        <time>2015-11-15T09:11:45Z</time>
      </trkpt>
      <trkpt lat="45.78024" lon="5.36621">
        <ele>270</ele>
        <time>2015-11-15T09:11:47Z</time>
      </trkpt>
      <trkpt lat="45.78021" lon="5.36624">
        <ele>269.7</ele>
        <time>2015-11-15T09:11:49Z</time>
      </trkpt>
      <trkpt lat="45.78018" lon="5.36628">
        <ele>269.4</ele>
        <time>2015-11-15T09:11:51Z</time>
      </trkpt>
      <trkpt lat="45.78016" lon="5.36629">
        <ele>269.2</ele>
        <time>2015-11-15T09:11:53Z</time>
      </trkpt>
      <trkpt lat="45.78016" lon="5.36628">
        <ele>269.3</ele>
        <time>2015-11-15T09:15:03Z</time>
      </trkpt>
      <trkpt lat="45.78018" lon="5.36625">
        <ele>269.5</ele>
        <time>2015-11-15T09:15:05Z</time>
      </trkpt>
      <trkpt lat="45.7802" lon="5.36623">
        <ele>269.7</ele>
        <time>2015-11-15T09:15:07Z</time>
      </trkpt>
      <trkpt lat="45.78022" lon="5.3662">
        <ele>269.9</ele>
        <time>2015-11-15T09:15:09Z</time>
      </trkpt>
      <trkpt lat="45.78024" lon="5.36619">
        <ele>270</ele>
        <time>2015-11-15T09:15:11Z</time>
      </trkpt>
      <trkpt lat="45.78026" lon="5.36615">
        <ele>270.3</ele>
        <time>2015-11-15T09:15:19Z</time>
      </trkpt>
      <trkpt lat="45.78028" lon="5.36615">
        <ele>270.5</ele>
        <time>2015-11-15T09:15:21Z</time>
      </trkpt>
      <trkpt lat="45.7803" lon="5.36614">
        <ele>270.6</ele>
        <time>2015-11-15T09:15:23Z</time>
      </trkpt>
      <trkpt lat="45.78032" lon="5.36612">
        <ele>270.8</ele>
        <time>2015-11-15T09:15:25Z</time>
      </trkpt>
      <trkpt lat="45.78035" lon="5.36609">
        <ele>271</ele>
        <time>2015-11-15T09:15:31Z</time>
      </trkpt>
      <trkpt lat="45.78036" lon="5.36608">
        <ele>271.1</ele>
        <time>2015-11-15T09:15:33Z</time>
      </trkpt>
      <trkpt lat="45.78039" lon="5.36607">
        <ele>271.3</ele>
        <time>2015-11-15T09:15:37Z</time>
      </trkpt>
      <trkpt lat="45.78043" lon="5.36603">
        <ele>271.4</ele>
        <time>2015-11-15T09:15:39Z</time>
      </trkpt>
      <trkpt lat="45.78048" lon="5.36599">
        <ele>271.7</ele>
        <time>2015-11-15T09:15:41Z</time>
      </trkpt>
      <trkpt lat="45.78053" lon="5.36594">
        <ele>272.1</ele>
        <time>2015-11-15T09:15:43Z</time>
      </trkpt>
      <trkpt lat="45.78059" lon="5.36589">
        <ele>272.7</ele>
        <time>2015-11-15T09:15:45Z</time>
      </trkpt>
      <trkpt lat="45.78064" lon="5.36583">
        <ele>273.5</ele>
        <time>2015-11-15T09:15:47Z</time>
      </trkpt>
      <trkpt lat="45.78071" lon="5.36578">
        <ele>274.2</ele>
        <time>2015-11-15T09:15:49Z</time>
      </trkpt>
      <trkpt lat="45.78077" lon="5.36572">
        <ele>274.7</ele>
        <time>2015-11-15T09:15:51Z</time>
      </trkpt>
      <trkpt lat="45.78082" lon="5.36568">
        <ele>274.9</ele>
        <time>2015-11-15T09:15:53Z</time>
      </trkpt>
      <trkpt lat="45.78086" lon="5.36565">
        <ele>274.9</ele>
        <time>2015-11-15T09:15:55Z</time>
      </trkpt>
      <trkpt lat="45.78088" lon="5.36562">
        <ele>275</ele>
        <time>2015-11-15T09:15:57Z</time>
      </trkpt>
      <trkpt lat="45.78088" lon="5.3656">
        <ele>275</ele>
        <time>2015-11-15T09:15:59Z</time>
      </trkpt>
      <trkpt lat="45.78087" lon="5.36558">
        <ele>275.1</ele>
        <time>2015-11-15T09:16:01Z</time>
      </trkpt>
      <trkpt lat="45.78086" lon="5.36554">
        <ele>275.2</ele>
        <time>2015-11-15T09:16:05Z</time>
      </trkpt>
      <trkpt lat="45.78083" lon="5.3655">
        <ele>275.3</ele>
        <time>2015-11-15T09:16:11Z</time>
      </trkpt>
      <trkpt lat="45.78082" lon="5.36547">
        <ele>275.4</ele>
        <time>2015-11-15T09:16:13Z</time>
      </trkpt>
      <trkpt lat="45.7808" lon="5.36543">
        <ele>275.5</ele>
        <time>2015-11-15T09:16:15Z</time>
      </trkpt>
      <trkpt lat="45.78078" lon="5.36539">
        <ele>275.6</ele>
        <time>2015-11-15T09:16:17Z</time>
      </trkpt>
      <trkpt lat="45.78076" lon="5.36533">
        <ele>275.5</ele>
        <time>2015-11-15T09:16:19Z</time>
      </trkpt>
      <trkpt lat="45.78074" lon="5.36528">
        <ele>275.5</ele>
        <time>2015-11-15T09:16:21Z</time>
      </trkpt>
      <trkpt lat="45.78072" lon="5.36522">
        <ele>275.6</ele>
        <time>2015-11-15T09:16:23Z</time>
      </trkpt>
      <trkpt lat="45.78071" lon="5.36515">
        <ele>275.6</ele>
        <time>2015-11-15T09:16:25Z</time>
      </trkpt>
      <trkpt lat="45.7807" lon="5.36509">
        <ele>275.7</ele>
        <time>2015-11-15T09:16:27Z</time>
      </trkpt>
      <trkpt lat="45.78067" lon="5.36503">
        <ele>275.8</ele>
        <time>2015-11-15T09:16:29Z</time>
      </trkpt>
      <trkpt lat="45.78065" lon="5.36495">
        <ele>276</ele>
        <time>2015-11-15T09:16:31Z</time>
      </trkpt>
      <trkpt lat="45.78061" lon="5.36488">
        <ele>276.2</ele>
        <time>2015-11-15T09:16:33Z</time>
      </trkpt>
      <trkpt lat="45.78059" lon="5.3648">
        <ele>276.5</ele>
        <time>2015-11-15T09:16:35Z</time>
      </trkpt>
      <trkpt lat="45.78056" lon="5.36471">
        <ele>276.9</ele>
        <time>2015-11-15T09:16:37Z</time>
      </trkpt>
      <trkpt lat="45.78054" lon="5.36462">
        <ele>277.6</ele>
        <time>2015-11-15T09:16:39Z</time>
      </trkpt>
      <trkpt lat="45.78053" lon="5.36456">
        <ele>278.3</ele>
        <time>2015-11-15T09:16:41Z</time>
      </trkpt>
      <trkpt lat="45.78052" lon="5.36449">
        <ele>279.2</ele>
        <time>2015-11-15T09:16:43Z</time>
      </trkpt>
      <trkpt lat="45.78051" lon="5.36445">
        <ele>279.9</ele>
        <time>2015-11-15T09:16:45Z</time>
      </trkpt>
      <trkpt lat="45.78052" lon="5.3644">
        <ele>280.5</ele>
        <time>2015-11-15T09:16:47Z</time>
      </trkpt>
      <trkpt lat="45.78054" lon="5.36436">
        <ele>281.2</ele>
        <time>2015-11-15T09:16:49Z</time>
      </trkpt>
      <trkpt lat="45.78057" lon="5.36433">
        <ele>283</ele>
        <time>2015-11-15T09:16:51Z</time>
      </trkpt>
      <trkpt lat="45.78059" lon="5.36429">
        <ele>282.8</ele>
        <time>2015-11-15T09:16:53Z</time>
      </trkpt>
      <trkpt lat="45.78062" lon="5.36426">
        <ele>282.8</ele>
        <time>2015-11-15T09:16:55Z</time>
      </trkpt>
      <trkpt lat="45.78065" lon="5.36425">
        <ele>282.7</ele>
        <time>2015-11-15T09:16:57Z</time>
      </trkpt>
      <trkpt lat="45.78067" lon="5.36423">
        <ele>282.5</ele>
        <time>2015-11-15T09:16:59Z</time>
      </trkpt>
      <trkpt lat="45.78068" lon="5.36422">
        <ele>282.3</ele>
        <time>2015-11-15T09:17:01Z</time>
      </trkpt>
      <trkpt lat="45.78069" lon="5.36421">
        <ele>282.2</ele>
        <time>2015-11-15T09:17:03Z</time>
      </trkpt>
      <trkpt lat="45.78072" lon="5.36419">
        <ele>281.9</ele>
        <time>2015-11-15T09:17:05Z</time>
      </trkpt>
      <trkpt lat="45.78075" lon="5.36416">
        <ele>281.2</ele>
        <time>2015-11-15T09:17:07Z</time>
      </trkpt>
      <trkpt lat="45.78079" lon="5.36413">
        <ele>280.5</ele>
        <time>2015-11-15T09:17:09Z</time>
      </trkpt>
      <trkpt lat="45.78082" lon="5.36411">
        <ele>280.4</ele>
        <time>2015-11-15T09:17:11Z</time>
      </trkpt>
      <trkpt lat="45.78084" lon="5.36409">
        <ele>280.3</ele>
        <time>2015-11-15T09:17:13Z</time>
      </trkpt>
      <trkpt lat="45.78087" lon="5.36406">
        <ele>280</ele>
        <time>2015-11-15T09:17:15Z</time>
      </trkpt>
      <trkpt lat="45.78089" lon="5.36402">
        <ele>279.5</ele>
        <time>2015-11-15T09:17:17Z</time>
      </trkpt>
      <trkpt lat="45.7809" lon="5.36398">
        <ele>279.1</ele>
        <time>2015-11-15T09:17:19Z</time>
      </trkpt>
      <trkpt lat="45.78091" lon="5.36395">
        <ele>279.4</ele>
        <time>2015-11-15T09:17:23Z</time>
      </trkpt>
      <trkpt lat="45.78092" lon="5.36392">
        <ele>280.3</ele>
        <time>2015-11-15T09:17:25Z</time>
      </trkpt>
      <trkpt lat="45.78093" lon="5.36389">
        <ele>281.1</ele>
        <time>2015-11-15T09:17:27Z</time>
      </trkpt>
      <trkpt lat="45.78095" lon="5.36388">
        <ele>282.2</ele>
        <time>2015-11-15T09:17:29Z</time>
      </trkpt>
      <trkpt lat="45.78097" lon="5.36386">
        <ele>283.5</ele>
        <time>2015-11-15T09:17:33Z</time>
      </trkpt>
      <trkpt lat="45.7811" lon="5.36375">
        <ele>285.1</ele>
        <time>2015-11-15T09:18:16Z</time>
      </trkpt>
      <trkpt lat="45.7812" lon="5.36375">
        <ele>286</ele>
        <time>2015-11-15T09:18:18Z</time>
      </trkpt>
      <trkpt lat="45.78127" lon="5.36374">
        <ele>286.9</ele>
        <time>2015-11-15T09:18:20Z</time>
      </trkpt>
      <trkpt lat="45.78134" lon="5.36368">
        <ele>287.7</ele>
        <time>2015-11-15T09:18:22Z</time>
      </trkpt>
      <trkpt lat="45.78142" lon="5.36364">
        <ele>288.2</ele>
        <time>2015-11-15T09:18:24Z</time>
      </trkpt>
      <trkpt lat="45.78151" lon="5.36358">
        <ele>288.5</ele>
        <time>2015-11-15T09:18:26Z</time>
      </trkpt>
      <trkpt lat="45.78161" lon="5.3635">
        <ele>288.7</ele>
        <time>2015-11-15T09:18:28Z</time>
      </trkpt>
      <trkpt lat="45.7817" lon="5.36341">
        <ele>288.9</ele>
        <time>2015-11-15T09:18:30Z</time>
      </trkpt>
      <trkpt lat="45.7818" lon="5.36332">
        <ele>289</ele>
        <time>2015-11-15T09:18:32Z</time>
      </trkpt>
      <trkpt lat="45.78188" lon="5.36324">
        <ele>289.1</ele>
        <time>2015-11-15T09:18:34Z</time>
      </trkpt>
      <trkpt lat="45.78197" lon="5.36318">
        <ele>289.3</ele>
        <time>2015-11-15T09:18:36Z</time>
      </trkpt>
      <trkpt lat="45.78208" lon="5.36312">
        <ele>289.5</ele>
        <time>2015-11-15T09:18:38Z</time>
      </trkpt>
      <trkpt lat="45.78219" lon="5.36306">
        <ele>289.8</ele>
        <time>2015-11-15T09:18:40Z</time>
      </trkpt>
      <trkpt lat="45.78228" lon="5.36301">
        <ele>290</ele>
        <time>2015-11-15T09:18:42Z</time>
      </trkpt>
      <trkpt lat="45.78239" lon="5.36298">
        <ele>290.2</ele>
        <time>2015-11-15T09:18:44Z</time>
      </trkpt>
      <trkpt lat="45.78248" lon="5.36293">
        <ele>290.3</ele>
        <time>2015-11-15T09:18:46Z</time>
      </trkpt>
      <trkpt lat="45.78258" lon="5.36287">
        <ele>290.3</ele>
        <time>2015-11-15T09:18:48Z</time>
      </trkpt>
      <trkpt lat="45.78268" lon="5.36279">
        <ele>290.3</ele>
        <time>2015-11-15T09:18:50Z</time>
      </trkpt>
      <trkpt lat="45.78278" lon="5.36271">
        <ele>290.4</ele>
        <time>2015-11-15T09:18:52Z</time>
      </trkpt>
      <trkpt lat="45.78288" lon="5.36263">
        <ele>290.5</ele>
        <time>2015-11-15T09:18:54Z</time>
      </trkpt>
      <trkpt lat="45.78298" lon="5.36255">
        <ele>290.6</ele>
        <time>2015-11-15T09:18:56Z</time>
      </trkpt>
      <trkpt lat="45.78308" lon="5.36248">
        <ele>290.8</ele>
        <time>2015-11-15T09:18:58Z</time>
      </trkpt>
      <trkpt lat="45.78317" lon="5.36242">
        <ele>291</ele>
        <time>2015-11-15T09:19:00Z</time>
      </trkpt>
      <trkpt lat="45.78327" lon="5.36236">
        <ele>291.2</ele>
        <time>2015-11-15T09:19:02Z</time>
      </trkpt>
      <trkpt lat="45.78337" lon="5.3623">
        <ele>291.3</ele>
        <time>2015-11-15T09:19:04Z</time>
      </trkpt>
      <trkpt lat="45.78347" lon="5.36224">
        <ele>291.4</ele>
        <time>2015-11-15T09:19:06Z</time>
      </trkpt>
      <trkpt lat="45.78358" lon="5.36219">
        <ele>291.5</ele>
        <time>2015-11-15T09:19:08Z</time>
      </trkpt>
      <trkpt lat="45.78367" lon="5.36212">
        <ele>291.6</ele>
        <time>2015-11-15T09:19:10Z</time>
      </trkpt>
      <trkpt lat="45.78375" lon="5.36205">
        <ele>291.9</ele>
        <time>2015-11-15T09:19:12Z</time>
      </trkpt>
      <trkpt lat="45.78383" lon="5.36197">
        <ele>292</ele>
        <time>2015-11-15T09:19:14Z</time>
      </trkpt>
      <trkpt lat="45.78392" lon="5.3619">
        <ele>292.1</ele>
        <time>2015-11-15T09:19:16Z</time>
      </trkpt>
      <trkpt lat="45.78401" lon="5.36184">
        <ele>292.3</ele>
        <time>2015-11-15T09:19:18Z</time>
      </trkpt>
      <trkpt lat="45.7841" lon="5.36177">
        <ele>292.4</ele>
        <time>2015-11-15T09:19:20Z</time>
      </trkpt>
      <trkpt lat="45.78418" lon="5.36168">
        <ele>292.6</ele>
        <time>2015-11-15T09:19:22Z</time>
      </trkpt>
      <trkpt lat="45.78426" lon="5.3616">
        <ele>292.7</ele>
        <time>2015-11-15T09:19:24Z</time>
      </trkpt>
      <trkpt lat="45.78432" lon="5.36152">
        <ele>292.9</ele>
        <time>2015-11-15T09:19:26Z</time>
      </trkpt>
      <trkpt lat="45.78439" lon="5.36146">
        <ele>293.1</ele>
        <time>2015-11-15T09:19:28Z</time>
      </trkpt>
      <trkpt lat="45.78447" lon="5.36139">
        <ele>293.3</ele>
        <time>2015-11-15T09:19:30Z</time>
      </trkpt>
      <trkpt lat="45.78453" lon="5.36132">
        <ele>293.5</ele>
        <time>2015-11-15T09:19:32Z</time>
      </trkpt>
      <trkpt lat="45.78462" lon="5.36125">
        <ele>293.7</ele>
        <time>2015-11-15T09:19:34Z</time>
      </trkpt>
      <trkpt lat="45.78467" lon="5.36118">
        <ele>293.8</ele>
        <time>2015-11-15T09:19:36Z</time>
      </trkpt>
      <trkpt lat="45.78473" lon="5.36111">
        <ele>293.9</ele>
        <time>2015-11-15T09:19:38Z</time>
      </trkpt>
      <trkpt lat="45.7848" lon="5.36103">
        <ele>294.1</ele>
        <time>2015-11-15T09:19:40Z</time>
      </trkpt>
      <trkpt lat="45.78485" lon="5.36097">
        <ele>294.2</ele>
        <time>2015-11-15T09:19:42Z</time>
      </trkpt>
      <trkpt lat="45.7849" lon="5.36089">
        <ele>294.3</ele>
        <time>2015-11-15T09:19:44Z</time>
      </trkpt>
      <trkpt lat="45.78496" lon="5.36083">
        <ele>294.4</ele>
        <time>2015-11-15T09:19:46Z</time>
      </trkpt>
      <trkpt lat="45.785" lon="5.36075">
        <ele>294.5</ele>
        <time>2015-11-15T09:19:48Z</time>
      </trkpt>
      <trkpt lat="45.78504" lon="5.36068">
        <ele>294.7</ele>
        <time>2015-11-15T09:19:50Z</time>
      </trkpt>
      <trkpt lat="45.7851" lon="5.36062">
        <ele>294.9</ele>
        <time>2015-11-15T09:19:52Z</time>
      </trkpt>
      <trkpt lat="45.78515" lon="5.36055">
        <ele>295.1</ele>
        <time>2015-11-15T09:19:54Z</time>
      </trkpt>
      <trkpt lat="45.78519" lon="5.36048">
        <ele>295.3</ele>
        <time>2015-11-15T09:19:56Z</time>
      </trkpt>
      <trkpt lat="45.78524" lon="5.3604">
        <ele>295.6</ele>
        <time>2015-11-15T09:19:58Z</time>
      </trkpt>
      <trkpt lat="45.78531" lon="5.36032">
        <ele>295.9</ele>
        <time>2015-11-15T09:20:00Z</time>
      </trkpt>
      <trkpt lat="45.78539" lon="5.36023">
        <ele>296.2</ele>
        <time>2015-11-15T09:20:02Z</time>
      </trkpt>
      <trkpt lat="45.78548" lon="5.36016">
        <ele>296.4</ele>
        <time>2015-11-15T09:20:04Z</time>
      </trkpt>
      <trkpt lat="45.78556" lon="5.36007">
        <ele>296.6</ele>
        <time>2015-11-15T09:20:06Z</time>
      </trkpt>
      <trkpt lat="45.78564" lon="5.35999">
        <ele>296.8</ele>
        <time>2015-11-15T09:20:08Z</time>
      </trkpt>
      <trkpt lat="45.78574" lon="5.3599">
        <ele>297</ele>
        <time>2015-11-15T09:20:10Z</time>
      </trkpt>
      <trkpt lat="45.78582" lon="5.35983">
        <ele>297</ele>
        <time>2015-11-15T09:20:12Z</time>
      </trkpt>
      <trkpt lat="45.78587" lon="5.35979">
        <ele>297</ele>
        <time>2015-11-15T09:20:14Z</time>
      </trkpt>
      <trkpt lat="45.78591" lon="5.35977">
        <ele>297</ele>
        <time>2015-11-15T09:20:16Z</time>
      </trkpt>
      <trkpt lat="45.78591" lon="5.35977">
        <ele>297</ele>
        <time>2015-11-15T09:20:20Z</time>
      </trkpt>
      <trkpt lat="45.78593" lon="5.35981">
        <ele>297</ele>
        <time>2015-11-15T09:20:22Z</time>
      </trkpt>
      <trkpt lat="45.78592" lon="5.35982">
        <ele>297</ele>
        <time>2015-11-15T09:20:24Z</time>
      </trkpt>
      <trkpt lat="45.78596" lon="5.35978">
        <ele>297.2</ele>
        <time>2015-11-15T09:20:34Z</time>
      </trkpt>
      <trkpt lat="45.78596" lon="5.35974">
        <ele>297.4</ele>
        <time>2015-11-15T09:20:36Z</time>
      </trkpt>
      <trkpt lat="45.78595" lon="5.35969">
        <ele>297.7</ele>
        <time>2015-11-15T09:20:38Z</time>
      </trkpt>
      <trkpt lat="45.78596" lon="5.35967">
        <ele>297.8</ele>
        <time>2015-11-15T09:20:40Z</time>
      </trkpt>
      <trkpt lat="45.78595" lon="5.35963">
        <ele>298</ele>
        <time>2015-11-15T09:20:42Z</time>
      </trkpt>
      <trkpt lat="45.78596" lon="5.35959">
        <ele>298.4</ele>
        <time>2015-11-15T09:20:44Z</time>
      </trkpt>
      <trkpt lat="45.78597" lon="5.35954">
        <ele>298.8</ele>
        <time>2015-11-15T09:20:46Z</time>
      </trkpt>
      <trkpt lat="45.78597" lon="5.3595">
        <ele>299</ele>
        <time>2015-11-15T09:20:48Z</time>
      </trkpt>
      <trkpt lat="45.78598" lon="5.35945">
        <ele>299.6</ele>
        <time>2015-11-15T09:20:50Z</time>
      </trkpt>
      <trkpt lat="45.78598" lon="5.3594">
        <ele>299.9</ele>
        <time>2015-11-15T09:20:52Z</time>
      </trkpt>
      <trkpt lat="45.78598" lon="5.35936">
        <ele>300.3</ele>
        <time>2015-11-15T09:20:54Z</time>
      </trkpt>
      <trkpt lat="45.78598" lon="5.35932">
        <ele>300.5</ele>
        <time>2015-11-15T09:20:56Z</time>
      </trkpt>
      <trkpt lat="45.78598" lon="5.35928">
        <ele>300.9</ele>
        <time>2015-11-15T09:20:58Z</time>
      </trkpt>
      <trkpt lat="45.78598" lon="5.35925">
        <ele>301.2</ele>
        <time>2015-11-15T09:21:00Z</time>
      </trkpt>
      <trkpt lat="45.78599" lon="5.35922">
        <ele>301.3</ele>
        <time>2015-11-15T09:21:06Z</time>
      </trkpt>
      <trkpt lat="45.786" lon="5.35919">
        <ele>301.4</ele>
        <time>2015-11-15T09:21:08Z</time>
      </trkpt>
      <trkpt lat="45.78601" lon="5.35915">
        <ele>301.9</ele>
        <time>2015-11-15T09:21:10Z</time>
      </trkpt>
      <trkpt lat="45.78602" lon="5.35912">
        <ele>302</ele>
        <time>2015-11-15T09:21:12Z</time>
      </trkpt>
      <trkpt lat="45.78603" lon="5.35909">
        <ele>302.1</ele>
        <time>2015-11-15T09:21:14Z</time>
      </trkpt>
      <trkpt lat="45.78601" lon="5.35904">
        <ele>302.2</ele>
        <time>2015-11-15T09:21:22Z</time>
      </trkpt>
      <trkpt lat="45.78599" lon="5.35904">
        <ele>302.3</ele>
        <time>2015-11-15T09:21:24Z</time>
      </trkpt>
      <trkpt lat="45.78597" lon="5.35905">
        <ele>302.5</ele>
        <time>2015-11-15T09:21:28Z</time>
      </trkpt>
      <trkpt lat="45.78594" lon="5.35907">
        <ele>302.8</ele>
        <time>2015-11-15T09:21:34Z</time>
      </trkpt>
      <trkpt lat="45.78592" lon="5.35909">
        <ele>302.9</ele>
        <time>2015-11-15T09:21:40Z</time>
      </trkpt>
      <trkpt lat="45.78591" lon="5.3591">
        <ele>303</ele>
        <time>2015-11-15T09:21:42Z</time>
      </trkpt>
      <trkpt lat="45.78589" lon="5.3591">
        <ele>303.2</ele>
        <time>2015-11-15T09:21:44Z</time>
      </trkpt>
      <trkpt lat="45.78588" lon="5.35911">
        <ele>303.3</ele>
        <time>2015-11-15T09:21:46Z</time>
      </trkpt>
      <trkpt lat="45.78587" lon="5.3591">
        <ele>303.6</ele>
        <time>2015-11-15T09:21:48Z</time>
      </trkpt>
      <trkpt lat="45.78586" lon="5.35911">
        <ele>303.7</ele>
        <time>2015-11-15T09:21:50Z</time>
      </trkpt>
      <trkpt lat="45.78585" lon="5.35913">
        <ele>303.8</ele>
        <time>2015-11-15T09:21:52Z</time>
      </trkpt>
      <trkpt lat="45.78584" lon="5.35915">
        <ele>303.8</ele>
        <time>2015-11-15T09:21:54Z</time>
      </trkpt>
      <trkpt lat="45.78583" lon="5.35917">
        <ele>303.9</ele>
        <time>2015-11-15T09:21:56Z</time>
      </trkpt>
      <trkpt lat="45.78582" lon="5.35919">
        <ele>304</ele>
        <time>2015-11-15T09:21:58Z</time>
      </trkpt>
      <trkpt lat="45.78581" lon="5.3592">
        <ele>304.1</ele>
        <time>2015-11-15T09:22:00Z</time>
      </trkpt>
      <trkpt lat="45.78579" lon="5.35922">
        <ele>304.2</ele>
        <time>2015-11-15T09:22:02Z</time>
      </trkpt>
      <trkpt lat="45.78577" lon="5.35924">
        <ele>304.3</ele>
        <time>2015-11-15T09:22:04Z</time>
      </trkpt>
      <trkpt lat="45.78575" lon="5.35925">
        <ele>304.4</ele>
        <time>2015-11-15T09:22:06Z</time>
      </trkpt>
      <trkpt lat="45.78574" lon="5.35928">
        <ele>304.5</ele>
        <time>2015-11-15T09:22:08Z</time>
      </trkpt>
      <trkpt lat="45.78571" lon="5.3593">
        <ele>304.7</ele>
        <time>2015-11-15T09:22:10Z</time>
      </trkpt>
      <trkpt lat="45.78569" lon="5.35932">
        <ele>304.9</ele>
        <time>2015-11-15T09:22:12Z</time>
      </trkpt>
      <trkpt lat="45.78568" lon="5.35934">
        <ele>305</ele>
        <time>2015-11-15T09:22:14Z</time>
      </trkpt>
      <trkpt lat="45.78566" lon="5.35936">
        <ele>305.2</ele>
        <time>2015-11-15T09:22:16Z</time>
      </trkpt>
      <trkpt lat="45.78565" lon="5.35938">
        <ele>305.3</ele>
        <time>2015-11-15T09:22:18Z</time>
      </trkpt>
      <trkpt lat="45.78563" lon="5.35939">
        <ele>305.4</ele>
        <time>2015-11-15T09:22:20Z</time>
      </trkpt>
      <trkpt lat="45.78562" lon="5.35941">
        <ele>305.5</ele>
        <time>2015-11-15T09:22:22Z</time>
      </trkpt>
      <trkpt lat="45.78561" lon="5.35943">
        <ele>305.6</ele>
        <time>2015-11-15T09:22:24Z</time>
      </trkpt>
      <trkpt lat="45.78559" lon="5.35944">
        <ele>305.8</ele>
        <time>2015-11-15T09:22:26Z</time>
      </trkpt>
      <trkpt lat="45.78557" lon="5.35947">
        <ele>305.9</ele>
        <time>2015-11-15T09:22:30Z</time>
      </trkpt>
      <trkpt lat="45.78556" lon="5.35948">
        <ele>305.9</ele>
        <time>2015-11-15T09:22:32Z</time>
      </trkpt>
      <trkpt lat="45.78551" lon="5.35953">
        <ele>306.1</ele>
        <time>2015-11-15T09:22:40Z</time>
      </trkpt>
      <trkpt lat="45.78549" lon="5.35955">
        <ele>306.2</ele>
        <time>2015-11-15T09:22:42Z</time>
      </trkpt>
      <trkpt lat="45.78547" lon="5.35957">
        <ele>306.3</ele>
        <time>2015-11-15T09:22:44Z</time>
      </trkpt>
      <trkpt lat="45.78545" lon="5.35958">
        <ele>306.3</ele>
        <time>2015-11-15T09:22:46Z</time>
      </trkpt>
      <trkpt lat="45.78544" lon="5.3596">
        <ele>306.4</ele>
        <time>2015-11-15T09:22:48Z</time>
      </trkpt>
      <trkpt lat="45.78542" lon="5.35963">
        <ele>306.5</ele>
        <time>2015-11-15T09:22:50Z</time>
      </trkpt>
      <trkpt lat="45.7854" lon="5.35964">
        <ele>306.6</ele>
        <time>2015-11-15T09:22:52Z</time>
      </trkpt>
      <trkpt lat="45.78537" lon="5.35965">
        <ele>306.9</ele>
        <time>2015-11-15T09:22:54Z</time>
      </trkpt>
      <trkpt lat="45.78535" lon="5.35965">
        <ele>307.1</ele>
        <time>2015-11-15T09:22:56Z</time>
      </trkpt>
      <trkpt lat="45.78533" lon="5.35964">
        <ele>307.3</ele>
        <time>2015-11-15T09:22:58Z</time>
      </trkpt>
      <trkpt lat="45.78532" lon="5.35963">
        <ele>307.4</ele>
        <time>2015-11-15T09:23:00Z</time>
      </trkpt>
      <trkpt lat="45.78531" lon="5.35962">
        <ele>307.6</ele>
        <time>2015-11-15T09:23:02Z</time>
      </trkpt>
      <trkpt lat="45.78529" lon="5.35962">
        <ele>307.7</ele>
        <time>2015-11-15T09:23:04Z</time>
      </trkpt>
      <trkpt lat="45.78527" lon="5.35961">
        <ele>307.8</ele>
        <time>2015-11-15T09:23:06Z</time>
      </trkpt>
      <trkpt lat="45.78525" lon="5.35959">
        <ele>307.9</ele>
        <time>2015-11-15T09:23:08Z</time>
      </trkpt>
      <trkpt lat="45.78524" lon="5.35957">
        <ele>308</ele>
        <time>2015-11-15T09:23:10Z</time>
      </trkpt>
      <trkpt lat="45.78523" lon="5.35954">
        <ele>308.1</ele>
        <time>2015-11-15T09:23:12Z</time>
      </trkpt>
      <trkpt lat="45.78522" lon="5.35952">
        <ele>308.3</ele>
        <time>2015-11-15T09:23:14Z</time>
      </trkpt>
      <trkpt lat="45.78521" lon="5.35949">
        <ele>308.4</ele>
        <time>2015-11-15T09:23:16Z</time>
      </trkpt>
      <trkpt lat="45.7852" lon="5.35946">
        <ele>308.6</ele>
        <time>2015-11-15T09:23:18Z</time>
      </trkpt>
      <trkpt lat="45.78518" lon="5.35945">
        <ele>308.7</ele>
        <time>2015-11-15T09:23:20Z</time>
      </trkpt>
      <trkpt lat="45.78517" lon="5.35943">
        <ele>308.8</ele>
        <time>2015-11-15T09:23:22Z</time>
      </trkpt>
      <trkpt lat="45.78515" lon="5.35941">
        <ele>309</ele>
        <time>2015-11-15T09:23:24Z</time>
      </trkpt>
      <trkpt lat="45.78513" lon="5.3594">
        <ele>309.6</ele>
        <time>2015-11-15T09:23:26Z</time>
      </trkpt>
      <trkpt lat="45.78509" lon="5.35935">
        <ele>310.2</ele>
        <time>2015-11-15T09:23:36Z</time>
      </trkpt>
      <trkpt lat="45.78508" lon="5.35934">
        <ele>310.4</ele>
        <time>2015-11-15T09:23:38Z</time>
      </trkpt>
      <trkpt lat="45.78506" lon="5.35933">
        <ele>310.6</ele>
        <time>2015-11-15T09:23:40Z</time>
      </trkpt>
      <trkpt lat="45.78504" lon="5.35932">
        <ele>310.8</ele>
        <time>2015-11-15T09:23:42Z</time>
      </trkpt>
      <trkpt lat="45.78502" lon="5.3593">
        <ele>309.8</ele>
        <time>2015-11-15T09:23:44Z</time>
      </trkpt>
      <trkpt lat="45.78502" lon="5.35928">
        <ele>309.7</ele>
        <time>2015-11-15T09:23:46Z</time>
      </trkpt>
      <trkpt lat="45.78502" lon="5.35926">
        <ele>309.6</ele>
        <time>2015-11-15T09:23:48Z</time>
      </trkpt>
      <trkpt lat="45.78503" lon="5.35922">
        <ele>309.4</ele>
        <time>2015-11-15T09:23:55Z</time>
      </trkpt>
      <trkpt lat="45.78504" lon="5.35919">
        <ele>309.2</ele>
        <time>2015-11-15T09:23:57Z</time>
      </trkpt>
      <trkpt lat="45.78507" lon="5.3591">
        <ele>308.8</ele>
        <time>2015-11-15T09:25:04Z</time>
      </trkpt>
      <trkpt lat="45.78513" lon="5.359">
        <ele>308.4</ele>
        <time>2015-11-15T09:25:06Z</time>
      </trkpt>
      <trkpt lat="45.78516" lon="5.35896">
        <ele>308.2</ele>
        <time>2015-11-15T09:25:08Z</time>
      </trkpt>
      <trkpt lat="45.78518" lon="5.3589">
        <ele>308.2</ele>
        <time>2015-11-15T09:25:10Z</time>
      </trkpt>
      <trkpt lat="45.7852" lon="5.35887">
        <ele>308.2</ele>
        <time>2015-11-15T09:25:12Z</time>
      </trkpt>
      <trkpt lat="45.78523" lon="5.35882">
        <ele>308.1</ele>
        <time>2015-11-15T09:25:14Z</time>
      </trkpt>
      <trkpt lat="45.78523" lon="5.35877">
        <ele>308.1</ele>
        <time>2015-11-15T09:25:16Z</time>
      </trkpt>
      <trkpt lat="45.78522" lon="5.35874">
        <ele>308.1</ele>
        <time>2015-11-15T09:25:18Z</time>
      </trkpt>
      <trkpt lat="45.78522" lon="5.35872">
        <ele>308.2</ele>
        <time>2015-11-15T09:25:20Z</time>
      </trkpt>
      <trkpt lat="45.78523" lon="5.35868">
        <ele>308.2</ele>
        <time>2015-11-15T09:25:22Z</time>
      </trkpt>
      <trkpt lat="45.78526" lon="5.35863">
        <ele>308</ele>
        <time>2015-11-15T09:25:24Z</time>
      </trkpt>
      <trkpt lat="45.7853" lon="5.35864">
        <ele>307.9</ele>
        <time>2015-11-15T09:25:26Z</time>
      </trkpt>
      <trkpt lat="45.78534" lon="5.35862">
        <ele>307.8</ele>
        <time>2015-11-15T09:25:28Z</time>
      </trkpt>
      <trkpt lat="45.78539" lon="5.35858">
        <ele>307.5</ele>
        <time>2015-11-15T09:25:30Z</time>
      </trkpt>
      <trkpt lat="45.78545" lon="5.35854">
        <ele>307.3</ele>
        <time>2015-11-15T09:25:32Z</time>
      </trkpt>
      <trkpt lat="45.78552" lon="5.35852">
        <ele>307.2</ele>
        <time>2015-11-15T09:25:34Z</time>
      </trkpt>
      <trkpt lat="45.78559" lon="5.35849">
        <ele>306.9</ele>
        <time>2015-11-15T09:25:36Z</time>
      </trkpt>
      <trkpt lat="45.78565" lon="5.35848">
        <ele>306.8</ele>
        <time>2015-11-15T09:25:38Z</time>
      </trkpt>
      <trkpt lat="45.78571" lon="5.35845">
        <ele>306.6</ele>
        <time>2015-11-15T09:25:40Z</time>
      </trkpt>
      <trkpt lat="45.78578" lon="5.35841">
        <ele>306.3</ele>
        <time>2015-11-15T09:25:42Z</time>
      </trkpt>
      <trkpt lat="45.78585" lon="5.35838">
        <ele>306</ele>
        <time>2015-11-15T09:25:44Z</time>
      </trkpt>
      <trkpt lat="45.78587" lon="5.35832">
        <ele>305.8</ele>
        <time>2015-11-15T09:25:46Z</time>
      </trkpt>
      <trkpt lat="45.78588" lon="5.35827">
        <ele>305.6</ele>
        <time>2015-11-15T09:25:48Z</time>
      </trkpt>
      <trkpt lat="45.78589" lon="5.35823">
        <ele>305.5</ele>
        <time>2015-11-15T09:25:50Z</time>
      </trkpt>
      <trkpt lat="45.78589" lon="5.35817">
        <ele>305.1</ele>
        <time>2015-11-15T09:25:52Z</time>
      </trkpt>
      <trkpt lat="45.78592" lon="5.3581">
        <ele>304.3</ele>
        <time>2015-11-15T09:25:54Z</time>
      </trkpt>
      <trkpt lat="45.78593" lon="5.35804">
        <ele>303.5</ele>
        <time>2015-11-15T09:25:56Z</time>
      </trkpt>
      <trkpt lat="45.78595" lon="5.358">
        <ele>303.2</ele>
        <time>2015-11-15T09:26:02Z</time>
      </trkpt>
      <trkpt lat="45.78595" lon="5.35796">
        <ele>303</ele>
        <time>2015-11-15T09:26:04Z</time>
      </trkpt>
      <trkpt lat="45.78594" lon="5.35792">
        <ele>302.8</ele>
        <time>2015-11-15T09:26:08Z</time>
      </trkpt>
      <trkpt lat="45.78593" lon="5.35789">
        <ele>302.7</ele>
        <time>2015-11-15T09:26:10Z</time>
      </trkpt>
      <trkpt lat="45.78592" lon="5.35784">
        <ele>302.6</ele>
        <time>2015-11-15T09:26:12Z</time>
      </trkpt>
      <trkpt lat="45.78591" lon="5.35782">
        <ele>302.5</ele>
        <time>2015-11-15T09:26:14Z</time>
      </trkpt>
      <trkpt lat="45.78585" lon="5.35778">
        <ele>302.7</ele>
        <time>2015-11-15T09:27:50Z</time>
      </trkpt>
      <trkpt lat="45.78582" lon="5.35777">
        <ele>303</ele>
        <time>2015-11-15T09:27:52Z</time>
      </trkpt>
      <trkpt lat="45.78579" lon="5.35776">
        <ele>303</ele>
        <time>2015-11-15T09:27:54Z</time>
      </trkpt>
      <trkpt lat="45.78576" lon="5.35774">
        <ele>303</ele>
        <time>2015-11-15T09:27:56Z</time>
      </trkpt>
      <trkpt lat="45.78572" lon="5.35772">
        <ele>303</ele>
        <time>2015-11-15T09:27:58Z</time>
      </trkpt>
      <trkpt lat="45.78567" lon="5.35771">
        <ele>303</ele>
        <time>2015-11-15T09:28:00Z</time>
      </trkpt>
      <trkpt lat="45.78561" lon="5.35769">
        <ele>303</ele>
        <time>2015-11-15T09:28:02Z</time>
      </trkpt>
      <trkpt lat="45.78556" lon="5.35766">
        <ele>303</ele>
        <time>2015-11-15T09:28:04Z</time>
      </trkpt>
      <trkpt lat="45.78552" lon="5.35765">
        <ele>303</ele>
        <time>2015-11-15T09:28:06Z</time>
      </trkpt>
      <trkpt lat="45.78548" lon="5.35763">
        <ele>303.1</ele>
        <time>2015-11-15T09:28:08Z</time>
      </trkpt>
      <trkpt lat="45.78547" lon="5.35757">
        <ele>303.2</ele>
        <time>2015-11-15T09:28:10Z</time>
      </trkpt>
      <trkpt lat="45.78552" lon="5.35752">
        <ele>303.2</ele>
        <time>2015-11-15T09:28:12Z</time>
      </trkpt>
      <trkpt lat="45.78557" lon="5.3575">
        <ele>303.3</ele>
        <time>2015-11-15T09:28:14Z</time>
      </trkpt>
      <trkpt lat="45.78562" lon="5.35747">
        <ele>303.4</ele>
        <time>2015-11-15T09:28:16Z</time>
      </trkpt>
      <trkpt lat="45.78567" lon="5.35743">
        <ele>303.5</ele>
        <time>2015-11-15T09:28:18Z</time>
      </trkpt>
      <trkpt lat="45.78571" lon="5.35739">
        <ele>303.6</ele>
        <time>2015-11-15T09:28:20Z</time>
      </trkpt>
      <trkpt lat="45.78576" lon="5.35735">
        <ele>303.8</ele>
        <time>2015-11-15T09:28:22Z</time>
      </trkpt>
      <trkpt lat="45.78581" lon="5.35731">
        <ele>304</ele>
        <time>2015-11-15T09:28:24Z</time>
      </trkpt>
      <trkpt lat="45.78587" lon="5.35728">
        <ele>304.4</ele>
        <time>2015-11-15T09:28:26Z</time>
      </trkpt>
      <trkpt lat="45.78592" lon="5.35725">
        <ele>304.7</ele>
        <time>2015-11-15T09:28:28Z</time>
      </trkpt>
      <trkpt lat="45.78598" lon="5.35724">
        <ele>304.9</ele>
        <time>2015-11-15T09:28:30Z</time>
      </trkpt>
      <trkpt lat="45.78604" lon="5.35721">
        <ele>305.1</ele>
        <time>2015-11-15T09:28:32Z</time>
      </trkpt>
      <trkpt lat="45.7861" lon="5.35717">
        <ele>305.2</ele>
        <time>2015-11-15T09:28:34Z</time>
      </trkpt>
      <trkpt lat="45.78615" lon="5.35712">
        <ele>305.4</ele>
        <time>2015-11-15T09:28:36Z</time>
      </trkpt>
      <trkpt lat="45.78619" lon="5.35706">
        <ele>305.5</ele>
        <time>2015-11-15T09:28:38Z</time>
      </trkpt>
      <trkpt lat="45.78624" lon="5.35701">
        <ele>305.7</ele>
        <time>2015-11-15T09:28:40Z</time>
      </trkpt>
      <trkpt lat="45.78629" lon="5.35694">
        <ele>305.9</ele>
        <time>2015-11-15T09:28:42Z</time>
      </trkpt>
      <trkpt lat="45.78632" lon="5.35687">
        <ele>306.2</ele>
        <time>2015-11-15T09:28:44Z</time>
      </trkpt>
      <trkpt lat="45.78635" lon="5.35679">
        <ele>306.8</ele>
        <time>2015-11-15T09:28:46Z</time>
      </trkpt>
      <trkpt lat="45.78638" lon="5.35671">
        <ele>307.3</ele>
        <time>2015-11-15T09:28:48Z</time>
      </trkpt>
      <trkpt lat="45.7864" lon="5.35665">
        <ele>307.6</ele>
        <time>2015-11-15T09:28:50Z</time>
      </trkpt>
      <trkpt lat="45.78644" lon="5.35658">
        <ele>307.8</ele>
        <time>2015-11-15T09:28:52Z</time>
      </trkpt>
      <trkpt lat="45.78647" lon="5.35651">
        <ele>308.1</ele>
        <time>2015-11-15T09:28:54Z</time>
      </trkpt>
      <trkpt lat="45.78651" lon="5.35644">
        <ele>308.6</ele>
        <time>2015-11-15T09:28:56Z</time>
      </trkpt>
      <trkpt lat="45.78654" lon="5.35638">
        <ele>309.1</ele>
        <time>2015-11-15T09:28:58Z</time>
      </trkpt>
      <trkpt lat="45.78658" lon="5.35633">
        <ele>309.4</ele>
        <time>2015-11-15T09:29:00Z</time>
      </trkpt>
      <trkpt lat="45.78662" lon="5.35627">
        <ele>309.6</ele>
        <time>2015-11-15T09:29:02Z</time>
      </trkpt>
      <trkpt lat="45.78665" lon="5.35622">
        <ele>309.9</ele>
        <time>2015-11-15T09:29:04Z</time>
      </trkpt>
      <trkpt lat="45.78668" lon="5.35617">
        <ele>310.1</ele>
        <time>2015-11-15T09:29:06Z</time>
      </trkpt>
      <trkpt lat="45.78671" lon="5.35612">
        <ele>310.4</ele>
        <time>2015-11-15T09:29:08Z</time>
      </trkpt>
      <trkpt lat="45.78673" lon="5.35607">
        <ele>311.1</ele>
        <time>2015-11-15T09:29:10Z</time>
      </trkpt>
      <trkpt lat="45.78675" lon="5.35602">
        <ele>311.4</ele>
        <time>2015-11-15T09:29:12Z</time>
      </trkpt>
      <trkpt lat="45.78677" lon="5.35597">
        <ele>311.7</ele>
        <time>2015-11-15T09:29:14Z</time>
      </trkpt>
      <trkpt lat="45.78679" lon="5.35591">
        <ele>312</ele>
        <time>2015-11-15T09:29:16Z</time>
      </trkpt>
      <trkpt lat="45.78679" lon="5.35586">
        <ele>312.9</ele>
        <time>2015-11-15T09:29:18Z</time>
      </trkpt>
      <trkpt lat="45.78679" lon="5.35581">
        <ele>313.3</ele>
        <time>2015-11-15T09:29:20Z</time>
      </trkpt>
      <trkpt lat="45.78679" lon="5.35576">
        <ele>313.5</ele>
        <time>2015-11-15T09:29:22Z</time>
      </trkpt>
      <trkpt lat="45.78679" lon="5.35572">
        <ele>313.7</ele>
        <time>2015-11-15T09:29:24Z</time>
      </trkpt>
      <trkpt lat="45.78677" lon="5.35567">
        <ele>314</ele>
        <time>2015-11-15T09:29:26Z</time>
      </trkpt>
      <trkpt lat="45.78676" lon="5.35561">
        <ele>314.3</ele>
        <time>2015-11-15T09:29:28Z</time>
      </trkpt>
      <trkpt lat="45.78674" lon="5.35555">
        <ele>314.8</ele>
        <time>2015-11-15T09:29:30Z</time>
      </trkpt>
      <trkpt lat="45.78673" lon="5.35549">
        <ele>315.4</ele>
        <time>2015-11-15T09:29:32Z</time>
      </trkpt>
      <trkpt lat="45.78672" lon="5.35542">
        <ele>315.6</ele>
        <time>2015-11-15T09:29:34Z</time>
      </trkpt>
      <trkpt lat="45.78671" lon="5.35536">
        <ele>315.9</ele>
        <time>2015-11-15T09:29:36Z</time>
      </trkpt>
      <trkpt lat="45.78669" lon="5.35529">
        <ele>316.1</ele>
        <time>2015-11-15T09:29:38Z</time>
      </trkpt>
      <trkpt lat="45.78667" lon="5.35522">
        <ele>316.2</ele>
        <time>2015-11-15T09:29:40Z</time>
      </trkpt>
      <trkpt lat="45.78665" lon="5.35514">
        <ele>316.3</ele>
        <time>2015-11-15T09:29:42Z</time>
      </trkpt>
      <trkpt lat="45.78663" lon="5.35507">
        <ele>316.3</ele>
        <time>2015-11-15T09:29:44Z</time>
      </trkpt>
      <trkpt lat="45.78661" lon="5.355">
        <ele>316.3</ele>
        <time>2015-11-15T09:29:46Z</time>
      </trkpt>
      <trkpt lat="45.78659" lon="5.35493">
        <ele>316.4</ele>
        <time>2015-11-15T09:29:48Z</time>
      </trkpt>
      <trkpt lat="45.78657" lon="5.35485">
        <ele>316.4</ele>
        <time>2015-11-15T09:29:50Z</time>
      </trkpt>
      <trkpt lat="45.78655" lon="5.35477">
        <ele>316.4</ele>
        <time>2015-11-15T09:29:52Z</time>
      </trkpt>
      <trkpt lat="45.78652" lon="5.35469">
        <ele>316.4</ele>
        <time>2015-11-15T09:29:54Z</time>
      </trkpt>
      <trkpt lat="45.78648" lon="5.3546">
        <ele>316.4</ele>
        <time>2015-11-15T09:29:56Z</time>
      </trkpt>
      <trkpt lat="45.78645" lon="5.35451">
        <ele>316.4</ele>
        <time>2015-11-15T09:29:58Z</time>
      </trkpt>
      <trkpt lat="45.78643" lon="5.35443">
        <ele>316.5</ele>
        <time>2015-11-15T09:30:00Z</time>
      </trkpt>
      <trkpt lat="45.7864" lon="5.35435">
        <ele>316.6</ele>
        <time>2015-11-15T09:30:02Z</time>
      </trkpt>
      <trkpt lat="45.78637" lon="5.35427">
        <ele>316.7</ele>
        <time>2015-11-15T09:30:04Z</time>
      </trkpt>
      <trkpt lat="45.78635" lon="5.3542">
        <ele>317</ele>
        <time>2015-11-15T09:30:06Z</time>
      </trkpt>
      <trkpt lat="45.78632" lon="5.35415">
        <ele>317.4</ele>
        <time>2015-11-15T09:30:08Z</time>
      </trkpt>
      <trkpt lat="45.7863" lon="5.35408">
        <ele>317.8</ele>
        <time>2015-11-15T09:30:10Z</time>
      </trkpt>
      <trkpt lat="45.78628" lon="5.35401">
        <ele>318.3</ele>
        <time>2015-11-15T09:30:12Z</time>
      </trkpt>
      <trkpt lat="45.78626" lon="5.35394">
        <ele>318.6</ele>
        <time>2015-11-15T09:30:14Z</time>
      </trkpt>
      <trkpt lat="45.78623" lon="5.35387">
        <ele>318.9</ele>
        <time>2015-11-15T09:30:16Z</time>
      </trkpt>
      <trkpt lat="45.78621" lon="5.3538">
        <ele>319.3</ele>
        <time>2015-11-15T09:30:18Z</time>
      </trkpt>
      <trkpt lat="45.78619" lon="5.35374">
        <ele>319.7</ele>
        <time>2015-11-15T09:30:20Z</time>
      </trkpt>
      <trkpt lat="45.78618" lon="5.35367">
        <ele>320</ele>
        <time>2015-11-15T09:30:22Z</time>
      </trkpt>
      <trkpt lat="45.78618" lon="5.3536">
        <ele>320.2</ele>
        <time>2015-11-15T09:30:24Z</time>
      </trkpt>
      <trkpt lat="45.78619" lon="5.35354">
        <ele>320.5</ele>
        <time>2015-11-15T09:30:26Z</time>
      </trkpt>
      <trkpt lat="45.78623" lon="5.35349">
        <ele>320.7</ele>
        <time>2015-11-15T09:30:28Z</time>
      </trkpt>
      <trkpt lat="45.78626" lon="5.35342">
        <ele>320.9</ele>
        <time>2015-11-15T09:30:30Z</time>
      </trkpt>
      <trkpt lat="45.78628" lon="5.35337">
        <ele>321.1</ele>
        <time>2015-11-15T09:30:32Z</time>
      </trkpt>
      <trkpt lat="45.7863" lon="5.35331">
        <ele>321.4</ele>
        <time>2015-11-15T09:30:34Z</time>
      </trkpt>
      <trkpt lat="45.78633" lon="5.35325">
        <ele>321.9</ele>
        <time>2015-11-15T09:30:36Z</time>
      </trkpt>
      <trkpt lat="45.78636" lon="5.35319">
        <ele>322.4</ele>
        <time>2015-11-15T09:30:38Z</time>
      </trkpt>
      <trkpt lat="45.78639" lon="5.35312">
        <ele>322.6</ele>
        <time>2015-11-15T09:30:40Z</time>
      </trkpt>
      <trkpt lat="45.78642" lon="5.35306">
        <ele>322.9</ele>
        <time>2015-11-15T09:30:42Z</time>
      </trkpt>
      <trkpt lat="45.78645" lon="5.353">
        <ele>323.2</ele>
        <time>2015-11-15T09:30:44Z</time>
      </trkpt>
      <trkpt lat="45.78647" lon="5.35294">
        <ele>323.7</ele>
        <time>2015-11-15T09:30:46Z</time>
      </trkpt>
      <trkpt lat="45.7865" lon="5.35288">
        <ele>324.1</ele>
        <time>2015-11-15T09:30:48Z</time>
      </trkpt>
      <trkpt lat="45.78652" lon="5.35281">
        <ele>324.5</ele>
        <time>2015-11-15T09:30:50Z</time>
      </trkpt>
      <trkpt lat="45.78655" lon="5.35275">
        <ele>325</ele>
        <time>2015-11-15T09:30:52Z</time>
      </trkpt>
      <trkpt lat="45.78657" lon="5.35268">
        <ele>325.5</ele>
        <time>2015-11-15T09:30:54Z</time>
      </trkpt>
      <trkpt lat="45.78659" lon="5.35262">
        <ele>326.1</ele>
        <time>2015-11-15T09:30:56Z</time>
      </trkpt>
      <trkpt lat="45.78662" lon="5.35256">
        <ele>326.8</ele>
        <time>2015-11-15T09:30:58Z</time>
      </trkpt>
      <trkpt lat="45.78664" lon="5.3525">
        <ele>327.5</ele>
        <time>2015-11-15T09:31:00Z</time>
      </trkpt>
      <trkpt lat="45.78666" lon="5.35244">
        <ele>328.1</ele>
        <time>2015-11-15T09:31:02Z</time>
      </trkpt>
      <trkpt lat="45.78668" lon="5.35238">
        <ele>328.8</ele>
        <time>2015-11-15T09:31:04Z</time>
      </trkpt>
      <trkpt lat="45.78671" lon="5.35232">
        <ele>329.3</ele>
        <time>2015-11-15T09:31:06Z</time>
      </trkpt>
      <trkpt lat="45.78673" lon="5.35226">
        <ele>329.8</ele>
        <time>2015-11-15T09:31:08Z</time>
      </trkpt>
      <trkpt lat="45.78676" lon="5.3522">
        <ele>330.3</ele>
        <time>2015-11-15T09:31:10Z</time>
      </trkpt>
      <trkpt lat="45.78678" lon="5.35215">
        <ele>330.8</ele>
        <time>2015-11-15T09:31:12Z</time>
      </trkpt>
      <trkpt lat="45.7868" lon="5.35209">
        <ele>331.2</ele>
        <time>2015-11-15T09:31:14Z</time>
      </trkpt>
      <trkpt lat="45.78683" lon="5.35203">
        <ele>331.6</ele>
        <time>2015-11-15T09:31:16Z</time>
      </trkpt>
      <trkpt lat="45.78685" lon="5.35196">
        <ele>331.9</ele>
        <time>2015-11-15T09:31:18Z</time>
      </trkpt>
      <trkpt lat="45.78688" lon="5.3519">
        <ele>332.3</ele>
        <time>2015-11-15T09:31:20Z</time>
      </trkpt>
      <trkpt lat="45.78691" lon="5.35184">
        <ele>332.6</ele>
        <time>2015-11-15T09:31:22Z</time>
      </trkpt>
      <trkpt lat="45.78693" lon="5.35178">
        <ele>332.9</ele>
        <time>2015-11-15T09:31:24Z</time>
      </trkpt>
      <trkpt lat="45.78696" lon="5.35172">
        <ele>333.2</ele>
        <time>2015-11-15T09:31:26Z</time>
      </trkpt>
      <trkpt lat="45.78698" lon="5.35166">
        <ele>333.3</ele>
        <time>2015-11-15T09:31:28Z</time>
      </trkpt>
      <trkpt lat="45.78701" lon="5.3516">
        <ele>333.5</ele>
        <time>2015-11-15T09:31:30Z</time>
      </trkpt>
      <trkpt lat="45.78704" lon="5.35155">
        <ele>333.5</ele>
        <time>2015-11-15T09:31:32Z</time>
      </trkpt>
      <trkpt lat="45.78707" lon="5.3515">
        <ele>333.6</ele>
        <time>2015-11-15T09:31:34Z</time>
      </trkpt>
      <trkpt lat="45.7871" lon="5.35144">
        <ele>333.7</ele>
        <time>2015-11-15T09:31:36Z</time>
      </trkpt>
      <trkpt lat="45.78713" lon="5.35138">
        <ele>333.7</ele>
        <time>2015-11-15T09:31:38Z</time>
      </trkpt>
      <trkpt lat="45.78716" lon="5.35132">
        <ele>333.7</ele>
        <time>2015-11-15T09:31:40Z</time>
      </trkpt>
      <trkpt lat="45.78719" lon="5.35126">
        <ele>333.7</ele>
        <time>2015-11-15T09:31:42Z</time>
      </trkpt>
      <trkpt lat="45.78722" lon="5.35119">
        <ele>333.8</ele>
        <time>2015-11-15T09:31:44Z</time>
      </trkpt>
      <trkpt lat="45.78724" lon="5.35112">
        <ele>333.8</ele>
        <time>2015-11-15T09:31:46Z</time>
      </trkpt>
      <trkpt lat="45.78727" lon="5.35105">
        <ele>333.8</ele>
        <time>2015-11-15T09:31:48Z</time>
      </trkpt>
      <trkpt lat="45.7873" lon="5.35097">
        <ele>333.9</ele>
        <time>2015-11-15T09:31:50Z</time>
      </trkpt>
      <trkpt lat="45.78732" lon="5.35089">
        <ele>333.9</ele>
        <time>2015-11-15T09:31:52Z</time>
      </trkpt>
      <trkpt lat="45.78735" lon="5.3508">
        <ele>334</ele>
        <time>2015-11-15T09:31:54Z</time>
      </trkpt>
      <trkpt lat="45.78738" lon="5.35072">
        <ele>334.2</ele>
        <time>2015-11-15T09:31:56Z</time>
      </trkpt>
      <trkpt lat="45.7874" lon="5.35063">
        <ele>334.4</ele>
        <time>2015-11-15T09:31:58Z</time>
      </trkpt>
      <trkpt lat="45.78743" lon="5.35055">
        <ele>334.8</ele>
        <time>2015-11-15T09:32:00Z</time>
      </trkpt>
      <trkpt lat="45.78746" lon="5.35047">
        <ele>335.2</ele>
        <time>2015-11-15T09:32:02Z</time>
      </trkpt>
      <trkpt lat="45.78748" lon="5.35039">
        <ele>335.3</ele>
        <time>2015-11-15T09:32:04Z</time>
      </trkpt>
      <trkpt lat="45.78751" lon="5.35031">
        <ele>335.5</ele>
        <time>2015-11-15T09:32:06Z</time>
      </trkpt>
      <trkpt lat="45.78754" lon="5.35022">
        <ele>335.6</ele>
        <time>2015-11-15T09:32:08Z</time>
      </trkpt>
      <trkpt lat="45.78756" lon="5.35014">
        <ele>335.8</ele>
        <time>2015-11-15T09:32:10Z</time>
      </trkpt>
      <trkpt lat="45.78759" lon="5.35006">
        <ele>335.9</ele>
        <time>2015-11-15T09:32:12Z</time>
      </trkpt>
      <trkpt lat="45.78761" lon="5.34997">
        <ele>336</ele>
        <time>2015-11-15T09:32:14Z</time>
      </trkpt>
      <trkpt lat="45.78764" lon="5.34989">
        <ele>336.3</ele>
        <time>2015-11-15T09:32:16Z</time>
      </trkpt>
      <trkpt lat="45.78767" lon="5.34981">
        <ele>336.7</ele>
        <time>2015-11-15T09:32:18Z</time>
      </trkpt>
      <trkpt lat="45.78769" lon="5.34972">
        <ele>337.2</ele>
        <time>2015-11-15T09:32:20Z</time>
      </trkpt>
      <trkpt lat="45.78771" lon="5.34963">
        <ele>337.5</ele>
        <time>2015-11-15T09:32:22Z</time>
      </trkpt>
      <trkpt lat="45.78774" lon="5.34955">
        <ele>337.8</ele>
        <time>2015-11-15T09:32:24Z</time>
      </trkpt>
      <trkpt lat="45.78777" lon="5.34946">
        <ele>338.1</ele>
        <time>2015-11-15T09:32:26Z</time>
      </trkpt>
      <trkpt lat="45.7878" lon="5.34938">
        <ele>338.5</ele>
        <time>2015-11-15T09:32:28Z</time>
      </trkpt>
      <trkpt lat="45.78784" lon="5.3493">
        <ele>338.9</ele>
        <time>2015-11-15T09:32:30Z</time>
      </trkpt>
      <trkpt lat="45.78788" lon="5.34923">
        <ele>339.3</ele>
        <time>2015-11-15T09:32:32Z</time>
      </trkpt>
      <trkpt lat="45.78792" lon="5.34916">
        <ele>339.4</ele>
        <time>2015-11-15T09:32:34Z</time>
      </trkpt>
      <trkpt lat="45.78796" lon="5.34908">
        <ele>339.6</ele>
        <time>2015-11-15T09:32:36Z</time>
      </trkpt>
      <trkpt lat="45.788" lon="5.34901">
        <ele>339.7</ele>
        <time>2015-11-15T09:32:38Z</time>
      </trkpt>
      <trkpt lat="45.78804" lon="5.34893">
        <ele>339.8</ele>
        <time>2015-11-15T09:32:40Z</time>
      </trkpt>
      <trkpt lat="45.78809" lon="5.34885">
        <ele>339.8</ele>
        <time>2015-11-15T09:32:42Z</time>
      </trkpt>
      <trkpt lat="45.78813" lon="5.34877">
        <ele>339.9</ele>
        <time>2015-11-15T09:32:44Z</time>
      </trkpt>
      <trkpt lat="45.78817" lon="5.34869">
        <ele>339.9</ele>
        <time>2015-11-15T09:32:46Z</time>
      </trkpt>
      <trkpt lat="45.78822" lon="5.3486">
        <ele>339.9</ele>
        <time>2015-11-15T09:32:48Z</time>
      </trkpt>
      <trkpt lat="45.78826" lon="5.34851">
        <ele>340</ele>
        <time>2015-11-15T09:32:50Z</time>
      </trkpt>
      <trkpt lat="45.7883" lon="5.34843">
        <ele>340</ele>
        <time>2015-11-15T09:32:52Z</time>
      </trkpt>
      <trkpt lat="45.78834" lon="5.34835">
        <ele>340</ele>
        <time>2015-11-15T09:32:54Z</time>
      </trkpt>
      <trkpt lat="45.78839" lon="5.34827">
        <ele>340</ele>
        <time>2015-11-15T09:32:56Z</time>
      </trkpt>
      <trkpt lat="45.78843" lon="5.34819">
        <ele>340</ele>
        <time>2015-11-15T09:32:58Z</time>
      </trkpt>
      <trkpt lat="45.78848" lon="5.3481">
        <ele>340.1</ele>
        <time>2015-11-15T09:33:00Z</time>
      </trkpt>
      <trkpt lat="45.78853" lon="5.34801">
        <ele>340.2</ele>
        <time>2015-11-15T09:33:02Z</time>
      </trkpt>
      <trkpt lat="45.78857" lon="5.34791">
        <ele>340.4</ele>
        <time>2015-11-15T09:33:04Z</time>
      </trkpt>
      <trkpt lat="45.78862" lon="5.34782">
        <ele>340.6</ele>
        <time>2015-11-15T09:33:06Z</time>
      </trkpt>
      <trkpt lat="45.78866" lon="5.34771">
        <ele>340.9</ele>
        <time>2015-11-15T09:33:08Z</time>
      </trkpt>
      <trkpt lat="45.78871" lon="5.34762">
        <ele>341.3</ele>
        <time>2015-11-15T09:33:10Z</time>
      </trkpt>
      <trkpt lat="45.78875" lon="5.34752">
        <ele>341.5</ele>
        <time>2015-11-15T09:33:12Z</time>
      </trkpt>
      <trkpt lat="45.7888" lon="5.34743">
        <ele>341.9</ele>
        <time>2015-11-15T09:33:14Z</time>
      </trkpt>
      <trkpt lat="45.78885" lon="5.34733">
        <ele>342.4</ele>
        <time>2015-11-15T09:33:16Z</time>
      </trkpt>
      <trkpt lat="45.7889" lon="5.34722">
        <ele>342.7</ele>
        <time>2015-11-15T09:33:18Z</time>
      </trkpt>
      <trkpt lat="45.78895" lon="5.34712">
        <ele>342.9</ele>
        <time>2015-11-15T09:33:20Z</time>
      </trkpt>
      <trkpt lat="45.789" lon="5.34702">
        <ele>343.1</ele>
        <time>2015-11-15T09:33:22Z</time>
      </trkpt>
      <trkpt lat="45.78904" lon="5.34693">
        <ele>343.3</ele>
        <time>2015-11-15T09:33:24Z</time>
      </trkpt>
      <trkpt lat="45.78909" lon="5.34683">
        <ele>343.5</ele>
        <time>2015-11-15T09:33:26Z</time>
      </trkpt>
      <trkpt lat="45.78913" lon="5.34673">
        <ele>343.5</ele>
        <time>2015-11-15T09:33:28Z</time>
      </trkpt>
      <trkpt lat="45.78918" lon="5.34662">
        <ele>343.8</ele>
        <time>2015-11-15T09:33:30Z</time>
      </trkpt>
      <trkpt lat="45.78922" lon="5.34652">
        <ele>343.9</ele>
        <time>2015-11-15T09:33:32Z</time>
      </trkpt>
      <trkpt lat="45.78925" lon="5.34641">
        <ele>344</ele>
        <time>2015-11-15T09:33:34Z</time>
      </trkpt>
      <trkpt lat="45.78929" lon="5.34631">
        <ele>343.9</ele>
        <time>2015-11-15T09:33:36Z</time>
      </trkpt>
      <trkpt lat="45.78933" lon="5.3462">
        <ele>344</ele>
        <time>2015-11-15T09:33:38Z</time>
      </trkpt>
      <trkpt lat="45.78936" lon="5.34608">
        <ele>344.2</ele>
        <time>2015-11-15T09:33:40Z</time>
      </trkpt>
      <trkpt lat="45.7894" lon="5.34598">
        <ele>344.5</ele>
        <time>2015-11-15T09:33:42Z</time>
      </trkpt>
      <trkpt lat="45.78945" lon="5.34588">
        <ele>344.7</ele>
        <time>2015-11-15T09:33:44Z</time>
      </trkpt>
      <trkpt lat="45.78949" lon="5.34578">
        <ele>344.7</ele>
        <time>2015-11-15T09:33:46Z</time>
      </trkpt>
      <trkpt lat="45.78953" lon="5.34568">
        <ele>345.1</ele>
        <time>2015-11-15T09:33:48Z</time>
      </trkpt>
      <trkpt lat="45.78956" lon="5.34558">
        <ele>345.2</ele>
        <time>2015-11-15T09:33:50Z</time>
      </trkpt>
      <trkpt lat="45.78959" lon="5.34548">
        <ele>345.3</ele>
        <time>2015-11-15T09:33:52Z</time>
      </trkpt>
      <trkpt lat="45.78962" lon="5.34537">
        <ele>345.3</ele>
        <time>2015-11-15T09:33:54Z</time>
      </trkpt>
      <trkpt lat="45.78965" lon="5.34526">
        <ele>345.3</ele>
        <time>2015-11-15T09:33:56Z</time>
      </trkpt>
      <trkpt lat="45.78968" lon="5.34515">
        <ele>345.4</ele>
        <time>2015-11-15T09:33:58Z</time>
      </trkpt>
      <trkpt lat="45.7897" lon="5.34503">
        <ele>345.6</ele>
        <time>2015-11-15T09:34:00Z</time>
      </trkpt>
      <trkpt lat="45.78972" lon="5.34491">
        <ele>345.6</ele>
        <time>2015-11-15T09:34:02Z</time>
      </trkpt>
      <trkpt lat="45.78972" lon="5.34479">
        <ele>345.6</ele>
        <time>2015-11-15T09:34:04Z</time>
      </trkpt>
      <trkpt lat="45.78973" lon="5.34466">
        <ele>346</ele>
        <time>2015-11-15T09:34:06Z</time>
      </trkpt>
      <trkpt lat="45.78972" lon="5.34454">
        <ele>346.4</ele>
        <time>2015-11-15T09:34:08Z</time>
      </trkpt>
      <trkpt lat="45.78973" lon="5.34441">
        <ele>346.8</ele>
        <time>2015-11-15T09:34:10Z</time>
      </trkpt>
      <trkpt lat="45.78972" lon="5.34429">
        <ele>346.7</ele>
        <time>2015-11-15T09:34:12Z</time>
      </trkpt>
      <trkpt lat="45.78972" lon="5.34417">
        <ele>346.7</ele>
        <time>2015-11-15T09:34:14Z</time>
      </trkpt>
      <trkpt lat="45.78971" lon="5.34405">
        <ele>346.6</ele>
        <time>2015-11-15T09:34:16Z</time>
      </trkpt>
      <trkpt lat="45.7897" lon="5.34393">
        <ele>346.6</ele>
        <time>2015-11-15T09:34:18Z</time>
      </trkpt>
      <trkpt lat="45.7897" lon="5.3438">
        <ele>346.5</ele>
        <time>2015-11-15T09:34:20Z</time>
      </trkpt>
      <trkpt lat="45.7897" lon="5.34368">
        <ele>346.4</ele>
        <time>2015-11-15T09:34:22Z</time>
      </trkpt>
      <trkpt lat="45.78971" lon="5.34356">
        <ele>346.8</ele>
        <time>2015-11-15T09:34:24Z</time>
      </trkpt>
      <trkpt lat="45.78972" lon="5.34344">
        <ele>347.3</ele>
        <time>2015-11-15T09:34:26Z</time>
      </trkpt>
      <trkpt lat="45.78974" lon="5.34332">
        <ele>347.6</ele>
        <time>2015-11-15T09:34:28Z</time>
      </trkpt>
      <trkpt lat="45.78976" lon="5.3432">
        <ele>347.6</ele>
        <time>2015-11-15T09:34:30Z</time>
      </trkpt>
      <trkpt lat="45.78976" lon="5.34309">
        <ele>347.6</ele>
        <time>2015-11-15T09:34:32Z</time>
      </trkpt>
      <trkpt lat="45.78976" lon="5.34298">
        <ele>347.9</ele>
        <time>2015-11-15T09:34:34Z</time>
      </trkpt>
      <trkpt lat="45.78977" lon="5.34287">
        <ele>348</ele>
        <time>2015-11-15T09:34:36Z</time>
      </trkpt>
      <trkpt lat="45.78978" lon="5.34274">
        <ele>348.4</ele>
        <time>2015-11-15T09:34:38Z</time>
      </trkpt>
      <trkpt lat="45.78978" lon="5.34261">
        <ele>348.6</ele>
        <time>2015-11-15T09:34:40Z</time>
      </trkpt>
      <trkpt lat="45.78979" lon="5.34248">
        <ele>348.8</ele>
        <time>2015-11-15T09:34:42Z</time>
      </trkpt>
      <trkpt lat="45.78979" lon="5.34236">
        <ele>349.4</ele>
        <time>2015-11-15T09:34:44Z</time>
      </trkpt>
      <trkpt lat="45.7898" lon="5.34224">
        <ele>349.9</ele>
        <time>2015-11-15T09:34:46Z</time>
      </trkpt>
      <trkpt lat="45.78981" lon="5.34212">
        <ele>350.1</ele>
        <time>2015-11-15T09:34:48Z</time>
      </trkpt>
      <trkpt lat="45.78981" lon="5.342">
        <ele>350.1</ele>
        <time>2015-11-15T09:34:50Z</time>
      </trkpt>
      <trkpt lat="45.78982" lon="5.34187">
        <ele>350.2</ele>
        <time>2015-11-15T09:34:52Z</time>
      </trkpt>
      <trkpt lat="45.78983" lon="5.34175">
        <ele>350.5</ele>
        <time>2015-11-15T09:34:54Z</time>
      </trkpt>
      <trkpt lat="45.78985" lon="5.34164">
        <ele>350.8</ele>
        <time>2015-11-15T09:34:56Z</time>
      </trkpt>
      <trkpt lat="45.78987" lon="5.34154">
        <ele>350.9</ele>
        <time>2015-11-15T09:34:58Z</time>
      </trkpt>
      <trkpt lat="45.7899" lon="5.34144">
        <ele>351</ele>
        <time>2015-11-15T09:35:00Z</time>
      </trkpt>
      <trkpt lat="45.78997" lon="5.34138">
        <ele>351.1</ele>
        <time>2015-11-15T09:35:02Z</time>
      </trkpt>
      <trkpt lat="45.79005" lon="5.34135">
        <ele>351.5</ele>
        <time>2015-11-15T09:35:04Z</time>
      </trkpt>
      <trkpt lat="45.79012" lon="5.34133">
        <ele>351.8</ele>
        <time>2015-11-15T09:35:06Z</time>
      </trkpt>
      <trkpt lat="45.7902" lon="5.3413">
        <ele>352.4</ele>
        <time>2015-11-15T09:35:08Z</time>
      </trkpt>
      <trkpt lat="45.79026" lon="5.34127">
        <ele>352.8</ele>
        <time>2015-11-15T09:35:10Z</time>
      </trkpt>
      <trkpt lat="45.79033" lon="5.34124">
        <ele>353.2</ele>
        <time>2015-11-15T09:35:12Z</time>
      </trkpt>
      <trkpt lat="45.79041" lon="5.3412">
        <ele>353.5</ele>
        <time>2015-11-15T09:35:14Z</time>
      </trkpt>
      <trkpt lat="45.79048" lon="5.34115">
        <ele>353.7</ele>
        <time>2015-11-15T09:35:16Z</time>
      </trkpt>
      <trkpt lat="45.79055" lon="5.34111">
        <ele>353.7</ele>
        <time>2015-11-15T09:35:18Z</time>
      </trkpt>
      <trkpt lat="45.79062" lon="5.34107">
        <ele>353.6</ele>
        <time>2015-11-15T09:35:20Z</time>
      </trkpt>
      <trkpt lat="45.7907" lon="5.34103">
        <ele>353.4</ele>
        <time>2015-11-15T09:35:22Z</time>
      </trkpt>
      <trkpt lat="45.79077" lon="5.34099">
        <ele>353.4</ele>
        <time>2015-11-15T09:35:24Z</time>
      </trkpt>
      <trkpt lat="45.79084" lon="5.34094">
        <ele>353.5</ele>
        <time>2015-11-15T09:35:26Z</time>
      </trkpt>
      <trkpt lat="45.79092" lon="5.3409">
        <ele>353.7</ele>
        <time>2015-11-15T09:35:28Z</time>
      </trkpt>
      <trkpt lat="45.791" lon="5.34084">
        <ele>354.1</ele>
        <time>2015-11-15T09:35:30Z</time>
      </trkpt>
      <trkpt lat="45.79107" lon="5.34078">
        <ele>354.6</ele>
        <time>2015-11-15T09:35:32Z</time>
      </trkpt>
      <trkpt lat="45.79114" lon="5.34072">
        <ele>355</ele>
        <time>2015-11-15T09:35:34Z</time>
      </trkpt>
      <trkpt lat="45.79122" lon="5.34066">
        <ele>355</ele>
        <time>2015-11-15T09:35:36Z</time>
      </trkpt>
      <trkpt lat="45.79129" lon="5.3406">
        <ele>355</ele>
        <time>2015-11-15T09:35:38Z</time>
      </trkpt>
      <trkpt lat="45.79136" lon="5.34052">
        <ele>355.1</ele>
        <time>2015-11-15T09:35:40Z</time>
      </trkpt>
      <trkpt lat="45.7914" lon="5.34044">
        <ele>355.3</ele>
        <time>2015-11-15T09:35:42Z</time>
      </trkpt>
      <trkpt lat="45.79145" lon="5.34034">
        <ele>355.7</ele>
        <time>2015-11-15T09:35:44Z</time>
      </trkpt>
      <trkpt lat="45.79151" lon="5.34025">
        <ele>355.9</ele>
        <time>2015-11-15T09:35:46Z</time>
      </trkpt>
      <trkpt lat="45.79157" lon="5.34016">
        <ele>356.1</ele>
        <time>2015-11-15T09:35:48Z</time>
      </trkpt>
      <trkpt lat="45.79162" lon="5.34006">
        <ele>356.1</ele>
        <time>2015-11-15T09:35:50Z</time>
      </trkpt>
      <trkpt lat="45.79166" lon="5.33996">
        <ele>356.2</ele>
        <time>2015-11-15T09:35:52Z</time>
      </trkpt>
      <trkpt lat="45.79171" lon="5.33984">
        <ele>356.5</ele>
        <time>2015-11-15T09:35:54Z</time>
      </trkpt>
      <trkpt lat="45.79175" lon="5.33973">
        <ele>356.8</ele>
        <time>2015-11-15T09:35:56Z</time>
      </trkpt>
      <trkpt lat="45.79179" lon="5.33961">
        <ele>356.8</ele>
        <time>2015-11-15T09:35:58Z</time>
      </trkpt>
      <trkpt lat="45.79184" lon="5.33948">
        <ele>356.5</ele>
        <time>2015-11-15T09:36:00Z</time>
      </trkpt>
      <trkpt lat="45.7919" lon="5.33936">
        <ele>356.5</ele>
        <time>2015-11-15T09:36:02Z</time>
      </trkpt>
      <trkpt lat="45.79196" lon="5.33924">
        <ele>356.8</ele>
        <time>2015-11-15T09:36:04Z</time>
      </trkpt>
      <trkpt lat="45.79202" lon="5.33913">
        <ele>357</ele>
        <time>2015-11-15T09:36:06Z</time>
      </trkpt>
      <trkpt lat="45.79209" lon="5.33901">
        <ele>357</ele>
        <time>2015-11-15T09:36:08Z</time>
      </trkpt>
      <trkpt lat="45.79215" lon="5.33891">
        <ele>357.3</ele>
        <time>2015-11-15T09:36:10Z</time>
      </trkpt>
      <trkpt lat="45.79221" lon="5.33881">
        <ele>357.4</ele>
        <time>2015-11-15T09:36:12Z</time>
      </trkpt>
      <trkpt lat="45.79228" lon="5.33872">
        <ele>357.7</ele>
        <time>2015-11-15T09:36:14Z</time>
      </trkpt>
      <trkpt lat="45.79236" lon="5.33863">
        <ele>357.7</ele>
        <time>2015-11-15T09:36:16Z</time>
      </trkpt>
      <trkpt lat="45.79244" lon="5.33854">
        <ele>357.5</ele>
        <time>2015-11-15T09:36:18Z</time>
      </trkpt>
      <trkpt lat="45.79252" lon="5.33845">
        <ele>357</ele>
        <time>2015-11-15T09:36:20Z</time>
      </trkpt>
      <trkpt lat="45.79258" lon="5.33835">
        <ele>356.7</ele>
        <time>2015-11-15T09:36:22Z</time>
      </trkpt>
      <trkpt lat="45.79266" lon="5.33825">
        <ele>356.7</ele>
        <time>2015-11-15T09:36:24Z</time>
      </trkpt>
      <trkpt lat="45.79273" lon="5.33816">
        <ele>357</ele>
        <time>2015-11-15T09:36:26Z</time>
      </trkpt>
      <trkpt lat="45.79279" lon="5.33807">
        <ele>357.2</ele>
        <time>2015-11-15T09:36:28Z</time>
      </trkpt>
      <trkpt lat="45.79285" lon="5.33797">
        <ele>357.7</ele>
        <time>2015-11-15T09:36:30Z</time>
      </trkpt>
      <trkpt lat="45.79292" lon="5.33787">
        <ele>358.3</ele>
        <time>2015-11-15T09:36:32Z</time>
      </trkpt>
      <trkpt lat="45.79293" lon="5.33775">
        <ele>358.8</ele>
        <time>2015-11-15T09:36:34Z</time>
      </trkpt>
      <trkpt lat="45.7929" lon="5.33765">
        <ele>359.7</ele>
        <time>2015-11-15T09:36:36Z</time>
      </trkpt>
      <trkpt lat="45.79284" lon="5.3376">
        <ele>360.5</ele>
        <time>2015-11-15T09:36:38Z</time>
      </trkpt>
      <trkpt lat="45.79278" lon="5.33756">
        <ele>361.1</ele>
        <time>2015-11-15T09:36:40Z</time>
      </trkpt>
      <trkpt lat="45.79273" lon="5.33752">
        <ele>361.4</ele>
        <time>2015-11-15T09:36:42Z</time>
      </trkpt>
      <trkpt lat="45.79271" lon="5.33744">
        <ele>361.8</ele>
        <time>2015-11-15T09:36:44Z</time>
      </trkpt>
      <trkpt lat="45.79274" lon="5.33737">
        <ele>362</ele>
        <time>2015-11-15T09:36:46Z</time>
      </trkpt>
      <trkpt lat="45.7928" lon="5.33734">
        <ele>362</ele>
        <time>2015-11-15T09:36:48Z</time>
      </trkpt>
      <trkpt lat="45.79287" lon="5.3373">
        <ele>362</ele>
        <time>2015-11-15T09:36:50Z</time>
      </trkpt>
      <trkpt lat="45.79295" lon="5.33725">
        <ele>362</ele>
        <time>2015-11-15T09:36:52Z</time>
      </trkpt>
      <trkpt lat="45.79303" lon="5.33718">
        <ele>362</ele>
        <time>2015-11-15T09:36:54Z</time>
      </trkpt>
      <trkpt lat="45.79311" lon="5.3371">
        <ele>362</ele>
        <time>2015-11-15T09:36:56Z</time>
      </trkpt>
      <trkpt lat="45.79317" lon="5.33702">
        <ele>362</ele>
        <time>2015-11-15T09:36:58Z</time>
      </trkpt>
      <trkpt lat="45.79324" lon="5.33694">
        <ele>362</ele>
        <time>2015-11-15T09:37:00Z</time>
      </trkpt>
      <trkpt lat="45.7933" lon="5.33686">
        <ele>362</ele>
        <time>2015-11-15T09:37:02Z</time>
      </trkpt>
      <trkpt lat="45.79337" lon="5.33684">
        <ele>362</ele>
        <time>2015-11-15T09:37:04Z</time>
      </trkpt>
      <trkpt lat="45.79345" lon="5.33688">
        <ele>362</ele>
        <time>2015-11-15T09:37:06Z</time>
      </trkpt>
      <trkpt lat="45.79354" lon="5.33694">
        <ele>361.9</ele>
        <time>2015-11-15T09:37:08Z</time>
      </trkpt>
      <trkpt lat="45.79363" lon="5.33699">
        <ele>361.6</ele>
        <time>2015-11-15T09:37:10Z</time>
      </trkpt>
      <trkpt lat="45.79372" lon="5.33704">
        <ele>361</ele>
        <time>2015-11-15T09:37:12Z</time>
      </trkpt>
      <trkpt lat="45.79384" lon="5.33709">
        <ele>360.1</ele>
        <time>2015-11-15T09:37:14Z</time>
      </trkpt>
      <trkpt lat="45.79393" lon="5.33712">
        <ele>359.5</ele>
        <time>2015-11-15T09:37:16Z</time>
      </trkpt>
      <trkpt lat="45.79404" lon="5.33711">
        <ele>358.3</ele>
        <time>2015-11-15T09:37:18Z</time>
      </trkpt>
      <trkpt lat="45.79416" lon="5.33704">
        <ele>357.3</ele>
        <time>2015-11-15T09:37:20Z</time>
      </trkpt>
      <trkpt lat="45.79429" lon="5.33699">
        <ele>356.4</ele>
        <time>2015-11-15T09:37:22Z</time>
      </trkpt>
      <trkpt lat="45.79442" lon="5.33699">
        <ele>355.6</ele>
        <time>2015-11-15T09:37:24Z</time>
      </trkpt>
      <trkpt lat="45.79456" lon="5.33703">
        <ele>355.4</ele>
        <time>2015-11-15T09:37:26Z</time>
      </trkpt>
      <trkpt lat="45.7947" lon="5.33708">
        <ele>355.2</ele>
        <time>2015-11-15T09:37:28Z</time>
      </trkpt>
      <trkpt lat="45.79483" lon="5.33713">
        <ele>354.8</ele>
        <time>2015-11-15T09:37:30Z</time>
      </trkpt>
      <trkpt lat="45.79496" lon="5.3372">
        <ele>354.5</ele>
        <time>2015-11-15T09:37:32Z</time>
      </trkpt>
      <trkpt lat="45.79507" lon="5.33728">
        <ele>354.1</ele>
        <time>2015-11-15T09:37:34Z</time>
      </trkpt>
      <trkpt lat="45.79517" lon="5.33737">
        <ele>353.7</ele>
        <time>2015-11-15T09:37:36Z</time>
      </trkpt>
      <trkpt lat="45.79527" lon="5.33747">
        <ele>353.4</ele>
        <time>2015-11-15T09:37:38Z</time>
      </trkpt>
      <trkpt lat="45.79536" lon="5.33757">
        <ele>353</ele>
        <time>2015-11-15T09:37:40Z</time>
      </trkpt>
      <trkpt lat="45.79545" lon="5.33767">
        <ele>352.6</ele>
        <time>2015-11-15T09:37:42Z</time>
      </trkpt>
      <trkpt lat="45.79554" lon="5.33775">
        <ele>352.3</ele>
        <time>2015-11-15T09:37:44Z</time>
      </trkpt>
      <trkpt lat="45.79564" lon="5.3378">
        <ele>352.2</ele>
        <time>2015-11-15T09:37:46Z</time>
      </trkpt>
      <trkpt lat="45.79573" lon="5.33785">
        <ele>352</ele>
        <time>2015-11-15T09:37:48Z</time>
      </trkpt>
      <trkpt lat="45.79581" lon="5.33791">
        <ele>352</ele>
        <time>2015-11-15T09:37:50Z</time>
      </trkpt>
      <trkpt lat="45.79588" lon="5.33798">
        <ele>352.1</ele>
        <time>2015-11-15T09:37:52Z</time>
      </trkpt>
      <trkpt lat="45.79595" lon="5.33805">
        <ele>352.1</ele>
        <time>2015-11-15T09:37:54Z</time>
      </trkpt>
      <trkpt lat="45.79602" lon="5.33813">
        <ele>352.1</ele>
        <time>2015-11-15T09:37:56Z</time>
      </trkpt>
      <trkpt lat="45.7961" lon="5.3382">
        <ele>352.1</ele>
        <time>2015-11-15T09:37:58Z</time>
      </trkpt>
      <trkpt lat="45.79617" lon="5.33826">
        <ele>352.1</ele>
        <time>2015-11-15T09:38:00Z</time>
      </trkpt>
      <trkpt lat="45.79625" lon="5.33832">
        <ele>352.7</ele>
        <time>2015-11-15T09:38:02Z</time>
      </trkpt>
      <trkpt lat="45.79633" lon="5.33837">
        <ele>353.5</ele>
        <time>2015-11-15T09:38:04Z</time>
      </trkpt>
      <trkpt lat="45.79643" lon="5.3384">
        <ele>354.1</ele>
        <time>2015-11-15T09:38:06Z</time>
      </trkpt>
      <trkpt lat="45.79651" lon="5.33844">
        <ele>354.4</ele>
        <time>2015-11-15T09:38:08Z</time>
      </trkpt>
      <trkpt lat="45.79657" lon="5.33848">
        <ele>354.6</ele>
        <time>2015-11-15T09:38:10Z</time>
      </trkpt>
      <trkpt lat="45.79665" lon="5.33853">
        <ele>354.7</ele>
        <time>2015-11-15T09:38:12Z</time>
      </trkpt>
      <trkpt lat="45.79672" lon="5.33857">
        <ele>354.8</ele>
        <time>2015-11-15T09:38:14Z</time>
      </trkpt>
      <trkpt lat="45.79679" lon="5.3386">
        <ele>354.9</ele>
        <time>2015-11-15T09:38:16Z</time>
      </trkpt>
      <trkpt lat="45.79686" lon="5.33864">
        <ele>355</ele>
        <time>2015-11-15T09:38:18Z</time>
      </trkpt>
      <trkpt lat="45.79693" lon="5.33867">
        <ele>355</ele>
        <time>2015-11-15T09:38:20Z</time>
      </trkpt>
      <trkpt lat="45.797" lon="5.33871">
        <ele>355</ele>
        <time>2015-11-15T09:38:22Z</time>
      </trkpt>
      <trkpt lat="45.79708" lon="5.33875">
        <ele>355.1</ele>
        <time>2015-11-15T09:38:24Z</time>
      </trkpt>
      <trkpt lat="45.79716" lon="5.3388">
        <ele>355.3</ele>
        <time>2015-11-15T09:38:26Z</time>
      </trkpt>
      <trkpt lat="45.79723" lon="5.33885">
        <ele>355.5</ele>
        <time>2015-11-15T09:38:28Z</time>
      </trkpt>
      <trkpt lat="45.79732" lon="5.33889">
        <ele>355.9</ele>
        <time>2015-11-15T09:38:30Z</time>
      </trkpt>
      <trkpt lat="45.7974" lon="5.33893">
        <ele>356.2</ele>
        <time>2015-11-15T09:38:32Z</time>
      </trkpt>
      <trkpt lat="45.79748" lon="5.33898">
        <ele>356.6</ele>
        <time>2015-11-15T09:38:34Z</time>
      </trkpt>
      <trkpt lat="45.79756" lon="5.33903">
        <ele>356.9</ele>
        <time>2015-11-15T09:38:36Z</time>
      </trkpt>
      <trkpt lat="45.79764" lon="5.33908">
        <ele>357.1</ele>
        <time>2015-11-15T09:38:38Z</time>
      </trkpt>
      <trkpt lat="45.79772" lon="5.33915">
        <ele>357.5</ele>
        <time>2015-11-15T09:38:40Z</time>
      </trkpt>
      <trkpt lat="45.79779" lon="5.33923">
        <ele>357.7</ele>
        <time>2015-11-15T09:38:42Z</time>
      </trkpt>
      <trkpt lat="45.79786" lon="5.33932">
        <ele>358.1</ele>
        <time>2015-11-15T09:38:44Z</time>
      </trkpt>
      <trkpt lat="45.79794" lon="5.3394">
        <ele>358.4</ele>
        <time>2015-11-15T09:38:46Z</time>
      </trkpt>
      <trkpt lat="45.79802" lon="5.33949">
        <ele>358.5</ele>
        <time>2015-11-15T09:38:48Z</time>
      </trkpt>
      <trkpt lat="45.7981" lon="5.33957">
        <ele>358.8</ele>
        <time>2015-11-15T09:38:50Z</time>
      </trkpt>
      <trkpt lat="45.79818" lon="5.33966">
        <ele>359.2</ele>
        <time>2015-11-15T09:38:52Z</time>
      </trkpt>
      <trkpt lat="45.79826" lon="5.33973">
        <ele>359.5</ele>
        <time>2015-11-15T09:38:54Z</time>
      </trkpt>
      <trkpt lat="45.79834" lon="5.33981">
        <ele>359.5</ele>
        <time>2015-11-15T09:38:56Z</time>
      </trkpt>
      <trkpt lat="45.79842" lon="5.33988">
        <ele>359.3</ele>
        <time>2015-11-15T09:38:58Z</time>
      </trkpt>
      <trkpt lat="45.79849" lon="5.33996">
        <ele>359.2</ele>
        <time>2015-11-15T09:39:00Z</time>
      </trkpt>
      <trkpt lat="45.79857" lon="5.34004">
        <ele>359.5</ele>
        <time>2015-11-15T09:39:02Z</time>
      </trkpt>
      <trkpt lat="45.79865" lon="5.34011">
        <ele>359.8</ele>
        <time>2015-11-15T09:39:04Z</time>
      </trkpt>
      <trkpt lat="45.79872" lon="5.34019">
        <ele>359.8</ele>
        <time>2015-11-15T09:39:06Z</time>
      </trkpt>
      <trkpt lat="45.79879" lon="5.34027">
        <ele>359.6</ele>
        <time>2015-11-15T09:39:08Z</time>
      </trkpt>
      <trkpt lat="45.79887" lon="5.34035">
        <ele>359.5</ele>
        <time>2015-11-15T09:39:10Z</time>
      </trkpt>
      <trkpt lat="45.79894" lon="5.34043">
        <ele>359.7</ele>
        <time>2015-11-15T09:39:12Z</time>
      </trkpt>
      <trkpt lat="45.79909" lon="5.34059">
        <ele>361</ele>
        <time>2015-11-15T09:39:16Z</time>
      </trkpt>
      <trkpt lat="45.79916" lon="5.34067">
        <ele>362.3</ele>
        <time>2015-11-15T09:39:18Z</time>
      </trkpt>
      <trkpt lat="45.79923" lon="5.34075">
        <ele>363.4</ele>
        <time>2015-11-15T09:39:20Z</time>
      </trkpt>
      <trkpt lat="45.79929" lon="5.34083">
        <ele>364.3</ele>
        <time>2015-11-15T09:39:22Z</time>
      </trkpt>
      <trkpt lat="45.79936" lon="5.3409">
        <ele>364.7</ele>
        <time>2015-11-15T09:39:24Z</time>
      </trkpt>
      <trkpt lat="45.79941" lon="5.34094">
        <ele>365.1</ele>
        <time>2015-11-15T09:39:26Z</time>
      </trkpt>
      <trkpt lat="45.79947" lon="5.34098">
        <ele>365.5</ele>
        <time>2015-11-15T09:39:28Z</time>
      </trkpt>
      <trkpt lat="45.79953" lon="5.341">
        <ele>365.8</ele>
        <time>2015-11-15T09:39:30Z</time>
      </trkpt>
      <trkpt lat="45.7996" lon="5.34101">
        <ele>365.7</ele>
        <time>2015-11-15T09:39:32Z</time>
      </trkpt>
      <trkpt lat="45.79965" lon="5.34106">
        <ele>365.7</ele>
        <time>2015-11-15T09:39:34Z</time>
      </trkpt>
      <trkpt lat="45.79971" lon="5.34113">
        <ele>365.7</ele>
        <time>2015-11-15T09:39:36Z</time>
      </trkpt>
      <trkpt lat="45.79976" lon="5.34121">
        <ele>365.6</ele>
        <time>2015-11-15T09:39:38Z</time>
      </trkpt>
      <trkpt lat="45.7998" lon="5.3413">
        <ele>365.8</ele>
        <time>2015-11-15T09:39:40Z</time>
      </trkpt>
      <trkpt lat="45.79984" lon="5.3414">
        <ele>366</ele>
        <time>2015-11-15T09:39:42Z</time>
      </trkpt>
      <trkpt lat="45.79987" lon="5.34149">
        <ele>366.3</ele>
        <time>2015-11-15T09:39:44Z</time>
      </trkpt>
      <trkpt lat="45.7999" lon="5.34158">
        <ele>366.6</ele>
        <time>2015-11-15T09:39:46Z</time>
      </trkpt>
      <trkpt lat="45.7999" lon="5.34167">
        <ele>367.1</ele>
        <time>2015-11-15T09:39:48Z</time>
      </trkpt>
      <trkpt lat="45.7999" lon="5.34177">
        <ele>367.1</ele>
        <time>2015-11-15T09:39:50Z</time>
      </trkpt>
      <trkpt lat="45.7999" lon="5.34183">
        <ele>367</ele>
        <time>2015-11-15T09:39:52Z</time>
      </trkpt>
      <trkpt lat="45.79989" lon="5.34191">
        <ele>366.9</ele>
        <time>2015-11-15T09:39:54Z</time>
      </trkpt>
      <trkpt lat="45.79987" lon="5.342">
        <ele>366.9</ele>
        <time>2015-11-15T09:39:56Z</time>
      </trkpt>
      <trkpt lat="45.79984" lon="5.3421">
        <ele>367.1</ele>
        <time>2015-11-15T09:39:58Z</time>
      </trkpt>
      <trkpt lat="45.79981" lon="5.3422">
        <ele>367.2</ele>
        <time>2015-11-15T09:40:00Z</time>
      </trkpt>
      <trkpt lat="45.79979" lon="5.34232">
        <ele>367.1</ele>
        <time>2015-11-15T09:40:02Z</time>
      </trkpt>
      <trkpt lat="45.79977" lon="5.34244">
        <ele>367.2</ele>
        <time>2015-11-15T09:40:04Z</time>
      </trkpt>
      <trkpt lat="45.79976" lon="5.34256">
        <ele>367.4</ele>
        <time>2015-11-15T09:40:06Z</time>
      </trkpt>
      <trkpt lat="45.79974" lon="5.34268">
        <ele>367.4</ele>
        <time>2015-11-15T09:40:08Z</time>
      </trkpt>
      <trkpt lat="45.79973" lon="5.34279">
        <ele>367.4</ele>
        <time>2015-11-15T09:40:10Z</time>
      </trkpt>
      <trkpt lat="45.79971" lon="5.34289">
        <ele>367.4</ele>
        <time>2015-11-15T09:40:12Z</time>
      </trkpt>
      <trkpt lat="45.79969" lon="5.343">
        <ele>367.7</ele>
        <time>2015-11-15T09:40:14Z</time>
      </trkpt>
      <trkpt lat="45.79968" lon="5.34309">
        <ele>367.8</ele>
        <time>2015-11-15T09:40:16Z</time>
      </trkpt>
      <trkpt lat="45.79968" lon="5.34318">
        <ele>368.1</ele>
        <time>2015-11-15T09:40:18Z</time>
      </trkpt>
      <trkpt lat="45.79968" lon="5.34326">
        <ele>368.2</ele>
        <time>2015-11-15T09:40:20Z</time>
      </trkpt>
      <trkpt lat="45.79969" lon="5.34334">
        <ele>368.7</ele>
        <time>2015-11-15T09:40:22Z</time>
      </trkpt>
      <trkpt lat="45.7997" lon="5.34344">
        <ele>369.4</ele>
        <time>2015-11-15T09:40:24Z</time>
      </trkpt>
      <trkpt lat="45.79973" lon="5.34353">
        <ele>370</ele>
        <time>2015-11-15T09:40:26Z</time>
      </trkpt>
      <trkpt lat="45.79975" lon="5.34364">
        <ele>370.4</ele>
        <time>2015-11-15T09:40:28Z</time>
      </trkpt>
      <trkpt lat="45.79978" lon="5.34375">
        <ele>370.9</ele>
        <time>2015-11-15T09:40:30Z</time>
      </trkpt>
      <trkpt lat="45.79982" lon="5.34385">
        <ele>371.4</ele>
        <time>2015-11-15T09:40:32Z</time>
      </trkpt>
      <trkpt lat="45.79986" lon="5.34394">
        <ele>371.9</ele>
        <time>2015-11-15T09:40:34Z</time>
      </trkpt>
      <trkpt lat="45.7999" lon="5.344">
        <ele>372.2</ele>
        <time>2015-11-15T09:40:36Z</time>
      </trkpt>
      <trkpt lat="45.79996" lon="5.34408">
        <ele>372.4</ele>
        <time>2015-11-15T09:40:38Z</time>
      </trkpt>
      <trkpt lat="45.80002" lon="5.34417">
        <ele>372.4</ele>
        <time>2015-11-15T09:40:40Z</time>
      </trkpt>
      <trkpt lat="45.80009" lon="5.34429">
        <ele>372.4</ele>
        <time>2015-11-15T09:40:42Z</time>
      </trkpt>
      <trkpt lat="45.80016" lon="5.34442">
        <ele>372.1</ele>
        <time>2015-11-15T09:40:44Z</time>
      </trkpt>
      <trkpt lat="45.80022" lon="5.34451">
        <ele>371.9</ele>
        <time>2015-11-15T09:40:46Z</time>
      </trkpt>
      <trkpt lat="45.80029" lon="5.34458">
        <ele>372</ele>
        <time>2015-11-15T09:40:48Z</time>
      </trkpt>
      <trkpt lat="45.80037" lon="5.34461">
        <ele>372.2</ele>
        <time>2015-11-15T09:40:50Z</time>
      </trkpt>
      <trkpt lat="45.80046" lon="5.34463">
        <ele>372.7</ele>
        <time>2015-11-15T09:40:52Z</time>
      </trkpt>
      <trkpt lat="45.80056" lon="5.34463">
        <ele>373.3</ele>
        <time>2015-11-15T09:40:54Z</time>
      </trkpt>
      <trkpt lat="45.80067" lon="5.34463">
        <ele>374.1</ele>
        <time>2015-11-15T09:40:56Z</time>
      </trkpt>
      <trkpt lat="45.80079" lon="5.34462">
        <ele>374.1</ele>
        <time>2015-11-15T09:40:58Z</time>
      </trkpt>
      <trkpt lat="45.80093" lon="5.34459">
        <ele>373.1</ele>
        <time>2015-11-15T09:41:00Z</time>
      </trkpt>
      <trkpt lat="45.80108" lon="5.34453">
        <ele>371</ele>
        <time>2015-11-15T09:41:02Z</time>
      </trkpt>
      <trkpt lat="45.80121" lon="5.34449">
        <ele>369.5</ele>
        <time>2015-11-15T09:41:04Z</time>
      </trkpt>
      <trkpt lat="45.80132" lon="5.34443">
        <ele>368.1</ele>
        <time>2015-11-15T09:41:06Z</time>
      </trkpt>
      <trkpt lat="45.80143" lon="5.34435">
        <ele>367.6</ele>
        <time>2015-11-15T09:41:08Z</time>
      </trkpt>
      <trkpt lat="45.80155" lon="5.3443">
        <ele>366.8</ele>
        <time>2015-11-15T09:41:10Z</time>
      </trkpt>
      <trkpt lat="45.80167" lon="5.34421">
        <ele>366.8</ele>
        <time>2015-11-15T09:41:12Z</time>
      </trkpt>
      <trkpt lat="45.80176" lon="5.34408">
        <ele>366.4</ele>
        <time>2015-11-15T09:41:14Z</time>
      </trkpt>
      <trkpt lat="45.80184" lon="5.34394">
        <ele>364.5</ele>
        <time>2015-11-15T09:41:16Z</time>
      </trkpt>
      <trkpt lat="45.80194" lon="5.34381">
        <ele>361.2</ele>
        <time>2015-11-15T09:41:18Z</time>
      </trkpt>
      <trkpt lat="45.80201" lon="5.34366">
        <ele>358</ele>
        <time>2015-11-15T09:41:20Z</time>
      </trkpt>
      <trkpt lat="45.80204" lon="5.3435">
        <ele>356.6</ele>
        <time>2015-11-15T09:41:22Z</time>
      </trkpt>
      <trkpt lat="45.80203" lon="5.34336">
        <ele>356.8</ele>
        <time>2015-11-15T09:41:24Z</time>
      </trkpt>
      <trkpt lat="45.802" lon="5.34323">
        <ele>356.6</ele>
        <time>2015-11-15T09:41:26Z</time>
      </trkpt>
      <trkpt lat="45.80194" lon="5.34308">
        <ele>355.2</ele>
        <time>2015-11-15T09:41:28Z</time>
      </trkpt>
      <trkpt lat="45.80187" lon="5.34293">
        <ele>355.2</ele>
        <time>2015-11-15T09:41:30Z</time>
      </trkpt>
      <trkpt lat="45.8018" lon="5.34278">
        <ele>354.6</ele>
        <time>2015-11-15T09:41:32Z</time>
      </trkpt>
      <trkpt lat="45.80175" lon="5.3426">
        <ele>353.9</ele>
        <time>2015-11-15T09:41:34Z</time>
      </trkpt>
      <trkpt lat="45.8017" lon="5.34243">
        <ele>353.8</ele>
        <time>2015-11-15T09:41:36Z</time>
      </trkpt>
      <trkpt lat="45.80165" lon="5.34226">
        <ele>354.1</ele>
        <time>2015-11-15T09:41:38Z</time>
      </trkpt>
      <trkpt lat="45.80164" lon="5.34209">
        <ele>355.4</ele>
        <time>2015-11-15T09:41:40Z</time>
      </trkpt>
      <trkpt lat="45.80165" lon="5.34196">
        <ele>356.2</ele>
        <time>2015-11-15T09:41:42Z</time>
      </trkpt>
      <trkpt lat="45.80168" lon="5.34186">
        <ele>356.2</ele>
        <time>2015-11-15T09:41:44Z</time>
      </trkpt>
      <trkpt lat="45.80174" lon="5.34178">
        <ele>355.8</ele>
        <time>2015-11-15T09:41:46Z</time>
      </trkpt>
      <trkpt lat="45.80179" lon="5.34169">
        <ele>355.2</ele>
        <time>2015-11-15T09:41:48Z</time>
      </trkpt>
      <trkpt lat="45.80183" lon="5.34158">
        <ele>354.8</ele>
        <time>2015-11-15T09:41:50Z</time>
      </trkpt>
      <trkpt lat="45.80183" lon="5.34146">
        <ele>354.8</ele>
        <time>2015-11-15T09:41:52Z</time>
      </trkpt>
      <trkpt lat="45.80182" lon="5.34135">
        <ele>355.1</ele>
        <time>2015-11-15T09:41:54Z</time>
      </trkpt>
      <trkpt lat="45.80177" lon="5.34125">
        <ele>355.5</ele>
        <time>2015-11-15T09:41:56Z</time>
      </trkpt>
      <trkpt lat="45.80173" lon="5.34116">
        <ele>355.6</ele>
        <time>2015-11-15T09:41:58Z</time>
      </trkpt>
      <trkpt lat="45.80169" lon="5.34106">
        <ele>355.6</ele>
        <time>2015-11-15T09:42:00Z</time>
      </trkpt>
      <trkpt lat="45.80164" lon="5.34096">
        <ele>355.6</ele>
        <time>2015-11-15T09:42:02Z</time>
      </trkpt>
      <trkpt lat="45.80157" lon="5.34084">
        <ele>355.7</ele>
        <time>2015-11-15T09:42:04Z</time>
      </trkpt>
      <trkpt lat="45.80148" lon="5.34074">
        <ele>355.7</ele>
        <time>2015-11-15T09:42:06Z</time>
      </trkpt>
      <trkpt lat="45.8014" lon="5.34065">
        <ele>355.7</ele>
        <time>2015-11-15T09:42:08Z</time>
      </trkpt>
      <trkpt lat="45.80132" lon="5.34053">
        <ele>355.9</ele>
        <time>2015-11-15T09:42:10Z</time>
      </trkpt>
      <trkpt lat="45.80125" lon="5.34041">
        <ele>356.3</ele>
        <time>2015-11-15T09:42:12Z</time>
      </trkpt>
      <trkpt lat="45.8012" lon="5.34029">
        <ele>356.1</ele>
        <time>2015-11-15T09:42:14Z</time>
      </trkpt>
      <trkpt lat="45.80116" lon="5.34021">
        <ele>355.7</ele>
        <time>2015-11-15T09:42:16Z</time>
      </trkpt>
      <trkpt lat="45.80116" lon="5.34016">
        <ele>355.4</ele>
        <time>2015-11-15T09:42:18Z</time>
      </trkpt>
      <trkpt lat="45.80119" lon="5.34016">
        <ele>354.7</ele>
        <time>2015-11-15T09:42:20Z</time>
      </trkpt>
      <trkpt lat="45.80122" lon="5.34016">
        <ele>354.6</ele>
        <time>2015-11-15T09:42:22Z</time>
      </trkpt>
      <trkpt lat="45.80125" lon="5.34015">
        <ele>354.6</ele>
        <time>2015-11-15T09:42:24Z</time>
      </trkpt>
      <trkpt lat="45.80127" lon="5.34015">
        <ele>354.6</ele>
        <time>2015-11-15T09:42:26Z</time>
      </trkpt>
      <trkpt lat="45.80129" lon="5.34014">
        <ele>354.6</ele>
        <time>2015-11-15T09:42:28Z</time>
      </trkpt>
      <trkpt lat="45.80132" lon="5.34014">
        <ele>354.7</ele>
        <time>2015-11-15T09:42:30Z</time>
      </trkpt>
      <trkpt lat="45.80135" lon="5.34014">
        <ele>354.7</ele>
        <time>2015-11-15T09:42:32Z</time>
      </trkpt>
      <trkpt lat="45.80138" lon="5.34014">
        <ele>354.7</ele>
        <time>2015-11-15T09:42:34Z</time>
      </trkpt>
      <trkpt lat="45.80142" lon="5.34015">
        <ele>354.8</ele>
        <time>2015-11-15T09:42:36Z</time>
      </trkpt>
      <trkpt lat="45.80145" lon="5.34015">
        <ele>354.9</ele>
        <time>2015-11-15T09:42:38Z</time>
      </trkpt>
      <trkpt lat="45.80149" lon="5.34017">
        <ele>354.9</ele>
        <time>2015-11-15T09:42:40Z</time>
      </trkpt>
      <trkpt lat="45.80153" lon="5.34018">
        <ele>355</ele>
        <time>2015-11-15T09:42:42Z</time>
      </trkpt>
      <trkpt lat="45.80158" lon="5.34019">
        <ele>355.2</ele>
        <time>2015-11-15T09:42:44Z</time>
      </trkpt>
      <trkpt lat="45.80162" lon="5.34021">
        <ele>355.4</ele>
        <time>2015-11-15T09:42:46Z</time>
      </trkpt>
      <trkpt lat="45.80168" lon="5.34023">
        <ele>355.8</ele>
        <time>2015-11-15T09:42:48Z</time>
      </trkpt>
      <trkpt lat="45.80174" lon="5.34024">
        <ele>356.1</ele>
        <time>2015-11-15T09:42:50Z</time>
      </trkpt>
      <trkpt lat="45.80179" lon="5.34027">
        <ele>356.4</ele>
        <time>2015-11-15T09:42:52Z</time>
      </trkpt>
      <trkpt lat="45.80187" lon="5.3403">
        <ele>357.1</ele>
        <time>2015-11-15T09:42:54Z</time>
      </trkpt>
      <trkpt lat="45.80193" lon="5.34032">
        <ele>357.8</ele>
        <time>2015-11-15T09:42:56Z</time>
      </trkpt>
      <trkpt lat="45.80201" lon="5.34034">
        <ele>358.4</ele>
        <time>2015-11-15T09:42:58Z</time>
      </trkpt>
      <trkpt lat="45.80208" lon="5.34036">
        <ele>358.8</ele>
        <time>2015-11-15T09:43:00Z</time>
      </trkpt>
      <trkpt lat="45.80215" lon="5.34041">
        <ele>359.3</ele>
        <time>2015-11-15T09:43:02Z</time>
      </trkpt>
      <trkpt lat="45.80222" lon="5.34045">
        <ele>359.7</ele>
        <time>2015-11-15T09:43:04Z</time>
      </trkpt>
      <trkpt lat="45.80231" lon="5.34048">
        <ele>359.7</ele>
        <time>2015-11-15T09:43:06Z</time>
      </trkpt>
      <trkpt lat="45.8024" lon="5.34051">
        <ele>359.8</ele>
        <time>2015-11-15T09:43:08Z</time>
      </trkpt>
      <trkpt lat="45.80248" lon="5.34054">
        <ele>359.8</ele>
        <time>2015-11-15T09:43:10Z</time>
      </trkpt>
      <trkpt lat="45.80254" lon="5.34056">
        <ele>359.7</ele>
        <time>2015-11-15T09:43:12Z</time>
      </trkpt>
      <trkpt lat="45.80261" lon="5.3406">
        <ele>359.7</ele>
        <time>2015-11-15T09:43:14Z</time>
      </trkpt>
      <trkpt lat="45.80268" lon="5.34063">
        <ele>359.8</ele>
        <time>2015-11-15T09:43:16Z</time>
      </trkpt>
      <trkpt lat="45.80275" lon="5.34067">
        <ele>359.9</ele>
        <time>2015-11-15T09:43:18Z</time>
      </trkpt>
      <trkpt lat="45.80283" lon="5.3407">
        <ele>359.9</ele>
        <time>2015-11-15T09:43:20Z</time>
      </trkpt>
      <trkpt lat="45.80291" lon="5.34075">
        <ele>360.2</ele>
        <time>2015-11-15T09:43:22Z</time>
      </trkpt>
      <trkpt lat="45.80299" lon="5.34081">
        <ele>360.9</ele>
        <time>2015-11-15T09:43:24Z</time>
      </trkpt>
      <trkpt lat="45.80306" lon="5.34087">
        <ele>361.1</ele>
        <time>2015-11-15T09:43:26Z</time>
      </trkpt>
      <trkpt lat="45.80314" lon="5.34093">
        <ele>361.6</ele>
        <time>2015-11-15T09:43:28Z</time>
      </trkpt>
      <trkpt lat="45.8032" lon="5.34098">
        <ele>361.9</ele>
        <time>2015-11-15T09:43:30Z</time>
      </trkpt>
      <trkpt lat="45.80327" lon="5.34103">
        <ele>362</ele>
        <time>2015-11-15T09:43:32Z</time>
      </trkpt>
      <trkpt lat="45.80332" lon="5.34106">
        <ele>361.9</ele>
        <time>2015-11-15T09:43:34Z</time>
      </trkpt>
      <trkpt lat="45.80336" lon="5.34106">
        <ele>361.9</ele>
        <time>2015-11-15T09:43:36Z</time>
      </trkpt>
      <trkpt lat="45.80341" lon="5.34106">
        <ele>361.9</ele>
        <time>2015-11-15T09:43:38Z</time>
      </trkpt>
      <trkpt lat="45.80347" lon="5.34107">
        <ele>362</ele>
        <time>2015-11-15T09:43:40Z</time>
      </trkpt>
      <trkpt lat="45.80356" lon="5.34107">
        <ele>361.9</ele>
        <time>2015-11-15T09:43:42Z</time>
      </trkpt>
      <trkpt lat="45.80363" lon="5.34107">
        <ele>361.9</ele>
        <time>2015-11-15T09:43:44Z</time>
      </trkpt>
      <trkpt lat="45.8037" lon="5.34109">
        <ele>361.9</ele>
        <time>2015-11-15T09:43:46Z</time>
      </trkpt>
      <trkpt lat="45.80378" lon="5.3411">
        <ele>361.6</ele>
        <time>2015-11-15T09:43:48Z</time>
      </trkpt>
      <trkpt lat="45.80386" lon="5.3411">
        <ele>361.9</ele>
        <time>2015-11-15T09:43:50Z</time>
      </trkpt>
      <trkpt lat="45.80393" lon="5.34109">
        <ele>361.8</ele>
        <time>2015-11-15T09:43:52Z</time>
      </trkpt>
      <trkpt lat="45.80401" lon="5.34109">
        <ele>361.6</ele>
        <time>2015-11-15T09:43:54Z</time>
      </trkpt>
      <trkpt lat="45.80408" lon="5.34109">
        <ele>361.3</ele>
        <time>2015-11-15T09:43:56Z</time>
      </trkpt>
      <trkpt lat="45.80415" lon="5.34108">
        <ele>361.1</ele>
        <time>2015-11-15T09:43:58Z</time>
      </trkpt>
      <trkpt lat="45.8042" lon="5.34107">
        <ele>361.3</ele>
        <time>2015-11-15T09:44:00Z</time>
      </trkpt>
      <trkpt lat="45.80423" lon="5.34107">
        <ele>361.3</ele>
        <time>2015-11-15T09:44:02Z</time>
      </trkpt>
      <trkpt lat="45.80426" lon="5.34106">
        <ele>361.2</ele>
        <time>2015-11-15T09:44:04Z</time>
      </trkpt>
      <trkpt lat="45.8043" lon="5.34106">
        <ele>361.2</ele>
        <time>2015-11-15T09:44:08Z</time>
      </trkpt>
      <trkpt lat="45.80431" lon="5.34106">
        <ele>361.2</ele>
        <time>2015-11-15T09:44:10Z</time>
      </trkpt>
      <trkpt lat="45.80435" lon="5.34109">
        <ele>361</ele>
        <time>2015-11-15T09:44:12Z</time>
      </trkpt>
      <trkpt lat="45.80436" lon="5.34117">
        <ele>360.5</ele>
        <time>2015-11-15T09:44:14Z</time>
      </trkpt>
      <trkpt lat="45.80439" lon="5.34129">
        <ele>359.4</ele>
        <time>2015-11-15T09:44:16Z</time>
      </trkpt>
      <trkpt lat="45.80442" lon="5.34141">
        <ele>358.8</ele>
        <time>2015-11-15T09:44:18Z</time>
      </trkpt>
      <trkpt lat="45.80446" lon="5.34154">
        <ele>357.7</ele>
        <time>2015-11-15T09:44:20Z</time>
      </trkpt>
      <trkpt lat="45.8045" lon="5.34166">
        <ele>356.3</ele>
        <time>2015-11-15T09:44:22Z</time>
      </trkpt>
      <trkpt lat="45.80458" lon="5.34175">
        <ele>355.6</ele>
        <time>2015-11-15T09:44:24Z</time>
      </trkpt>
      <trkpt lat="45.80465" lon="5.34185">
        <ele>354.3</ele>
        <time>2015-11-15T09:44:26Z</time>
      </trkpt>
      <trkpt lat="45.80471" lon="5.34195">
        <ele>354.4</ele>
        <time>2015-11-15T09:44:28Z</time>
      </trkpt>
      <trkpt lat="45.80477" lon="5.34204">
        <ele>353.5</ele>
        <time>2015-11-15T09:44:30Z</time>
      </trkpt>
      <trkpt lat="45.80484" lon="5.34209">
        <ele>352.2</ele>
        <time>2015-11-15T09:44:32Z</time>
      </trkpt>
      <trkpt lat="45.8049" lon="5.34211">
        <ele>351.4</ele>
        <time>2015-11-15T09:44:34Z</time>
      </trkpt>
      <trkpt lat="45.80499" lon="5.34211">
        <ele>351.1</ele>
        <time>2015-11-15T09:44:36Z</time>
      </trkpt>
      <trkpt lat="45.80509" lon="5.34208">
        <ele>350.7</ele>
        <time>2015-11-15T09:44:38Z</time>
      </trkpt>
      <trkpt lat="45.80518" lon="5.34203">
        <ele>351.3</ele>
        <time>2015-11-15T09:44:40Z</time>
      </trkpt>
      <trkpt lat="45.80528" lon="5.34197">
        <ele>350.9</ele>
        <time>2015-11-15T09:44:42Z</time>
      </trkpt>
      <trkpt lat="45.80538" lon="5.34191">
        <ele>351.1</ele>
        <time>2015-11-15T09:44:44Z</time>
      </trkpt>
      <trkpt lat="45.80549" lon="5.34186">
        <ele>350.3</ele>
        <time>2015-11-15T09:44:46Z</time>
      </trkpt>
      <trkpt lat="45.80557" lon="5.3418">
        <ele>349.2</ele>
        <time>2015-11-15T09:44:48Z</time>
      </trkpt>
      <trkpt lat="45.80565" lon="5.34175">
        <ele>347.7</ele>
        <time>2015-11-15T09:44:50Z</time>
      </trkpt>
      <trkpt lat="45.80573" lon="5.34177">
        <ele>346.8</ele>
        <time>2015-11-15T09:44:52Z</time>
      </trkpt>
      <trkpt lat="45.80581" lon="5.34183">
        <ele>345</ele>
        <time>2015-11-15T09:44:54Z</time>
      </trkpt>
      <trkpt lat="45.80587" lon="5.34189">
        <ele>343.7</ele>
        <time>2015-11-15T09:44:56Z</time>
      </trkpt>
      <trkpt lat="45.80596" lon="5.34196">
        <ele>340.8</ele>
        <time>2015-11-15T09:44:58Z</time>
      </trkpt>
      <trkpt lat="45.80604" lon="5.34204">
        <ele>338.1</ele>
        <time>2015-11-15T09:45:00Z</time>
      </trkpt>
      <trkpt lat="45.80612" lon="5.34215">
        <ele>335.5</ele>
        <time>2015-11-15T09:45:02Z</time>
      </trkpt>
      <trkpt lat="45.80621" lon="5.34224">
        <ele>333.6</ele>
        <time>2015-11-15T09:45:04Z</time>
      </trkpt>
      <trkpt lat="45.8063" lon="5.34229">
        <ele>338.8</ele>
        <time>2015-11-15T09:45:06Z</time>
      </trkpt>
      <trkpt lat="45.80638" lon="5.3423">
        <ele>342.7</ele>
        <time>2015-11-15T09:45:08Z</time>
      </trkpt>
      <trkpt lat="45.80644" lon="5.34232">
        <ele>343</ele>
        <time>2015-11-15T09:45:10Z</time>
      </trkpt>
      <trkpt lat="45.80653" lon="5.34233">
        <ele>342.1</ele>
        <time>2015-11-15T09:45:12Z</time>
      </trkpt>
      <trkpt lat="45.80661" lon="5.34233">
        <ele>340.2</ele>
        <time>2015-11-15T09:45:14Z</time>
      </trkpt>
      <trkpt lat="45.80668" lon="5.34233">
        <ele>338.4</ele>
        <time>2015-11-15T09:45:16Z</time>
      </trkpt>
      <trkpt lat="45.80674" lon="5.34232">
        <ele>336.5</ele>
        <time>2015-11-15T09:45:18Z</time>
      </trkpt>
      <trkpt lat="45.80682" lon="5.3423">
        <ele>334.3</ele>
        <time>2015-11-15T09:45:20Z</time>
      </trkpt>
      <trkpt lat="45.8069" lon="5.34228">
        <ele>332.2</ele>
        <time>2015-11-15T09:45:22Z</time>
      </trkpt>
      <trkpt lat="45.80698" lon="5.34227">
        <ele>330.4</ele>
        <time>2015-11-15T09:45:24Z</time>
      </trkpt>
      <trkpt lat="45.80705" lon="5.34225">
        <ele>329.3</ele>
        <time>2015-11-15T09:45:26Z</time>
      </trkpt>
      <trkpt lat="45.80711" lon="5.3422">
        <ele>328.2</ele>
        <time>2015-11-15T09:45:28Z</time>
      </trkpt>
      <trkpt lat="45.80718" lon="5.34212">
        <ele>326.9</ele>
        <time>2015-11-15T09:45:30Z</time>
      </trkpt>
      <trkpt lat="45.80725" lon="5.34205">
        <ele>325.7</ele>
        <time>2015-11-15T09:45:32Z</time>
      </trkpt>
      <trkpt lat="45.80735" lon="5.34199">
        <ele>325</ele>
        <time>2015-11-15T09:45:34Z</time>
      </trkpt>
      <trkpt lat="45.80743" lon="5.34192">
        <ele>325.6</ele>
        <time>2015-11-15T09:45:36Z</time>
      </trkpt>
      <trkpt lat="45.80751" lon="5.34185">
        <ele>326.2</ele>
        <time>2015-11-15T09:45:38Z</time>
      </trkpt>
      <trkpt lat="45.80763" lon="5.3418">
        <ele>327.2</ele>
        <time>2015-11-15T09:45:40Z</time>
      </trkpt>
      <trkpt lat="45.80774" lon="5.34176">
        <ele>327.7</ele>
        <time>2015-11-15T09:45:42Z</time>
      </trkpt>
      <trkpt lat="45.80785" lon="5.3417">
        <ele>328.2</ele>
        <time>2015-11-15T09:45:44Z</time>
      </trkpt>
      <trkpt lat="45.80797" lon="5.34168">
        <ele>328.9</ele>
        <time>2015-11-15T09:45:46Z</time>
      </trkpt>
      <trkpt lat="45.80806" lon="5.34168">
        <ele>329.4</ele>
        <time>2015-11-15T09:45:48Z</time>
      </trkpt>
      <trkpt lat="45.80813" lon="5.34167">
        <ele>329.7</ele>
        <time>2015-11-15T09:45:50Z</time>
      </trkpt>
      <trkpt lat="45.80822" lon="5.34164">
        <ele>329.9</ele>
        <time>2015-11-15T09:45:52Z</time>
      </trkpt>
      <trkpt lat="45.80833" lon="5.34161">
        <ele>330.3</ele>
        <time>2015-11-15T09:45:54Z</time>
      </trkpt>
      <trkpt lat="45.80845" lon="5.34159">
        <ele>330.5</ele>
        <time>2015-11-15T09:45:56Z</time>
      </trkpt>
      <trkpt lat="45.80856" lon="5.34158">
        <ele>330.4</ele>
        <time>2015-11-15T09:45:58Z</time>
      </trkpt>
      <trkpt lat="45.80867" lon="5.34159">
        <ele>329.5</ele>
        <time>2015-11-15T09:46:00Z</time>
      </trkpt>
      <trkpt lat="45.80878" lon="5.34162">
        <ele>328.6</ele>
        <time>2015-11-15T09:46:02Z</time>
      </trkpt>
      <trkpt lat="45.80888" lon="5.3417">
        <ele>326.7</ele>
        <time>2015-11-15T09:46:04Z</time>
      </trkpt>
      <trkpt lat="45.80897" lon="5.3418">
        <ele>324.3</ele>
        <time>2015-11-15T09:46:06Z</time>
      </trkpt>
      <trkpt lat="45.80904" lon="5.34196">
        <ele>322.4</ele>
        <time>2015-11-15T09:46:08Z</time>
      </trkpt>
      <trkpt lat="45.80912" lon="5.34211">
        <ele>321.2</ele>
        <time>2015-11-15T09:46:10Z</time>
      </trkpt>
      <trkpt lat="45.80921" lon="5.3422">
        <ele>320.6</ele>
        <time>2015-11-15T09:46:12Z</time>
      </trkpt>
      <trkpt lat="45.80933" lon="5.34227">
        <ele>319.6</ele>
        <time>2015-11-15T09:46:14Z</time>
      </trkpt>
      <trkpt lat="45.80945" lon="5.34232">
        <ele>318.6</ele>
        <time>2015-11-15T09:46:16Z</time>
      </trkpt>
      <trkpt lat="45.80957" lon="5.34237">
        <ele>318.5</ele>
        <time>2015-11-15T09:46:18Z</time>
      </trkpt>
      <trkpt lat="45.80969" lon="5.34241">
        <ele>318.3</ele>
        <time>2015-11-15T09:46:20Z</time>
      </trkpt>
      <trkpt lat="45.8098" lon="5.34243">
        <ele>318.6</ele>
        <time>2015-11-15T09:46:22Z</time>
      </trkpt>
      <trkpt lat="45.80991" lon="5.34243">
        <ele>318.1</ele>
        <time>2015-11-15T09:46:24Z</time>
      </trkpt>
      <trkpt lat="45.81001" lon="5.34239">
        <ele>317.7</ele>
        <time>2015-11-15T09:46:26Z</time>
      </trkpt>
      <trkpt lat="45.8101" lon="5.34235">
        <ele>318.4</ele>
        <time>2015-11-15T09:46:28Z</time>
      </trkpt>
      <trkpt lat="45.8102" lon="5.34231">
        <ele>318.3</ele>
        <time>2015-11-15T09:46:30Z</time>
      </trkpt>
      <trkpt lat="45.8103" lon="5.34225">
        <ele>318.4</ele>
        <time>2015-11-15T09:46:32Z</time>
      </trkpt>
      <trkpt lat="45.81041" lon="5.34217">
        <ele>318</ele>
        <time>2015-11-15T09:46:34Z</time>
      </trkpt>
      <trkpt lat="45.81052" lon="5.34209">
        <ele>317.2</ele>
        <time>2015-11-15T09:46:36Z</time>
      </trkpt>
      <trkpt lat="45.81062" lon="5.34201">
        <ele>316.5</ele>
        <time>2015-11-15T09:46:38Z</time>
      </trkpt>
      <trkpt lat="45.81074" lon="5.34193">
        <ele>315.9</ele>
        <time>2015-11-15T09:46:40Z</time>
      </trkpt>
      <trkpt lat="45.81087" lon="5.34184">
        <ele>315.3</ele>
        <time>2015-11-15T09:46:42Z</time>
      </trkpt>
      <trkpt lat="45.81099" lon="5.34175">
        <ele>315.2</ele>
        <time>2015-11-15T09:46:44Z</time>
      </trkpt>
      <trkpt lat="45.81112" lon="5.34165">
        <ele>314.8</ele>
        <time>2015-11-15T09:46:46Z</time>
      </trkpt>
      <trkpt lat="45.81125" lon="5.34158">
        <ele>313.1</ele>
        <time>2015-11-15T09:46:48Z</time>
      </trkpt>
      <trkpt lat="45.81137" lon="5.3415">
        <ele>311.9</ele>
        <time>2015-11-15T09:46:50Z</time>
      </trkpt>
      <trkpt lat="45.81149" lon="5.34143">
        <ele>310.9</ele>
        <time>2015-11-15T09:46:52Z</time>
      </trkpt>
      <trkpt lat="45.8116" lon="5.34138">
        <ele>310.4</ele>
        <time>2015-11-15T09:46:54Z</time>
      </trkpt>
      <trkpt lat="45.81173" lon="5.34131">
        <ele>311</ele>
        <time>2015-11-15T09:46:56Z</time>
      </trkpt>
      <trkpt lat="45.81184" lon="5.34125">
        <ele>312.3</ele>
        <time>2015-11-15T09:46:58Z</time>
      </trkpt>
      <trkpt lat="45.81197" lon="5.34119">
        <ele>313.1</ele>
        <time>2015-11-15T09:47:00Z</time>
      </trkpt>
      <trkpt lat="45.8121" lon="5.34115">
        <ele>312.7</ele>
        <time>2015-11-15T09:47:02Z</time>
      </trkpt>
      <trkpt lat="45.81221" lon="5.34109">
        <ele>312.1</ele>
        <time>2015-11-15T09:47:04Z</time>
      </trkpt>
      <trkpt lat="45.81234" lon="5.34109">
        <ele>311</ele>
        <time>2015-11-15T09:47:06Z</time>
      </trkpt>
      <trkpt lat="45.81247" lon="5.34112">
        <ele>309.6</ele>
        <time>2015-11-15T09:47:08Z</time>
      </trkpt>
      <trkpt lat="45.8126" lon="5.34115">
        <ele>308.5</ele>
        <time>2015-11-15T09:47:10Z</time>
      </trkpt>
      <trkpt lat="45.81274" lon="5.34121">
        <ele>306.9</ele>
        <time>2015-11-15T09:47:12Z</time>
      </trkpt>
      <trkpt lat="45.81288" lon="5.34127">
        <ele>306.6</ele>
        <time>2015-11-15T09:47:14Z</time>
      </trkpt>
      <trkpt lat="45.81299" lon="5.34131">
        <ele>305.9</ele>
        <time>2015-11-15T09:47:16Z</time>
      </trkpt>
      <trkpt lat="45.8131" lon="5.34138">
        <ele>304.8</ele>
        <time>2015-11-15T09:47:18Z</time>
      </trkpt>
      <trkpt lat="45.81323" lon="5.34146">
        <ele>303</ele>
        <time>2015-11-15T09:47:20Z</time>
      </trkpt>
      <trkpt lat="45.81335" lon="5.34154">
        <ele>301.2</ele>
        <time>2015-11-15T09:47:22Z</time>
      </trkpt>
      <trkpt lat="45.81344" lon="5.34165">
        <ele>298.5</ele>
        <time>2015-11-15T09:47:24Z</time>
      </trkpt>
      <trkpt lat="45.8135" lon="5.34178">
        <ele>297.2</ele>
        <time>2015-11-15T09:47:26Z</time>
      </trkpt>
      <trkpt lat="45.81353" lon="5.34192">
        <ele>295.7</ele>
        <time>2015-11-15T09:47:28Z</time>
      </trkpt>
      <trkpt lat="45.81356" lon="5.34204">
        <ele>294.8</ele>
        <time>2015-11-15T09:47:30Z</time>
      </trkpt>
      <trkpt lat="45.8136" lon="5.34216">
        <ele>293.3</ele>
        <time>2015-11-15T09:47:32Z</time>
      </trkpt>
      <trkpt lat="45.81365" lon="5.34224">
        <ele>292.3</ele>
        <time>2015-11-15T09:47:34Z</time>
      </trkpt>
      <trkpt lat="45.81372" lon="5.3423">
        <ele>291.4</ele>
        <time>2015-11-15T09:47:36Z</time>
      </trkpt>
      <trkpt lat="45.8138" lon="5.34236">
        <ele>290.6</ele>
        <time>2015-11-15T09:47:38Z</time>
      </trkpt>
      <trkpt lat="45.81386" lon="5.34242">
        <ele>290</ele>
        <time>2015-11-15T09:47:40Z</time>
      </trkpt>
      <trkpt lat="45.81393" lon="5.34245">
        <ele>289.3</ele>
        <time>2015-11-15T09:47:42Z</time>
      </trkpt>
      <trkpt lat="45.81398" lon="5.34244">
        <ele>288.7</ele>
        <time>2015-11-15T09:47:44Z</time>
      </trkpt>
      <trkpt lat="45.81406" lon="5.34242">
        <ele>287.9</ele>
        <time>2015-11-15T09:47:46Z</time>
      </trkpt>
      <trkpt lat="45.81415" lon="5.34239">
        <ele>287.3</ele>
        <time>2015-11-15T09:47:48Z</time>
      </trkpt>
      <trkpt lat="45.81425" lon="5.3424">
        <ele>286.9</ele>
        <time>2015-11-15T09:47:50Z</time>
      </trkpt>
      <trkpt lat="45.81433" lon="5.34246">
        <ele>286.5</ele>
        <time>2015-11-15T09:47:52Z</time>
      </trkpt>
      <trkpt lat="45.81443" lon="5.34252">
        <ele>286</ele>
        <time>2015-11-15T09:47:54Z</time>
      </trkpt>
      <trkpt lat="45.81452" lon="5.34258">
        <ele>285.8</ele>
        <time>2015-11-15T09:47:56Z</time>
      </trkpt>
      <trkpt lat="45.81459" lon="5.34266">
        <ele>284.8</ele>
        <time>2015-11-15T09:47:58Z</time>
      </trkpt>
      <trkpt lat="45.81466" lon="5.34273">
        <ele>283.9</ele>
        <time>2015-11-15T09:48:00Z</time>
      </trkpt>
      <trkpt lat="45.81475" lon="5.34281">
        <ele>282.8</ele>
        <time>2015-11-15T09:48:02Z</time>
      </trkpt>
      <trkpt lat="45.81482" lon="5.34292">
        <ele>281.3</ele>
        <time>2015-11-15T09:48:04Z</time>
      </trkpt>
      <trkpt lat="45.8149" lon="5.34303">
        <ele>279.6</ele>
        <time>2015-11-15T09:48:06Z</time>
      </trkpt>
      <trkpt lat="45.81496" lon="5.34314">
        <ele>278.1</ele>
        <time>2015-11-15T09:48:08Z</time>
      </trkpt>
      <trkpt lat="45.815" lon="5.34323">
        <ele>276.9</ele>
        <time>2015-11-15T09:48:10Z</time>
      </trkpt>
      <trkpt lat="45.81502" lon="5.34335">
        <ele>275.9</ele>
        <time>2015-11-15T09:48:12Z</time>
      </trkpt>
      <trkpt lat="45.81503" lon="5.34349">
        <ele>275</ele>
        <time>2015-11-15T09:48:14Z</time>
      </trkpt>
      <trkpt lat="45.81504" lon="5.34365">
        <ele>273.1</ele>
        <time>2015-11-15T09:48:16Z</time>
      </trkpt>
      <trkpt lat="45.81504" lon="5.34379">
        <ele>271.7</ele>
        <time>2015-11-15T09:48:18Z</time>
      </trkpt>
      <trkpt lat="45.81505" lon="5.34385">
        <ele>271.1</ele>
        <time>2015-11-15T09:48:20Z</time>
      </trkpt>
      <trkpt lat="45.81509" lon="5.34386">
        <ele>270.5</ele>
        <time>2015-11-15T09:48:22Z</time>
      </trkpt>
      <trkpt lat="45.81514" lon="5.34386">
        <ele>269.7</ele>
        <time>2015-11-15T09:48:24Z</time>
      </trkpt>
      <trkpt lat="45.81519" lon="5.34387">
        <ele>269.1</ele>
        <time>2015-11-15T09:48:26Z</time>
      </trkpt>
      <trkpt lat="45.81524" lon="5.34388">
        <ele>269</ele>
        <time>2015-11-15T09:48:28Z</time>
      </trkpt>
      <trkpt lat="45.81531" lon="5.34388">
        <ele>268.9</ele>
        <time>2015-11-15T09:48:30Z</time>
      </trkpt>
      <trkpt lat="45.81539" lon="5.34388">
        <ele>268.8</ele>
        <time>2015-11-15T09:48:32Z</time>
      </trkpt>
      <trkpt lat="45.81547" lon="5.34389">
        <ele>268.9</ele>
        <time>2015-11-15T09:48:34Z</time>
      </trkpt>
      <trkpt lat="45.81555" lon="5.34389">
        <ele>269</ele>
        <time>2015-11-15T09:48:36Z</time>
      </trkpt>
      <trkpt lat="45.81563" lon="5.3439">
        <ele>269</ele>
        <time>2015-11-15T09:48:38Z</time>
      </trkpt>
      <trkpt lat="45.81572" lon="5.34389">
        <ele>268.9</ele>
        <time>2015-11-15T09:48:40Z</time>
      </trkpt>
      <trkpt lat="45.81583" lon="5.34391">
        <ele>268.2</ele>
        <time>2015-11-15T09:48:42Z</time>
      </trkpt>
      <trkpt lat="45.81595" lon="5.34395">
        <ele>267.2</ele>
        <time>2015-11-15T09:48:44Z</time>
      </trkpt>
      <trkpt lat="45.81605" lon="5.344">
        <ele>266</ele>
        <time>2015-11-15T09:48:46Z</time>
      </trkpt>
      <trkpt lat="45.81616" lon="5.34406">
        <ele>265</ele>
        <time>2015-11-15T09:48:48Z</time>
      </trkpt>
      <trkpt lat="45.81625" lon="5.34412">
        <ele>264.4</ele>
        <time>2015-11-15T09:48:50Z</time>
      </trkpt>
      <trkpt lat="45.81633" lon="5.34419">
        <ele>264.2</ele>
        <time>2015-11-15T09:48:52Z</time>
      </trkpt>
      <trkpt lat="45.81643" lon="5.34426">
        <ele>264</ele>
        <time>2015-11-15T09:48:54Z</time>
      </trkpt>
      <trkpt lat="45.81651" lon="5.34434">
        <ele>263.6</ele>
        <time>2015-11-15T09:48:56Z</time>
      </trkpt>
      <trkpt lat="45.8166" lon="5.34441">
        <ele>263.2</ele>
        <time>2015-11-15T09:48:58Z</time>
      </trkpt>
      <trkpt lat="45.8167" lon="5.34448">
        <ele>262.9</ele>
        <time>2015-11-15T09:49:00Z</time>
      </trkpt>
      <trkpt lat="45.81679" lon="5.34453">
        <ele>262.9</ele>
        <time>2015-11-15T09:49:02Z</time>
      </trkpt>
      <trkpt lat="45.81687" lon="5.34457">
        <ele>263.1</ele>
        <time>2015-11-15T09:49:04Z</time>
      </trkpt>
      <trkpt lat="45.81692" lon="5.34461">
        <ele>263.3</ele>
        <time>2015-11-15T09:49:06Z</time>
      </trkpt>
      <trkpt lat="45.81695" lon="5.34465">
        <ele>263.5</ele>
        <time>2015-11-15T09:49:08Z</time>
      </trkpt>
      <trkpt lat="45.81696" lon="5.34469">
        <ele>263.5</ele>
        <time>2015-11-15T09:49:10Z</time>
      </trkpt>
      <trkpt lat="45.81701" lon="5.34475">
        <ele>263.5</ele>
        <time>2015-11-15T09:50:06Z</time>
      </trkpt>
      <trkpt lat="45.81709" lon="5.34478">
        <ele>263.2</ele>
        <time>2015-11-15T09:50:08Z</time>
      </trkpt>
      <trkpt lat="45.81722" lon="5.34472">
        <ele>263.2</ele>
        <time>2015-11-15T09:50:10Z</time>
      </trkpt>
      <trkpt lat="45.81728" lon="5.34465">
        <ele>263.5</ele>
        <time>2015-11-15T09:50:12Z</time>
      </trkpt>
      <trkpt lat="45.81736" lon="5.34459">
        <ele>263.8</ele>
        <time>2015-11-15T09:50:14Z</time>
      </trkpt>
      <trkpt lat="45.81744" lon="5.34454">
        <ele>264</ele>
        <time>2015-11-15T09:50:16Z</time>
      </trkpt>
      <trkpt lat="45.81754" lon="5.3445">
        <ele>264.3</ele>
        <time>2015-11-15T09:50:18Z</time>
      </trkpt>
      <trkpt lat="45.81763" lon="5.34447">
        <ele>264.6</ele>
        <time>2015-11-15T09:50:20Z</time>
      </trkpt>
      <trkpt lat="45.81772" lon="5.34444">
        <ele>264.8</ele>
        <time>2015-11-15T09:50:22Z</time>
      </trkpt>
      <trkpt lat="45.81782" lon="5.3444">
        <ele>265</ele>
        <time>2015-11-15T09:50:24Z</time>
      </trkpt>
      <trkpt lat="45.81792" lon="5.34437">
        <ele>265.2</ele>
        <time>2015-11-15T09:50:26Z</time>
      </trkpt>
      <trkpt lat="45.81801" lon="5.34434">
        <ele>265.3</ele>
        <time>2015-11-15T09:50:28Z</time>
      </trkpt>
      <trkpt lat="45.8181" lon="5.34431">
        <ele>265.6</ele>
        <time>2015-11-15T09:50:30Z</time>
      </trkpt>
      <trkpt lat="45.8182" lon="5.34427">
        <ele>266</ele>
        <time>2015-11-15T09:50:32Z</time>
      </trkpt>
      <trkpt lat="45.81829" lon="5.3442">
        <ele>266.4</ele>
        <time>2015-11-15T09:50:34Z</time>
      </trkpt>
      <trkpt lat="45.81838" lon="5.3441">
        <ele>267.5</ele>
        <time>2015-11-15T09:50:36Z</time>
      </trkpt>
      <trkpt lat="45.81846" lon="5.344">
        <ele>267.9</ele>
        <time>2015-11-15T09:50:38Z</time>
      </trkpt>
      <trkpt lat="45.81853" lon="5.34391">
        <ele>268.1</ele>
        <time>2015-11-15T09:50:40Z</time>
      </trkpt>
      <trkpt lat="45.81858" lon="5.34383">
        <ele>268.1</ele>
        <time>2015-11-15T09:50:42Z</time>
      </trkpt>
      <trkpt lat="45.81863" lon="5.34374">
        <ele>268.1</ele>
        <time>2015-11-15T09:50:44Z</time>
      </trkpt>
      <trkpt lat="45.81865" lon="5.34364">
        <ele>268.1</ele>
        <time>2015-11-15T09:50:46Z</time>
      </trkpt>
      <trkpt lat="45.81867" lon="5.34355">
        <ele>269.3</ele>
        <time>2015-11-15T09:50:48Z</time>
      </trkpt>
      <trkpt lat="45.81867" lon="5.34347">
        <ele>269.7</ele>
        <time>2015-11-15T09:50:50Z</time>
      </trkpt>
      <trkpt lat="45.81865" lon="5.34338">
        <ele>270.2</ele>
        <time>2015-11-15T09:50:52Z</time>
      </trkpt>
      <trkpt lat="45.81862" lon="5.3433">
        <ele>270.7</ele>
        <time>2015-11-15T09:50:54Z</time>
      </trkpt>
      <trkpt lat="45.81858" lon="5.34323">
        <ele>271.2</ele>
        <time>2015-11-15T09:50:56Z</time>
      </trkpt>
      <trkpt lat="45.81854" lon="5.34315">
        <ele>271.6</ele>
        <time>2015-11-15T09:50:58Z</time>
      </trkpt>
      <trkpt lat="45.8185" lon="5.34308">
        <ele>272.2</ele>
        <time>2015-11-15T09:51:00Z</time>
      </trkpt>
      <trkpt lat="45.81846" lon="5.34302">
        <ele>272.7</ele>
        <time>2015-11-15T09:51:02Z</time>
      </trkpt>
      <trkpt lat="45.81842" lon="5.34295">
        <ele>273.2</ele>
        <time>2015-11-15T09:51:04Z</time>
      </trkpt>
      <trkpt lat="45.81839" lon="5.34287">
        <ele>273.7</ele>
        <time>2015-11-15T09:51:06Z</time>
      </trkpt>
      <trkpt lat="45.81837" lon="5.34278">
        <ele>274.2</ele>
        <time>2015-11-15T09:51:08Z</time>
      </trkpt>
      <trkpt lat="45.81838" lon="5.34269">
        <ele>274.8</ele>
        <time>2015-11-15T09:51:10Z</time>
      </trkpt>
      <trkpt lat="45.81841" lon="5.34261">
        <ele>275.5</ele>
        <time>2015-11-15T09:51:12Z</time>
      </trkpt>
      <trkpt lat="45.81845" lon="5.34255">
        <ele>276.2</ele>
        <time>2015-11-15T09:51:14Z</time>
      </trkpt>
      <trkpt lat="45.81848" lon="5.34248">
        <ele>276.9</ele>
        <time>2015-11-15T09:51:16Z</time>
      </trkpt>
      <trkpt lat="45.81852" lon="5.34242">
        <ele>277.5</ele>
        <time>2015-11-15T09:51:18Z</time>
      </trkpt>
      <trkpt lat="45.81855" lon="5.34236">
        <ele>277.9</ele>
        <time>2015-11-15T09:51:20Z</time>
      </trkpt>
      <trkpt lat="45.81858" lon="5.34228">
        <ele>278.3</ele>
        <time>2015-11-15T09:51:22Z</time>
      </trkpt>
      <trkpt lat="45.81859" lon="5.34221">
        <ele>278.7</ele>
        <time>2015-11-15T09:51:24Z</time>
      </trkpt>
      <trkpt lat="45.81859" lon="5.34214">
        <ele>279.1</ele>
        <time>2015-11-15T09:51:26Z</time>
      </trkpt>
      <trkpt lat="45.81858" lon="5.34207">
        <ele>279.6</ele>
        <time>2015-11-15T09:51:28Z</time>
      </trkpt>
      <trkpt lat="45.81856" lon="5.34201">
        <ele>280</ele>
        <time>2015-11-15T09:51:30Z</time>
      </trkpt>
      <trkpt lat="45.81851" lon="5.34195">
        <ele>280.4</ele>
        <time>2015-11-15T09:51:32Z</time>
      </trkpt>
      <trkpt lat="45.81846" lon="5.34189">
        <ele>280.8</ele>
        <time>2015-11-15T09:51:34Z</time>
      </trkpt>
      <trkpt lat="45.81841" lon="5.34183">
        <ele>281.2</ele>
        <time>2015-11-15T09:51:36Z</time>
      </trkpt>
      <trkpt lat="45.81836" lon="5.34177">
        <ele>281.7</ele>
        <time>2015-11-15T09:51:38Z</time>
      </trkpt>
      <trkpt lat="45.81833" lon="5.34169">
        <ele>282.2</ele>
        <time>2015-11-15T09:51:40Z</time>
      </trkpt>
      <trkpt lat="45.81831" lon="5.3416">
        <ele>282.6</ele>
        <time>2015-11-15T09:51:42Z</time>
      </trkpt>
      <trkpt lat="45.81832" lon="5.34151">
        <ele>282.9</ele>
        <time>2015-11-15T09:51:44Z</time>
      </trkpt>
      <trkpt lat="45.81834" lon="5.34143">
        <ele>283</ele>
        <time>2015-11-15T09:51:46Z</time>
      </trkpt>
      <trkpt lat="45.81836" lon="5.34136">
        <ele>283.2</ele>
        <time>2015-11-15T09:51:48Z</time>
      </trkpt>
      <trkpt lat="45.81839" lon="5.34129">
        <ele>283.5</ele>
        <time>2015-11-15T09:51:50Z</time>
      </trkpt>
      <trkpt lat="45.81842" lon="5.34123">
        <ele>283.9</ele>
        <time>2015-11-15T09:51:52Z</time>
      </trkpt>
      <trkpt lat="45.81845" lon="5.34117">
        <ele>284.4</ele>
        <time>2015-11-15T09:51:54Z</time>
      </trkpt>
      <trkpt lat="45.81847" lon="5.34111">
        <ele>285</ele>
        <time>2015-11-15T09:51:56Z</time>
      </trkpt>
      <trkpt lat="45.8185" lon="5.34104">
        <ele>285.8</ele>
        <time>2015-11-15T09:51:58Z</time>
      </trkpt>
      <trkpt lat="45.81852" lon="5.34098">
        <ele>286.5</ele>
        <time>2015-11-15T09:52:00Z</time>
      </trkpt>
      <trkpt lat="45.81854" lon="5.34092">
        <ele>287.3</ele>
        <time>2015-11-15T09:52:02Z</time>
      </trkpt>
      <trkpt lat="45.81857" lon="5.34086">
        <ele>288</ele>
        <time>2015-11-15T09:52:04Z</time>
      </trkpt>
      <trkpt lat="45.81858" lon="5.34079">
        <ele>288.7</ele>
        <time>2015-11-15T09:52:06Z</time>
      </trkpt>
      <trkpt lat="45.81859" lon="5.34072">
        <ele>289.4</ele>
        <time>2015-11-15T09:52:08Z</time>
      </trkpt>
      <trkpt lat="45.8186" lon="5.34065">
        <ele>289.9</ele>
        <time>2015-11-15T09:52:10Z</time>
      </trkpt>
      <trkpt lat="45.81862" lon="5.34058">
        <ele>290.3</ele>
        <time>2015-11-15T09:52:12Z</time>
      </trkpt>
      <trkpt lat="45.81862" lon="5.34051">
        <ele>290.6</ele>
        <time>2015-11-15T09:52:14Z</time>
      </trkpt>
      <trkpt lat="45.81862" lon="5.34043">
        <ele>291.1</ele>
        <time>2015-11-15T09:52:16Z</time>
      </trkpt>
      <trkpt lat="45.81861" lon="5.34034">
        <ele>291.7</ele>
        <time>2015-11-15T09:52:18Z</time>
      </trkpt>
      <trkpt lat="45.81861" lon="5.34025">
        <ele>292.4</ele>
        <time>2015-11-15T09:52:20Z</time>
      </trkpt>
      <trkpt lat="45.8186" lon="5.34017">
        <ele>293.1</ele>
        <time>2015-11-15T09:52:22Z</time>
      </trkpt>
      <trkpt lat="45.8186" lon="5.34008">
        <ele>293.6</ele>
        <time>2015-11-15T09:52:24Z</time>
      </trkpt>
      <trkpt lat="45.81859" lon="5.33998">
        <ele>293.9</ele>
        <time>2015-11-15T09:52:26Z</time>
      </trkpt>
      <trkpt lat="45.81858" lon="5.33988">
        <ele>294</ele>
        <time>2015-11-15T09:52:28Z</time>
      </trkpt>
      <trkpt lat="45.81858" lon="5.33978">
        <ele>294.1</ele>
        <time>2015-11-15T09:52:30Z</time>
      </trkpt>
      <trkpt lat="45.81858" lon="5.33968">
        <ele>294.1</ele>
        <time>2015-11-15T09:52:32Z</time>
      </trkpt>
      <trkpt lat="45.81856" lon="5.33957">
        <ele>294.2</ele>
        <time>2015-11-15T09:52:34Z</time>
      </trkpt>
      <trkpt lat="45.81855" lon="5.33947">
        <ele>294.2</ele>
        <time>2015-11-15T09:52:36Z</time>
      </trkpt>
      <trkpt lat="45.81854" lon="5.33937">
        <ele>294.3</ele>
        <time>2015-11-15T09:52:38Z</time>
      </trkpt>
      <trkpt lat="45.8185" lon="5.33929">
        <ele>294.3</ele>
        <time>2015-11-15T09:52:40Z</time>
      </trkpt>
      <trkpt lat="45.81845" lon="5.33921">
        <ele>294.4</ele>
        <time>2015-11-15T09:52:42Z</time>
      </trkpt>
      <trkpt lat="45.81839" lon="5.33914">
        <ele>294.4</ele>
        <time>2015-11-15T09:52:44Z</time>
      </trkpt>
      <trkpt lat="45.81833" lon="5.33907">
        <ele>294.5</ele>
        <time>2015-11-15T09:52:46Z</time>
      </trkpt>
      <trkpt lat="45.81826" lon="5.339">
        <ele>294.6</ele>
        <time>2015-11-15T09:52:48Z</time>
      </trkpt>
      <trkpt lat="45.81818" lon="5.33893">
        <ele>294.7</ele>
        <time>2015-11-15T09:52:50Z</time>
      </trkpt>
      <trkpt lat="45.81812" lon="5.33887">
        <ele>294.8</ele>
        <time>2015-11-15T09:52:52Z</time>
      </trkpt>
      <trkpt lat="45.81804" lon="5.33881">
        <ele>295.1</ele>
        <time>2015-11-15T09:52:54Z</time>
      </trkpt>
      <trkpt lat="45.81798" lon="5.33876">
        <ele>295.5</ele>
        <time>2015-11-15T09:52:56Z</time>
      </trkpt>
      <trkpt lat="45.81793" lon="5.3387">
        <ele>295.9</ele>
        <time>2015-11-15T09:52:58Z</time>
      </trkpt>
      <trkpt lat="45.81793" lon="5.33862">
        <ele>296.3</ele>
        <time>2015-11-15T09:53:00Z</time>
      </trkpt>
      <trkpt lat="45.81796" lon="5.33853">
        <ele>299.7</ele>
        <time>2015-11-15T09:53:02Z</time>
      </trkpt>
      <trkpt lat="45.81802" lon="5.33846">
        <ele>299.9</ele>
        <time>2015-11-15T09:53:04Z</time>
      </trkpt>
      <trkpt lat="45.81809" lon="5.33838">
        <ele>299.9</ele>
        <time>2015-11-15T09:53:06Z</time>
      </trkpt>
      <trkpt lat="45.81814" lon="5.33829">
        <ele>300.3</ele>
        <time>2015-11-15T09:53:08Z</time>
      </trkpt>
      <trkpt lat="45.8182" lon="5.33821">
        <ele>300.3</ele>
        <time>2015-11-15T09:53:10Z</time>
      </trkpt>
      <trkpt lat="45.81829" lon="5.33817">
        <ele>299.9</ele>
        <time>2015-11-15T09:53:12Z</time>
      </trkpt>
      <trkpt lat="45.81838" lon="5.33814">
        <ele>299.5</ele>
        <time>2015-11-15T09:53:14Z</time>
      </trkpt>
      <trkpt lat="45.81847" lon="5.33814">
        <ele>298</ele>
        <time>2015-11-15T09:53:16Z</time>
      </trkpt>
      <trkpt lat="45.81857" lon="5.33813">
        <ele>297.4</ele>
        <time>2015-11-15T09:53:18Z</time>
      </trkpt>
      <trkpt lat="45.81868" lon="5.33807">
        <ele>296.7</ele>
        <time>2015-11-15T09:53:20Z</time>
      </trkpt>
      <trkpt lat="45.8188" lon="5.33801">
        <ele>295.1</ele>
        <time>2015-11-15T09:53:22Z</time>
      </trkpt>
      <trkpt lat="45.81889" lon="5.33792">
        <ele>293.6</ele>
        <time>2015-11-15T09:53:24Z</time>
      </trkpt>
      <trkpt lat="45.81897" lon="5.33785">
        <ele>292.6</ele>
        <time>2015-11-15T09:53:26Z</time>
      </trkpt>
      <trkpt lat="45.81907" lon="5.33779">
        <ele>292.1</ele>
        <time>2015-11-15T09:53:28Z</time>
      </trkpt>
      <trkpt lat="45.81915" lon="5.33773">
        <ele>291.5</ele>
        <time>2015-11-15T09:53:30Z</time>
      </trkpt>
      <trkpt lat="45.81924" lon="5.33767">
        <ele>291.7</ele>
        <time>2015-11-15T09:53:32Z</time>
      </trkpt>
      <trkpt lat="45.81933" lon="5.33762">
        <ele>292.5</ele>
        <time>2015-11-15T09:53:34Z</time>
      </trkpt>
      <trkpt lat="45.81941" lon="5.33756">
        <ele>293.2</ele>
        <time>2015-11-15T09:53:36Z</time>
      </trkpt>
      <trkpt lat="45.81947" lon="5.33749">
        <ele>294.1</ele>
        <time>2015-11-15T09:53:38Z</time>
      </trkpt>
      <trkpt lat="45.81952" lon="5.33742">
        <ele>295</ele>
        <time>2015-11-15T09:53:40Z</time>
      </trkpt>
      <trkpt lat="45.81957" lon="5.33733">
        <ele>295.7</ele>
        <time>2015-11-15T09:53:42Z</time>
      </trkpt>
      <trkpt lat="45.81961" lon="5.33726">
        <ele>296.5</ele>
        <time>2015-11-15T09:53:44Z</time>
      </trkpt>
      <trkpt lat="45.81966" lon="5.3372">
        <ele>297.3</ele>
        <time>2015-11-15T09:53:46Z</time>
      </trkpt>
      <trkpt lat="45.81971" lon="5.33715">
        <ele>298.5</ele>
        <time>2015-11-15T09:53:48Z</time>
      </trkpt>
      <trkpt lat="45.81975" lon="5.3371">
        <ele>299.7</ele>
        <time>2015-11-15T09:53:50Z</time>
      </trkpt>
      <trkpt lat="45.8198" lon="5.33706">
        <ele>300.6</ele>
        <time>2015-11-15T09:53:52Z</time>
      </trkpt>
      <trkpt lat="45.81984" lon="5.33699">
        <ele>301.5</ele>
        <time>2015-11-15T09:53:54Z</time>
      </trkpt>
      <trkpt lat="45.81988" lon="5.33693">
        <ele>302.3</ele>
        <time>2015-11-15T09:53:56Z</time>
      </trkpt>
      <trkpt lat="45.81993" lon="5.33687">
        <ele>303.1</ele>
        <time>2015-11-15T09:53:58Z</time>
      </trkpt>
      <trkpt lat="45.81997" lon="5.33682">
        <ele>303.3</ele>
        <time>2015-11-15T09:54:00Z</time>
      </trkpt>
      <trkpt lat="45.82" lon="5.33677">
        <ele>304</ele>
        <time>2015-11-15T09:54:02Z</time>
      </trkpt>
      <trkpt lat="45.82004" lon="5.33672">
        <ele>304.9</ele>
        <time>2015-11-15T09:54:04Z</time>
      </trkpt>
      <trkpt lat="45.8201" lon="5.33668">
        <ele>306.3</ele>
        <time>2015-11-15T09:54:06Z</time>
      </trkpt>
      <trkpt lat="45.82015" lon="5.33663">
        <ele>306.7</ele>
        <time>2015-11-15T09:54:08Z</time>
      </trkpt>
      <trkpt lat="45.82018" lon="5.33657">
        <ele>307.4</ele>
        <time>2015-11-15T09:54:10Z</time>
      </trkpt>
      <trkpt lat="45.82021" lon="5.33652">
        <ele>307.9</ele>
        <time>2015-11-15T09:54:12Z</time>
      </trkpt>
      <trkpt lat="45.82024" lon="5.33648">
        <ele>307.7</ele>
        <time>2015-11-15T09:54:14Z</time>
      </trkpt>
      <trkpt lat="45.82029" lon="5.33643">
        <ele>307.5</ele>
        <time>2015-11-15T09:54:16Z</time>
      </trkpt>
      <trkpt lat="45.82033" lon="5.3364">
        <ele>307.4</ele>
        <time>2015-11-15T09:54:18Z</time>
      </trkpt>
      <trkpt lat="45.82037" lon="5.33638">
        <ele>307.3</ele>
        <time>2015-11-15T09:54:20Z</time>
      </trkpt>
      <trkpt lat="45.8204" lon="5.33635">
        <ele>307.2</ele>
        <time>2015-11-15T09:54:22Z</time>
      </trkpt>
      <trkpt lat="45.82045" lon="5.33632">
        <ele>307</ele>
        <time>2015-11-15T09:54:24Z</time>
      </trkpt>
      <trkpt lat="45.82049" lon="5.3363">
        <ele>307</ele>
        <time>2015-11-15T09:54:26Z</time>
      </trkpt>
      <trkpt lat="45.82053" lon="5.33627">
        <ele>307.1</ele>
        <time>2015-11-15T09:54:28Z</time>
      </trkpt>
      <trkpt lat="45.82056" lon="5.33624">
        <ele>307.2</ele>
        <time>2015-11-15T09:54:30Z</time>
      </trkpt>
      <trkpt lat="45.8206" lon="5.33622">
        <ele>307.3</ele>
        <time>2015-11-15T09:54:32Z</time>
      </trkpt>
      <trkpt lat="45.82064" lon="5.33619">
        <ele>307.3</ele>
        <time>2015-11-15T09:54:34Z</time>
      </trkpt>
      <trkpt lat="45.82067" lon="5.33615">
        <ele>307.3</ele>
        <time>2015-11-15T09:54:36Z</time>
      </trkpt>
      <trkpt lat="45.8207" lon="5.33612">
        <ele>307.3</ele>
        <time>2015-11-15T09:54:38Z</time>
      </trkpt>
      <trkpt lat="45.82072" lon="5.3361">
        <ele>307.3</ele>
        <time>2015-11-15T09:54:40Z</time>
      </trkpt>
      <trkpt lat="45.82076" lon="5.33608">
        <ele>307.3</ele>
        <time>2015-11-15T09:54:42Z</time>
      </trkpt>
      <trkpt lat="45.82079" lon="5.33605">
        <ele>307.4</ele>
        <time>2015-11-15T09:54:44Z</time>
      </trkpt>
      <trkpt lat="45.82082" lon="5.33601">
        <ele>307.5</ele>
        <time>2015-11-15T09:54:46Z</time>
      </trkpt>
      <trkpt lat="45.82085" lon="5.33598">
        <ele>307.8</ele>
        <time>2015-11-15T09:54:48Z</time>
      </trkpt>
      <trkpt lat="45.82088" lon="5.33595">
        <ele>308.1</ele>
        <time>2015-11-15T09:54:50Z</time>
      </trkpt>
      <trkpt lat="45.82092" lon="5.33591">
        <ele>308.4</ele>
        <time>2015-11-15T09:54:52Z</time>
      </trkpt>
      <trkpt lat="45.82095" lon="5.33587">
        <ele>308.8</ele>
        <time>2015-11-15T09:54:54Z</time>
      </trkpt>
      <trkpt lat="45.82098" lon="5.33583">
        <ele>309.1</ele>
        <time>2015-11-15T09:54:56Z</time>
      </trkpt>
      <trkpt lat="45.82101" lon="5.33579">
        <ele>309.6</ele>
        <time>2015-11-15T09:54:58Z</time>
      </trkpt>
      <trkpt lat="45.82103" lon="5.33576">
        <ele>310.1</ele>
        <time>2015-11-15T09:55:00Z</time>
      </trkpt>
      <trkpt lat="45.82106" lon="5.33573">
        <ele>310.6</ele>
        <time>2015-11-15T09:55:02Z</time>
      </trkpt>
      <trkpt lat="45.82108" lon="5.3357">
        <ele>311</ele>
        <time>2015-11-15T09:55:04Z</time>
      </trkpt>
      <trkpt lat="45.82111" lon="5.33567">
        <ele>311.5</ele>
        <time>2015-11-15T09:55:06Z</time>
      </trkpt>
      <trkpt lat="45.82113" lon="5.33564">
        <ele>312.1</ele>
        <time>2015-11-15T09:55:08Z</time>
      </trkpt>
      <trkpt lat="45.82116" lon="5.33561">
        <ele>312.5</ele>
        <time>2015-11-15T09:55:10Z</time>
      </trkpt>
      <trkpt lat="45.82117" lon="5.33558">
        <ele>312.8</ele>
        <time>2015-11-15T09:55:12Z</time>
      </trkpt>
      <trkpt lat="45.82119" lon="5.33554">
        <ele>313.2</ele>
        <time>2015-11-15T09:55:14Z</time>
      </trkpt>
      <trkpt lat="45.8212" lon="5.33551">
        <ele>313.4</ele>
        <time>2015-11-15T09:55:16Z</time>
      </trkpt>
      <trkpt lat="45.82121" lon="5.33549">
        <ele>313.6</ele>
        <time>2015-11-15T09:55:18Z</time>
      </trkpt>
      <trkpt lat="45.82123" lon="5.3354">
        <ele>314</ele>
        <time>2015-11-15T09:55:20Z</time>
      </trkpt>
      <trkpt lat="45.82122" lon="5.33536">
        <ele>314</ele>
        <time>2015-11-15T09:55:24Z</time>
      </trkpt>
      <trkpt lat="45.82121" lon="5.33532">
        <ele>314.1</ele>
        <time>2015-11-15T09:55:28Z</time>
      </trkpt>
      <trkpt lat="45.8212" lon="5.3353">
        <ele>314.2</ele>
        <time>2015-11-15T09:55:30Z</time>
      </trkpt>
      <trkpt lat="45.82118" lon="5.33527">
        <ele>314.3</ele>
        <time>2015-11-15T09:55:32Z</time>
      </trkpt>
      <trkpt lat="45.82117" lon="5.33525">
        <ele>314.4</ele>
        <time>2015-11-15T09:55:34Z</time>
      </trkpt>
      <trkpt lat="45.82116" lon="5.33523">
        <ele>314.5</ele>
        <time>2015-11-15T09:55:36Z</time>
      </trkpt>
      <trkpt lat="45.82115" lon="5.33521">
        <ele>314.8</ele>
        <time>2015-11-15T09:55:38Z</time>
      </trkpt>
      <trkpt lat="45.82114" lon="5.33519">
        <ele>315.3</ele>
        <time>2015-11-15T09:55:40Z</time>
      </trkpt>
      <trkpt lat="45.82112" lon="5.33516">
        <ele>315.7</ele>
        <time>2015-11-15T09:55:42Z</time>
      </trkpt>
      <trkpt lat="45.82111" lon="5.33514">
        <ele>316.1</ele>
        <time>2015-11-15T09:55:44Z</time>
      </trkpt>
      <trkpt lat="45.82109" lon="5.33512">
        <ele>316.4</ele>
        <time>2015-11-15T09:55:48Z</time>
      </trkpt>
      <trkpt lat="45.82107" lon="5.33511">
        <ele>316.7</ele>
        <time>2015-11-15T09:55:50Z</time>
      </trkpt>
      <trkpt lat="45.82106" lon="5.3351">
        <ele>316.8</ele>
        <time>2015-11-15T09:55:52Z</time>
      </trkpt>
      <trkpt lat="45.82102" lon="5.33506">
        <ele>318.1</ele>
        <time>2015-11-15T09:56:00Z</time>
      </trkpt>
      <trkpt lat="45.82101" lon="5.33505">
        <ele>318.3</ele>
        <time>2015-11-15T09:56:02Z</time>
      </trkpt>
      <trkpt lat="45.82099" lon="5.33504">
        <ele>318.5</ele>
        <time>2015-11-15T09:56:04Z</time>
      </trkpt>
      <trkpt lat="45.82095" lon="5.33501">
        <ele>319.1</ele>
        <time>2015-11-15T09:56:10Z</time>
      </trkpt>
      <trkpt lat="45.82094" lon="5.335">
        <ele>319.4</ele>
        <time>2015-11-15T09:56:12Z</time>
      </trkpt>
      <trkpt lat="45.82092" lon="5.33499">
        <ele>320</ele>
        <time>2015-11-15T09:56:14Z</time>
      </trkpt>
      <trkpt lat="45.8209" lon="5.33498">
        <ele>320.3</ele>
        <time>2015-11-15T09:56:16Z</time>
      </trkpt>
      <trkpt lat="45.82089" lon="5.33498">
        <ele>320.4</ele>
        <time>2015-11-15T09:56:18Z</time>
      </trkpt>
      <trkpt lat="45.82087" lon="5.33496">
        <ele>321.3</ele>
        <time>2015-11-15T09:56:20Z</time>
      </trkpt>
      <trkpt lat="45.82086" lon="5.33495">
        <ele>321.5</ele>
        <time>2015-11-15T09:56:22Z</time>
      </trkpt>
      <trkpt lat="45.82084" lon="5.33494">
        <ele>322.6</ele>
        <time>2015-11-15T09:56:24Z</time>
      </trkpt>
      <trkpt lat="45.82083" lon="5.33493">
        <ele>322.8</ele>
        <time>2015-11-15T09:56:26Z</time>
      </trkpt>
      <trkpt lat="45.82081" lon="5.33492">
        <ele>323</ele>
        <time>2015-11-15T09:56:28Z</time>
      </trkpt>
      <trkpt lat="45.8208" lon="5.3349">
        <ele>323.1</ele>
        <time>2015-11-15T09:56:30Z</time>
      </trkpt>
      <trkpt lat="45.8208" lon="5.33487">
        <ele>323.2</ele>
        <time>2015-11-15T09:56:32Z</time>
      </trkpt>
      <trkpt lat="45.82079" lon="5.33484">
        <ele>323.4</ele>
        <time>2015-11-15T09:56:34Z</time>
      </trkpt>
      <trkpt lat="45.8208" lon="5.33482">
        <ele>323.6</ele>
        <time>2015-11-15T09:56:36Z</time>
      </trkpt>
      <trkpt lat="45.8208" lon="5.33479">
        <ele>323.7</ele>
        <time>2015-11-15T09:56:38Z</time>
      </trkpt>
      <trkpt lat="45.82081" lon="5.33476">
        <ele>324.8</ele>
        <time>2015-11-15T09:56:40Z</time>
      </trkpt>
      <trkpt lat="45.82081" lon="5.33474">
        <ele>324.9</ele>
        <time>2015-11-15T09:56:42Z</time>
      </trkpt>
      <trkpt lat="45.82082" lon="5.33471">
        <ele>324.9</ele>
        <time>2015-11-15T09:56:44Z</time>
      </trkpt>
      <trkpt lat="45.82083" lon="5.33469">
        <ele>325</ele>
        <time>2015-11-15T09:56:46Z</time>
      </trkpt>
      <trkpt lat="45.82084" lon="5.33466">
        <ele>325</ele>
        <time>2015-11-15T09:56:48Z</time>
      </trkpt>
      <trkpt lat="45.82085" lon="5.33463">
        <ele>325.1</ele>
        <time>2015-11-15T09:56:52Z</time>
      </trkpt>
      <trkpt lat="45.82086" lon="5.3346">
        <ele>325.2</ele>
        <time>2015-11-15T09:56:54Z</time>
      </trkpt>
      <trkpt lat="45.82087" lon="5.33457">
        <ele>325.2</ele>
        <time>2015-11-15T09:56:56Z</time>
      </trkpt>
      <trkpt lat="45.82089" lon="5.33453">
        <ele>325.3</ele>
        <time>2015-11-15T09:56:58Z</time>
      </trkpt>
      <trkpt lat="45.8209" lon="5.3345">
        <ele>325.5</ele>
        <time>2015-11-15T09:57:00Z</time>
      </trkpt>
      <trkpt lat="45.82092" lon="5.33446">
        <ele>326</ele>
        <time>2015-11-15T09:57:02Z</time>
      </trkpt>
      <trkpt lat="45.82093" lon="5.33443">
        <ele>326.8</ele>
        <time>2015-11-15T09:57:04Z</time>
      </trkpt>
      <trkpt lat="45.82093" lon="5.3344">
        <ele>327.2</ele>
        <time>2015-11-15T09:57:06Z</time>
      </trkpt>
      <trkpt lat="45.82094" lon="5.33437">
        <ele>327.4</ele>
        <time>2015-11-15T09:57:08Z</time>
      </trkpt>
      <trkpt lat="45.82095" lon="5.33434">
        <ele>327.7</ele>
        <time>2015-11-15T09:57:10Z</time>
      </trkpt>
      <trkpt lat="45.82096" lon="5.33431">
        <ele>328</ele>
        <time>2015-11-15T09:57:12Z</time>
      </trkpt>
      <trkpt lat="45.82097" lon="5.33428">
        <ele>328.4</ele>
        <time>2015-11-15T09:57:14Z</time>
      </trkpt>
      <trkpt lat="45.82098" lon="5.33424">
        <ele>328.9</ele>
        <time>2015-11-15T09:57:16Z</time>
      </trkpt>
      <trkpt lat="45.821" lon="5.3342">
        <ele>329.4</ele>
        <time>2015-11-15T09:57:18Z</time>
      </trkpt>
      <trkpt lat="45.82101" lon="5.33416">
        <ele>329.7</ele>
        <time>2015-11-15T09:57:20Z</time>
      </trkpt>
      <trkpt lat="45.82102" lon="5.33413">
        <ele>330</ele>
        <time>2015-11-15T09:57:22Z</time>
      </trkpt>
      <trkpt lat="45.82103" lon="5.33409">
        <ele>331</ele>
        <time>2015-11-15T09:57:24Z</time>
      </trkpt>
      <trkpt lat="45.82104" lon="5.33405">
        <ele>331.3</ele>
        <time>2015-11-15T09:57:26Z</time>
      </trkpt>
      <trkpt lat="45.82106" lon="5.33402">
        <ele>331.4</ele>
        <time>2015-11-15T09:57:28Z</time>
      </trkpt>
      <trkpt lat="45.82107" lon="5.33399">
        <ele>331.6</ele>
        <time>2015-11-15T09:57:30Z</time>
      </trkpt>
      <trkpt lat="45.82108" lon="5.33395">
        <ele>331.8</ele>
        <time>2015-11-15T09:57:32Z</time>
      </trkpt>
      <trkpt lat="45.8211" lon="5.33391">
        <ele>332.2</ele>
        <time>2015-11-15T09:57:34Z</time>
      </trkpt>
      <trkpt lat="45.82111" lon="5.33387">
        <ele>332.7</ele>
        <time>2015-11-15T09:57:36Z</time>
      </trkpt>
      <trkpt lat="45.82113" lon="5.33383">
        <ele>333.2</ele>
        <time>2015-11-15T09:57:38Z</time>
      </trkpt>
      <trkpt lat="45.82115" lon="5.3338">
        <ele>333.4</ele>
        <time>2015-11-15T09:57:40Z</time>
      </trkpt>
      <trkpt lat="45.82116" lon="5.33376">
        <ele>333.5</ele>
        <time>2015-11-15T09:57:42Z</time>
      </trkpt>
      <trkpt lat="45.82118" lon="5.33372">
        <ele>333.6</ele>
        <time>2015-11-15T09:57:44Z</time>
      </trkpt>
      <trkpt lat="45.82121" lon="5.33367">
        <ele>333.6</ele>
        <time>2015-11-15T09:57:46Z</time>
      </trkpt>
      <trkpt lat="45.82123" lon="5.3336">
        <ele>333.7</ele>
        <time>2015-11-15T09:57:48Z</time>
      </trkpt>
      <trkpt lat="45.82126" lon="5.33352">
        <ele>333.8</ele>
        <time>2015-11-15T09:57:50Z</time>
      </trkpt>
      <trkpt lat="45.82129" lon="5.33344">
        <ele>333.8</ele>
        <time>2015-11-15T09:57:52Z</time>
      </trkpt>
      <trkpt lat="45.82133" lon="5.33336">
        <ele>333.8</ele>
        <time>2015-11-15T09:57:54Z</time>
      </trkpt>
      <trkpt lat="45.82137" lon="5.33327">
        <ele>333.9</ele>
        <time>2015-11-15T09:57:56Z</time>
      </trkpt>
      <trkpt lat="45.82139" lon="5.33318">
        <ele>333.9</ele>
        <time>2015-11-15T09:57:58Z</time>
      </trkpt>
      <trkpt lat="45.8214" lon="5.3331">
        <ele>333.9</ele>
        <time>2015-11-15T09:58:00Z</time>
      </trkpt>
      <trkpt lat="45.82142" lon="5.33302">
        <ele>334</ele>
        <time>2015-11-15T09:58:02Z</time>
      </trkpt>
      <trkpt lat="45.82142" lon="5.33295">
        <ele>334.1</ele>
        <time>2015-11-15T09:58:04Z</time>
      </trkpt>
      <trkpt lat="45.82142" lon="5.33286">
        <ele>334.4</ele>
        <time>2015-11-15T09:58:06Z</time>
      </trkpt>
      <trkpt lat="45.82142" lon="5.33277">
        <ele>334.9</ele>
        <time>2015-11-15T09:58:08Z</time>
      </trkpt>
      <trkpt lat="45.82141" lon="5.33268">
        <ele>335.9</ele>
        <time>2015-11-15T09:58:10Z</time>
      </trkpt>
      <trkpt lat="45.8214" lon="5.3326">
        <ele>336.2</ele>
        <time>2015-11-15T09:58:12Z</time>
      </trkpt>
      <trkpt lat="45.82139" lon="5.33253">
        <ele>336.4</ele>
        <time>2015-11-15T09:58:14Z</time>
      </trkpt>
      <trkpt lat="45.82136" lon="5.33246">
        <ele>337.1</ele>
        <time>2015-11-15T09:58:16Z</time>
      </trkpt>
      <trkpt lat="45.82134" lon="5.33235">
        <ele>338.1</ele>
        <time>2015-11-15T09:58:18Z</time>
      </trkpt>
      <trkpt lat="45.8213" lon="5.33221">
        <ele>338.4</ele>
        <time>2015-11-15T09:58:20Z</time>
      </trkpt>
      <trkpt lat="45.82126" lon="5.33207">
        <ele>338.5</ele>
        <time>2015-11-15T09:58:22Z</time>
      </trkpt>
      <trkpt lat="45.8212" lon="5.332">
        <ele>338.5</ele>
        <time>2015-11-15T09:58:24Z</time>
      </trkpt>
      <trkpt lat="45.82113" lon="5.33195">
        <ele>338.5</ele>
        <time>2015-11-15T09:58:26Z</time>
      </trkpt>
      <trkpt lat="45.82108" lon="5.3319">
        <ele>338.5</ele>
        <time>2015-11-15T09:58:28Z</time>
      </trkpt>
      <trkpt lat="45.82103" lon="5.33186">
        <ele>338.6</ele>
        <time>2015-11-15T09:58:30Z</time>
      </trkpt>
      <trkpt lat="45.82098" lon="5.33183">
        <ele>338.6</ele>
        <time>2015-11-15T09:58:32Z</time>
      </trkpt>
      <trkpt lat="45.82093" lon="5.33181">
        <ele>338.7</ele>
        <time>2015-11-15T09:58:34Z</time>
      </trkpt>
      <trkpt lat="45.82087" lon="5.3318">
        <ele>339</ele>
        <time>2015-11-15T09:58:36Z</time>
      </trkpt>
      <trkpt lat="45.82079" lon="5.3318">
        <ele>339.8</ele>
        <time>2015-11-15T09:58:38Z</time>
      </trkpt>
      <trkpt lat="45.82069" lon="5.3318">
        <ele>340.7</ele>
        <time>2015-11-15T09:58:40Z</time>
      </trkpt>
      <trkpt lat="45.82061" lon="5.33177">
        <ele>340.9</ele>
        <time>2015-11-15T09:58:42Z</time>
      </trkpt>
      <trkpt lat="45.82058" lon="5.33169">
        <ele>340.9</ele>
        <time>2015-11-15T09:58:44Z</time>
      </trkpt>
      <trkpt lat="45.82063" lon="5.3316">
        <ele>341</ele>
        <time>2015-11-15T09:58:46Z</time>
      </trkpt>
      <trkpt lat="45.8207" lon="5.3315">
        <ele>340.9</ele>
        <time>2015-11-15T09:58:48Z</time>
      </trkpt>
      <trkpt lat="45.82073" lon="5.33141">
        <ele>340.9</ele>
        <time>2015-11-15T09:58:50Z</time>
      </trkpt>
      <trkpt lat="45.82071" lon="5.3313">
        <ele>340.7</ele>
        <time>2015-11-15T09:59:49Z</time>
      </trkpt>
      <trkpt lat="45.82072" lon="5.33116">
        <ele>340.4</ele>
        <time>2015-11-15T09:59:51Z</time>
      </trkpt>
      <trkpt lat="45.82075" lon="5.33096">
        <ele>339.8</ele>
        <time>2015-11-15T09:59:53Z</time>
      </trkpt>
      <trkpt lat="45.82079" lon="5.33085">
        <ele>339.4</ele>
        <time>2015-11-15T09:59:55Z</time>
      </trkpt>
      <trkpt lat="45.82083" lon="5.33073">
        <ele>338.9</ele>
        <time>2015-11-15T09:59:57Z</time>
      </trkpt>
      <trkpt lat="45.82087" lon="5.33059">
        <ele>338.4</ele>
        <time>2015-11-15T09:59:59Z</time>
      </trkpt>
      <trkpt lat="45.82093" lon="5.33045">
        <ele>337.8</ele>
        <time>2015-11-15T10:00:01Z</time>
      </trkpt>
      <trkpt lat="45.82101" lon="5.33031">
        <ele>337</ele>
        <time>2015-11-15T10:00:03Z</time>
      </trkpt>
      <trkpt lat="45.8211" lon="5.33018">
        <ele>336.2</ele>
        <time>2015-11-15T10:00:05Z</time>
      </trkpt>
      <trkpt lat="45.82119" lon="5.33007">
        <ele>335.4</ele>
        <time>2015-11-15T10:00:07Z</time>
      </trkpt>
      <trkpt lat="45.82129" lon="5.32995">
        <ele>334.5</ele>
        <time>2015-11-15T10:00:09Z</time>
      </trkpt>
      <trkpt lat="45.82139" lon="5.32983">
        <ele>333.8</ele>
        <time>2015-11-15T10:00:11Z</time>
      </trkpt>
      <trkpt lat="45.8215" lon="5.32971">
        <ele>333.1</ele>
        <time>2015-11-15T10:00:13Z</time>
      </trkpt>
      <trkpt lat="45.82161" lon="5.32958">
        <ele>332.6</ele>
        <time>2015-11-15T10:00:15Z</time>
      </trkpt>
      <trkpt lat="45.82171" lon="5.32946">
        <ele>332.2</ele>
        <time>2015-11-15T10:00:17Z</time>
      </trkpt>
      <trkpt lat="45.82179" lon="5.32933">
        <ele>331.5</ele>
        <time>2015-11-15T10:00:19Z</time>
      </trkpt>
      <trkpt lat="45.82185" lon="5.3292">
        <ele>330.8</ele>
        <time>2015-11-15T10:00:21Z</time>
      </trkpt>
      <trkpt lat="45.82192" lon="5.32909">
        <ele>330.5</ele>
        <time>2015-11-15T10:00:23Z</time>
      </trkpt>
      <trkpt lat="45.82197" lon="5.32897">
        <ele>330</ele>
        <time>2015-11-15T10:00:25Z</time>
      </trkpt>
      <trkpt lat="45.82202" lon="5.32884">
        <ele>329.8</ele>
        <time>2015-11-15T10:00:27Z</time>
      </trkpt>
      <trkpt lat="45.82206" lon="5.32871">
        <ele>329.7</ele>
        <time>2015-11-15T10:00:29Z</time>
      </trkpt>
      <trkpt lat="45.8221" lon="5.32859">
        <ele>329.9</ele>
        <time>2015-11-15T10:00:31Z</time>
      </trkpt>
      <trkpt lat="45.82216" lon="5.32848">
        <ele>330.4</ele>
        <time>2015-11-15T10:00:33Z</time>
      </trkpt>
      <trkpt lat="45.82221" lon="5.32836">
        <ele>330.7</ele>
        <time>2015-11-15T10:00:35Z</time>
      </trkpt>
      <trkpt lat="45.82226" lon="5.32825">
        <ele>331.4</ele>
        <time>2015-11-15T10:00:37Z</time>
      </trkpt>
      <trkpt lat="45.82229" lon="5.32813">
        <ele>332</ele>
        <time>2015-11-15T10:00:39Z</time>
      </trkpt>
      <trkpt lat="45.82232" lon="5.32801">
        <ele>332.6</ele>
        <time>2015-11-15T10:00:41Z</time>
      </trkpt>
      <trkpt lat="45.82232" lon="5.32788">
        <ele>333.2</ele>
        <time>2015-11-15T10:00:43Z</time>
      </trkpt>
      <trkpt lat="45.82231" lon="5.32774">
        <ele>333.8</ele>
        <time>2015-11-15T10:00:45Z</time>
      </trkpt>
      <trkpt lat="45.8223" lon="5.32761">
        <ele>334.7</ele>
        <time>2015-11-15T10:00:47Z</time>
      </trkpt>
      <trkpt lat="45.82232" lon="5.32748">
        <ele>335.4</ele>
        <time>2015-11-15T10:00:49Z</time>
      </trkpt>
      <trkpt lat="45.82235" lon="5.32737">
        <ele>335.8</ele>
        <time>2015-11-15T10:00:51Z</time>
      </trkpt>
      <trkpt lat="45.82238" lon="5.32725">
        <ele>335.9</ele>
        <time>2015-11-15T10:00:53Z</time>
      </trkpt>
      <trkpt lat="45.82241" lon="5.32714">
        <ele>336.1</ele>
        <time>2015-11-15T10:00:55Z</time>
      </trkpt>
      <trkpt lat="45.82243" lon="5.32703">
        <ele>336.7</ele>
        <time>2015-11-15T10:00:57Z</time>
      </trkpt>
      <trkpt lat="45.82246" lon="5.32692">
        <ele>337.5</ele>
        <time>2015-11-15T10:00:59Z</time>
      </trkpt>
      <trkpt lat="45.82249" lon="5.32681">
        <ele>338.4</ele>
        <time>2015-11-15T10:01:01Z</time>
      </trkpt>
      <trkpt lat="45.8225" lon="5.3267">
        <ele>339.3</ele>
        <time>2015-11-15T10:01:03Z</time>
      </trkpt>
      <trkpt lat="45.82251" lon="5.3266">
        <ele>339.8</ele>
        <time>2015-11-15T10:01:05Z</time>
      </trkpt>
      <trkpt lat="45.82252" lon="5.32648">
        <ele>339.8</ele>
        <time>2015-11-15T10:01:07Z</time>
      </trkpt>
      <trkpt lat="45.82253" lon="5.32637">
        <ele>340</ele>
        <time>2015-11-15T10:01:09Z</time>
      </trkpt>
      <trkpt lat="45.82255" lon="5.32625">
        <ele>340.8</ele>
        <time>2015-11-15T10:01:11Z</time>
      </trkpt>
      <trkpt lat="45.82256" lon="5.32614">
        <ele>341.7</ele>
        <time>2015-11-15T10:01:13Z</time>
      </trkpt>
      <trkpt lat="45.82257" lon="5.32604">
        <ele>342.3</ele>
        <time>2015-11-15T10:01:15Z</time>
      </trkpt>
      <trkpt lat="45.82258" lon="5.32593">
        <ele>342.9</ele>
        <time>2015-11-15T10:01:17Z</time>
      </trkpt>
      <trkpt lat="45.82258" lon="5.32585">
        <ele>343.5</ele>
        <time>2015-11-15T10:01:19Z</time>
      </trkpt>
      <trkpt lat="45.82258" lon="5.32577">
        <ele>344</ele>
        <time>2015-11-15T10:01:21Z</time>
      </trkpt>
      <trkpt lat="45.82255" lon="5.32572">
        <ele>344.6</ele>
        <time>2015-11-15T10:01:23Z</time>
      </trkpt>
      <trkpt lat="45.82253" lon="5.32565">
        <ele>345</ele>
        <time>2015-11-15T10:01:25Z</time>
      </trkpt>
      <trkpt lat="45.82251" lon="5.32558">
        <ele>345.4</ele>
        <time>2015-11-15T10:01:27Z</time>
      </trkpt>
      <trkpt lat="45.82249" lon="5.32553">
        <ele>345.5</ele>
        <time>2015-11-15T10:01:29Z</time>
      </trkpt>
      <trkpt lat="45.82247" lon="5.32546">
        <ele>345.6</ele>
        <time>2015-11-15T10:01:31Z</time>
      </trkpt>
      <trkpt lat="45.82245" lon="5.32541">
        <ele>345.7</ele>
        <time>2015-11-15T10:01:33Z</time>
      </trkpt>
      <trkpt lat="45.82242" lon="5.32537">
        <ele>345.8</ele>
        <time>2015-11-15T10:01:35Z</time>
      </trkpt>
      <trkpt lat="45.82239" lon="5.32533">
        <ele>345.9</ele>
        <time>2015-11-15T10:01:37Z</time>
      </trkpt>
      <trkpt lat="45.82237" lon="5.32529">
        <ele>346</ele>
        <time>2015-11-15T10:01:39Z</time>
      </trkpt>
      <trkpt lat="45.82233" lon="5.32524">
        <ele>346</ele>
        <time>2015-11-15T10:01:41Z</time>
      </trkpt>
      <trkpt lat="45.82231" lon="5.3252">
        <ele>346</ele>
        <time>2015-11-15T10:01:43Z</time>
      </trkpt>
      <trkpt lat="45.82229" lon="5.32516">
        <ele>346</ele>
        <time>2015-11-15T10:01:45Z</time>
      </trkpt>
      <trkpt lat="45.82227" lon="5.32514">
        <ele>345.9</ele>
        <time>2015-11-15T10:01:47Z</time>
      </trkpt>
      <trkpt lat="45.82225" lon="5.32511">
        <ele>345.9</ele>
        <time>2015-11-15T10:01:49Z</time>
      </trkpt>
      <trkpt lat="45.82223" lon="5.32508">
        <ele>345.8</ele>
        <time>2015-11-15T10:01:51Z</time>
      </trkpt>
      <trkpt lat="45.82221" lon="5.32504">
        <ele>345.8</ele>
        <time>2015-11-15T10:01:53Z</time>
      </trkpt>
      <trkpt lat="45.82218" lon="5.32501">
        <ele>345.9</ele>
        <time>2015-11-15T10:01:55Z</time>
      </trkpt>
      <trkpt lat="45.82217" lon="5.32498">
        <ele>346</ele>
        <time>2015-11-15T10:01:57Z</time>
      </trkpt>
      <trkpt lat="45.82215" lon="5.32494">
        <ele>346.2</ele>
        <time>2015-11-15T10:01:59Z</time>
      </trkpt>
      <trkpt lat="45.82214" lon="5.3249">
        <ele>346.3</ele>
        <time>2015-11-15T10:02:01Z</time>
      </trkpt>
      <trkpt lat="45.82214" lon="5.32485">
        <ele>346.5</ele>
        <time>2015-11-15T10:02:03Z</time>
      </trkpt>
      <trkpt lat="45.82214" lon="5.32481">
        <ele>346.6</ele>
        <time>2015-11-15T10:02:05Z</time>
      </trkpt>
      <trkpt lat="45.82214" lon="5.32476">
        <ele>346.9</ele>
        <time>2015-11-15T10:02:07Z</time>
      </trkpt>
      <trkpt lat="45.82216" lon="5.32469">
        <ele>347.5</ele>
        <time>2015-11-15T10:02:09Z</time>
      </trkpt>
      <trkpt lat="45.82216" lon="5.32465">
        <ele>348</ele>
        <time>2015-11-15T10:02:11Z</time>
      </trkpt>
      <trkpt lat="45.82217" lon="5.32459">
        <ele>348.7</ele>
        <time>2015-11-15T10:02:13Z</time>
      </trkpt>
      <trkpt lat="45.82218" lon="5.32454">
        <ele>349.3</ele>
        <time>2015-11-15T10:02:15Z</time>
      </trkpt>
      <trkpt lat="45.82219" lon="5.32449">
        <ele>349.8</ele>
        <time>2015-11-15T10:02:17Z</time>
      </trkpt>
      <trkpt lat="45.82219" lon="5.32443">
        <ele>350.3</ele>
        <time>2015-11-15T10:02:19Z</time>
      </trkpt>
      <trkpt lat="45.82221" lon="5.32438">
        <ele>351.1</ele>
        <time>2015-11-15T10:02:21Z</time>
      </trkpt>
      <trkpt lat="45.82221" lon="5.32433">
        <ele>352</ele>
        <time>2015-11-15T10:02:23Z</time>
      </trkpt>
      <trkpt lat="45.82222" lon="5.32427">
        <ele>352.8</ele>
        <time>2015-11-15T10:02:25Z</time>
      </trkpt>
      <trkpt lat="45.82222" lon="5.32423">
        <ele>353.4</ele>
        <time>2015-11-15T10:02:27Z</time>
      </trkpt>
      <trkpt lat="45.82222" lon="5.32417">
        <ele>353.9</ele>
        <time>2015-11-15T10:02:29Z</time>
      </trkpt>
      <trkpt lat="45.82222" lon="5.32412">
        <ele>354.1</ele>
        <time>2015-11-15T10:02:31Z</time>
      </trkpt>
      <trkpt lat="45.82222" lon="5.32407">
        <ele>354.2</ele>
        <time>2015-11-15T10:02:33Z</time>
      </trkpt>
      <trkpt lat="45.82221" lon="5.32402">
        <ele>354.3</ele>
        <time>2015-11-15T10:02:35Z</time>
      </trkpt>
      <trkpt lat="45.8222" lon="5.32396">
        <ele>354.3</ele>
        <time>2015-11-15T10:02:37Z</time>
      </trkpt>
      <trkpt lat="45.82218" lon="5.32391">
        <ele>353.9</ele>
        <time>2015-11-15T10:02:39Z</time>
      </trkpt>
      <trkpt lat="45.82217" lon="5.32386">
        <ele>353.5</ele>
        <time>2015-11-15T10:02:41Z</time>
      </trkpt>
      <trkpt lat="45.82216" lon="5.32381">
        <ele>352.9</ele>
        <time>2015-11-15T10:02:43Z</time>
      </trkpt>
      <trkpt lat="45.82214" lon="5.32376">
        <ele>352.4</ele>
        <time>2015-11-15T10:02:45Z</time>
      </trkpt>
      <trkpt lat="45.82213" lon="5.3237">
        <ele>351.4</ele>
        <time>2015-11-15T10:02:47Z</time>
      </trkpt>
      <trkpt lat="45.8221" lon="5.32363">
        <ele>350.3</ele>
        <time>2015-11-15T10:02:49Z</time>
      </trkpt>
      <trkpt lat="45.82208" lon="5.32355">
        <ele>349.4</ele>
        <time>2015-11-15T10:02:51Z</time>
      </trkpt>
      <trkpt lat="45.82205" lon="5.32346">
        <ele>348.5</ele>
        <time>2015-11-15T10:02:53Z</time>
      </trkpt>
      <trkpt lat="45.82203" lon="5.32337">
        <ele>347.6</ele>
        <time>2015-11-15T10:02:55Z</time>
      </trkpt>
      <trkpt lat="45.822" lon="5.32326">
        <ele>346.3</ele>
        <time>2015-11-15T10:02:57Z</time>
      </trkpt>
      <trkpt lat="45.82198" lon="5.32313">
        <ele>344.6</ele>
        <time>2015-11-15T10:02:59Z</time>
      </trkpt>
      <trkpt lat="45.82196" lon="5.32299">
        <ele>343.4</ele>
        <time>2015-11-15T10:03:01Z</time>
      </trkpt>
      <trkpt lat="45.82194" lon="5.32285">
        <ele>342.8</ele>
        <time>2015-11-15T10:03:03Z</time>
      </trkpt>
      <trkpt lat="45.82189" lon="5.32274">
        <ele>342.4</ele>
        <time>2015-11-15T10:03:05Z</time>
      </trkpt>
      <trkpt lat="45.82187" lon="5.32269">
        <ele>342.2</ele>
        <time>2015-11-15T10:03:07Z</time>
      </trkpt>
      <trkpt lat="45.82186" lon="5.32265">
        <ele>342.1</ele>
        <time>2015-11-15T10:03:09Z</time>
      </trkpt>
      <trkpt lat="45.82184" lon="5.32261">
        <ele>342</ele>
        <time>2015-11-15T10:03:13Z</time>
      </trkpt>
      <trkpt lat="45.82182" lon="5.32261">
        <ele>342</ele>
        <time>2015-11-15T10:03:15Z</time>
      </trkpt>
      <trkpt lat="45.82179" lon="5.32261">
        <ele>342</ele>
        <time>2015-11-15T10:03:17Z</time>
      </trkpt>
      <trkpt lat="45.82176" lon="5.32258">
        <ele>341.5</ele>
        <time>2015-11-15T10:03:19Z</time>
      </trkpt>
      <trkpt lat="45.82173" lon="5.32255">
        <ele>341.1</ele>
        <time>2015-11-15T10:03:21Z</time>
      </trkpt>
      <trkpt lat="45.82169" lon="5.32251">
        <ele>340.6</ele>
        <time>2015-11-15T10:03:23Z</time>
      </trkpt>
      <trkpt lat="45.82165" lon="5.32247">
        <ele>340.2</ele>
        <time>2015-11-15T10:03:25Z</time>
      </trkpt>
      <trkpt lat="45.82161" lon="5.32243">
        <ele>340</ele>
        <time>2015-11-15T10:03:27Z</time>
      </trkpt>
      <trkpt lat="45.82157" lon="5.3224">
        <ele>339.6</ele>
        <time>2015-11-15T10:03:29Z</time>
      </trkpt>
      <trkpt lat="45.82152" lon="5.32239">
        <ele>339.1</ele>
        <time>2015-11-15T10:03:31Z</time>
      </trkpt>
      <trkpt lat="45.82149" lon="5.32238">
        <ele>339</ele>
        <time>2015-11-15T10:03:33Z</time>
      </trkpt>
      <trkpt lat="45.82146" lon="5.32237">
        <ele>338.9</ele>
        <time>2015-11-15T10:03:35Z</time>
      </trkpt>
      <trkpt lat="45.82143" lon="5.32235">
        <ele>338.7</ele>
        <time>2015-11-15T10:03:37Z</time>
      </trkpt>
      <trkpt lat="45.82137" lon="5.32233">
        <ele>338.2</ele>
        <time>2015-11-15T10:03:39Z</time>
      </trkpt>
      <trkpt lat="45.82131" lon="5.32229">
        <ele>338</ele>
        <time>2015-11-15T10:03:41Z</time>
      </trkpt>
      <trkpt lat="45.82126" lon="5.32225">
        <ele>338</ele>
        <time>2015-11-15T10:03:43Z</time>
      </trkpt>
      <trkpt lat="45.82121" lon="5.32221">
        <ele>338</ele>
        <time>2015-11-15T10:03:45Z</time>
      </trkpt>
      <trkpt lat="45.82116" lon="5.32216">
        <ele>338.4</ele>
        <time>2015-11-15T10:03:47Z</time>
      </trkpt>
      <trkpt lat="45.8211" lon="5.32212">
        <ele>338.7</ele>
        <time>2015-11-15T10:03:49Z</time>
      </trkpt>
      <trkpt lat="45.82104" lon="5.32208">
        <ele>339</ele>
        <time>2015-11-15T10:03:51Z</time>
      </trkpt>
      <trkpt lat="45.82098" lon="5.32204">
        <ele>339.2</ele>
        <time>2015-11-15T10:03:53Z</time>
      </trkpt>
      <trkpt lat="45.82091" lon="5.32198">
        <ele>339.5</ele>
        <time>2015-11-15T10:03:55Z</time>
      </trkpt>
      <trkpt lat="45.82085" lon="5.32193">
        <ele>339.7</ele>
        <time>2015-11-15T10:03:57Z</time>
      </trkpt>
      <trkpt lat="45.82078" lon="5.32189">
        <ele>340</ele>
        <time>2015-11-15T10:03:59Z</time>
      </trkpt>
      <trkpt lat="45.82072" lon="5.32186">
        <ele>340.5</ele>
        <time>2015-11-15T10:04:01Z</time>
      </trkpt>
      <trkpt lat="45.82066" lon="5.32182">
        <ele>341</ele>
        <time>2015-11-15T10:04:03Z</time>
      </trkpt>
      <trkpt lat="45.82061" lon="5.32179">
        <ele>341.3</ele>
        <time>2015-11-15T10:04:05Z</time>
      </trkpt>
      <trkpt lat="45.82055" lon="5.32175">
        <ele>341.5</ele>
        <time>2015-11-15T10:04:07Z</time>
      </trkpt>
      <trkpt lat="45.82049" lon="5.32172">
        <ele>341.7</ele>
        <time>2015-11-15T10:04:09Z</time>
      </trkpt>
      <trkpt lat="45.82044" lon="5.32168">
        <ele>341.9</ele>
        <time>2015-11-15T10:04:11Z</time>
      </trkpt>
      <trkpt lat="45.82039" lon="5.32165">
        <ele>341.8</ele>
        <time>2015-11-15T10:04:13Z</time>
      </trkpt>
      <trkpt lat="45.82033" lon="5.32162">
        <ele>341.6</ele>
        <time>2015-11-15T10:04:15Z</time>
      </trkpt>
      <trkpt lat="45.82027" lon="5.32159">
        <ele>341.4</ele>
        <time>2015-11-15T10:04:17Z</time>
      </trkpt>
      <trkpt lat="45.82021" lon="5.32156">
        <ele>341.2</ele>
        <time>2015-11-15T10:04:19Z</time>
      </trkpt>
      <trkpt lat="45.82016" lon="5.32153">
        <ele>341</ele>
        <time>2015-11-15T10:04:21Z</time>
      </trkpt>
      <trkpt lat="45.82011" lon="5.32151">
        <ele>340.8</ele>
        <time>2015-11-15T10:04:23Z</time>
      </trkpt>
      <trkpt lat="45.82007" lon="5.32149">
        <ele>340.7</ele>
        <time>2015-11-15T10:04:25Z</time>
      </trkpt>
      <trkpt lat="45.82003" lon="5.32149">
        <ele>340.6</ele>
        <time>2015-11-15T10:04:27Z</time>
      </trkpt>
      <trkpt lat="45.81999" lon="5.32145">
        <ele>340.6</ele>
        <time>2015-11-15T10:04:29Z</time>
      </trkpt>
      <trkpt lat="45.81994" lon="5.32141">
        <ele>340.7</ele>
        <time>2015-11-15T10:04:31Z</time>
      </trkpt>
      <trkpt lat="45.81989" lon="5.32135">
        <ele>341</ele>
        <time>2015-11-15T10:04:33Z</time>
      </trkpt>
      <trkpt lat="45.81983" lon="5.3213">
        <ele>341.3</ele>
        <time>2015-11-15T10:04:35Z</time>
      </trkpt>
      <trkpt lat="45.81976" lon="5.32126">
        <ele>341.6</ele>
        <time>2015-11-15T10:04:37Z</time>
      </trkpt>
      <trkpt lat="45.8197" lon="5.32121">
        <ele>342.2</ele>
        <time>2015-11-15T10:04:39Z</time>
      </trkpt>
      <trkpt lat="45.81965" lon="5.32115">
        <ele>342.6</ele>
        <time>2015-11-15T10:04:41Z</time>
      </trkpt>
      <trkpt lat="45.81959" lon="5.32111">
        <ele>343.2</ele>
        <time>2015-11-15T10:04:43Z</time>
      </trkpt>
      <trkpt lat="45.81955" lon="5.32108">
        <ele>343.6</ele>
        <time>2015-11-15T10:04:45Z</time>
      </trkpt>
      <trkpt lat="45.81952" lon="5.32106">
        <ele>343.9</ele>
        <time>2015-11-15T10:04:47Z</time>
      </trkpt>
      <trkpt lat="45.8195" lon="5.32105">
        <ele>344</ele>
        <time>2015-11-15T10:04:49Z</time>
      </trkpt>
      <trkpt lat="45.81947" lon="5.32101">
        <ele>344</ele>
        <time>2015-11-15T10:04:59Z</time>
      </trkpt>
      <trkpt lat="45.81945" lon="5.32096">
        <ele>344</ele>
        <time>2015-11-15T10:05:01Z</time>
      </trkpt>
      <trkpt lat="45.81941" lon="5.32089">
        <ele>344.1</ele>
        <time>2015-11-15T10:05:03Z</time>
      </trkpt>
      <trkpt lat="45.81935" lon="5.32081">
        <ele>344.1</ele>
        <time>2015-11-15T10:05:05Z</time>
      </trkpt>
      <trkpt lat="45.8193" lon="5.3207">
        <ele>343.6</ele>
        <time>2015-11-15T10:05:07Z</time>
      </trkpt>
      <trkpt lat="45.81929" lon="5.32056">
        <ele>342.9</ele>
        <time>2015-11-15T10:05:09Z</time>
      </trkpt>
      <trkpt lat="45.81929" lon="5.32042">
        <ele>342.5</ele>
        <time>2015-11-15T10:05:11Z</time>
      </trkpt>
      <trkpt lat="45.81931" lon="5.32031">
        <ele>342.5</ele>
        <time>2015-11-15T10:05:13Z</time>
      </trkpt>
      <trkpt lat="45.81932" lon="5.32021">
        <ele>342.5</ele>
        <time>2015-11-15T10:05:15Z</time>
      </trkpt>
      <trkpt lat="45.81935" lon="5.32011">
        <ele>342.6</ele>
        <time>2015-11-15T10:05:17Z</time>
      </trkpt>
      <trkpt lat="45.81938" lon="5.32003">
        <ele>342.8</ele>
        <time>2015-11-15T10:05:19Z</time>
      </trkpt>
      <trkpt lat="45.81943" lon="5.31994">
        <ele>343.2</ele>
        <time>2015-11-15T10:05:21Z</time>
      </trkpt>
      <trkpt lat="45.81946" lon="5.31986">
        <ele>343.4</ele>
        <time>2015-11-15T10:05:23Z</time>
      </trkpt>
      <trkpt lat="45.81949" lon="5.31979">
        <ele>343.4</ele>
        <time>2015-11-15T10:05:25Z</time>
      </trkpt>
      <trkpt lat="45.81952" lon="5.31973">
        <ele>343.4</ele>
        <time>2015-11-15T10:05:27Z</time>
      </trkpt>
      <trkpt lat="45.81953" lon="5.31968">
        <ele>343.5</ele>
        <time>2015-11-15T10:05:29Z</time>
      </trkpt>
      <trkpt lat="45.81954" lon="5.31963">
        <ele>343.7</ele>
        <time>2015-11-15T10:05:31Z</time>
      </trkpt>
      <trkpt lat="45.81955" lon="5.3196">
        <ele>343.8</ele>
        <time>2015-11-15T10:05:33Z</time>
      </trkpt>
      <trkpt lat="45.81957" lon="5.31958">
        <ele>343.9</ele>
        <time>2015-11-15T10:05:35Z</time>
      </trkpt>
      <trkpt lat="45.81957" lon="5.31954">
        <ele>344</ele>
        <time>2015-11-15T10:06:00Z</time>
      </trkpt>
      <trkpt lat="45.81958" lon="5.31949">
        <ele>344.1</ele>
        <time>2015-11-15T10:06:02Z</time>
      </trkpt>
      <trkpt lat="45.81961" lon="5.31943">
        <ele>344.2</ele>
        <time>2015-11-15T10:06:04Z</time>
      </trkpt>
      <trkpt lat="45.81965" lon="5.31935">
        <ele>344.4</ele>
        <time>2015-11-15T10:06:06Z</time>
      </trkpt>
      <trkpt lat="45.81967" lon="5.31927">
        <ele>344.4</ele>
        <time>2015-11-15T10:06:08Z</time>
      </trkpt>
      <trkpt lat="45.81969" lon="5.31918">
        <ele>344.5</ele>
        <time>2015-11-15T10:06:10Z</time>
      </trkpt>
      <trkpt lat="45.81969" lon="5.31908">
        <ele>344.7</ele>
        <time>2015-11-15T10:06:12Z</time>
      </trkpt>
      <trkpt lat="45.81968" lon="5.31899">
        <ele>345.1</ele>
        <time>2015-11-15T10:06:14Z</time>
      </trkpt>
      <trkpt lat="45.81968" lon="5.31891">
        <ele>345.4</ele>
        <time>2015-11-15T10:06:16Z</time>
      </trkpt>
      <trkpt lat="45.81968" lon="5.31882">
        <ele>345.6</ele>
        <time>2015-11-15T10:06:18Z</time>
      </trkpt>
      <trkpt lat="45.8197" lon="5.31873">
        <ele>345.9</ele>
        <time>2015-11-15T10:06:20Z</time>
      </trkpt>
      <trkpt lat="45.81969" lon="5.31865">
        <ele>346</ele>
        <time>2015-11-15T10:06:22Z</time>
      </trkpt>
      <trkpt lat="45.81965" lon="5.3186">
        <ele>345.7</ele>
        <time>2015-11-15T10:06:24Z</time>
      </trkpt>
      <trkpt lat="45.81957" lon="5.31859">
        <ele>345.2</ele>
        <time>2015-11-15T10:06:26Z</time>
      </trkpt>
      <trkpt lat="45.81947" lon="5.31858">
        <ele>344.8</ele>
        <time>2015-11-15T10:06:28Z</time>
      </trkpt>
      <trkpt lat="45.81939" lon="5.31857">
        <ele>344.3</ele>
        <time>2015-11-15T10:06:30Z</time>
      </trkpt>
      <trkpt lat="45.8193" lon="5.31855">
        <ele>344.4</ele>
        <time>2015-11-15T10:06:32Z</time>
      </trkpt>
      <trkpt lat="45.81921" lon="5.31854">
        <ele>344.4</ele>
        <time>2015-11-15T10:06:34Z</time>
      </trkpt>
      <trkpt lat="45.81913" lon="5.31853">
        <ele>344.6</ele>
        <time>2015-11-15T10:06:36Z</time>
      </trkpt>
      <trkpt lat="45.81905" lon="5.31852">
        <ele>344.7</ele>
        <time>2015-11-15T10:06:38Z</time>
      </trkpt>
      <trkpt lat="45.81896" lon="5.31853">
        <ele>345.1</ele>
        <time>2015-11-15T10:06:40Z</time>
      </trkpt>
      <trkpt lat="45.81887" lon="5.31854">
        <ele>345.7</ele>
        <time>2015-11-15T10:06:42Z</time>
      </trkpt>
      <trkpt lat="45.81879" lon="5.31856">
        <ele>346.6</ele>
        <time>2015-11-15T10:06:44Z</time>
      </trkpt>
      <trkpt lat="45.8187" lon="5.31858">
        <ele>347.2</ele>
        <time>2015-11-15T10:06:46Z</time>
      </trkpt>
      <trkpt lat="45.81862" lon="5.3186">
        <ele>348.6</ele>
        <time>2015-11-15T10:06:48Z</time>
      </trkpt>
      <trkpt lat="45.81853" lon="5.31863">
        <ele>349.8</ele>
        <time>2015-11-15T10:06:50Z</time>
      </trkpt>
      <trkpt lat="45.81845" lon="5.31865">
        <ele>351</ele>
        <time>2015-11-15T10:06:52Z</time>
      </trkpt>
      <trkpt lat="45.81837" lon="5.31868">
        <ele>351.5</ele>
        <time>2015-11-15T10:06:54Z</time>
      </trkpt>
      <trkpt lat="45.8183" lon="5.31872">
        <ele>351.5</ele>
        <time>2015-11-15T10:06:56Z</time>
      </trkpt>
      <trkpt lat="45.81822" lon="5.31877">
        <ele>351.4</ele>
        <time>2015-11-15T10:06:58Z</time>
      </trkpt>
      <trkpt lat="45.81815" lon="5.31882">
        <ele>351.2</ele>
        <time>2015-11-15T10:07:00Z</time>
      </trkpt>
      <trkpt lat="45.81806" lon="5.31888">
        <ele>350.9</ele>
        <time>2015-11-15T10:07:02Z</time>
      </trkpt>
      <trkpt lat="45.81799" lon="5.31893">
        <ele>350.7</ele>
        <time>2015-11-15T10:07:04Z</time>
      </trkpt>
      <trkpt lat="45.81791" lon="5.31897">
        <ele>350.6</ele>
        <time>2015-11-15T10:07:06Z</time>
      </trkpt>
      <trkpt lat="45.81784" lon="5.31899">
        <ele>350.9</ele>
        <time>2015-11-15T10:07:08Z</time>
      </trkpt>
      <trkpt lat="45.81777" lon="5.31899">
        <ele>351</ele>
        <time>2015-11-15T10:07:10Z</time>
      </trkpt>
      <trkpt lat="45.8177" lon="5.31896">
        <ele>351.2</ele>
        <time>2015-11-15T10:07:12Z</time>
      </trkpt>
      <trkpt lat="45.81762" lon="5.31894">
        <ele>351.6</ele>
        <time>2015-11-15T10:07:14Z</time>
      </trkpt>
      <trkpt lat="45.81754" lon="5.31895">
        <ele>352</ele>
        <time>2015-11-15T10:07:16Z</time>
      </trkpt>
      <trkpt lat="45.81745" lon="5.31897">
        <ele>352.1</ele>
        <time>2015-11-15T10:07:18Z</time>
      </trkpt>
      <trkpt lat="45.81736" lon="5.31899">
        <ele>352.2</ele>
        <time>2015-11-15T10:07:20Z</time>
      </trkpt>
      <trkpt lat="45.81725" lon="5.319">
        <ele>352.7</ele>
        <time>2015-11-15T10:07:22Z</time>
      </trkpt>
      <trkpt lat="45.81715" lon="5.31902">
        <ele>353.7</ele>
        <time>2015-11-15T10:07:24Z</time>
      </trkpt>
      <trkpt lat="45.81706" lon="5.31903">
        <ele>355.1</ele>
        <time>2015-11-15T10:07:26Z</time>
      </trkpt>
      <trkpt lat="45.81696" lon="5.31904">
        <ele>356</ele>
        <time>2015-11-15T10:07:28Z</time>
      </trkpt>
      <trkpt lat="45.81688" lon="5.31904">
        <ele>356.4</ele>
        <time>2015-11-15T10:07:30Z</time>
      </trkpt>
      <trkpt lat="45.81679" lon="5.31904">
        <ele>356.9</ele>
        <time>2015-11-15T10:07:32Z</time>
      </trkpt>
      <trkpt lat="45.8167" lon="5.31904">
        <ele>357.2</ele>
        <time>2015-11-15T10:07:34Z</time>
      </trkpt>
      <trkpt lat="45.81659" lon="5.31903">
        <ele>357</ele>
        <time>2015-11-15T10:07:36Z</time>
      </trkpt>
      <trkpt lat="45.8165" lon="5.319">
        <ele>357.3</ele>
        <time>2015-11-15T10:07:38Z</time>
      </trkpt>
      <trkpt lat="45.81641" lon="5.31897">
        <ele>357.1</ele>
        <time>2015-11-15T10:07:40Z</time>
      </trkpt>
      <trkpt lat="45.81633" lon="5.31893">
        <ele>357.2</ele>
        <time>2015-11-15T10:07:42Z</time>
      </trkpt>
      <trkpt lat="45.81624" lon="5.3189">
        <ele>357</ele>
        <time>2015-11-15T10:07:44Z</time>
      </trkpt>
      <trkpt lat="45.81616" lon="5.31886">
        <ele>357.4</ele>
        <time>2015-11-15T10:07:46Z</time>
      </trkpt>
      <trkpt lat="45.81609" lon="5.31884">
        <ele>357.6</ele>
        <time>2015-11-15T10:07:48Z</time>
      </trkpt>
      <trkpt lat="45.81601" lon="5.31883">
        <ele>357.6</ele>
        <time>2015-11-15T10:07:50Z</time>
      </trkpt>
      <trkpt lat="45.81594" lon="5.31882">
        <ele>357.8</ele>
        <time>2015-11-15T10:07:52Z</time>
      </trkpt>
      <trkpt lat="45.81587" lon="5.31881">
        <ele>358.4</ele>
        <time>2015-11-15T10:07:54Z</time>
      </trkpt>
      <trkpt lat="45.81579" lon="5.31881">
        <ele>358.9</ele>
        <time>2015-11-15T10:07:56Z</time>
      </trkpt>
      <trkpt lat="45.81572" lon="5.31882">
        <ele>359.8</ele>
        <time>2015-11-15T10:07:58Z</time>
      </trkpt>
      <trkpt lat="45.81564" lon="5.31882">
        <ele>361</ele>
        <time>2015-11-15T10:08:00Z</time>
      </trkpt>
      <trkpt lat="45.81558" lon="5.31884">
        <ele>362</ele>
        <time>2015-11-15T10:08:02Z</time>
      </trkpt>
      <trkpt lat="45.8155" lon="5.31886">
        <ele>362.8</ele>
        <time>2015-11-15T10:08:04Z</time>
      </trkpt>
      <trkpt lat="45.81543" lon="5.31887">
        <ele>363.4</ele>
        <time>2015-11-15T10:08:06Z</time>
      </trkpt>
      <trkpt lat="45.81537" lon="5.31889">
        <ele>364</ele>
        <time>2015-11-15T10:08:08Z</time>
      </trkpt>
      <trkpt lat="45.8153" lon="5.31889">
        <ele>364.3</ele>
        <time>2015-11-15T10:08:10Z</time>
      </trkpt>
      <trkpt lat="45.81523" lon="5.31889">
        <ele>364.9</ele>
        <time>2015-11-15T10:08:12Z</time>
      </trkpt>
      <trkpt lat="45.81516" lon="5.31888">
        <ele>365.6</ele>
        <time>2015-11-15T10:08:14Z</time>
      </trkpt>
      <trkpt lat="45.8151" lon="5.31887">
        <ele>366.1</ele>
        <time>2015-11-15T10:08:16Z</time>
      </trkpt>
      <trkpt lat="45.81503" lon="5.31886">
        <ele>366.6</ele>
        <time>2015-11-15T10:08:18Z</time>
      </trkpt>
      <trkpt lat="45.81497" lon="5.31884">
        <ele>367.1</ele>
        <time>2015-11-15T10:08:20Z</time>
      </trkpt>
      <trkpt lat="45.81491" lon="5.31882">
        <ele>367.5</ele>
        <time>2015-11-15T10:08:22Z</time>
      </trkpt>
      <trkpt lat="45.81485" lon="5.3188">
        <ele>367.7</ele>
        <time>2015-11-15T10:08:24Z</time>
      </trkpt>
      <trkpt lat="45.81479" lon="5.31879">
        <ele>367.8</ele>
        <time>2015-11-15T10:08:26Z</time>
      </trkpt>
      <trkpt lat="45.81473" lon="5.31878">
        <ele>367.8</ele>
        <time>2015-11-15T10:08:28Z</time>
      </trkpt>
      <trkpt lat="45.81467" lon="5.31878">
        <ele>367.6</ele>
        <time>2015-11-15T10:08:30Z</time>
      </trkpt>
      <trkpt lat="45.81461" lon="5.31877">
        <ele>367.4</ele>
        <time>2015-11-15T10:08:32Z</time>
      </trkpt>
      <trkpt lat="45.81454" lon="5.31878">
        <ele>367</ele>
        <time>2015-11-15T10:08:34Z</time>
      </trkpt>
      <trkpt lat="45.81448" lon="5.3188">
        <ele>366.7</ele>
        <time>2015-11-15T10:08:36Z</time>
      </trkpt>
      <trkpt lat="45.81442" lon="5.31881">
        <ele>366.6</ele>
        <time>2015-11-15T10:08:38Z</time>
      </trkpt>
      <trkpt lat="45.81435" lon="5.31883">
        <ele>366.4</ele>
        <time>2015-11-15T10:08:40Z</time>
      </trkpt>
      <trkpt lat="45.81429" lon="5.31884">
        <ele>366.2</ele>
        <time>2015-11-15T10:08:42Z</time>
      </trkpt>
      <trkpt lat="45.81422" lon="5.31885">
        <ele>366</ele>
        <time>2015-11-15T10:08:44Z</time>
      </trkpt>
      <trkpt lat="45.81415" lon="5.31886">
        <ele>365.9</ele>
        <time>2015-11-15T10:08:46Z</time>
      </trkpt>
      <trkpt lat="45.81408" lon="5.31888">
        <ele>365.6</ele>
        <time>2015-11-15T10:08:48Z</time>
      </trkpt>
      <trkpt lat="45.81401" lon="5.31889">
        <ele>365.6</ele>
        <time>2015-11-15T10:08:50Z</time>
      </trkpt>
      <trkpt lat="45.81393" lon="5.31891">
        <ele>365.7</ele>
        <time>2015-11-15T10:08:52Z</time>
      </trkpt>
      <trkpt lat="45.81386" lon="5.31894">
        <ele>366</ele>
        <time>2015-11-15T10:08:54Z</time>
      </trkpt>
      <trkpt lat="45.81379" lon="5.31895">
        <ele>366.6</ele>
        <time>2015-11-15T10:08:56Z</time>
      </trkpt>
      <trkpt lat="45.81372" lon="5.31897">
        <ele>367.5</ele>
        <time>2015-11-15T10:08:58Z</time>
      </trkpt>
      <trkpt lat="45.81365" lon="5.31899">
        <ele>368.6</ele>
        <time>2015-11-15T10:09:00Z</time>
      </trkpt>
      <trkpt lat="45.81358" lon="5.319">
        <ele>369.4</ele>
        <time>2015-11-15T10:09:02Z</time>
      </trkpt>
      <trkpt lat="45.81351" lon="5.31901">
        <ele>369.9</ele>
        <time>2015-11-15T10:09:04Z</time>
      </trkpt>
      <trkpt lat="45.81344" lon="5.31903">
        <ele>369.9</ele>
        <time>2015-11-15T10:09:06Z</time>
      </trkpt>
      <trkpt lat="45.81339" lon="5.31906">
        <ele>369.7</ele>
        <time>2015-11-15T10:09:08Z</time>
      </trkpt>
      <trkpt lat="45.81333" lon="5.31909">
        <ele>369.5</ele>
        <time>2015-11-15T10:09:10Z</time>
      </trkpt>
      <trkpt lat="45.81329" lon="5.31913">
        <ele>369.5</ele>
        <time>2015-11-15T10:09:12Z</time>
      </trkpt>
      <trkpt lat="45.81325" lon="5.31916">
        <ele>369.7</ele>
        <time>2015-11-15T10:09:14Z</time>
      </trkpt>
      <trkpt lat="45.81321" lon="5.31919">
        <ele>369.7</ele>
        <time>2015-11-15T10:09:16Z</time>
      </trkpt>
      <trkpt lat="45.81316" lon="5.31922">
        <ele>369.7</ele>
        <time>2015-11-15T10:09:18Z</time>
      </trkpt>
      <trkpt lat="45.81311" lon="5.31923">
        <ele>369.5</ele>
        <time>2015-11-15T10:09:20Z</time>
      </trkpt>
      <trkpt lat="45.81307" lon="5.31922">
        <ele>369.1</ele>
        <time>2015-11-15T10:09:22Z</time>
      </trkpt>
      <trkpt lat="45.81302" lon="5.31921">
        <ele>369</ele>
        <time>2015-11-15T10:09:24Z</time>
      </trkpt>
      <trkpt lat="45.81297" lon="5.3192">
        <ele>369</ele>
        <time>2015-11-15T10:09:26Z</time>
      </trkpt>
      <trkpt lat="45.81292" lon="5.31922">
        <ele>369</ele>
        <time>2015-11-15T10:09:28Z</time>
      </trkpt>
      <trkpt lat="45.81287" lon="5.31926">
        <ele>369.1</ele>
        <time>2015-11-15T10:09:30Z</time>
      </trkpt>
      <trkpt lat="45.81284" lon="5.3193">
        <ele>369.2</ele>
        <time>2015-11-15T10:09:32Z</time>
      </trkpt>
      <trkpt lat="45.81281" lon="5.31936">
        <ele>369.5</ele>
        <time>2015-11-15T10:09:34Z</time>
      </trkpt>
      <trkpt lat="45.81278" lon="5.31942">
        <ele>370</ele>
        <time>2015-11-15T10:09:36Z</time>
      </trkpt>
      <trkpt lat="45.81275" lon="5.31948">
        <ele>370.5</ele>
        <time>2015-11-15T10:09:38Z</time>
      </trkpt>
      <trkpt lat="45.81274" lon="5.31953">
        <ele>371</ele>
        <time>2015-11-15T10:09:40Z</time>
      </trkpt>
      <trkpt lat="45.81273" lon="5.31958">
        <ele>371.6</ele>
        <time>2015-11-15T10:09:42Z</time>
      </trkpt>
      <trkpt lat="45.81271" lon="5.31963">
        <ele>372.2</ele>
        <time>2015-11-15T10:09:44Z</time>
      </trkpt>
      <trkpt lat="45.81271" lon="5.31968">
        <ele>372.7</ele>
        <time>2015-11-15T10:09:46Z</time>
      </trkpt>
      <trkpt lat="45.81269" lon="5.31972">
        <ele>373.2</ele>
        <time>2015-11-15T10:09:48Z</time>
      </trkpt>
      <trkpt lat="45.81268" lon="5.31976">
        <ele>373.8</ele>
        <time>2015-11-15T10:09:50Z</time>
      </trkpt>
      <trkpt lat="45.81267" lon="5.3198">
        <ele>374.3</ele>
        <time>2015-11-15T10:09:52Z</time>
      </trkpt>
      <trkpt lat="45.81266" lon="5.31984">
        <ele>374.7</ele>
        <time>2015-11-15T10:09:54Z</time>
      </trkpt>
      <trkpt lat="45.81264" lon="5.31988">
        <ele>375</ele>
        <time>2015-11-15T10:09:56Z</time>
      </trkpt>
      <trkpt lat="45.81263" lon="5.31992">
        <ele>375.3</ele>
        <time>2015-11-15T10:09:58Z</time>
      </trkpt>
      <trkpt lat="45.81261" lon="5.31996">
        <ele>375.4</ele>
        <time>2015-11-15T10:10:00Z</time>
      </trkpt>
      <trkpt lat="45.8126" lon="5.32001">
        <ele>375.6</ele>
        <time>2015-11-15T10:10:02Z</time>
      </trkpt>
      <trkpt lat="45.81258" lon="5.32007">
        <ele>375.9</ele>
        <time>2015-11-15T10:10:04Z</time>
      </trkpt>
      <trkpt lat="45.81255" lon="5.32012">
        <ele>376.1</ele>
        <time>2015-11-15T10:10:06Z</time>
      </trkpt>
      <trkpt lat="45.81253" lon="5.32016">
        <ele>376.4</ele>
        <time>2015-11-15T10:10:08Z</time>
      </trkpt>
      <trkpt lat="45.81249" lon="5.32022">
        <ele>376.7</ele>
        <time>2015-11-15T10:10:10Z</time>
      </trkpt>
      <trkpt lat="45.81245" lon="5.32026">
        <ele>376.8</ele>
        <time>2015-11-15T10:10:12Z</time>
      </trkpt>
      <trkpt lat="45.81242" lon="5.32032">
        <ele>376.8</ele>
        <time>2015-11-15T10:10:14Z</time>
      </trkpt>
      <trkpt lat="45.81237" lon="5.32037">
        <ele>376.7</ele>
        <time>2015-11-15T10:10:16Z</time>
      </trkpt>
      <trkpt lat="45.81233" lon="5.32042">
        <ele>376.4</ele>
        <time>2015-11-15T10:10:18Z</time>
      </trkpt>
      <trkpt lat="45.81228" lon="5.32049">
        <ele>376.2</ele>
        <time>2015-11-15T10:10:20Z</time>
      </trkpt>
      <trkpt lat="45.81222" lon="5.32057">
        <ele>376.3</ele>
        <time>2015-11-15T10:10:22Z</time>
      </trkpt>
      <trkpt lat="45.81215" lon="5.32066">
        <ele>376.4</ele>
        <time>2015-11-15T10:10:24Z</time>
      </trkpt>
      <trkpt lat="45.81209" lon="5.32073">
        <ele>376.4</ele>
        <time>2015-11-15T10:10:26Z</time>
      </trkpt>
      <trkpt lat="45.81202" lon="5.3208">
        <ele>376.8</ele>
        <time>2015-11-15T10:10:28Z</time>
      </trkpt>
      <trkpt lat="45.81195" lon="5.32088">
        <ele>377.2</ele>
        <time>2015-11-15T10:10:30Z</time>
      </trkpt>
      <trkpt lat="45.81186" lon="5.32094">
        <ele>377.4</ele>
        <time>2015-11-15T10:10:32Z</time>
      </trkpt>
      <trkpt lat="45.81176" lon="5.32098">
        <ele>377.1</ele>
        <time>2015-11-15T10:10:34Z</time>
      </trkpt>
      <trkpt lat="45.81166" lon="5.321">
        <ele>376.2</ele>
        <time>2015-11-15T10:10:36Z</time>
      </trkpt>
      <trkpt lat="45.81157" lon="5.32101">
        <ele>375.8</ele>
        <time>2015-11-15T10:10:38Z</time>
      </trkpt>
      <trkpt lat="45.81148" lon="5.32103">
        <ele>375</ele>
        <time>2015-11-15T10:10:40Z</time>
      </trkpt>
      <trkpt lat="45.81141" lon="5.32107">
        <ele>374.8</ele>
        <time>2015-11-15T10:10:42Z</time>
      </trkpt>
      <trkpt lat="45.81134" lon="5.32112">
        <ele>375.2</ele>
        <time>2015-11-15T10:10:44Z</time>
      </trkpt>
      <trkpt lat="45.81126" lon="5.32119">
        <ele>375.7</ele>
        <time>2015-11-15T10:10:46Z</time>
      </trkpt>
      <trkpt lat="45.81118" lon="5.32127">
        <ele>376.4</ele>
        <time>2015-11-15T10:10:48Z</time>
      </trkpt>
      <trkpt lat="45.8111" lon="5.32134">
        <ele>376.5</ele>
        <time>2015-11-15T10:10:50Z</time>
      </trkpt>
      <trkpt lat="45.81103" lon="5.32142">
        <ele>376.4</ele>
        <time>2015-11-15T10:10:52Z</time>
      </trkpt>
      <trkpt lat="45.81095" lon="5.32149">
        <ele>376.7</ele>
        <time>2015-11-15T10:10:54Z</time>
      </trkpt>
      <trkpt lat="45.81088" lon="5.32158">
        <ele>377</ele>
        <time>2015-11-15T10:10:56Z</time>
      </trkpt>
      <trkpt lat="45.81082" lon="5.32168">
        <ele>377.1</ele>
        <time>2015-11-15T10:10:58Z</time>
      </trkpt>
      <trkpt lat="45.81077" lon="5.32178">
        <ele>376.8</ele>
        <time>2015-11-15T10:11:00Z</time>
      </trkpt>
      <trkpt lat="45.81072" lon="5.32188">
        <ele>376.7</ele>
        <time>2015-11-15T10:11:02Z</time>
      </trkpt>
      <trkpt lat="45.81067" lon="5.32199">
        <ele>376.5</ele>
        <time>2015-11-15T10:11:04Z</time>
      </trkpt>
      <trkpt lat="45.81062" lon="5.32208">
        <ele>376.5</ele>
        <time>2015-11-15T10:11:06Z</time>
      </trkpt>
      <trkpt lat="45.81057" lon="5.32218">
        <ele>376.2</ele>
        <time>2015-11-15T10:11:08Z</time>
      </trkpt>
      <trkpt lat="45.81053" lon="5.32229">
        <ele>376.7</ele>
        <time>2015-11-15T10:11:10Z</time>
      </trkpt>
      <trkpt lat="45.81044" lon="5.32252">
        <ele>377.9</ele>
        <time>2015-11-15T10:11:14Z</time>
      </trkpt>
      <trkpt lat="45.81039" lon="5.32262">
        <ele>378.8</ele>
        <time>2015-11-15T10:11:16Z</time>
      </trkpt>
      <trkpt lat="45.81034" lon="5.32272">
        <ele>379.4</ele>
        <time>2015-11-15T10:11:18Z</time>
      </trkpt>
      <trkpt lat="45.81029" lon="5.32281">
        <ele>379.6</ele>
        <time>2015-11-15T10:11:20Z</time>
      </trkpt>
      <trkpt lat="45.81024" lon="5.3229">
        <ele>379.5</ele>
        <time>2015-11-15T10:11:22Z</time>
      </trkpt>
      <trkpt lat="45.8102" lon="5.323">
        <ele>379.3</ele>
        <time>2015-11-15T10:11:24Z</time>
      </trkpt>
      <trkpt lat="45.81017" lon="5.32311">
        <ele>379</ele>
        <time>2015-11-15T10:11:26Z</time>
      </trkpt>
      <trkpt lat="45.81014" lon="5.32322">
        <ele>378.9</ele>
        <time>2015-11-15T10:11:28Z</time>
      </trkpt>
      <trkpt lat="45.81012" lon="5.32334">
        <ele>379</ele>
        <time>2015-11-15T10:11:30Z</time>
      </trkpt>
      <trkpt lat="45.81011" lon="5.32346">
        <ele>379</ele>
        <time>2015-11-15T10:11:32Z</time>
      </trkpt>
      <trkpt lat="45.8101" lon="5.32359">
        <ele>378.9</ele>
        <time>2015-11-15T10:11:34Z</time>
      </trkpt>
      <trkpt lat="45.81009" lon="5.32372">
        <ele>378.8</ele>
        <time>2015-11-15T10:11:36Z</time>
      </trkpt>
      <trkpt lat="45.81008" lon="5.32385">
        <ele>379</ele>
        <time>2015-11-15T10:11:38Z</time>
      </trkpt>
      <trkpt lat="45.81007" lon="5.32398">
        <ele>378.8</ele>
        <time>2015-11-15T10:11:40Z</time>
      </trkpt>
      <trkpt lat="45.81006" lon="5.32411">
        <ele>378.9</ele>
        <time>2015-11-15T10:11:42Z</time>
      </trkpt>
      <trkpt lat="45.81005" lon="5.32424">
        <ele>379</ele>
        <time>2015-11-15T10:11:44Z</time>
      </trkpt>
      <trkpt lat="45.81003" lon="5.32436">
        <ele>378.7</ele>
        <time>2015-11-15T10:11:46Z</time>
      </trkpt>
      <trkpt lat="45.81001" lon="5.32446">
        <ele>378.9</ele>
        <time>2015-11-15T10:11:48Z</time>
      </trkpt>
      <trkpt lat="45.80999" lon="5.32456">
        <ele>378.5</ele>
        <time>2015-11-15T10:11:50Z</time>
      </trkpt>
      <trkpt lat="45.80996" lon="5.32467">
        <ele>378.1</ele>
        <time>2015-11-15T10:11:52Z</time>
      </trkpt>
      <trkpt lat="45.80992" lon="5.32478">
        <ele>377.4</ele>
        <time>2015-11-15T10:11:54Z</time>
      </trkpt>
      <trkpt lat="45.80985" lon="5.3249">
        <ele>376.3</ele>
        <time>2015-11-15T10:11:56Z</time>
      </trkpt>
      <trkpt lat="45.80977" lon="5.32502">
        <ele>374.9</ele>
        <time>2015-11-15T10:11:58Z</time>
      </trkpt>
      <trkpt lat="45.80969" lon="5.32512">
        <ele>373.5</ele>
        <time>2015-11-15T10:12:00Z</time>
      </trkpt>
      <trkpt lat="45.80959" lon="5.3252">
        <ele>372</ele>
        <time>2015-11-15T10:12:02Z</time>
      </trkpt>
      <trkpt lat="45.80948" lon="5.32521">
        <ele>372</ele>
        <time>2015-11-15T10:12:04Z</time>
      </trkpt>
      <trkpt lat="45.80936" lon="5.32521">
        <ele>372</ele>
        <time>2015-11-15T10:12:06Z</time>
      </trkpt>
      <trkpt lat="45.80925" lon="5.3253">
        <ele>372</ele>
        <time>2015-11-15T10:12:08Z</time>
      </trkpt>
      <trkpt lat="45.80915" lon="5.32544">
        <ele>371.9</ele>
        <time>2015-11-15T10:12:10Z</time>
      </trkpt>
      <trkpt lat="45.80904" lon="5.32559">
        <ele>369.6</ele>
        <time>2015-11-15T10:12:12Z</time>
      </trkpt>
      <trkpt lat="45.80894" lon="5.32578">
        <ele>368</ele>
        <time>2015-11-15T10:12:14Z</time>
      </trkpt>
      <trkpt lat="45.80887" lon="5.32602">
        <ele>367.8</ele>
        <time>2015-11-15T10:12:16Z</time>
      </trkpt>
      <trkpt lat="45.80881" lon="5.32628">
        <ele>367.4</ele>
        <time>2015-11-15T10:12:18Z</time>
      </trkpt>
      <trkpt lat="45.80872" lon="5.32654">
        <ele>366</ele>
        <time>2015-11-15T10:12:20Z</time>
      </trkpt>
      <trkpt lat="45.80863" lon="5.32682">
        <ele>363.5</ele>
        <time>2015-11-15T10:12:22Z</time>
      </trkpt>
      <trkpt lat="45.80853" lon="5.32712">
        <ele>360.8</ele>
        <time>2015-11-15T10:12:24Z</time>
      </trkpt>
      <trkpt lat="45.8084" lon="5.3274">
        <ele>359.4</ele>
        <time>2015-11-15T10:12:26Z</time>
      </trkpt>
      <trkpt lat="45.80826" lon="5.32765">
        <ele>357.7</ele>
        <time>2015-11-15T10:12:28Z</time>
      </trkpt>
      <trkpt lat="45.80813" lon="5.32789">
        <ele>356.8</ele>
        <time>2015-11-15T10:12:30Z</time>
      </trkpt>
      <trkpt lat="45.80799" lon="5.32811">
        <ele>356</ele>
        <time>2015-11-15T10:12:32Z</time>
      </trkpt>
      <trkpt lat="45.80784" lon="5.32825">
        <ele>355.8</ele>
        <time>2015-11-15T10:12:34Z</time>
      </trkpt>
      <trkpt lat="45.80767" lon="5.32836">
        <ele>355.6</ele>
        <time>2015-11-15T10:12:36Z</time>
      </trkpt>
      <trkpt lat="45.80751" lon="5.32842">
        <ele>355.8</ele>
        <time>2015-11-15T10:12:38Z</time>
      </trkpt>
      <trkpt lat="45.80736" lon="5.32848">
        <ele>356.1</ele>
        <time>2015-11-15T10:12:40Z</time>
      </trkpt>
      <trkpt lat="45.80723" lon="5.32853">
        <ele>356.4</ele>
        <time>2015-11-15T10:12:42Z</time>
      </trkpt>
      <trkpt lat="45.80711" lon="5.3286">
        <ele>356.7</ele>
        <time>2015-11-15T10:12:44Z</time>
      </trkpt>
      <trkpt lat="45.80702" lon="5.32869">
        <ele>356.9</ele>
        <time>2015-11-15T10:12:46Z</time>
      </trkpt>
      <trkpt lat="45.80694" lon="5.32879">
        <ele>357.1</ele>
        <time>2015-11-15T10:12:48Z</time>
      </trkpt>
      <trkpt lat="45.80687" lon="5.32889">
        <ele>357.4</ele>
        <time>2015-11-15T10:12:50Z</time>
      </trkpt>
      <trkpt lat="45.80679" lon="5.32899">
        <ele>357.6</ele>
        <time>2015-11-15T10:12:52Z</time>
      </trkpt>
      <trkpt lat="45.80672" lon="5.32909">
        <ele>357.9</ele>
        <time>2015-11-15T10:12:54Z</time>
      </trkpt>
      <trkpt lat="45.80665" lon="5.32919">
        <ele>358.3</ele>
        <time>2015-11-15T10:12:56Z</time>
      </trkpt>
      <trkpt lat="45.80659" lon="5.32927">
        <ele>358.8</ele>
        <time>2015-11-15T10:12:58Z</time>
      </trkpt>
      <trkpt lat="45.80652" lon="5.32933">
        <ele>358.7</ele>
        <time>2015-11-15T10:13:00Z</time>
      </trkpt>
      <trkpt lat="45.80645" lon="5.32936">
        <ele>358.3</ele>
        <time>2015-11-15T10:13:02Z</time>
      </trkpt>
      <trkpt lat="45.80637" lon="5.32937">
        <ele>358.1</ele>
        <time>2015-11-15T10:13:04Z</time>
      </trkpt>
      <trkpt lat="45.80627" lon="5.32936">
        <ele>357.9</ele>
        <time>2015-11-15T10:13:06Z</time>
      </trkpt>
      <trkpt lat="45.80617" lon="5.32933">
        <ele>357.6</ele>
        <time>2015-11-15T10:13:08Z</time>
      </trkpt>
      <trkpt lat="45.80605" lon="5.32929">
        <ele>357.3</ele>
        <time>2015-11-15T10:13:10Z</time>
      </trkpt>
      <trkpt lat="45.80594" lon="5.32925">
        <ele>357</ele>
        <time>2015-11-15T10:13:12Z</time>
      </trkpt>
      <trkpt lat="45.80582" lon="5.32921">
        <ele>356.6</ele>
        <time>2015-11-15T10:13:14Z</time>
      </trkpt>
      <trkpt lat="45.8057" lon="5.32917">
        <ele>356.3</ele>
        <time>2015-11-15T10:13:16Z</time>
      </trkpt>
      <trkpt lat="45.80558" lon="5.32911">
        <ele>356.3</ele>
        <time>2015-11-15T10:13:18Z</time>
      </trkpt>
      <trkpt lat="45.80547" lon="5.32903">
        <ele>356.8</ele>
        <time>2015-11-15T10:13:20Z</time>
      </trkpt>
      <trkpt lat="45.80536" lon="5.32895">
        <ele>356.8</ele>
        <time>2015-11-15T10:13:22Z</time>
      </trkpt>
      <trkpt lat="45.80525" lon="5.32886">
        <ele>356.6</ele>
        <time>2015-11-15T10:13:24Z</time>
      </trkpt>
      <trkpt lat="45.80514" lon="5.3288">
        <ele>356.3</ele>
        <time>2015-11-15T10:13:26Z</time>
      </trkpt>
      <trkpt lat="45.80501" lon="5.32878">
        <ele>355.9</ele>
        <time>2015-11-15T10:13:28Z</time>
      </trkpt>
      <trkpt lat="45.80489" lon="5.32879">
        <ele>355.4</ele>
        <time>2015-11-15T10:13:30Z</time>
      </trkpt>
      <trkpt lat="45.80476" lon="5.32881">
        <ele>355.2</ele>
        <time>2015-11-15T10:13:32Z</time>
      </trkpt>
      <trkpt lat="45.80463" lon="5.32884">
        <ele>355</ele>
        <time>2015-11-15T10:13:34Z</time>
      </trkpt>
      <trkpt lat="45.8045" lon="5.32885">
        <ele>355</ele>
        <time>2015-11-15T10:13:36Z</time>
      </trkpt>
      <trkpt lat="45.80436" lon="5.32886">
        <ele>355</ele>
        <time>2015-11-15T10:13:38Z</time>
      </trkpt>
      <trkpt lat="45.80423" lon="5.32887">
        <ele>355</ele>
        <time>2015-11-15T10:13:40Z</time>
      </trkpt>
      <trkpt lat="45.8041" lon="5.32888">
        <ele>355</ele>
        <time>2015-11-15T10:13:42Z</time>
      </trkpt>
      <trkpt lat="45.80397" lon="5.32888">
        <ele>355</ele>
        <time>2015-11-15T10:13:44Z</time>
      </trkpt>
      <trkpt lat="45.80384" lon="5.3289">
        <ele>355</ele>
        <time>2015-11-15T10:13:46Z</time>
      </trkpt>
      <trkpt lat="45.80371" lon="5.32891">
        <ele>355</ele>
        <time>2015-11-15T10:13:48Z</time>
      </trkpt>
      <trkpt lat="45.80359" lon="5.32892">
        <ele>355</ele>
        <time>2015-11-15T10:13:50Z</time>
      </trkpt>
      <trkpt lat="45.80347" lon="5.32894">
        <ele>355</ele>
        <time>2015-11-15T10:13:52Z</time>
      </trkpt>
      <trkpt lat="45.80336" lon="5.32887">
        <ele>355.1</ele>
        <time>2015-11-15T10:13:54Z</time>
      </trkpt>
      <trkpt lat="45.80328" lon="5.32874">
        <ele>355.4</ele>
        <time>2015-11-15T10:13:56Z</time>
      </trkpt>
      <trkpt lat="45.80321" lon="5.32861">
        <ele>355.6</ele>
        <time>2015-11-15T10:13:58Z</time>
      </trkpt>
      <trkpt lat="45.80314" lon="5.32846">
        <ele>355.8</ele>
        <time>2015-11-15T10:14:00Z</time>
      </trkpt>
      <trkpt lat="45.80307" lon="5.32832">
        <ele>356.4</ele>
        <time>2015-11-15T10:14:02Z</time>
      </trkpt>
      <trkpt lat="45.803" lon="5.32818">
        <ele>357.8</ele>
        <time>2015-11-15T10:14:04Z</time>
      </trkpt>
      <trkpt lat="45.80294" lon="5.32805">
        <ele>358.8</ele>
        <time>2015-11-15T10:14:06Z</time>
      </trkpt>
      <trkpt lat="45.80286" lon="5.32794">
        <ele>360.1</ele>
        <time>2015-11-15T10:14:08Z</time>
      </trkpt>
      <trkpt lat="45.80277" lon="5.32786">
        <ele>359.9</ele>
        <time>2015-11-15T10:14:10Z</time>
      </trkpt>
      <trkpt lat="45.80265" lon="5.32784">
        <ele>359.7</ele>
        <time>2015-11-15T10:14:12Z</time>
      </trkpt>
      <trkpt lat="45.80254" lon="5.32784">
        <ele>359.5</ele>
        <time>2015-11-15T10:14:14Z</time>
      </trkpt>
      <trkpt lat="45.80242" lon="5.32783">
        <ele>359.2</ele>
        <time>2015-11-15T10:14:16Z</time>
      </trkpt>
      <trkpt lat="45.8023" lon="5.32781">
        <ele>359</ele>
        <time>2015-11-15T10:14:18Z</time>
      </trkpt>
      <trkpt lat="45.80219" lon="5.32779">
        <ele>358.9</ele>
        <time>2015-11-15T10:14:20Z</time>
      </trkpt>
      <trkpt lat="45.80208" lon="5.32775">
        <ele>359.4</ele>
        <time>2015-11-15T10:14:22Z</time>
      </trkpt>
      <trkpt lat="45.80197" lon="5.3277">
        <ele>359.6</ele>
        <time>2015-11-15T10:14:24Z</time>
      </trkpt>
      <trkpt lat="45.80186" lon="5.32765">
        <ele>360.7</ele>
        <time>2015-11-15T10:14:26Z</time>
      </trkpt>
      <trkpt lat="45.80175" lon="5.3276">
        <ele>361.9</ele>
        <time>2015-11-15T10:14:28Z</time>
      </trkpt>
      <trkpt lat="45.80165" lon="5.32755">
        <ele>363</ele>
        <time>2015-11-15T10:14:30Z</time>
      </trkpt>
      <trkpt lat="45.80156" lon="5.32749">
        <ele>363.1</ele>
        <time>2015-11-15T10:14:32Z</time>
      </trkpt>
      <trkpt lat="45.8015" lon="5.3274">
        <ele>364.4</ele>
        <time>2015-11-15T10:14:34Z</time>
      </trkpt>
      <trkpt lat="45.80146" lon="5.3273">
        <ele>365.5</ele>
        <time>2015-11-15T10:14:36Z</time>
      </trkpt>
      <trkpt lat="45.80143" lon="5.32721">
        <ele>366.2</ele>
        <time>2015-11-15T10:14:38Z</time>
      </trkpt>
      <trkpt lat="45.80139" lon="5.32714">
        <ele>367</ele>
        <time>2015-11-15T10:14:40Z</time>
      </trkpt>
      <trkpt lat="45.80134" lon="5.32707">
        <ele>367.5</ele>
        <time>2015-11-15T10:14:42Z</time>
      </trkpt>
      <trkpt lat="45.80128" lon="5.32703">
        <ele>368.2</ele>
        <time>2015-11-15T10:14:44Z</time>
      </trkpt>
      <trkpt lat="45.80121" lon="5.32701">
        <ele>369</ele>
        <time>2015-11-15T10:14:46Z</time>
      </trkpt>
      <trkpt lat="45.80114" lon="5.32698">
        <ele>369.6</ele>
        <time>2015-11-15T10:14:48Z</time>
      </trkpt>
      <trkpt lat="45.80106" lon="5.32695">
        <ele>370.1</ele>
        <time>2015-11-15T10:14:50Z</time>
      </trkpt>
      <trkpt lat="45.801" lon="5.32694">
        <ele>370.6</ele>
        <time>2015-11-15T10:14:52Z</time>
      </trkpt>
      <trkpt lat="45.80092" lon="5.32692">
        <ele>371</ele>
        <time>2015-11-15T10:14:54Z</time>
      </trkpt>
      <trkpt lat="45.80085" lon="5.32688">
        <ele>371.4</ele>
        <time>2015-11-15T10:14:56Z</time>
      </trkpt>
      <trkpt lat="45.80077" lon="5.32686">
        <ele>371.7</ele>
        <time>2015-11-15T10:14:58Z</time>
      </trkpt>
      <trkpt lat="45.80068" lon="5.32683">
        <ele>371.6</ele>
        <time>2015-11-15T10:15:00Z</time>
      </trkpt>
      <trkpt lat="45.80059" lon="5.32681">
        <ele>371</ele>
        <time>2015-11-15T10:15:02Z</time>
      </trkpt>
      <trkpt lat="45.8005" lon="5.3268">
        <ele>370.4</ele>
        <time>2015-11-15T10:15:04Z</time>
      </trkpt>
      <trkpt lat="45.8004" lon="5.32679">
        <ele>369.7</ele>
        <time>2015-11-15T10:15:06Z</time>
      </trkpt>
      <trkpt lat="45.80031" lon="5.32677">
        <ele>368.8</ele>
        <time>2015-11-15T10:15:08Z</time>
      </trkpt>
      <trkpt lat="45.80021" lon="5.32674">
        <ele>368</ele>
        <time>2015-11-15T10:15:10Z</time>
      </trkpt>
      <trkpt lat="45.80012" lon="5.32671">
        <ele>367.3</ele>
        <time>2015-11-15T10:15:12Z</time>
      </trkpt>
      <trkpt lat="45.80002" lon="5.32668">
        <ele>366.6</ele>
        <time>2015-11-15T10:15:14Z</time>
      </trkpt>
      <trkpt lat="45.79993" lon="5.32665">
        <ele>366</ele>
        <time>2015-11-15T10:15:16Z</time>
      </trkpt>
      <trkpt lat="45.79985" lon="5.32663">
        <ele>365.5</ele>
        <time>2015-11-15T10:15:18Z</time>
      </trkpt>
      <trkpt lat="45.79977" lon="5.32659">
        <ele>365.3</ele>
        <time>2015-11-15T10:15:20Z</time>
      </trkpt>
      <trkpt lat="45.79969" lon="5.32654">
        <ele>365.2</ele>
        <time>2015-11-15T10:15:22Z</time>
      </trkpt>
      <trkpt lat="45.79958" lon="5.32648">
        <ele>365</ele>
        <time>2015-11-15T10:15:24Z</time>
      </trkpt>
      <trkpt lat="45.79946" lon="5.32643">
        <ele>364.7</ele>
        <time>2015-11-15T10:15:26Z</time>
      </trkpt>
      <trkpt lat="45.79933" lon="5.32638">
        <ele>364.4</ele>
        <time>2015-11-15T10:15:28Z</time>
      </trkpt>
      <trkpt lat="45.79919" lon="5.32632">
        <ele>363.6</ele>
        <time>2015-11-15T10:15:30Z</time>
      </trkpt>
      <trkpt lat="45.79905" lon="5.32627">
        <ele>362</ele>
        <time>2015-11-15T10:15:32Z</time>
      </trkpt>
      <trkpt lat="45.79891" lon="5.32621">
        <ele>359.3</ele>
        <time>2015-11-15T10:15:34Z</time>
      </trkpt>
      <trkpt lat="45.79876" lon="5.32616">
        <ele>356.7</ele>
        <time>2015-11-15T10:15:36Z</time>
      </trkpt>
      <trkpt lat="45.79862" lon="5.32614">
        <ele>354.9</ele>
        <time>2015-11-15T10:15:38Z</time>
      </trkpt>
      <trkpt lat="45.79849" lon="5.32613">
        <ele>353.4</ele>
        <time>2015-11-15T10:15:40Z</time>
      </trkpt>
      <trkpt lat="45.79837" lon="5.32613">
        <ele>351.3</ele>
        <time>2015-11-15T10:15:42Z</time>
      </trkpt>
      <trkpt lat="45.79825" lon="5.32619">
        <ele>350</ele>
        <time>2015-11-15T10:15:44Z</time>
      </trkpt>
      <trkpt lat="45.79813" lon="5.3263">
        <ele>347.9</ele>
        <time>2015-11-15T10:15:46Z</time>
      </trkpt>
      <trkpt lat="45.798" lon="5.32641">
        <ele>346.5</ele>
        <time>2015-11-15T10:15:48Z</time>
      </trkpt>
      <trkpt lat="45.79789" lon="5.32654">
        <ele>345.1</ele>
        <time>2015-11-15T10:15:50Z</time>
      </trkpt>
      <trkpt lat="45.79777" lon="5.32668">
        <ele>343.9</ele>
        <time>2015-11-15T10:15:52Z</time>
      </trkpt>
      <trkpt lat="45.79766" lon="5.3268">
        <ele>343</ele>
        <time>2015-11-15T10:15:54Z</time>
      </trkpt>
      <trkpt lat="45.79755" lon="5.32694">
        <ele>342.6</ele>
        <time>2015-11-15T10:15:56Z</time>
      </trkpt>
      <trkpt lat="45.79744" lon="5.32706">
        <ele>342.6</ele>
        <time>2015-11-15T10:15:58Z</time>
      </trkpt>
      <trkpt lat="45.79733" lon="5.32712">
        <ele>342.4</ele>
        <time>2015-11-15T10:16:00Z</time>
      </trkpt>
      <trkpt lat="45.79725" lon="5.3271">
        <ele>342.7</ele>
        <time>2015-11-15T10:16:02Z</time>
      </trkpt>
      <trkpt lat="45.79721" lon="5.32705">
        <ele>343</ele>
        <time>2015-11-15T10:16:04Z</time>
      </trkpt>
      <trkpt lat="45.79718" lon="5.32699">
        <ele>343</ele>
        <time>2015-11-15T10:16:06Z</time>
      </trkpt>
      <trkpt lat="45.79717" lon="5.32694">
        <ele>343</ele>
        <time>2015-11-15T10:16:08Z</time>
      </trkpt>
      <trkpt lat="45.79716" lon="5.32689">
        <ele>343</ele>
        <time>2015-11-15T10:16:10Z</time>
      </trkpt>
      <trkpt lat="45.79718" lon="5.32684">
        <ele>343</ele>
        <time>2015-11-15T10:16:12Z</time>
      </trkpt>
      <trkpt lat="45.79722" lon="5.32678">
        <ele>343</ele>
        <time>2015-11-15T10:16:14Z</time>
      </trkpt>
      <trkpt lat="45.79728" lon="5.32671">
        <ele>343</ele>
        <time>2015-11-15T10:16:16Z</time>
      </trkpt>
      <trkpt lat="45.79734" lon="5.32664">
        <ele>342.9</ele>
        <time>2015-11-15T10:16:18Z</time>
      </trkpt>
      <trkpt lat="45.7974" lon="5.32655">
        <ele>340.8</ele>
        <time>2015-11-15T10:16:20Z</time>
      </trkpt>
      <trkpt lat="45.79745" lon="5.32645">
        <ele>340.8</ele>
        <time>2015-11-15T10:16:22Z</time>
      </trkpt>
      <trkpt lat="45.79748" lon="5.32634">
        <ele>340.8</ele>
        <time>2015-11-15T10:16:24Z</time>
      </trkpt>
      <trkpt lat="45.7975" lon="5.32623">
        <ele>340.8</ele>
        <time>2015-11-15T10:16:26Z</time>
      </trkpt>
      <trkpt lat="45.79753" lon="5.32614">
        <ele>340.7</ele>
        <time>2015-11-15T10:16:28Z</time>
      </trkpt>
      <trkpt lat="45.79756" lon="5.32603">
        <ele>340.7</ele>
        <time>2015-11-15T10:16:30Z</time>
      </trkpt>
      <trkpt lat="45.79759" lon="5.32589">
        <ele>340.6</ele>
        <time>2015-11-15T10:16:32Z</time>
      </trkpt>
      <trkpt lat="45.7976" lon="5.32574">
        <ele>340.4</ele>
        <time>2015-11-15T10:16:34Z</time>
      </trkpt>
      <trkpt lat="45.7976" lon="5.32559">
        <ele>340.1</ele>
        <time>2015-11-15T10:16:36Z</time>
      </trkpt>
      <trkpt lat="45.79759" lon="5.32544">
        <ele>339.7</ele>
        <time>2015-11-15T10:16:38Z</time>
      </trkpt>
      <trkpt lat="45.79757" lon="5.32529">
        <ele>338.8</ele>
        <time>2015-11-15T10:16:40Z</time>
      </trkpt>
      <trkpt lat="45.79758" lon="5.32509">
        <ele>337.4</ele>
        <time>2015-11-15T10:16:42Z</time>
      </trkpt>
      <trkpt lat="45.79757" lon="5.32492">
        <ele>335.9</ele>
        <time>2015-11-15T10:16:44Z</time>
      </trkpt>
      <trkpt lat="45.79752" lon="5.32476">
        <ele>334.4</ele>
        <time>2015-11-15T10:16:46Z</time>
      </trkpt>
      <trkpt lat="45.79741" lon="5.32466">
        <ele>332.8</ele>
        <time>2015-11-15T10:16:48Z</time>
      </trkpt>
      <trkpt lat="45.79728" lon="5.32456">
        <ele>331.1</ele>
        <time>2015-11-15T10:16:50Z</time>
      </trkpt>
      <trkpt lat="45.79715" lon="5.32446">
        <ele>329.3</ele>
        <time>2015-11-15T10:16:52Z</time>
      </trkpt>
      <trkpt lat="45.79702" lon="5.32436">
        <ele>327.8</ele>
        <time>2015-11-15T10:16:54Z</time>
      </trkpt>
      <trkpt lat="45.79691" lon="5.32427">
        <ele>326.5</ele>
        <time>2015-11-15T10:16:56Z</time>
      </trkpt>
      <trkpt lat="45.79679" lon="5.32424">
        <ele>325.3</ele>
        <time>2015-11-15T10:16:58Z</time>
      </trkpt>
      <trkpt lat="45.79668" lon="5.32423">
        <ele>323.9</ele>
        <time>2015-11-15T10:17:00Z</time>
      </trkpt>
      <trkpt lat="45.7966" lon="5.32418">
        <ele>322.6</ele>
        <time>2015-11-15T10:17:02Z</time>
      </trkpt>
      <trkpt lat="45.79659" lon="5.32406">
        <ele>321</ele>
        <time>2015-11-15T10:17:04Z</time>
      </trkpt>
      <trkpt lat="45.79657" lon="5.32394">
        <ele>320.4</ele>
        <time>2015-11-15T10:17:06Z</time>
      </trkpt>
      <trkpt lat="45.79656" lon="5.32382">
        <ele>320.1</ele>
        <time>2015-11-15T10:17:08Z</time>
      </trkpt>
      <trkpt lat="45.79655" lon="5.3237">
        <ele>320.1</ele>
        <time>2015-11-15T10:17:10Z</time>
      </trkpt>
      <trkpt lat="45.79654" lon="5.32357">
        <ele>320.1</ele>
        <time>2015-11-15T10:17:12Z</time>
      </trkpt>
      <trkpt lat="45.79652" lon="5.32346">
        <ele>320</ele>
        <time>2015-11-15T10:17:14Z</time>
      </trkpt>
      <trkpt lat="45.79652" lon="5.32335">
        <ele>320</ele>
        <time>2015-11-15T10:17:16Z</time>
      </trkpt>
      <trkpt lat="45.79654" lon="5.32323">
        <ele>320</ele>
        <time>2015-11-15T10:17:18Z</time>
      </trkpt>
      <trkpt lat="45.79657" lon="5.32312">
        <ele>319.9</ele>
        <time>2015-11-15T10:17:20Z</time>
      </trkpt>
      <trkpt lat="45.79661" lon="5.323">
        <ele>319.8</ele>
        <time>2015-11-15T10:17:22Z</time>
      </trkpt>
      <trkpt lat="45.79664" lon="5.32285">
        <ele>319.6</ele>
        <time>2015-11-15T10:17:24Z</time>
      </trkpt>
      <trkpt lat="45.79664" lon="5.32267">
        <ele>319.3</ele>
        <time>2015-11-15T10:17:26Z</time>
      </trkpt>
      <trkpt lat="45.79663" lon="5.32247">
        <ele>318.1</ele>
        <time>2015-11-15T10:17:28Z</time>
      </trkpt>
      <trkpt lat="45.79661" lon="5.32227">
        <ele>316.5</ele>
        <time>2015-11-15T10:17:30Z</time>
      </trkpt>
      <trkpt lat="45.79659" lon="5.32206">
        <ele>314.9</ele>
        <time>2015-11-15T10:17:32Z</time>
      </trkpt>
      <trkpt lat="45.79656" lon="5.32187">
        <ele>313.5</ele>
        <time>2015-11-15T10:17:34Z</time>
      </trkpt>
      <trkpt lat="45.79651" lon="5.32169">
        <ele>312.3</ele>
        <time>2015-11-15T10:17:36Z</time>
      </trkpt>
      <trkpt lat="45.79643" lon="5.32151">
        <ele>311.1</ele>
        <time>2015-11-15T10:17:38Z</time>
      </trkpt>
      <trkpt lat="45.79633" lon="5.32136">
        <ele>310.1</ele>
        <time>2015-11-15T10:17:40Z</time>
      </trkpt>
      <trkpt lat="45.79624" lon="5.32121">
        <ele>309.1</ele>
        <time>2015-11-15T10:17:42Z</time>
      </trkpt>
      <trkpt lat="45.79617" lon="5.32105">
        <ele>308</ele>
        <time>2015-11-15T10:17:44Z</time>
      </trkpt>
      <trkpt lat="45.79614" lon="5.32088">
        <ele>307</ele>
        <time>2015-11-15T10:17:46Z</time>
      </trkpt>
      <trkpt lat="45.79614" lon="5.32071">
        <ele>306.1</ele>
        <time>2015-11-15T10:17:48Z</time>
      </trkpt>
      <trkpt lat="45.79614" lon="5.32052">
        <ele>305.7</ele>
        <time>2015-11-15T10:17:50Z</time>
      </trkpt>
      <trkpt lat="45.79616" lon="5.32035">
        <ele>305.3</ele>
        <time>2015-11-15T10:17:52Z</time>
      </trkpt>
      <trkpt lat="45.79617" lon="5.32016">
        <ele>305.1</ele>
        <time>2015-11-15T10:17:54Z</time>
      </trkpt>
      <trkpt lat="45.79619" lon="5.31998">
        <ele>304.7</ele>
        <time>2015-11-15T10:17:56Z</time>
      </trkpt>
      <trkpt lat="45.79618" lon="5.31978">
        <ele>304.3</ele>
        <time>2015-11-15T10:17:58Z</time>
      </trkpt>
      <trkpt lat="45.79616" lon="5.31958">
        <ele>303.4</ele>
        <time>2015-11-15T10:18:00Z</time>
      </trkpt>
      <trkpt lat="45.79614" lon="5.3194">
        <ele>302.3</ele>
        <time>2015-11-15T10:18:02Z</time>
      </trkpt>
      <trkpt lat="45.79612" lon="5.31921">
        <ele>301.4</ele>
        <time>2015-11-15T10:18:04Z</time>
      </trkpt>
      <trkpt lat="45.79611" lon="5.31904">
        <ele>300.8</ele>
        <time>2015-11-15T10:18:06Z</time>
      </trkpt>
      <trkpt lat="45.7961" lon="5.31887">
        <ele>300.5</ele>
        <time>2015-11-15T10:18:08Z</time>
      </trkpt>
      <trkpt lat="45.7961" lon="5.31869">
        <ele>300</ele>
        <time>2015-11-15T10:18:10Z</time>
      </trkpt>
      <trkpt lat="45.7961" lon="5.31853">
        <ele>299.1</ele>
        <time>2015-11-15T10:18:12Z</time>
      </trkpt>
      <trkpt lat="45.79607" lon="5.31836">
        <ele>298.6</ele>
        <time>2015-11-15T10:18:14Z</time>
      </trkpt>
      <trkpt lat="45.79602" lon="5.31819">
        <ele>298.1</ele>
        <time>2015-11-15T10:18:16Z</time>
      </trkpt>
      <trkpt lat="45.79595" lon="5.31801">
        <ele>297.2</ele>
        <time>2015-11-15T10:18:18Z</time>
      </trkpt>
      <trkpt lat="45.79588" lon="5.31785">
        <ele>296.6</ele>
        <time>2015-11-15T10:18:20Z</time>
      </trkpt>
      <trkpt lat="45.79586" lon="5.31768">
        <ele>296.3</ele>
        <time>2015-11-15T10:18:22Z</time>
      </trkpt>
      <trkpt lat="45.7959" lon="5.31751">
        <ele>296</ele>
        <time>2015-11-15T10:18:24Z</time>
      </trkpt>
      <trkpt lat="45.79594" lon="5.31732">
        <ele>295.4</ele>
        <time>2015-11-15T10:18:26Z</time>
      </trkpt>
      <trkpt lat="45.79598" lon="5.31713">
        <ele>294.3</ele>
        <time>2015-11-15T10:18:28Z</time>
      </trkpt>
      <trkpt lat="45.79603" lon="5.31694">
        <ele>292.8</ele>
        <time>2015-11-15T10:18:30Z</time>
      </trkpt>
      <trkpt lat="45.79607" lon="5.31674">
        <ele>291.3</ele>
        <time>2015-11-15T10:18:32Z</time>
      </trkpt>
      <trkpt lat="45.79611" lon="5.31656">
        <ele>289.9</ele>
        <time>2015-11-15T10:18:34Z</time>
      </trkpt>
      <trkpt lat="45.79612" lon="5.31638">
        <ele>289</ele>
        <time>2015-11-15T10:18:36Z</time>
      </trkpt>
      <trkpt lat="45.79613" lon="5.31621">
        <ele>288.8</ele>
        <time>2015-11-15T10:18:38Z</time>
      </trkpt>
      <trkpt lat="45.79616" lon="5.31604">
        <ele>288.6</ele>
        <time>2015-11-15T10:18:40Z</time>
      </trkpt>
      <trkpt lat="45.7962" lon="5.3159">
        <ele>288.5</ele>
        <time>2015-11-15T10:18:42Z</time>
      </trkpt>
      <trkpt lat="45.79629" lon="5.31578">
        <ele>288.3</ele>
        <time>2015-11-15T10:18:44Z</time>
      </trkpt>
      <trkpt lat="45.79639" lon="5.31567">
        <ele>288.2</ele>
        <time>2015-11-15T10:18:46Z</time>
      </trkpt>
      <trkpt lat="45.7965" lon="5.31557">
        <ele>288</ele>
        <time>2015-11-15T10:18:48Z</time>
      </trkpt>
      <trkpt lat="45.79659" lon="5.31545">
        <ele>287.7</ele>
        <time>2015-11-15T10:18:50Z</time>
      </trkpt>
      <trkpt lat="45.79666" lon="5.31531">
        <ele>287.5</ele>
        <time>2015-11-15T10:18:52Z</time>
      </trkpt>
      <trkpt lat="45.79672" lon="5.31516">
        <ele>286.8</ele>
        <time>2015-11-15T10:18:54Z</time>
      </trkpt>
      <trkpt lat="45.79676" lon="5.31502">
        <ele>286.3</ele>
        <time>2015-11-15T10:18:56Z</time>
      </trkpt>
      <trkpt lat="45.79678" lon="5.31487">
        <ele>286.1</ele>
        <time>2015-11-15T10:18:58Z</time>
      </trkpt>
      <trkpt lat="45.79678" lon="5.31474">
        <ele>286.1</ele>
        <time>2015-11-15T10:19:00Z</time>
      </trkpt>
      <trkpt lat="45.79675" lon="5.31461">
        <ele>286</ele>
        <time>2015-11-15T10:19:02Z</time>
      </trkpt>
      <trkpt lat="45.79669" lon="5.3145">
        <ele>286</ele>
        <time>2015-11-15T10:19:04Z</time>
      </trkpt>
      <trkpt lat="45.79663" lon="5.31441">
        <ele>285.8</ele>
        <time>2015-11-15T10:19:06Z</time>
      </trkpt>
      <trkpt lat="45.79656" lon="5.31429">
        <ele>285.3</ele>
        <time>2015-11-15T10:19:08Z</time>
      </trkpt>
      <trkpt lat="45.79656" lon="5.31415">
        <ele>285</ele>
        <time>2015-11-15T10:19:10Z</time>
      </trkpt>
      <trkpt lat="45.79661" lon="5.31401">
        <ele>284.6</ele>
        <time>2015-11-15T10:19:12Z</time>
      </trkpt>
      <trkpt lat="45.79665" lon="5.31385">
        <ele>284.4</ele>
        <time>2015-11-15T10:19:14Z</time>
      </trkpt>
      <trkpt lat="45.7967" lon="5.3137">
        <ele>284.3</ele>
        <time>2015-11-15T10:19:16Z</time>
      </trkpt>
      <trkpt lat="45.79676" lon="5.31354">
        <ele>284.2</ele>
        <time>2015-11-15T10:19:18Z</time>
      </trkpt>
      <trkpt lat="45.79681" lon="5.31339">
        <ele>284</ele>
        <time>2015-11-15T10:19:20Z</time>
      </trkpt>
      <trkpt lat="45.79689" lon="5.31328">
        <ele>284.3</ele>
        <time>2015-11-15T10:19:22Z</time>
      </trkpt>
      <trkpt lat="45.79695" lon="5.31317">
        <ele>284.6</ele>
        <time>2015-11-15T10:19:24Z</time>
      </trkpt>
      <trkpt lat="45.79701" lon="5.31307">
        <ele>284.8</ele>
        <time>2015-11-15T10:19:26Z</time>
      </trkpt>
      <trkpt lat="45.79706" lon="5.31297">
        <ele>285.1</ele>
        <time>2015-11-15T10:19:28Z</time>
      </trkpt>
      <trkpt lat="45.79712" lon="5.31286">
        <ele>285.4</ele>
        <time>2015-11-15T10:19:30Z</time>
      </trkpt>
      <trkpt lat="45.79718" lon="5.31275">
        <ele>285.6</ele>
        <time>2015-11-15T10:19:32Z</time>
      </trkpt>
      <trkpt lat="45.79723" lon="5.31264">
        <ele>285.9</ele>
        <time>2015-11-15T10:19:34Z</time>
      </trkpt>
      <trkpt lat="45.79729" lon="5.31252">
        <ele>286.5</ele>
        <time>2015-11-15T10:19:36Z</time>
      </trkpt>
      <trkpt lat="45.79733" lon="5.3124">
        <ele>287</ele>
        <time>2015-11-15T10:19:38Z</time>
      </trkpt>
      <trkpt lat="45.79739" lon="5.31229">
        <ele>287.5</ele>
        <time>2015-11-15T10:19:40Z</time>
      </trkpt>
      <trkpt lat="45.79746" lon="5.31217">
        <ele>287.5</ele>
        <time>2015-11-15T10:19:42Z</time>
      </trkpt>
      <trkpt lat="45.79751" lon="5.31203">
        <ele>286.1</ele>
        <time>2015-11-15T10:19:44Z</time>
      </trkpt>
      <trkpt lat="45.79757" lon="5.31188">
        <ele>284.7</ele>
        <time>2015-11-15T10:19:46Z</time>
      </trkpt>
      <trkpt lat="45.79763" lon="5.31174">
        <ele>284.3</ele>
        <time>2015-11-15T10:19:48Z</time>
      </trkpt>
      <trkpt lat="45.7977" lon="5.3116">
        <ele>284.1</ele>
        <time>2015-11-15T10:19:50Z</time>
      </trkpt>
      <trkpt lat="45.79778" lon="5.31149">
        <ele>283.8</ele>
        <time>2015-11-15T10:19:52Z</time>
      </trkpt>
      <trkpt lat="45.79784" lon="5.31134">
        <ele>283.4</ele>
        <time>2015-11-15T10:19:54Z</time>
      </trkpt>
      <trkpt lat="45.79788" lon="5.31119">
        <ele>281.3</ele>
        <time>2015-11-15T10:19:56Z</time>
      </trkpt>
      <trkpt lat="45.79792" lon="5.31104">
        <ele>280.4</ele>
        <time>2015-11-15T10:19:58Z</time>
      </trkpt>
      <trkpt lat="45.79795" lon="5.3109">
        <ele>279.6</ele>
        <time>2015-11-15T10:20:00Z</time>
      </trkpt>
      <trkpt lat="45.79797" lon="5.31081">
        <ele>279.5</ele>
        <time>2015-11-15T10:20:02Z</time>
      </trkpt>
      <trkpt lat="45.79798" lon="5.31075">
        <ele>279.5</ele>
        <time>2015-11-15T10:20:04Z</time>
      </trkpt>
      <trkpt lat="45.79799" lon="5.3107">
        <ele>279.4</ele>
        <time>2015-11-15T10:20:12Z</time>
      </trkpt>
      <trkpt lat="45.79798" lon="5.31069">
        <ele>279.3</ele>
        <time>2015-11-15T10:20:14Z</time>
      </trkpt>
      <trkpt lat="45.79796" lon="5.31066">
        <ele>279.3</ele>
        <time>2015-11-15T10:20:20Z</time>
      </trkpt>
      <trkpt lat="45.79796" lon="5.31063">
        <ele>279.3</ele>
        <time>2015-11-15T10:20:22Z</time>
      </trkpt>
      <trkpt lat="45.79796" lon="5.3106">
        <ele>279.2</ele>
        <time>2015-11-15T10:20:24Z</time>
      </trkpt>
      <trkpt lat="45.79797" lon="5.31057">
        <ele>279.3</ele>
        <time>2015-11-15T10:20:26Z</time>
      </trkpt>
      <trkpt lat="45.79798" lon="5.31056">
        <ele>279.3</ele>
        <time>2015-11-15T10:20:28Z</time>
      </trkpt>
      <trkpt lat="45.798" lon="5.31054">
        <ele>279.3</ele>
        <time>2015-11-15T10:20:30Z</time>
      </trkpt>
      <trkpt lat="45.79801" lon="5.31051">
        <ele>279.2</ele>
        <time>2015-11-15T10:20:32Z</time>
      </trkpt>
      <trkpt lat="45.79802" lon="5.31048">
        <ele>279.3</ele>
        <time>2015-11-15T10:20:34Z</time>
      </trkpt>
      <trkpt lat="45.79802" lon="5.31044">
        <ele>279.2</ele>
        <time>2015-11-15T10:20:36Z</time>
      </trkpt>
      <trkpt lat="45.79802" lon="5.3104">
        <ele>279</ele>
        <time>2015-11-15T10:20:38Z</time>
      </trkpt>
      <trkpt lat="45.79799" lon="5.31023">
        <ele>278.6</ele>
        <time>2015-11-15T10:21:18Z</time>
      </trkpt>
      <trkpt lat="45.79801" lon="5.31008">
        <ele>277.9</ele>
        <time>2015-11-15T10:21:20Z</time>
      </trkpt>
      <trkpt lat="45.79805" lon="5.31002">
        <ele>277.7</ele>
        <time>2015-11-15T10:21:22Z</time>
      </trkpt>
      <trkpt lat="45.79812" lon="5.30996">
        <ele>277.4</ele>
        <time>2015-11-15T10:21:24Z</time>
      </trkpt>
      <trkpt lat="45.79818" lon="5.30988">
        <ele>277.1</ele>
        <time>2015-11-15T10:21:26Z</time>
      </trkpt>
      <trkpt lat="45.79823" lon="5.30978">
        <ele>277</ele>
        <time>2015-11-15T10:21:28Z</time>
      </trkpt>
      <trkpt lat="45.79826" lon="5.30966">
        <ele>277.2</ele>
        <time>2015-11-15T10:21:30Z</time>
      </trkpt>
      <trkpt lat="45.79828" lon="5.30955">
        <ele>277.5</ele>
        <time>2015-11-15T10:21:32Z</time>
      </trkpt>
      <trkpt lat="45.79835" lon="5.30946">
        <ele>277.6</ele>
        <time>2015-11-15T10:21:34Z</time>
      </trkpt>
      <trkpt lat="45.79842" lon="5.30937">
        <ele>277.6</ele>
        <time>2015-11-15T10:21:36Z</time>
      </trkpt>
      <trkpt lat="45.79849" lon="5.30936">
        <ele>277.3</ele>
        <time>2015-11-15T10:21:38Z</time>
      </trkpt>
      <trkpt lat="45.79853" lon="5.30931">
        <ele>277.8</ele>
        <time>2015-11-15T10:21:40Z</time>
      </trkpt>
      <trkpt lat="45.79855" lon="5.30922">
        <ele>278.3</ele>
        <time>2015-11-15T10:21:42Z</time>
      </trkpt>
      <trkpt lat="45.7986" lon="5.30911">
        <ele>278.2</ele>
        <time>2015-11-15T10:21:44Z</time>
      </trkpt>
      <trkpt lat="45.79866" lon="5.30901">
        <ele>278.3</ele>
        <time>2015-11-15T10:21:46Z</time>
      </trkpt>
      <trkpt lat="45.79873" lon="5.30892">
        <ele>278.5</ele>
        <time>2015-11-15T10:21:48Z</time>
      </trkpt>
      <trkpt lat="45.79879" lon="5.30886">
        <ele>278.5</ele>
        <time>2015-11-15T10:21:50Z</time>
      </trkpt>
      <trkpt lat="45.79888" lon="5.30879">
        <ele>278.8</ele>
        <time>2015-11-15T10:21:52Z</time>
      </trkpt>
      <trkpt lat="45.79895" lon="5.30873">
        <ele>278.4</ele>
        <time>2015-11-15T10:21:54Z</time>
      </trkpt>
      <trkpt lat="45.79903" lon="5.30864">
        <ele>278.1</ele>
        <time>2015-11-15T10:21:56Z</time>
      </trkpt>
      <trkpt lat="45.79909" lon="5.3085">
        <ele>277.8</ele>
        <time>2015-11-15T10:21:58Z</time>
      </trkpt>
      <trkpt lat="45.79915" lon="5.30836">
        <ele>277.5</ele>
        <time>2015-11-15T10:22:00Z</time>
      </trkpt>
      <trkpt lat="45.79919" lon="5.30821">
        <ele>276.6</ele>
        <time>2015-11-15T10:22:02Z</time>
      </trkpt>
      <trkpt lat="45.79923" lon="5.30805">
        <ele>275.6</ele>
        <time>2015-11-15T10:22:04Z</time>
      </trkpt>
      <trkpt lat="45.79929" lon="5.30788">
        <ele>273.9</ele>
        <time>2015-11-15T10:22:06Z</time>
      </trkpt>
      <trkpt lat="45.79935" lon="5.30769">
        <ele>272.6</ele>
        <time>2015-11-15T10:22:08Z</time>
      </trkpt>
      <trkpt lat="45.79942" lon="5.3075">
        <ele>271</ele>
        <time>2015-11-15T10:22:10Z</time>
      </trkpt>
      <trkpt lat="45.7995" lon="5.30734">
        <ele>269.2</ele>
        <time>2015-11-15T10:22:12Z</time>
      </trkpt>
      <trkpt lat="45.79956" lon="5.30722">
        <ele>268.2</ele>
        <time>2015-11-15T10:22:14Z</time>
      </trkpt>
      <trkpt lat="45.79961" lon="5.30712">
        <ele>267.2</ele>
        <time>2015-11-15T10:22:16Z</time>
      </trkpt>
      <trkpt lat="45.79964" lon="5.307">
        <ele>266.8</ele>
        <time>2015-11-15T10:22:18Z</time>
      </trkpt>
      <trkpt lat="45.79967" lon="5.3069">
        <ele>266.4</ele>
        <time>2015-11-15T10:22:20Z</time>
      </trkpt>
      <trkpt lat="45.79973" lon="5.30681">
        <ele>264.8</ele>
        <time>2015-11-15T10:22:22Z</time>
      </trkpt>
      <trkpt lat="45.79979" lon="5.30675">
        <ele>262.6</ele>
        <time>2015-11-15T10:22:24Z</time>
      </trkpt>
      <trkpt lat="45.79984" lon="5.30668">
        <ele>260.5</ele>
        <time>2015-11-15T10:22:26Z</time>
      </trkpt>
      <trkpt lat="45.79985" lon="5.30657">
        <ele>257.4</ele>
        <time>2015-11-15T10:22:28Z</time>
      </trkpt>
      <trkpt lat="45.79985" lon="5.30645">
        <ele>255.7</ele>
        <time>2015-11-15T10:22:30Z</time>
      </trkpt>
      <trkpt lat="45.79985" lon="5.30636">
        <ele>254.1</ele>
        <time>2015-11-15T10:22:32Z</time>
      </trkpt>
      <trkpt lat="45.79986" lon="5.30626">
        <ele>250.9</ele>
        <time>2015-11-15T10:22:34Z</time>
      </trkpt>
      <trkpt lat="45.79991" lon="5.30621">
        <ele>247</ele>
        <time>2015-11-15T10:22:36Z</time>
      </trkpt>
      <trkpt lat="45.79995" lon="5.30614">
        <ele>243.6</ele>
        <time>2015-11-15T10:22:38Z</time>
      </trkpt>
      <trkpt lat="45.79995" lon="5.30607">
        <ele>242.7</ele>
        <time>2015-11-15T10:22:40Z</time>
      </trkpt>
      <trkpt lat="45.79997" lon="5.30598">
        <ele>239.7</ele>
        <time>2015-11-15T10:23:06Z</time>
      </trkpt>
      <trkpt lat="45.79996" lon="5.3059">
        <ele>238.7</ele>
        <time>2015-11-15T10:23:08Z</time>
      </trkpt>
      <trkpt lat="45.79994" lon="5.30587">
        <ele>237.9</ele>
        <time>2015-11-15T10:23:10Z</time>
      </trkpt>
      <trkpt lat="45.79992" lon="5.30582">
        <ele>238.1</ele>
        <time>2015-11-15T10:23:12Z</time>
      </trkpt>
      <trkpt lat="45.79988" lon="5.30574">
        <ele>237.4</ele>
        <time>2015-11-15T10:23:14Z</time>
      </trkpt>
      <trkpt lat="45.79982" lon="5.30569">
        <ele>238.7</ele>
        <time>2015-11-15T10:23:16Z</time>
      </trkpt>
      <trkpt lat="45.79978" lon="5.30561">
        <ele>238.8</ele>
        <time>2015-11-15T10:23:18Z</time>
      </trkpt>
      <trkpt lat="45.79974" lon="5.30551">
        <ele>237.9</ele>
        <time>2015-11-15T10:23:20Z</time>
      </trkpt>
      <trkpt lat="45.79969" lon="5.30542">
        <ele>236.8</ele>
        <time>2015-11-15T10:23:22Z</time>
      </trkpt>
      <trkpt lat="45.79965" lon="5.30533">
        <ele>234.9</ele>
        <time>2015-11-15T10:23:24Z</time>
      </trkpt>
      <trkpt lat="45.79961" lon="5.30524">
        <ele>233.5</ele>
        <time>2015-11-15T10:23:26Z</time>
      </trkpt>
      <trkpt lat="45.79959" lon="5.3052">
        <ele>232.7</ele>
        <time>2015-11-15T10:23:28Z</time>
      </trkpt>
      <trkpt lat="45.79955" lon="5.30515">
        <ele>230.6</ele>
        <time>2015-11-15T10:23:30Z</time>
      </trkpt>
      <trkpt lat="45.79955" lon="5.30508">
        <ele>229.6</ele>
        <time>2015-11-15T10:23:32Z</time>
      </trkpt>
      <trkpt lat="45.79957" lon="5.30498">
        <ele>227.9</ele>
        <time>2015-11-15T10:23:34Z</time>
      </trkpt>
      <trkpt lat="45.7996" lon="5.30485">
        <ele>225.7</ele>
        <time>2015-11-15T10:23:36Z</time>
      </trkpt>
      <trkpt lat="45.79963" lon="5.30471">
        <ele>223</ele>
        <time>2015-11-15T10:23:38Z</time>
      </trkpt>
      <trkpt lat="45.79965" lon="5.30456">
        <ele>221.4</ele>
        <time>2015-11-15T10:23:40Z</time>
      </trkpt>
      <trkpt lat="45.79968" lon="5.30448">
        <ele>220.6</ele>
        <time>2015-11-15T10:23:42Z</time>
      </trkpt>
      <trkpt lat="45.79966" lon="5.30439">
        <ele>219.8</ele>
        <time>2015-11-15T10:23:44Z</time>
      </trkpt>
      <trkpt lat="45.79962" lon="5.3043">
        <ele>219.3</ele>
        <time>2015-11-15T10:23:46Z</time>
      </trkpt>
      <trkpt lat="45.79959" lon="5.3042">
        <ele>218.9</ele>
        <time>2015-11-15T10:23:48Z</time>
      </trkpt>
      <trkpt lat="45.7996" lon="5.30413">
        <ele>219</ele>
        <time>2015-11-15T10:23:50Z</time>
      </trkpt>
      <trkpt lat="45.79963" lon="5.30401">
        <ele>219</ele>
        <time>2015-11-15T10:26:40Z</time>
      </trkpt>
      <trkpt lat="45.7997" lon="5.30396">
        <ele>219.6</ele>
        <time>2015-11-15T10:26:42Z</time>
      </trkpt>
      <trkpt lat="45.79976" lon="5.30392">
        <ele>219.7</ele>
        <time>2015-11-15T10:26:44Z</time>
      </trkpt>
      <trkpt lat="45.79981" lon="5.30388">
        <ele>219.8</ele>
        <time>2015-11-15T10:26:46Z</time>
      </trkpt>
      <trkpt lat="45.79988" lon="5.30384">
        <ele>219.7</ele>
        <time>2015-11-15T10:26:48Z</time>
      </trkpt>
      <trkpt lat="45.79995" lon="5.30379">
        <ele>219.6</ele>
        <time>2015-11-15T10:26:50Z</time>
      </trkpt>
      <trkpt lat="45.80003" lon="5.30374">
        <ele>219.7</ele>
        <time>2015-11-15T10:26:52Z</time>
      </trkpt>
      <trkpt lat="45.80011" lon="5.30369">
        <ele>219.8</ele>
        <time>2015-11-15T10:26:54Z</time>
      </trkpt>
      <trkpt lat="45.80019" lon="5.30363">
        <ele>219.8</ele>
        <time>2015-11-15T10:26:56Z</time>
      </trkpt>
      <trkpt lat="45.80027" lon="5.30358">
        <ele>219.8</ele>
        <time>2015-11-15T10:26:58Z</time>
      </trkpt>
      <trkpt lat="45.80034" lon="5.30352">
        <ele>219.5</ele>
        <time>2015-11-15T10:27:00Z</time>
      </trkpt>
      <trkpt lat="45.80041" lon="5.30346">
        <ele>219.3</ele>
        <time>2015-11-15T10:27:02Z</time>
      </trkpt>
      <trkpt lat="45.80048" lon="5.3034">
        <ele>218.8</ele>
        <time>2015-11-15T10:27:04Z</time>
      </trkpt>
      <trkpt lat="45.80055" lon="5.30334">
        <ele>218</ele>
        <time>2015-11-15T10:27:06Z</time>
      </trkpt>
      <trkpt lat="45.80062" lon="5.30328">
        <ele>217.4</ele>
        <time>2015-11-15T10:27:08Z</time>
      </trkpt>
      <trkpt lat="45.80068" lon="5.30322">
        <ele>217.1</ele>
        <time>2015-11-15T10:27:10Z</time>
      </trkpt>
      <trkpt lat="45.80073" lon="5.30316">
        <ele>216.8</ele>
        <time>2015-11-15T10:27:12Z</time>
      </trkpt>
      <trkpt lat="45.80075" lon="5.30309">
        <ele>216.7</ele>
        <time>2015-11-15T10:27:14Z</time>
      </trkpt>
      <trkpt lat="45.80073" lon="5.30301">
        <ele>216.5</ele>
        <time>2015-11-15T10:27:16Z</time>
      </trkpt>
      <trkpt lat="45.8007" lon="5.30292">
        <ele>216.3</ele>
        <time>2015-11-15T10:27:18Z</time>
      </trkpt>
      <trkpt lat="45.80066" lon="5.30282">
        <ele>216.1</ele>
        <time>2015-11-15T10:27:20Z</time>
      </trkpt>
      <trkpt lat="45.80062" lon="5.30271">
        <ele>216</ele>
        <time>2015-11-15T10:27:22Z</time>
      </trkpt>
      <trkpt lat="45.80058" lon="5.30261">
        <ele>215.9</ele>
        <time>2015-11-15T10:27:24Z</time>
      </trkpt>
      <trkpt lat="45.80053" lon="5.30249">
        <ele>215.8</ele>
        <time>2015-11-15T10:27:26Z</time>
      </trkpt>
      <trkpt lat="45.80049" lon="5.30238">
        <ele>215.9</ele>
        <time>2015-11-15T10:27:28Z</time>
      </trkpt>
      <trkpt lat="45.80044" lon="5.30227">
        <ele>216</ele>
        <time>2015-11-15T10:27:30Z</time>
      </trkpt>
      <trkpt lat="45.80039" lon="5.30218">
        <ele>216.1</ele>
        <time>2015-11-15T10:27:32Z</time>
      </trkpt>
      <trkpt lat="45.80035" lon="5.3021">
        <ele>216.3</ele>
        <time>2015-11-15T10:27:34Z</time>
      </trkpt>
      <trkpt lat="45.80033" lon="5.30204">
        <ele>216.5</ele>
        <time>2015-11-15T10:27:36Z</time>
      </trkpt>
      <trkpt lat="45.80029" lon="5.30197">
        <ele>216.7</ele>
        <time>2015-11-15T10:27:38Z</time>
      </trkpt>
      <trkpt lat="45.80022" lon="5.30195">
        <ele>217</ele>
        <time>2015-11-15T10:27:40Z</time>
      </trkpt>
      <trkpt lat="45.80014" lon="5.30192">
        <ele>216.9</ele>
        <time>2015-11-15T10:27:42Z</time>
      </trkpt>
      <trkpt lat="45.80006" lon="5.3019">
        <ele>216.9</ele>
        <time>2015-11-15T10:27:44Z</time>
      </trkpt>
      <trkpt lat="45.79998" lon="5.30187">
        <ele>216.8</ele>
        <time>2015-11-15T10:27:46Z</time>
      </trkpt>
      <trkpt lat="45.7999" lon="5.30184">
        <ele>216.8</ele>
        <time>2015-11-15T10:27:48Z</time>
      </trkpt>
      <trkpt lat="45.79983" lon="5.30181">
        <ele>216.7</ele>
        <time>2015-11-15T10:27:50Z</time>
      </trkpt>
      <trkpt lat="45.79975" lon="5.30179">
        <ele>216.7</ele>
        <time>2015-11-15T10:27:52Z</time>
      </trkpt>
      <trkpt lat="45.79967" lon="5.30175">
        <ele>216.7</ele>
        <time>2015-11-15T10:27:54Z</time>
      </trkpt>
      <trkpt lat="45.79958" lon="5.30171">
        <ele>216.6</ele>
        <time>2015-11-15T10:27:56Z</time>
      </trkpt>
      <trkpt lat="45.7995" lon="5.30167">
        <ele>216.6</ele>
        <time>2015-11-15T10:27:58Z</time>
      </trkpt>
      <trkpt lat="45.79942" lon="5.30162">
        <ele>216.5</ele>
        <time>2015-11-15T10:28:00Z</time>
      </trkpt>
      <trkpt lat="45.79932" lon="5.30157">
        <ele>216.5</ele>
        <time>2015-11-15T10:28:02Z</time>
      </trkpt>
      <trkpt lat="45.79924" lon="5.30151">
        <ele>216.4</ele>
        <time>2015-11-15T10:28:04Z</time>
      </trkpt>
      <trkpt lat="45.79917" lon="5.30144">
        <ele>216.4</ele>
        <time>2015-11-15T10:28:06Z</time>
      </trkpt>
      <trkpt lat="45.7991" lon="5.30138">
        <ele>216.4</ele>
        <time>2015-11-15T10:28:08Z</time>
      </trkpt>
      <trkpt lat="45.79903" lon="5.30131">
        <ele>216.3</ele>
        <time>2015-11-15T10:28:10Z</time>
      </trkpt>
      <trkpt lat="45.79898" lon="5.30124">
        <ele>216.3</ele>
        <time>2015-11-15T10:28:12Z</time>
      </trkpt>
      <trkpt lat="45.79894" lon="5.30118">
        <ele>216.3</ele>
        <time>2015-11-15T10:28:14Z</time>
      </trkpt>
      <trkpt lat="45.79891" lon="5.3011">
        <ele>216.2</ele>
        <time>2015-11-15T10:28:16Z</time>
      </trkpt>
      <trkpt lat="45.79888" lon="5.30103">
        <ele>216.2</ele>
        <time>2015-11-15T10:28:18Z</time>
      </trkpt>
      <trkpt lat="45.79886" lon="5.30096">
        <ele>216.2</ele>
        <time>2015-11-15T10:28:20Z</time>
      </trkpt>
      <trkpt lat="45.79882" lon="5.30091">
        <ele>216.2</ele>
        <time>2015-11-15T10:28:22Z</time>
      </trkpt>
      <trkpt lat="45.79881" lon="5.30088">
        <ele>216.1</ele>
        <time>2015-11-15T10:28:24Z</time>
      </trkpt>
    </trkseg>
  </trk>
</gpx>